<?xml version="1.0" encoding="UTF-8" standalone="no" ?>
<gpx xmlns="http://www.topografix.com/GPX/1/1" xmlns:xsi="http://www.w3.org/2001/XMLSchema-instance" xsi:schemaLocation="http://www.topografix.com/GPX/1/1 http://www.topografix.com/GPX/1/1/gpx.xsd" version="1.1" creator="VisuGPX - https://www.visugpx.com">
  <metadata>
    <name>SE-N-Pont St Martin Le Bignon Chateau Thébaud St Fiacre Basse Goulaine Rezé</name>
    <desc><![CDATA[SE-N-Pont St Martin Le Bignon Chateau Thébaud St Fiacre Basse Goulaine Rezé]]></desc>
  </metadata>
  <trk>
    <name><![CDATA[2020-09-19 10:15 +02:00]]></name>
    <trkseg>
      <trkpt lat="47.16777" lon="-1.62656">
        <ele>80</ele>
        <time>2020-09-19T08:15:48.000Z</time>
      </trkpt>
      <trkpt lat="47.16786" lon="-1.62658">
        <ele>77</ele>
        <time>2020-09-19T08:16:36.000Z</time>
      </trkpt>
      <trkpt lat="47.16793" lon="-1.62649">
        <ele>74</ele>
        <time>2020-09-19T08:16:39.000Z</time>
      </trkpt>
      <trkpt lat="47.16799" lon="-1.62637">
        <ele>74</ele>
        <time>2020-09-19T08:16:41.000Z</time>
      </trkpt>
      <trkpt lat="47.16806" lon="-1.62626">
        <ele>73</ele>
        <time>2020-09-19T08:16:43.000Z</time>
      </trkpt>
      <trkpt lat="47.16814" lon="-1.62613">
        <ele>72</ele>
        <time>2020-09-19T08:16:45.000Z</time>
      </trkpt>
      <trkpt lat="47.16822" lon="-1.626">
        <ele>72</ele>
        <time>2020-09-19T08:16:47.000Z</time>
      </trkpt>
      <trkpt lat="47.16829" lon="-1.62587">
        <ele>72</ele>
        <time>2020-09-19T08:16:49.000Z</time>
      </trkpt>
      <trkpt lat="47.1683" lon="-1.6257">
        <ele>72</ele>
        <time>2020-09-19T08:16:51.000Z</time>
      </trkpt>
      <trkpt lat="47.16823" lon="-1.62558">
        <ele>72</ele>
        <time>2020-09-19T08:16:53.000Z</time>
      </trkpt>
      <trkpt lat="47.16812" lon="-1.6255">
        <ele>71</ele>
        <time>2020-09-19T08:16:55.000Z</time>
      </trkpt>
      <trkpt lat="47.168" lon="-1.62544">
        <ele>71</ele>
        <time>2020-09-19T08:16:57.000Z</time>
      </trkpt>
      <trkpt lat="47.16788" lon="-1.62537">
        <ele>71</ele>
        <time>2020-09-19T08:16:59.000Z</time>
      </trkpt>
      <trkpt lat="47.16777" lon="-1.6253">
        <ele>70</ele>
        <time>2020-09-19T08:17:01.000Z</time>
      </trkpt>
      <trkpt lat="47.16765" lon="-1.62522">
        <ele>71</ele>
        <time>2020-09-19T08:17:03.000Z</time>
      </trkpt>
      <trkpt lat="47.16754" lon="-1.62515">
        <ele>70</ele>
        <time>2020-09-19T08:17:05.000Z</time>
      </trkpt>
      <trkpt lat="47.16742" lon="-1.6251">
        <ele>69</ele>
        <time>2020-09-19T08:17:07.000Z</time>
      </trkpt>
      <trkpt lat="47.16731" lon="-1.62504">
        <ele>68</ele>
        <time>2020-09-19T08:17:09.000Z</time>
      </trkpt>
      <trkpt lat="47.16721" lon="-1.62499">
        <ele>68</ele>
        <time>2020-09-19T08:17:11.000Z</time>
      </trkpt>
      <trkpt lat="47.16714" lon="-1.62489">
        <ele>68</ele>
        <time>2020-09-19T08:17:13.000Z</time>
      </trkpt>
      <trkpt lat="47.16714" lon="-1.62472">
        <ele>67</ele>
        <time>2020-09-19T08:17:15.000Z</time>
      </trkpt>
      <trkpt lat="47.16716" lon="-1.62454">
        <ele>67</ele>
        <time>2020-09-19T08:17:17.000Z</time>
      </trkpt>
      <trkpt lat="47.16719" lon="-1.62438">
        <ele>67</ele>
        <time>2020-09-19T08:17:19.000Z</time>
      </trkpt>
      <trkpt lat="47.16723" lon="-1.62423">
        <ele>67</ele>
        <time>2020-09-19T08:17:21.000Z</time>
      </trkpt>
      <trkpt lat="47.16727" lon="-1.6241">
        <ele>67</ele>
        <time>2020-09-19T08:17:23.000Z</time>
      </trkpt>
      <trkpt lat="47.16718" lon="-1.62394">
        <ele>66</ele>
        <time>2020-09-19T08:17:26.000Z</time>
      </trkpt>
      <trkpt lat="47.1671" lon="-1.62381">
        <ele>66</ele>
        <time>2020-09-19T08:17:28.000Z</time>
      </trkpt>
      <trkpt lat="47.16701" lon="-1.62369">
        <ele>66</ele>
        <time>2020-09-19T08:17:30.000Z</time>
      </trkpt>
      <trkpt lat="47.1669" lon="-1.6236">
        <ele>66</ele>
        <time>2020-09-19T08:17:32.000Z</time>
      </trkpt>
      <trkpt lat="47.16678" lon="-1.62358">
        <ele>66</ele>
        <time>2020-09-19T08:17:34.000Z</time>
      </trkpt>
      <trkpt lat="47.16666" lon="-1.6236">
        <ele>65</ele>
        <time>2020-09-19T08:17:36.000Z</time>
      </trkpt>
      <trkpt lat="47.16655" lon="-1.62366">
        <ele>64</ele>
        <time>2020-09-19T08:17:38.000Z</time>
      </trkpt>
      <trkpt lat="47.16644" lon="-1.62375">
        <ele>64</ele>
        <time>2020-09-19T08:17:40.000Z</time>
      </trkpt>
      <trkpt lat="47.16635" lon="-1.62386">
        <ele>64</ele>
        <time>2020-09-19T08:17:42.000Z</time>
      </trkpt>
      <trkpt lat="47.16627" lon="-1.62399">
        <ele>64</ele>
        <time>2020-09-19T08:17:44.000Z</time>
      </trkpt>
      <trkpt lat="47.16619" lon="-1.62413">
        <ele>65</ele>
        <time>2020-09-19T08:17:46.000Z</time>
      </trkpt>
      <trkpt lat="47.16612" lon="-1.62428">
        <ele>66</ele>
        <time>2020-09-19T08:17:48.000Z</time>
      </trkpt>
      <trkpt lat="47.16604" lon="-1.62443">
        <ele>66</ele>
        <time>2020-09-19T08:17:50.000Z</time>
      </trkpt>
      <trkpt lat="47.16598" lon="-1.62458">
        <ele>68</ele>
        <time>2020-09-19T08:17:52.000Z</time>
      </trkpt>
      <trkpt lat="47.16591" lon="-1.62474">
        <ele>68</ele>
        <time>2020-09-19T08:17:54.000Z</time>
      </trkpt>
      <trkpt lat="47.16584" lon="-1.62489">
        <ele>69</ele>
        <time>2020-09-19T08:17:56.000Z</time>
      </trkpt>
      <trkpt lat="47.16578" lon="-1.62503">
        <ele>69</ele>
        <time>2020-09-19T08:17:58.000Z</time>
      </trkpt>
      <trkpt lat="47.16572" lon="-1.62518">
        <ele>70</ele>
        <time>2020-09-19T08:18:00.000Z</time>
      </trkpt>
      <trkpt lat="47.16566" lon="-1.62532">
        <ele>71</ele>
        <time>2020-09-19T08:18:02.000Z</time>
      </trkpt>
      <trkpt lat="47.16558" lon="-1.62545">
        <ele>71</ele>
        <time>2020-09-19T08:18:04.000Z</time>
      </trkpt>
      <trkpt lat="47.16549" lon="-1.62556">
        <ele>72</ele>
        <time>2020-09-19T08:18:06.000Z</time>
      </trkpt>
      <trkpt lat="47.16538" lon="-1.62564">
        <ele>72</ele>
        <time>2020-09-19T08:18:08.000Z</time>
      </trkpt>
      <trkpt lat="47.16526" lon="-1.62565">
        <ele>72</ele>
        <time>2020-09-19T08:18:10.000Z</time>
      </trkpt>
      <trkpt lat="47.16514" lon="-1.62562">
        <ele>73</ele>
        <time>2020-09-19T08:18:12.000Z</time>
      </trkpt>
      <trkpt lat="47.16502" lon="-1.62557">
        <ele>73</ele>
        <time>2020-09-19T08:18:14.000Z</time>
      </trkpt>
      <trkpt lat="47.1649" lon="-1.62554">
        <ele>73</ele>
        <time>2020-09-19T08:18:16.000Z</time>
      </trkpt>
      <trkpt lat="47.16479" lon="-1.6255">
        <ele>73</ele>
        <time>2020-09-19T08:18:18.000Z</time>
      </trkpt>
      <trkpt lat="47.16467" lon="-1.62547">
        <ele>74</ele>
        <time>2020-09-19T08:18:20.000Z</time>
      </trkpt>
      <trkpt lat="47.16455" lon="-1.62543">
        <ele>74</ele>
        <time>2020-09-19T08:18:22.000Z</time>
      </trkpt>
      <trkpt lat="47.16443" lon="-1.62541">
        <ele>74</ele>
        <time>2020-09-19T08:18:24.000Z</time>
      </trkpt>
      <trkpt lat="47.16432" lon="-1.62545">
        <ele>74</ele>
        <time>2020-09-19T08:18:26.000Z</time>
      </trkpt>
      <trkpt lat="47.16422" lon="-1.62555">
        <ele>74</ele>
        <time>2020-09-19T08:18:28.000Z</time>
      </trkpt>
      <trkpt lat="47.16412" lon="-1.62565">
        <ele>74</ele>
        <time>2020-09-19T08:18:30.000Z</time>
      </trkpt>
      <trkpt lat="47.16401" lon="-1.62574">
        <ele>74</ele>
        <time>2020-09-19T08:18:32.000Z</time>
      </trkpt>
      <trkpt lat="47.16389" lon="-1.62581">
        <ele>74</ele>
        <time>2020-09-19T08:18:34.000Z</time>
      </trkpt>
      <trkpt lat="47.16376" lon="-1.62584">
        <ele>74</ele>
        <time>2020-09-19T08:18:36.000Z</time>
      </trkpt>
      <trkpt lat="47.16363" lon="-1.62583">
        <ele>74</ele>
        <time>2020-09-19T08:18:38.000Z</time>
      </trkpt>
      <trkpt lat="47.1635" lon="-1.62581">
        <ele>73</ele>
        <time>2020-09-19T08:18:40.000Z</time>
      </trkpt>
      <trkpt lat="47.16338" lon="-1.62576">
        <ele>73</ele>
        <time>2020-09-19T08:18:42.000Z</time>
      </trkpt>
      <trkpt lat="47.16325" lon="-1.62571">
        <ele>73</ele>
        <time>2020-09-19T08:18:44.000Z</time>
      </trkpt>
      <trkpt lat="47.16313" lon="-1.62571">
        <ele>73</ele>
        <time>2020-09-19T08:18:46.000Z</time>
      </trkpt>
      <trkpt lat="47.16302" lon="-1.62577">
        <ele>74</ele>
        <time>2020-09-19T08:18:48.000Z</time>
      </trkpt>
      <trkpt lat="47.16293" lon="-1.6259">
        <ele>74</ele>
        <time>2020-09-19T08:18:50.000Z</time>
      </trkpt>
      <trkpt lat="47.16288" lon="-1.62605">
        <ele>74</ele>
        <time>2020-09-19T08:18:52.000Z</time>
      </trkpt>
      <trkpt lat="47.16284" lon="-1.62623">
        <ele>74</ele>
        <time>2020-09-19T08:18:54.000Z</time>
      </trkpt>
      <trkpt lat="47.16281" lon="-1.6264">
        <ele>74</ele>
        <time>2020-09-19T08:18:56.000Z</time>
      </trkpt>
      <trkpt lat="47.16279" lon="-1.62658">
        <ele>74</ele>
        <time>2020-09-19T08:18:58.000Z</time>
      </trkpt>
      <trkpt lat="47.16278" lon="-1.62674">
        <ele>74</ele>
        <time>2020-09-19T08:19:00.000Z</time>
      </trkpt>
      <trkpt lat="47.16279" lon="-1.62688">
        <ele>75</ele>
        <time>2020-09-19T08:19:03.000Z</time>
      </trkpt>
      <trkpt lat="47.16281" lon="-1.62702">
        <ele>75</ele>
        <time>2020-09-19T08:19:11.000Z</time>
      </trkpt>
      <trkpt lat="47.16283" lon="-1.62715">
        <ele>75</ele>
        <time>2020-09-19T08:19:14.000Z</time>
      </trkpt>
      <trkpt lat="47.16283" lon="-1.62731">
        <ele>75</ele>
        <time>2020-09-19T08:19:17.000Z</time>
      </trkpt>
      <trkpt lat="47.16269" lon="-1.62735">
        <ele>75</ele>
        <time>2020-09-19T08:19:20.000Z</time>
      </trkpt>
      <trkpt lat="47.16257" lon="-1.62741">
        <ele>75</ele>
        <time>2020-09-19T08:19:22.000Z</time>
      </trkpt>
      <trkpt lat="47.16245" lon="-1.62749">
        <ele>74</ele>
        <time>2020-09-19T08:19:24.000Z</time>
      </trkpt>
      <trkpt lat="47.16231" lon="-1.62755">
        <ele>73</ele>
        <time>2020-09-19T08:19:26.000Z</time>
      </trkpt>
      <trkpt lat="47.16216" lon="-1.62762">
        <ele>73</ele>
        <time>2020-09-19T08:19:28.000Z</time>
      </trkpt>
      <trkpt lat="47.16201" lon="-1.62771">
        <ele>73</ele>
        <time>2020-09-19T08:19:30.000Z</time>
      </trkpt>
      <trkpt lat="47.16187" lon="-1.62784">
        <ele>72</ele>
        <time>2020-09-19T08:19:32.000Z</time>
      </trkpt>
      <trkpt lat="47.16173" lon="-1.62797">
        <ele>72</ele>
        <time>2020-09-19T08:19:34.000Z</time>
      </trkpt>
      <trkpt lat="47.16158" lon="-1.62809">
        <ele>71</ele>
        <time>2020-09-19T08:19:36.000Z</time>
      </trkpt>
      <trkpt lat="47.16144" lon="-1.62823">
        <ele>70</ele>
        <time>2020-09-19T08:19:38.000Z</time>
      </trkpt>
      <trkpt lat="47.16129" lon="-1.62836">
        <ele>70</ele>
        <time>2020-09-19T08:19:40.000Z</time>
      </trkpt>
      <trkpt lat="47.16114" lon="-1.62849">
        <ele>69</ele>
        <time>2020-09-19T08:19:42.000Z</time>
      </trkpt>
      <trkpt lat="47.16099" lon="-1.62862">
        <ele>69</ele>
        <time>2020-09-19T08:19:44.000Z</time>
      </trkpt>
      <trkpt lat="47.16084" lon="-1.62875">
        <ele>68</ele>
        <time>2020-09-19T08:19:46.000Z</time>
      </trkpt>
      <trkpt lat="47.16069" lon="-1.62888">
        <ele>68</ele>
        <time>2020-09-19T08:19:48.000Z</time>
      </trkpt>
      <trkpt lat="47.16054" lon="-1.62901">
        <ele>68</ele>
        <time>2020-09-19T08:19:50.000Z</time>
      </trkpt>
      <trkpt lat="47.1604" lon="-1.62915">
        <ele>67</ele>
        <time>2020-09-19T08:19:52.000Z</time>
      </trkpt>
      <trkpt lat="47.16025" lon="-1.62927">
        <ele>66</ele>
        <time>2020-09-19T08:19:54.000Z</time>
      </trkpt>
      <trkpt lat="47.16011" lon="-1.6294">
        <ele>66</ele>
        <time>2020-09-19T08:19:56.000Z</time>
      </trkpt>
      <trkpt lat="47.15995" lon="-1.62953">
        <ele>65</ele>
        <time>2020-09-19T08:19:58.000Z</time>
      </trkpt>
      <trkpt lat="47.15987" lon="-1.62961">
        <ele>65</ele>
        <time>2020-09-19T08:19:59.000Z</time>
      </trkpt>
      <trkpt lat="47.15973" lon="-1.62974">
        <ele>64</ele>
        <time>2020-09-19T08:20:01.000Z</time>
      </trkpt>
      <trkpt lat="47.15965" lon="-1.62982">
        <ele>64</ele>
        <time>2020-09-19T08:20:02.000Z</time>
      </trkpt>
      <trkpt lat="47.15949" lon="-1.62995">
        <ele>63</ele>
        <time>2020-09-19T08:20:04.000Z</time>
      </trkpt>
      <trkpt lat="47.15941" lon="-1.63002">
        <ele>62</ele>
        <time>2020-09-19T08:20:05.000Z</time>
      </trkpt>
      <trkpt lat="47.15933" lon="-1.63009">
        <ele>62</ele>
        <time>2020-09-19T08:20:06.000Z</time>
      </trkpt>
      <trkpt lat="47.15917" lon="-1.63022">
        <ele>61</ele>
        <time>2020-09-19T08:20:08.000Z</time>
      </trkpt>
      <trkpt lat="47.15909" lon="-1.63029">
        <ele>61</ele>
        <time>2020-09-19T08:20:09.000Z</time>
      </trkpt>
      <trkpt lat="47.15902" lon="-1.63036">
        <ele>61</ele>
        <time>2020-09-19T08:20:10.000Z</time>
      </trkpt>
      <trkpt lat="47.15887" lon="-1.6305">
        <ele>61</ele>
        <time>2020-09-19T08:20:12.000Z</time>
      </trkpt>
      <trkpt lat="47.15872" lon="-1.63063">
        <ele>62</ele>
        <time>2020-09-19T08:20:14.000Z</time>
      </trkpt>
      <trkpt lat="47.15858" lon="-1.63074">
        <ele>62</ele>
        <time>2020-09-19T08:20:16.000Z</time>
      </trkpt>
      <trkpt lat="47.15845" lon="-1.63086">
        <ele>62</ele>
        <time>2020-09-19T08:20:18.000Z</time>
      </trkpt>
      <trkpt lat="47.15832" lon="-1.63098">
        <ele>63</ele>
        <time>2020-09-19T08:20:20.000Z</time>
      </trkpt>
      <trkpt lat="47.15819" lon="-1.63109">
        <ele>64</ele>
        <time>2020-09-19T08:20:22.000Z</time>
      </trkpt>
      <trkpt lat="47.15806" lon="-1.6312">
        <ele>64</ele>
        <time>2020-09-19T08:20:24.000Z</time>
      </trkpt>
      <trkpt lat="47.15794" lon="-1.63131">
        <ele>65</ele>
        <time>2020-09-19T08:20:26.000Z</time>
      </trkpt>
      <trkpt lat="47.15782" lon="-1.63142">
        <ele>66</ele>
        <time>2020-09-19T08:20:28.000Z</time>
      </trkpt>
      <trkpt lat="47.15769" lon="-1.63153">
        <ele>66</ele>
        <time>2020-09-19T08:20:30.000Z</time>
      </trkpt>
      <trkpt lat="47.15757" lon="-1.63165">
        <ele>66</ele>
        <time>2020-09-19T08:20:32.000Z</time>
      </trkpt>
      <trkpt lat="47.15744" lon="-1.63177">
        <ele>67</ele>
        <time>2020-09-19T08:20:34.000Z</time>
      </trkpt>
      <trkpt lat="47.15731" lon="-1.63188">
        <ele>67</ele>
        <time>2020-09-19T08:20:36.000Z</time>
      </trkpt>
      <trkpt lat="47.15718" lon="-1.632">
        <ele>67</ele>
        <time>2020-09-19T08:20:38.000Z</time>
      </trkpt>
      <trkpt lat="47.15704" lon="-1.63211">
        <ele>66</ele>
        <time>2020-09-19T08:20:40.000Z</time>
      </trkpt>
      <trkpt lat="47.15691" lon="-1.63222">
        <ele>67</ele>
        <time>2020-09-19T08:20:42.000Z</time>
      </trkpt>
      <trkpt lat="47.15678" lon="-1.63234">
        <ele>67</ele>
        <time>2020-09-19T08:20:44.000Z</time>
      </trkpt>
      <trkpt lat="47.15665" lon="-1.63246">
        <ele>67</ele>
        <time>2020-09-19T08:20:46.000Z</time>
      </trkpt>
      <trkpt lat="47.15652" lon="-1.63258">
        <ele>67</ele>
        <time>2020-09-19T08:20:48.000Z</time>
      </trkpt>
      <trkpt lat="47.15639" lon="-1.63269">
        <ele>66</ele>
        <time>2020-09-19T08:20:50.000Z</time>
      </trkpt>
      <trkpt lat="47.15626" lon="-1.63281">
        <ele>66</ele>
        <time>2020-09-19T08:20:52.000Z</time>
      </trkpt>
      <trkpt lat="47.15612" lon="-1.63293">
        <ele>66</ele>
        <time>2020-09-19T08:20:54.000Z</time>
      </trkpt>
      <trkpt lat="47.15599" lon="-1.63304">
        <ele>67</ele>
        <time>2020-09-19T08:20:56.000Z</time>
      </trkpt>
      <trkpt lat="47.15586" lon="-1.63316">
        <ele>68</ele>
        <time>2020-09-19T08:20:58.000Z</time>
      </trkpt>
      <trkpt lat="47.15574" lon="-1.63326">
        <ele>69</ele>
        <time>2020-09-19T08:21:00.000Z</time>
      </trkpt>
      <trkpt lat="47.15562" lon="-1.63336">
        <ele>69</ele>
        <time>2020-09-19T08:21:02.000Z</time>
      </trkpt>
      <trkpt lat="47.1555" lon="-1.63348">
        <ele>69</ele>
        <time>2020-09-19T08:21:04.000Z</time>
      </trkpt>
      <trkpt lat="47.15539" lon="-1.63358">
        <ele>69</ele>
        <time>2020-09-19T08:21:06.000Z</time>
      </trkpt>
      <trkpt lat="47.15527" lon="-1.63369">
        <ele>70</ele>
        <time>2020-09-19T08:21:08.000Z</time>
      </trkpt>
      <trkpt lat="47.15515" lon="-1.6338">
        <ele>70</ele>
        <time>2020-09-19T08:21:10.000Z</time>
      </trkpt>
      <trkpt lat="47.15504" lon="-1.63391">
        <ele>71</ele>
        <time>2020-09-19T08:21:12.000Z</time>
      </trkpt>
      <trkpt lat="47.15492" lon="-1.63401">
        <ele>71</ele>
        <time>2020-09-19T08:21:14.000Z</time>
      </trkpt>
      <trkpt lat="47.15479" lon="-1.63412">
        <ele>71</ele>
        <time>2020-09-19T08:21:16.000Z</time>
      </trkpt>
      <trkpt lat="47.15467" lon="-1.63424">
        <ele>72</ele>
        <time>2020-09-19T08:21:18.000Z</time>
      </trkpt>
      <trkpt lat="47.15455" lon="-1.63435">
        <ele>72</ele>
        <time>2020-09-19T08:21:20.000Z</time>
      </trkpt>
      <trkpt lat="47.15443" lon="-1.63446">
        <ele>72</ele>
        <time>2020-09-19T08:21:22.000Z</time>
      </trkpt>
      <trkpt lat="47.15431" lon="-1.63457">
        <ele>72</ele>
        <time>2020-09-19T08:21:24.000Z</time>
      </trkpt>
      <trkpt lat="47.15418" lon="-1.63469">
        <ele>72</ele>
        <time>2020-09-19T08:21:26.000Z</time>
      </trkpt>
      <trkpt lat="47.15407" lon="-1.63482">
        <ele>72</ele>
        <time>2020-09-19T08:21:28.000Z</time>
      </trkpt>
      <trkpt lat="47.15397" lon="-1.63495">
        <ele>72</ele>
        <time>2020-09-19T08:21:30.000Z</time>
      </trkpt>
      <trkpt lat="47.15387" lon="-1.63506">
        <ele>73</ele>
        <time>2020-09-19T08:21:32.000Z</time>
      </trkpt>
      <trkpt lat="47.15375" lon="-1.63512">
        <ele>72</ele>
        <time>2020-09-19T08:21:34.000Z</time>
      </trkpt>
      <trkpt lat="47.15363" lon="-1.6352">
        <ele>73</ele>
        <time>2020-09-19T08:21:36.000Z</time>
      </trkpt>
      <trkpt lat="47.15352" lon="-1.63532">
        <ele>73</ele>
        <time>2020-09-19T08:21:38.000Z</time>
      </trkpt>
      <trkpt lat="47.1534" lon="-1.63543">
        <ele>73</ele>
        <time>2020-09-19T08:21:40.000Z</time>
      </trkpt>
      <trkpt lat="47.15327" lon="-1.63554">
        <ele>73</ele>
        <time>2020-09-19T08:21:42.000Z</time>
      </trkpt>
      <trkpt lat="47.15314" lon="-1.63562">
        <ele>73</ele>
        <time>2020-09-19T08:21:44.000Z</time>
      </trkpt>
      <trkpt lat="47.15302" lon="-1.63572">
        <ele>73</ele>
        <time>2020-09-19T08:21:46.000Z</time>
      </trkpt>
      <trkpt lat="47.15289" lon="-1.63584">
        <ele>73</ele>
        <time>2020-09-19T08:21:48.000Z</time>
      </trkpt>
      <trkpt lat="47.15276" lon="-1.63595">
        <ele>73</ele>
        <time>2020-09-19T08:21:50.000Z</time>
      </trkpt>
      <trkpt lat="47.15262" lon="-1.63606">
        <ele>73</ele>
        <time>2020-09-19T08:21:52.000Z</time>
      </trkpt>
      <trkpt lat="47.15249" lon="-1.63617">
        <ele>73</ele>
        <time>2020-09-19T08:21:54.000Z</time>
      </trkpt>
      <trkpt lat="47.15235" lon="-1.63629">
        <ele>73</ele>
        <time>2020-09-19T08:21:56.000Z</time>
      </trkpt>
      <trkpt lat="47.15222" lon="-1.6364">
        <ele>73</ele>
        <time>2020-09-19T08:21:58.000Z</time>
      </trkpt>
      <trkpt lat="47.15209" lon="-1.63652">
        <ele>73</ele>
        <time>2020-09-19T08:22:00.000Z</time>
      </trkpt>
      <trkpt lat="47.15195" lon="-1.63663">
        <ele>73</ele>
        <time>2020-09-19T08:22:02.000Z</time>
      </trkpt>
      <trkpt lat="47.15182" lon="-1.63675">
        <ele>73</ele>
        <time>2020-09-19T08:22:04.000Z</time>
      </trkpt>
      <trkpt lat="47.15168" lon="-1.63687">
        <ele>73</ele>
        <time>2020-09-19T08:22:06.000Z</time>
      </trkpt>
      <trkpt lat="47.15155" lon="-1.63699">
        <ele>73</ele>
        <time>2020-09-19T08:22:08.000Z</time>
      </trkpt>
      <trkpt lat="47.15142" lon="-1.63711">
        <ele>73</ele>
        <time>2020-09-19T08:22:10.000Z</time>
      </trkpt>
      <trkpt lat="47.15129" lon="-1.63724">
        <ele>73</ele>
        <time>2020-09-19T08:22:12.000Z</time>
      </trkpt>
      <trkpt lat="47.15116" lon="-1.63737">
        <ele>73</ele>
        <time>2020-09-19T08:22:14.000Z</time>
      </trkpt>
      <trkpt lat="47.15103" lon="-1.63751">
        <ele>73</ele>
        <time>2020-09-19T08:22:16.000Z</time>
      </trkpt>
      <trkpt lat="47.15091" lon="-1.63764">
        <ele>73</ele>
        <time>2020-09-19T08:22:18.000Z</time>
      </trkpt>
      <trkpt lat="47.15079" lon="-1.63779">
        <ele>73</ele>
        <time>2020-09-19T08:22:20.000Z</time>
      </trkpt>
      <trkpt lat="47.15068" lon="-1.63793">
        <ele>72</ele>
        <time>2020-09-19T08:22:22.000Z</time>
      </trkpt>
      <trkpt lat="47.15056" lon="-1.63808">
        <ele>73</ele>
        <time>2020-09-19T08:22:24.000Z</time>
      </trkpt>
      <trkpt lat="47.15045" lon="-1.63823">
        <ele>73</ele>
        <time>2020-09-19T08:22:26.000Z</time>
      </trkpt>
      <trkpt lat="47.15034" lon="-1.63838">
        <ele>73</ele>
        <time>2020-09-19T08:22:28.000Z</time>
      </trkpt>
      <trkpt lat="47.15023" lon="-1.63853">
        <ele>73</ele>
        <time>2020-09-19T08:22:30.000Z</time>
      </trkpt>
      <trkpt lat="47.15013" lon="-1.63869">
        <ele>74</ele>
        <time>2020-09-19T08:22:32.000Z</time>
      </trkpt>
      <trkpt lat="47.15003" lon="-1.63885">
        <ele>74</ele>
        <time>2020-09-19T08:22:34.000Z</time>
      </trkpt>
      <trkpt lat="47.14993" lon="-1.639">
        <ele>73</ele>
        <time>2020-09-19T08:22:36.000Z</time>
      </trkpt>
      <trkpt lat="47.14983" lon="-1.63917">
        <ele>73</ele>
        <time>2020-09-19T08:22:38.000Z</time>
      </trkpt>
      <trkpt lat="47.14973" lon="-1.63932">
        <ele>73</ele>
        <time>2020-09-19T08:22:40.000Z</time>
      </trkpt>
      <trkpt lat="47.14964" lon="-1.63947">
        <ele>73</ele>
        <time>2020-09-19T08:22:42.000Z</time>
      </trkpt>
      <trkpt lat="47.14954" lon="-1.63964">
        <ele>74</ele>
        <time>2020-09-19T08:22:44.000Z</time>
      </trkpt>
      <trkpt lat="47.14945" lon="-1.6398">
        <ele>73</ele>
        <time>2020-09-19T08:22:46.000Z</time>
      </trkpt>
      <trkpt lat="47.14935" lon="-1.63995">
        <ele>73</ele>
        <time>2020-09-19T08:22:48.000Z</time>
      </trkpt>
      <trkpt lat="47.14925" lon="-1.64011">
        <ele>73</ele>
        <time>2020-09-19T08:22:50.000Z</time>
      </trkpt>
      <trkpt lat="47.14916" lon="-1.64025">
        <ele>74</ele>
        <time>2020-09-19T08:22:52.000Z</time>
      </trkpt>
      <trkpt lat="47.14907" lon="-1.64039">
        <ele>73</ele>
        <time>2020-09-19T08:22:54.000Z</time>
      </trkpt>
      <trkpt lat="47.14894" lon="-1.64042">
        <ele>73</ele>
        <time>2020-09-19T08:22:56.000Z</time>
      </trkpt>
      <trkpt lat="47.14881" lon="-1.64031">
        <ele>73</ele>
        <time>2020-09-19T08:22:58.000Z</time>
      </trkpt>
      <trkpt lat="47.14872" lon="-1.64014">
        <ele>73</ele>
        <time>2020-09-19T08:23:00.000Z</time>
      </trkpt>
      <trkpt lat="47.14863" lon="-1.63999">
        <ele>73</ele>
        <time>2020-09-19T08:23:02.000Z</time>
      </trkpt>
      <trkpt lat="47.1485" lon="-1.63988">
        <ele>73</ele>
        <time>2020-09-19T08:23:04.000Z</time>
      </trkpt>
      <trkpt lat="47.14835" lon="-1.63985">
        <ele>72</ele>
        <time>2020-09-19T08:23:06.000Z</time>
      </trkpt>
      <trkpt lat="47.14821" lon="-1.63991">
        <ele>72</ele>
        <time>2020-09-19T08:23:08.000Z</time>
      </trkpt>
      <trkpt lat="47.14809" lon="-1.64004">
        <ele>71</ele>
        <time>2020-09-19T08:23:10.000Z</time>
      </trkpt>
      <trkpt lat="47.14796" lon="-1.64017">
        <ele>72</ele>
        <time>2020-09-19T08:23:12.000Z</time>
      </trkpt>
      <trkpt lat="47.14783" lon="-1.6403">
        <ele>72</ele>
        <time>2020-09-19T08:23:14.000Z</time>
      </trkpt>
      <trkpt lat="47.1477" lon="-1.64041">
        <ele>72</ele>
        <time>2020-09-19T08:23:16.000Z</time>
      </trkpt>
      <trkpt lat="47.14755" lon="-1.6405">
        <ele>72</ele>
        <time>2020-09-19T08:23:18.000Z</time>
      </trkpt>
      <trkpt lat="47.1474" lon="-1.64057">
        <ele>72</ele>
        <time>2020-09-19T08:23:20.000Z</time>
      </trkpt>
      <trkpt lat="47.14724" lon="-1.64063">
        <ele>72</ele>
        <time>2020-09-19T08:23:22.000Z</time>
      </trkpt>
      <trkpt lat="47.14709" lon="-1.64069">
        <ele>72</ele>
        <time>2020-09-19T08:23:24.000Z</time>
      </trkpt>
      <trkpt lat="47.14695" lon="-1.64075">
        <ele>72</ele>
        <time>2020-09-19T08:23:26.000Z</time>
      </trkpt>
      <trkpt lat="47.14681" lon="-1.64081">
        <ele>71</ele>
        <time>2020-09-19T08:23:28.000Z</time>
      </trkpt>
      <trkpt lat="47.14667" lon="-1.64088">
        <ele>71</ele>
        <time>2020-09-19T08:23:30.000Z</time>
      </trkpt>
      <trkpt lat="47.14652" lon="-1.64095">
        <ele>71</ele>
        <time>2020-09-19T08:23:32.000Z</time>
      </trkpt>
      <trkpt lat="47.14637" lon="-1.64103">
        <ele>70</ele>
        <time>2020-09-19T08:23:34.000Z</time>
      </trkpt>
      <trkpt lat="47.14621" lon="-1.64111">
        <ele>70</ele>
        <time>2020-09-19T08:23:36.000Z</time>
      </trkpt>
      <trkpt lat="47.14605" lon="-1.6412">
        <ele>71</ele>
        <time>2020-09-19T08:23:38.000Z</time>
      </trkpt>
      <trkpt lat="47.1459" lon="-1.64128">
        <ele>70</ele>
        <time>2020-09-19T08:23:40.000Z</time>
      </trkpt>
      <trkpt lat="47.14574" lon="-1.64137">
        <ele>70</ele>
        <time>2020-09-19T08:23:42.000Z</time>
      </trkpt>
      <trkpt lat="47.14559" lon="-1.64146">
        <ele>70</ele>
        <time>2020-09-19T08:23:44.000Z</time>
      </trkpt>
      <trkpt lat="47.14545" lon="-1.64155">
        <ele>70</ele>
        <time>2020-09-19T08:23:46.000Z</time>
      </trkpt>
      <trkpt lat="47.14531" lon="-1.64164">
        <ele>70</ele>
        <time>2020-09-19T08:23:48.000Z</time>
      </trkpt>
      <trkpt lat="47.14516" lon="-1.64175">
        <ele>70</ele>
        <time>2020-09-19T08:23:50.000Z</time>
      </trkpt>
      <trkpt lat="47.14501" lon="-1.64185">
        <ele>70</ele>
        <time>2020-09-19T08:23:52.000Z</time>
      </trkpt>
      <trkpt lat="47.14487" lon="-1.64195">
        <ele>70</ele>
        <time>2020-09-19T08:23:54.000Z</time>
      </trkpt>
      <trkpt lat="47.14472" lon="-1.64204">
        <ele>69</ele>
        <time>2020-09-19T08:23:56.000Z</time>
      </trkpt>
      <trkpt lat="47.14456" lon="-1.64211">
        <ele>69</ele>
        <time>2020-09-19T08:23:58.000Z</time>
      </trkpt>
      <trkpt lat="47.14439" lon="-1.64215">
        <ele>69</ele>
        <time>2020-09-19T08:24:00.000Z</time>
      </trkpt>
      <trkpt lat="47.14423" lon="-1.64217">
        <ele>69</ele>
        <time>2020-09-19T08:24:02.000Z</time>
      </trkpt>
      <trkpt lat="47.14407" lon="-1.64219">
        <ele>69</ele>
        <time>2020-09-19T08:24:04.000Z</time>
      </trkpt>
      <trkpt lat="47.14391" lon="-1.64221">
        <ele>69</ele>
        <time>2020-09-19T08:24:06.000Z</time>
      </trkpt>
      <trkpt lat="47.14378" lon="-1.64224">
        <ele>69</ele>
        <time>2020-09-19T08:24:08.000Z</time>
      </trkpt>
      <trkpt lat="47.14365" lon="-1.64226">
        <ele>69</ele>
        <time>2020-09-19T08:24:10.000Z</time>
      </trkpt>
      <trkpt lat="47.14351" lon="-1.64228">
        <ele>68</ele>
        <time>2020-09-19T08:24:12.000Z</time>
      </trkpt>
      <trkpt lat="47.14334" lon="-1.64229">
        <ele>68</ele>
        <time>2020-09-19T08:24:14.000Z</time>
      </trkpt>
      <trkpt lat="47.14325" lon="-1.64231">
        <ele>68</ele>
        <time>2020-09-19T08:24:15.000Z</time>
      </trkpt>
      <trkpt lat="47.14307" lon="-1.64234">
        <ele>68</ele>
        <time>2020-09-19T08:24:17.000Z</time>
      </trkpt>
      <trkpt lat="47.14291" lon="-1.64241">
        <ele>68</ele>
        <time>2020-09-19T08:24:19.000Z</time>
      </trkpt>
      <trkpt lat="47.14276" lon="-1.6425">
        <ele>67</ele>
        <time>2020-09-19T08:24:21.000Z</time>
      </trkpt>
      <trkpt lat="47.14262" lon="-1.6426">
        <ele>68</ele>
        <time>2020-09-19T08:24:23.000Z</time>
      </trkpt>
      <trkpt lat="47.14248" lon="-1.64272">
        <ele>67</ele>
        <time>2020-09-19T08:24:25.000Z</time>
      </trkpt>
      <trkpt lat="47.14232" lon="-1.64286">
        <ele>66</ele>
        <time>2020-09-19T08:24:27.000Z</time>
      </trkpt>
      <trkpt lat="47.14218" lon="-1.64299">
        <ele>66</ele>
        <time>2020-09-19T08:24:29.000Z</time>
      </trkpt>
      <trkpt lat="47.14205" lon="-1.64313">
        <ele>66</ele>
        <time>2020-09-19T08:24:31.000Z</time>
      </trkpt>
      <trkpt lat="47.14192" lon="-1.64328">
        <ele>65</ele>
        <time>2020-09-19T08:24:33.000Z</time>
      </trkpt>
      <trkpt lat="47.14178" lon="-1.64344">
        <ele>64</ele>
        <time>2020-09-19T08:24:35.000Z</time>
      </trkpt>
      <trkpt lat="47.14165" lon="-1.64358">
        <ele>64</ele>
        <time>2020-09-19T08:24:37.000Z</time>
      </trkpt>
      <trkpt lat="47.1415" lon="-1.6437">
        <ele>64</ele>
        <time>2020-09-19T08:24:39.000Z</time>
      </trkpt>
      <trkpt lat="47.14135" lon="-1.64381">
        <ele>63</ele>
        <time>2020-09-19T08:24:41.000Z</time>
      </trkpt>
      <trkpt lat="47.14119" lon="-1.64393">
        <ele>63</ele>
        <time>2020-09-19T08:24:43.000Z</time>
      </trkpt>
      <trkpt lat="47.14104" lon="-1.64405">
        <ele>62</ele>
        <time>2020-09-19T08:24:45.000Z</time>
      </trkpt>
      <trkpt lat="47.14089" lon="-1.64416">
        <ele>62</ele>
        <time>2020-09-19T08:24:47.000Z</time>
      </trkpt>
      <trkpt lat="47.14074" lon="-1.64428">
        <ele>62</ele>
        <time>2020-09-19T08:24:49.000Z</time>
      </trkpt>
      <trkpt lat="47.14059" lon="-1.6444">
        <ele>61</ele>
        <time>2020-09-19T08:24:51.000Z</time>
      </trkpt>
      <trkpt lat="47.14045" lon="-1.64451">
        <ele>61</ele>
        <time>2020-09-19T08:24:53.000Z</time>
      </trkpt>
      <trkpt lat="47.14031" lon="-1.64462">
        <ele>61</ele>
        <time>2020-09-19T08:24:55.000Z</time>
      </trkpt>
      <trkpt lat="47.14018" lon="-1.64473">
        <ele>62</ele>
        <time>2020-09-19T08:24:57.000Z</time>
      </trkpt>
      <trkpt lat="47.14005" lon="-1.64484">
        <ele>61</ele>
        <time>2020-09-19T08:24:59.000Z</time>
      </trkpt>
      <trkpt lat="47.13993" lon="-1.64496">
        <ele>61</ele>
        <time>2020-09-19T08:25:01.000Z</time>
      </trkpt>
      <trkpt lat="47.1398" lon="-1.64508">
        <ele>60</ele>
        <time>2020-09-19T08:25:03.000Z</time>
      </trkpt>
      <trkpt lat="47.13966" lon="-1.64522">
        <ele>60</ele>
        <time>2020-09-19T08:25:05.000Z</time>
      </trkpt>
      <trkpt lat="47.13951" lon="-1.64536">
        <ele>61</ele>
        <time>2020-09-19T08:25:07.000Z</time>
      </trkpt>
      <trkpt lat="47.13938" lon="-1.64548">
        <ele>61</ele>
        <time>2020-09-19T08:25:09.000Z</time>
      </trkpt>
      <trkpt lat="47.13926" lon="-1.6456">
        <ele>60</ele>
        <time>2020-09-19T08:25:11.000Z</time>
      </trkpt>
      <trkpt lat="47.13914" lon="-1.64572">
        <ele>60</ele>
        <time>2020-09-19T08:25:13.000Z</time>
      </trkpt>
      <trkpt lat="47.13901" lon="-1.64583">
        <ele>59</ele>
        <time>2020-09-19T08:25:15.000Z</time>
      </trkpt>
      <trkpt lat="47.13887" lon="-1.64591">
        <ele>58</ele>
        <time>2020-09-19T08:25:17.000Z</time>
      </trkpt>
      <trkpt lat="47.13872" lon="-1.64596">
        <ele>57</ele>
        <time>2020-09-19T08:25:19.000Z</time>
      </trkpt>
      <trkpt lat="47.13857" lon="-1.646">
        <ele>56</ele>
        <time>2020-09-19T08:25:21.000Z</time>
      </trkpt>
      <trkpt lat="47.13842" lon="-1.64602">
        <ele>56</ele>
        <time>2020-09-19T08:25:23.000Z</time>
      </trkpt>
      <trkpt lat="47.13825" lon="-1.64602">
        <ele>58</ele>
        <time>2020-09-19T08:25:25.000Z</time>
      </trkpt>
      <trkpt lat="47.13809" lon="-1.646">
        <ele>59</ele>
        <time>2020-09-19T08:25:27.000Z</time>
      </trkpt>
      <trkpt lat="47.13795" lon="-1.64599">
        <ele>59</ele>
        <time>2020-09-19T08:25:29.000Z</time>
      </trkpt>
      <trkpt lat="47.1378" lon="-1.64597">
        <ele>60</ele>
        <time>2020-09-19T08:25:31.000Z</time>
      </trkpt>
      <trkpt lat="47.13766" lon="-1.64593">
        <ele>59</ele>
        <time>2020-09-19T08:25:33.000Z</time>
      </trkpt>
      <trkpt lat="47.13752" lon="-1.6459">
        <ele>60</ele>
        <time>2020-09-19T08:25:35.000Z</time>
      </trkpt>
      <trkpt lat="47.13738" lon="-1.64586">
        <ele>60</ele>
        <time>2020-09-19T08:25:37.000Z</time>
      </trkpt>
      <trkpt lat="47.13725" lon="-1.64583">
        <ele>61</ele>
        <time>2020-09-19T08:25:39.000Z</time>
      </trkpt>
      <trkpt lat="47.13712" lon="-1.6458">
        <ele>61</ele>
        <time>2020-09-19T08:25:41.000Z</time>
      </trkpt>
      <trkpt lat="47.13699" lon="-1.64577">
        <ele>62</ele>
        <time>2020-09-19T08:25:43.000Z</time>
      </trkpt>
      <trkpt lat="47.13686" lon="-1.64575">
        <ele>62</ele>
        <time>2020-09-19T08:25:45.000Z</time>
      </trkpt>
      <trkpt lat="47.13674" lon="-1.64571">
        <ele>62</ele>
        <time>2020-09-19T08:25:47.000Z</time>
      </trkpt>
      <trkpt lat="47.13662" lon="-1.64568">
        <ele>62</ele>
        <time>2020-09-19T08:25:49.000Z</time>
      </trkpt>
      <trkpt lat="47.13649" lon="-1.64566">
        <ele>63</ele>
        <time>2020-09-19T08:25:51.000Z</time>
      </trkpt>
      <trkpt lat="47.13637" lon="-1.64563">
        <ele>64</ele>
        <time>2020-09-19T08:25:53.000Z</time>
      </trkpt>
      <trkpt lat="47.13625" lon="-1.64561">
        <ele>65</ele>
        <time>2020-09-19T08:25:55.000Z</time>
      </trkpt>
      <trkpt lat="47.13612" lon="-1.6456">
        <ele>65</ele>
        <time>2020-09-19T08:25:57.000Z</time>
      </trkpt>
      <trkpt lat="47.136" lon="-1.64558">
        <ele>66</ele>
        <time>2020-09-19T08:25:59.000Z</time>
      </trkpt>
      <trkpt lat="47.13587" lon="-1.64559">
        <ele>67</ele>
        <time>2020-09-19T08:26:01.000Z</time>
      </trkpt>
      <trkpt lat="47.13576" lon="-1.64564">
        <ele>67</ele>
        <time>2020-09-19T08:26:03.000Z</time>
      </trkpt>
      <trkpt lat="47.13564" lon="-1.64571">
        <ele>67</ele>
        <time>2020-09-19T08:26:05.000Z</time>
      </trkpt>
      <trkpt lat="47.13552" lon="-1.64581">
        <ele>67</ele>
        <time>2020-09-19T08:26:07.000Z</time>
      </trkpt>
      <trkpt lat="47.13541" lon="-1.64592">
        <ele>67</ele>
        <time>2020-09-19T08:26:09.000Z</time>
      </trkpt>
      <trkpt lat="47.1353" lon="-1.64604">
        <ele>67</ele>
        <time>2020-09-19T08:26:11.000Z</time>
      </trkpt>
      <trkpt lat="47.13519" lon="-1.64615">
        <ele>67</ele>
        <time>2020-09-19T08:26:13.000Z</time>
      </trkpt>
      <trkpt lat="47.13508" lon="-1.64626">
        <ele>67</ele>
        <time>2020-09-19T08:26:15.000Z</time>
      </trkpt>
      <trkpt lat="47.13497" lon="-1.64636">
        <ele>67</ele>
        <time>2020-09-19T08:26:17.000Z</time>
      </trkpt>
      <trkpt lat="47.13484" lon="-1.64642">
        <ele>67</ele>
        <time>2020-09-19T08:26:19.000Z</time>
      </trkpt>
      <trkpt lat="47.13471" lon="-1.64645">
        <ele>67</ele>
        <time>2020-09-19T08:26:21.000Z</time>
      </trkpt>
      <trkpt lat="47.13458" lon="-1.64645">
        <ele>68</ele>
        <time>2020-09-19T08:26:23.000Z</time>
      </trkpt>
      <trkpt lat="47.13444" lon="-1.64645">
        <ele>67</ele>
        <time>2020-09-19T08:26:25.000Z</time>
      </trkpt>
      <trkpt lat="47.13431" lon="-1.64644">
        <ele>67</ele>
        <time>2020-09-19T08:26:27.000Z</time>
      </trkpt>
      <trkpt lat="47.13419" lon="-1.64641">
        <ele>67</ele>
        <time>2020-09-19T08:26:29.000Z</time>
      </trkpt>
      <trkpt lat="47.1341" lon="-1.64641">
        <ele>67</ele>
        <time>2020-09-19T08:26:31.000Z</time>
      </trkpt>
      <trkpt lat="47.13401" lon="-1.64637">
        <ele>66</ele>
        <time>2020-09-19T08:26:48.000Z</time>
      </trkpt>
      <trkpt lat="47.13397" lon="-1.64621">
        <ele>66</ele>
        <time>2020-09-19T08:26:51.000Z</time>
      </trkpt>
      <trkpt lat="47.13394" lon="-1.64606">
        <ele>66</ele>
        <time>2020-09-19T08:26:53.000Z</time>
      </trkpt>
      <trkpt lat="47.13391" lon="-1.64586">
        <ele>66</ele>
        <time>2020-09-19T08:26:55.000Z</time>
      </trkpt>
      <trkpt lat="47.13387" lon="-1.64567">
        <ele>66</ele>
        <time>2020-09-19T08:26:57.000Z</time>
      </trkpt>
      <trkpt lat="47.13383" lon="-1.64547">
        <ele>67</ele>
        <time>2020-09-19T08:26:59.000Z</time>
      </trkpt>
      <trkpt lat="47.13378" lon="-1.64529">
        <ele>67</ele>
        <time>2020-09-19T08:27:01.000Z</time>
      </trkpt>
      <trkpt lat="47.13372" lon="-1.64509">
        <ele>66</ele>
        <time>2020-09-19T08:27:03.000Z</time>
      </trkpt>
      <trkpt lat="47.13365" lon="-1.64491">
        <ele>66</ele>
        <time>2020-09-19T08:27:05.000Z</time>
      </trkpt>
      <trkpt lat="47.13357" lon="-1.64473">
        <ele>65</ele>
        <time>2020-09-19T08:27:07.000Z</time>
      </trkpt>
      <trkpt lat="47.13349" lon="-1.64456">
        <ele>64</ele>
        <time>2020-09-19T08:27:09.000Z</time>
      </trkpt>
      <trkpt lat="47.1334" lon="-1.64438">
        <ele>64</ele>
        <time>2020-09-19T08:27:11.000Z</time>
      </trkpt>
      <trkpt lat="47.13331" lon="-1.64419">
        <ele>64</ele>
        <time>2020-09-19T08:27:13.000Z</time>
      </trkpt>
      <trkpt lat="47.13321" lon="-1.64399">
        <ele>63</ele>
        <time>2020-09-19T08:27:15.000Z</time>
      </trkpt>
      <trkpt lat="47.13312" lon="-1.64379">
        <ele>63</ele>
        <time>2020-09-19T08:27:17.000Z</time>
      </trkpt>
      <trkpt lat="47.13302" lon="-1.64358">
        <ele>62</ele>
        <time>2020-09-19T08:27:19.000Z</time>
      </trkpt>
      <trkpt lat="47.13292" lon="-1.64337">
        <ele>61</ele>
        <time>2020-09-19T08:27:21.000Z</time>
      </trkpt>
      <trkpt lat="47.13282" lon="-1.64316">
        <ele>61</ele>
        <time>2020-09-19T08:27:23.000Z</time>
      </trkpt>
      <trkpt lat="47.13272" lon="-1.64294">
        <ele>61</ele>
        <time>2020-09-19T08:27:25.000Z</time>
      </trkpt>
      <trkpt lat="47.13262" lon="-1.64273">
        <ele>60</ele>
        <time>2020-09-19T08:27:27.000Z</time>
      </trkpt>
      <trkpt lat="47.13257" lon="-1.64262">
        <ele>60</ele>
        <time>2020-09-19T08:27:28.000Z</time>
      </trkpt>
      <trkpt lat="47.13248" lon="-1.6424">
        <ele>60</ele>
        <time>2020-09-19T08:27:30.000Z</time>
      </trkpt>
      <trkpt lat="47.13238" lon="-1.64218">
        <ele>60</ele>
        <time>2020-09-19T08:27:32.000Z</time>
      </trkpt>
      <trkpt lat="47.13228" lon="-1.64198">
        <ele>60</ele>
        <time>2020-09-19T08:27:34.000Z</time>
      </trkpt>
      <trkpt lat="47.13217" lon="-1.64179">
        <ele>60</ele>
        <time>2020-09-19T08:27:36.000Z</time>
      </trkpt>
      <trkpt lat="47.13208" lon="-1.64159">
        <ele>60</ele>
        <time>2020-09-19T08:27:38.000Z</time>
      </trkpt>
      <trkpt lat="47.13199" lon="-1.64139">
        <ele>60</ele>
        <time>2020-09-19T08:27:40.000Z</time>
      </trkpt>
      <trkpt lat="47.1319" lon="-1.64119">
        <ele>59</ele>
        <time>2020-09-19T08:27:42.000Z</time>
      </trkpt>
      <trkpt lat="47.13182" lon="-1.641">
        <ele>59</ele>
        <time>2020-09-19T08:27:44.000Z</time>
      </trkpt>
      <trkpt lat="47.13174" lon="-1.64081">
        <ele>58</ele>
        <time>2020-09-19T08:27:46.000Z</time>
      </trkpt>
      <trkpt lat="47.13166" lon="-1.64061">
        <ele>57</ele>
        <time>2020-09-19T08:27:48.000Z</time>
      </trkpt>
      <trkpt lat="47.13157" lon="-1.64041">
        <ele>56</ele>
        <time>2020-09-19T08:27:50.000Z</time>
      </trkpt>
      <trkpt lat="47.13149" lon="-1.64021">
        <ele>56</ele>
        <time>2020-09-19T08:27:52.000Z</time>
      </trkpt>
      <trkpt lat="47.13142" lon="-1.64002">
        <ele>56</ele>
        <time>2020-09-19T08:27:54.000Z</time>
      </trkpt>
      <trkpt lat="47.13134" lon="-1.63982">
        <ele>56</ele>
        <time>2020-09-19T08:27:56.000Z</time>
      </trkpt>
      <trkpt lat="47.13127" lon="-1.63962">
        <ele>55</ele>
        <time>2020-09-19T08:27:58.000Z</time>
      </trkpt>
      <trkpt lat="47.13119" lon="-1.63943">
        <ele>55</ele>
        <time>2020-09-19T08:28:00.000Z</time>
      </trkpt>
      <trkpt lat="47.13112" lon="-1.63924">
        <ele>55</ele>
        <time>2020-09-19T08:28:02.000Z</time>
      </trkpt>
      <trkpt lat="47.13105" lon="-1.63904">
        <ele>55</ele>
        <time>2020-09-19T08:28:04.000Z</time>
      </trkpt>
      <trkpt lat="47.13098" lon="-1.63884">
        <ele>55</ele>
        <time>2020-09-19T08:28:06.000Z</time>
      </trkpt>
      <trkpt lat="47.1309" lon="-1.63865">
        <ele>55</ele>
        <time>2020-09-19T08:28:08.000Z</time>
      </trkpt>
      <trkpt lat="47.13083" lon="-1.63846">
        <ele>55</ele>
        <time>2020-09-19T08:28:10.000Z</time>
      </trkpt>
      <trkpt lat="47.13075" lon="-1.63827">
        <ele>55</ele>
        <time>2020-09-19T08:28:12.000Z</time>
      </trkpt>
      <trkpt lat="47.13067" lon="-1.63808">
        <ele>55</ele>
        <time>2020-09-19T08:28:14.000Z</time>
      </trkpt>
      <trkpt lat="47.13059" lon="-1.6379">
        <ele>55</ele>
        <time>2020-09-19T08:28:16.000Z</time>
      </trkpt>
      <trkpt lat="47.13051" lon="-1.63771">
        <ele>54</ele>
        <time>2020-09-19T08:28:18.000Z</time>
      </trkpt>
      <trkpt lat="47.13042" lon="-1.63754">
        <ele>54</ele>
        <time>2020-09-19T08:28:20.000Z</time>
      </trkpt>
      <trkpt lat="47.13034" lon="-1.63736">
        <ele>54</ele>
        <time>2020-09-19T08:28:22.000Z</time>
      </trkpt>
      <trkpt lat="47.13025" lon="-1.63719">
        <ele>54</ele>
        <time>2020-09-19T08:28:24.000Z</time>
      </trkpt>
      <trkpt lat="47.13017" lon="-1.63701">
        <ele>54</ele>
        <time>2020-09-19T08:28:26.000Z</time>
      </trkpt>
      <trkpt lat="47.13009" lon="-1.63682">
        <ele>54</ele>
        <time>2020-09-19T08:28:28.000Z</time>
      </trkpt>
      <trkpt lat="47.12999" lon="-1.63665">
        <ele>54</ele>
        <time>2020-09-19T08:28:30.000Z</time>
      </trkpt>
      <trkpt lat="47.12991" lon="-1.63647">
        <ele>54</ele>
        <time>2020-09-19T08:28:32.000Z</time>
      </trkpt>
      <trkpt lat="47.12986" lon="-1.63626">
        <ele>54</ele>
        <time>2020-09-19T08:28:34.000Z</time>
      </trkpt>
      <trkpt lat="47.12979" lon="-1.63606">
        <ele>53</ele>
        <time>2020-09-19T08:28:36.000Z</time>
      </trkpt>
      <trkpt lat="47.12972" lon="-1.63587">
        <ele>53</ele>
        <time>2020-09-19T08:28:38.000Z</time>
      </trkpt>
      <trkpt lat="47.12965" lon="-1.63568">
        <ele>53</ele>
        <time>2020-09-19T08:28:40.000Z</time>
      </trkpt>
      <trkpt lat="47.12957" lon="-1.6355">
        <ele>53</ele>
        <time>2020-09-19T08:28:42.000Z</time>
      </trkpt>
      <trkpt lat="47.12949" lon="-1.63531">
        <ele>52</ele>
        <time>2020-09-19T08:28:44.000Z</time>
      </trkpt>
      <trkpt lat="47.12942" lon="-1.63512">
        <ele>52</ele>
        <time>2020-09-19T08:28:46.000Z</time>
      </trkpt>
      <trkpt lat="47.12935" lon="-1.63492">
        <ele>51</ele>
        <time>2020-09-19T08:28:48.000Z</time>
      </trkpt>
      <trkpt lat="47.12928" lon="-1.63472">
        <ele>51</ele>
        <time>2020-09-19T08:28:50.000Z</time>
      </trkpt>
      <trkpt lat="47.1292" lon="-1.63453">
        <ele>51</ele>
        <time>2020-09-19T08:28:52.000Z</time>
      </trkpt>
      <trkpt lat="47.12912" lon="-1.63434">
        <ele>51</ele>
        <time>2020-09-19T08:28:54.000Z</time>
      </trkpt>
      <trkpt lat="47.12905" lon="-1.63413">
        <ele>51</ele>
        <time>2020-09-19T08:28:56.000Z</time>
      </trkpt>
      <trkpt lat="47.12897" lon="-1.63393">
        <ele>51</ele>
        <time>2020-09-19T08:28:58.000Z</time>
      </trkpt>
      <trkpt lat="47.1289" lon="-1.63373">
        <ele>51</ele>
        <time>2020-09-19T08:29:00.000Z</time>
      </trkpt>
      <trkpt lat="47.12882" lon="-1.63355">
        <ele>51</ele>
        <time>2020-09-19T08:29:02.000Z</time>
      </trkpt>
      <trkpt lat="47.12874" lon="-1.63335">
        <ele>51</ele>
        <time>2020-09-19T08:29:04.000Z</time>
      </trkpt>
      <trkpt lat="47.12866" lon="-1.63315">
        <ele>51</ele>
        <time>2020-09-19T08:29:06.000Z</time>
      </trkpt>
      <trkpt lat="47.12858" lon="-1.63295">
        <ele>51</ele>
        <time>2020-09-19T08:29:08.000Z</time>
      </trkpt>
      <trkpt lat="47.12851" lon="-1.63276">
        <ele>50</ele>
        <time>2020-09-19T08:29:10.000Z</time>
      </trkpt>
      <trkpt lat="47.12843" lon="-1.63256">
        <ele>50</ele>
        <time>2020-09-19T08:29:12.000Z</time>
      </trkpt>
      <trkpt lat="47.12836" lon="-1.63236">
        <ele>50</ele>
        <time>2020-09-19T08:29:14.000Z</time>
      </trkpt>
      <trkpt lat="47.12829" lon="-1.63217">
        <ele>50</ele>
        <time>2020-09-19T08:29:16.000Z</time>
      </trkpt>
      <trkpt lat="47.12822" lon="-1.63199">
        <ele>51</ele>
        <time>2020-09-19T08:29:18.000Z</time>
      </trkpt>
      <trkpt lat="47.12814" lon="-1.6318">
        <ele>51</ele>
        <time>2020-09-19T08:29:20.000Z</time>
      </trkpt>
      <trkpt lat="47.12807" lon="-1.63161">
        <ele>51</ele>
        <time>2020-09-19T08:29:22.000Z</time>
      </trkpt>
      <trkpt lat="47.12799" lon="-1.63142">
        <ele>51</ele>
        <time>2020-09-19T08:29:24.000Z</time>
      </trkpt>
      <trkpt lat="47.12791" lon="-1.63122">
        <ele>51</ele>
        <time>2020-09-19T08:29:26.000Z</time>
      </trkpt>
      <trkpt lat="47.12783" lon="-1.63103">
        <ele>52</ele>
        <time>2020-09-19T08:29:28.000Z</time>
      </trkpt>
      <trkpt lat="47.12775" lon="-1.63085">
        <ele>53</ele>
        <time>2020-09-19T08:29:30.000Z</time>
      </trkpt>
      <trkpt lat="47.12768" lon="-1.63066">
        <ele>53</ele>
        <time>2020-09-19T08:29:32.000Z</time>
      </trkpt>
      <trkpt lat="47.12761" lon="-1.63048">
        <ele>53</ele>
        <time>2020-09-19T08:29:34.000Z</time>
      </trkpt>
      <trkpt lat="47.12753" lon="-1.63029">
        <ele>54</ele>
        <time>2020-09-19T08:29:36.000Z</time>
      </trkpt>
      <trkpt lat="47.12747" lon="-1.6301">
        <ele>54</ele>
        <time>2020-09-19T08:29:38.000Z</time>
      </trkpt>
      <trkpt lat="47.1274" lon="-1.62992">
        <ele>54</ele>
        <time>2020-09-19T08:29:40.000Z</time>
      </trkpt>
      <trkpt lat="47.12732" lon="-1.62974">
        <ele>54</ele>
        <time>2020-09-19T08:29:42.000Z</time>
      </trkpt>
      <trkpt lat="47.12725" lon="-1.62956">
        <ele>54</ele>
        <time>2020-09-19T08:29:44.000Z</time>
      </trkpt>
      <trkpt lat="47.12719" lon="-1.62938">
        <ele>54</ele>
        <time>2020-09-19T08:29:46.000Z</time>
      </trkpt>
      <trkpt lat="47.12712" lon="-1.6292">
        <ele>54</ele>
        <time>2020-09-19T08:29:48.000Z</time>
      </trkpt>
      <trkpt lat="47.12704" lon="-1.62901">
        <ele>54</ele>
        <time>2020-09-19T08:29:50.000Z</time>
      </trkpt>
      <trkpt lat="47.12697" lon="-1.62883">
        <ele>54</ele>
        <time>2020-09-19T08:29:52.000Z</time>
      </trkpt>
      <trkpt lat="47.1269" lon="-1.62865">
        <ele>55</ele>
        <time>2020-09-19T08:29:54.000Z</time>
      </trkpt>
      <trkpt lat="47.12683" lon="-1.62848">
        <ele>55</ele>
        <time>2020-09-19T08:29:56.000Z</time>
      </trkpt>
      <trkpt lat="47.12675" lon="-1.62833">
        <ele>55</ele>
        <time>2020-09-19T08:29:58.000Z</time>
      </trkpt>
      <trkpt lat="47.12666" lon="-1.62817">
        <ele>55</ele>
        <time>2020-09-19T08:30:00.000Z</time>
      </trkpt>
      <trkpt lat="47.1266" lon="-1.62799">
        <ele>54</ele>
        <time>2020-09-19T08:30:02.000Z</time>
      </trkpt>
      <trkpt lat="47.12654" lon="-1.6278">
        <ele>55</ele>
        <time>2020-09-19T08:30:04.000Z</time>
      </trkpt>
      <trkpt lat="47.12646" lon="-1.62763">
        <ele>55</ele>
        <time>2020-09-19T08:30:06.000Z</time>
      </trkpt>
      <trkpt lat="47.12638" lon="-1.62746">
        <ele>55</ele>
        <time>2020-09-19T08:30:08.000Z</time>
      </trkpt>
      <trkpt lat="47.12629" lon="-1.62729">
        <ele>54</ele>
        <time>2020-09-19T08:30:10.000Z</time>
      </trkpt>
      <trkpt lat="47.12621" lon="-1.6271">
        <ele>54</ele>
        <time>2020-09-19T08:30:12.000Z</time>
      </trkpt>
      <trkpt lat="47.12612" lon="-1.62692">
        <ele>54</ele>
        <time>2020-09-19T08:30:14.000Z</time>
      </trkpt>
      <trkpt lat="47.12603" lon="-1.62675">
        <ele>54</ele>
        <time>2020-09-19T08:30:16.000Z</time>
      </trkpt>
      <trkpt lat="47.12594" lon="-1.62656">
        <ele>53</ele>
        <time>2020-09-19T08:30:18.000Z</time>
      </trkpt>
      <trkpt lat="47.12586" lon="-1.62638">
        <ele>53</ele>
        <time>2020-09-19T08:30:20.000Z</time>
      </trkpt>
      <trkpt lat="47.1258" lon="-1.6262">
        <ele>53</ele>
        <time>2020-09-19T08:30:22.000Z</time>
      </trkpt>
      <trkpt lat="47.12575" lon="-1.62601">
        <ele>52</ele>
        <time>2020-09-19T08:30:24.000Z</time>
      </trkpt>
      <trkpt lat="47.12571" lon="-1.62581">
        <ele>52</ele>
        <time>2020-09-19T08:30:26.000Z</time>
      </trkpt>
      <trkpt lat="47.12567" lon="-1.62561">
        <ele>52</ele>
        <time>2020-09-19T08:30:28.000Z</time>
      </trkpt>
      <trkpt lat="47.12563" lon="-1.62541">
        <ele>51</ele>
        <time>2020-09-19T08:30:30.000Z</time>
      </trkpt>
      <trkpt lat="47.12559" lon="-1.6252">
        <ele>50</ele>
        <time>2020-09-19T08:30:32.000Z</time>
      </trkpt>
      <trkpt lat="47.12555" lon="-1.62499">
        <ele>50</ele>
        <time>2020-09-19T08:30:34.000Z</time>
      </trkpt>
      <trkpt lat="47.12551" lon="-1.62477">
        <ele>50</ele>
        <time>2020-09-19T08:30:36.000Z</time>
      </trkpt>
      <trkpt lat="47.12545" lon="-1.62456">
        <ele>51</ele>
        <time>2020-09-19T08:30:38.000Z</time>
      </trkpt>
      <trkpt lat="47.1254" lon="-1.62436">
        <ele>51</ele>
        <time>2020-09-19T08:30:40.000Z</time>
      </trkpt>
      <trkpt lat="47.12534" lon="-1.62416">
        <ele>51</ele>
        <time>2020-09-19T08:30:42.000Z</time>
      </trkpt>
      <trkpt lat="47.12527" lon="-1.62396">
        <ele>51</ele>
        <time>2020-09-19T08:30:44.000Z</time>
      </trkpt>
      <trkpt lat="47.12519" lon="-1.62377">
        <ele>51</ele>
        <time>2020-09-19T08:30:46.000Z</time>
      </trkpt>
      <trkpt lat="47.12511" lon="-1.62359">
        <ele>52</ele>
        <time>2020-09-19T08:30:48.000Z</time>
      </trkpt>
      <trkpt lat="47.12503" lon="-1.62341">
        <ele>52</ele>
        <time>2020-09-19T08:30:50.000Z</time>
      </trkpt>
      <trkpt lat="47.12494" lon="-1.62324">
        <ele>51</ele>
        <time>2020-09-19T08:30:52.000Z</time>
      </trkpt>
      <trkpt lat="47.12484" lon="-1.62308">
        <ele>51</ele>
        <time>2020-09-19T08:30:54.000Z</time>
      </trkpt>
      <trkpt lat="47.12474" lon="-1.62292">
        <ele>51</ele>
        <time>2020-09-19T08:30:56.000Z</time>
      </trkpt>
      <trkpt lat="47.12464" lon="-1.62276">
        <ele>51</ele>
        <time>2020-09-19T08:30:58.000Z</time>
      </trkpt>
      <trkpt lat="47.12454" lon="-1.62261">
        <ele>51</ele>
        <time>2020-09-19T08:31:00.000Z</time>
      </trkpt>
      <trkpt lat="47.12443" lon="-1.62246">
        <ele>52</ele>
        <time>2020-09-19T08:31:02.000Z</time>
      </trkpt>
      <trkpt lat="47.12433" lon="-1.62231">
        <ele>52</ele>
        <time>2020-09-19T08:31:04.000Z</time>
      </trkpt>
      <trkpt lat="47.12424" lon="-1.62215">
        <ele>52</ele>
        <time>2020-09-19T08:31:06.000Z</time>
      </trkpt>
      <trkpt lat="47.12415" lon="-1.62199">
        <ele>52</ele>
        <time>2020-09-19T08:31:08.000Z</time>
      </trkpt>
      <trkpt lat="47.12407" lon="-1.62181">
        <ele>51</ele>
        <time>2020-09-19T08:31:10.000Z</time>
      </trkpt>
      <trkpt lat="47.12399" lon="-1.62163">
        <ele>51</ele>
        <time>2020-09-19T08:31:12.000Z</time>
      </trkpt>
      <trkpt lat="47.12393" lon="-1.62144">
        <ele>52</ele>
        <time>2020-09-19T08:31:14.000Z</time>
      </trkpt>
      <trkpt lat="47.12389" lon="-1.62124">
        <ele>52</ele>
        <time>2020-09-19T08:31:16.000Z</time>
      </trkpt>
      <trkpt lat="47.12386" lon="-1.62103">
        <ele>51</ele>
        <time>2020-09-19T08:31:18.000Z</time>
      </trkpt>
      <trkpt lat="47.12384" lon="-1.62082">
        <ele>51</ele>
        <time>2020-09-19T08:31:20.000Z</time>
      </trkpt>
      <trkpt lat="47.12383" lon="-1.62061">
        <ele>51</ele>
        <time>2020-09-19T08:31:22.000Z</time>
      </trkpt>
      <trkpt lat="47.12384" lon="-1.62041">
        <ele>52</ele>
        <time>2020-09-19T08:31:24.000Z</time>
      </trkpt>
      <trkpt lat="47.12387" lon="-1.6202">
        <ele>51</ele>
        <time>2020-09-19T08:31:26.000Z</time>
      </trkpt>
      <trkpt lat="47.12391" lon="-1.62">
        <ele>50</ele>
        <time>2020-09-19T08:31:28.000Z</time>
      </trkpt>
      <trkpt lat="47.12396" lon="-1.61981">
        <ele>50</ele>
        <time>2020-09-19T08:31:30.000Z</time>
      </trkpt>
      <trkpt lat="47.12401" lon="-1.61962">
        <ele>51</ele>
        <time>2020-09-19T08:31:32.000Z</time>
      </trkpt>
      <trkpt lat="47.12406" lon="-1.61943">
        <ele>51</ele>
        <time>2020-09-19T08:31:34.000Z</time>
      </trkpt>
      <trkpt lat="47.12411" lon="-1.61924">
        <ele>51</ele>
        <time>2020-09-19T08:31:36.000Z</time>
      </trkpt>
      <trkpt lat="47.12416" lon="-1.61906">
        <ele>51</ele>
        <time>2020-09-19T08:31:38.000Z</time>
      </trkpt>
      <trkpt lat="47.1242" lon="-1.61888">
        <ele>51</ele>
        <time>2020-09-19T08:31:40.000Z</time>
      </trkpt>
      <trkpt lat="47.12426" lon="-1.61871">
        <ele>51</ele>
        <time>2020-09-19T08:31:42.000Z</time>
      </trkpt>
      <trkpt lat="47.12432" lon="-1.61855">
        <ele>51</ele>
        <time>2020-09-19T08:31:44.000Z</time>
      </trkpt>
      <trkpt lat="47.12436" lon="-1.61836">
        <ele>52</ele>
        <time>2020-09-19T08:31:46.000Z</time>
      </trkpt>
      <trkpt lat="47.12439" lon="-1.61818">
        <ele>53</ele>
        <time>2020-09-19T08:31:48.000Z</time>
      </trkpt>
      <trkpt lat="47.12443" lon="-1.61801">
        <ele>53</ele>
        <time>2020-09-19T08:31:50.000Z</time>
      </trkpt>
      <trkpt lat="47.12447" lon="-1.61784">
        <ele>53</ele>
        <time>2020-09-19T08:31:52.000Z</time>
      </trkpt>
      <trkpt lat="47.12452" lon="-1.61766">
        <ele>53</ele>
        <time>2020-09-19T08:31:54.000Z</time>
      </trkpt>
      <trkpt lat="47.12457" lon="-1.61748">
        <ele>54</ele>
        <time>2020-09-19T08:31:56.000Z</time>
      </trkpt>
      <trkpt lat="47.12462" lon="-1.6173">
        <ele>54</ele>
        <time>2020-09-19T08:31:58.000Z</time>
      </trkpt>
      <trkpt lat="47.12466" lon="-1.61712">
        <ele>54</ele>
        <time>2020-09-19T08:32:00.000Z</time>
      </trkpt>
      <trkpt lat="47.1247" lon="-1.61695">
        <ele>54</ele>
        <time>2020-09-19T08:32:02.000Z</time>
      </trkpt>
      <trkpt lat="47.12473" lon="-1.61676">
        <ele>54</ele>
        <time>2020-09-19T08:32:04.000Z</time>
      </trkpt>
      <trkpt lat="47.12477" lon="-1.61657">
        <ele>54</ele>
        <time>2020-09-19T08:32:06.000Z</time>
      </trkpt>
      <trkpt lat="47.1248" lon="-1.61637">
        <ele>54</ele>
        <time>2020-09-19T08:32:08.000Z</time>
      </trkpt>
      <trkpt lat="47.1248" lon="-1.61618">
        <ele>54</ele>
        <time>2020-09-19T08:32:10.000Z</time>
      </trkpt>
      <trkpt lat="47.12479" lon="-1.61598">
        <ele>54</ele>
        <time>2020-09-19T08:32:12.000Z</time>
      </trkpt>
      <trkpt lat="47.12477" lon="-1.61577">
        <ele>53</ele>
        <time>2020-09-19T08:32:14.000Z</time>
      </trkpt>
      <trkpt lat="47.12475" lon="-1.61557">
        <ele>53</ele>
        <time>2020-09-19T08:32:16.000Z</time>
      </trkpt>
      <trkpt lat="47.12473" lon="-1.61536">
        <ele>54</ele>
        <time>2020-09-19T08:32:18.000Z</time>
      </trkpt>
      <trkpt lat="47.12471" lon="-1.61517">
        <ele>53</ele>
        <time>2020-09-19T08:32:20.000Z</time>
      </trkpt>
      <trkpt lat="47.12468" lon="-1.61496">
        <ele>53</ele>
        <time>2020-09-19T08:32:22.000Z</time>
      </trkpt>
      <trkpt lat="47.12466" lon="-1.61477">
        <ele>53</ele>
        <time>2020-09-19T08:32:24.000Z</time>
      </trkpt>
      <trkpt lat="47.12463" lon="-1.61457">
        <ele>54</ele>
        <time>2020-09-19T08:32:26.000Z</time>
      </trkpt>
      <trkpt lat="47.12461" lon="-1.61437">
        <ele>54</ele>
        <time>2020-09-19T08:32:28.000Z</time>
      </trkpt>
      <trkpt lat="47.12458" lon="-1.61417">
        <ele>54</ele>
        <time>2020-09-19T08:32:30.000Z</time>
      </trkpt>
      <trkpt lat="47.12457" lon="-1.61397">
        <ele>54</ele>
        <time>2020-09-19T08:32:32.000Z</time>
      </trkpt>
      <trkpt lat="47.12457" lon="-1.61377">
        <ele>54</ele>
        <time>2020-09-19T08:32:34.000Z</time>
      </trkpt>
      <trkpt lat="47.12458" lon="-1.61358">
        <ele>53</ele>
        <time>2020-09-19T08:32:36.000Z</time>
      </trkpt>
      <trkpt lat="47.12462" lon="-1.61339">
        <ele>53</ele>
        <time>2020-09-19T08:32:38.000Z</time>
      </trkpt>
      <trkpt lat="47.12466" lon="-1.61321">
        <ele>53</ele>
        <time>2020-09-19T08:32:40.000Z</time>
      </trkpt>
      <trkpt lat="47.12472" lon="-1.61303">
        <ele>53</ele>
        <time>2020-09-19T08:32:42.000Z</time>
      </trkpt>
      <trkpt lat="47.12478" lon="-1.61285">
        <ele>54</ele>
        <time>2020-09-19T08:32:44.000Z</time>
      </trkpt>
      <trkpt lat="47.12483" lon="-1.61268">
        <ele>54</ele>
        <time>2020-09-19T08:32:46.000Z</time>
      </trkpt>
      <trkpt lat="47.12489" lon="-1.61251">
        <ele>55</ele>
        <time>2020-09-19T08:32:48.000Z</time>
      </trkpt>
      <trkpt lat="47.12494" lon="-1.61232">
        <ele>55</ele>
        <time>2020-09-19T08:32:50.000Z</time>
      </trkpt>
      <trkpt lat="47.12498" lon="-1.61214">
        <ele>55</ele>
        <time>2020-09-19T08:32:52.000Z</time>
      </trkpt>
      <trkpt lat="47.12501" lon="-1.61195">
        <ele>55</ele>
        <time>2020-09-19T08:32:54.000Z</time>
      </trkpt>
      <trkpt lat="47.12503" lon="-1.61175">
        <ele>55</ele>
        <time>2020-09-19T08:32:56.000Z</time>
      </trkpt>
      <trkpt lat="47.12506" lon="-1.61156">
        <ele>55</ele>
        <time>2020-09-19T08:32:58.000Z</time>
      </trkpt>
      <trkpt lat="47.12508" lon="-1.61136">
        <ele>55</ele>
        <time>2020-09-19T08:33:00.000Z</time>
      </trkpt>
      <trkpt lat="47.12509" lon="-1.61115">
        <ele>56</ele>
        <time>2020-09-19T08:33:02.000Z</time>
      </trkpt>
      <trkpt lat="47.12511" lon="-1.61096">
        <ele>55</ele>
        <time>2020-09-19T08:33:04.000Z</time>
      </trkpt>
      <trkpt lat="47.12513" lon="-1.61076">
        <ele>56</ele>
        <time>2020-09-19T08:33:06.000Z</time>
      </trkpt>
      <trkpt lat="47.12515" lon="-1.61055">
        <ele>56</ele>
        <time>2020-09-19T08:33:08.000Z</time>
      </trkpt>
      <trkpt lat="47.12516" lon="-1.61035">
        <ele>55</ele>
        <time>2020-09-19T08:33:10.000Z</time>
      </trkpt>
      <trkpt lat="47.12518" lon="-1.61015">
        <ele>55</ele>
        <time>2020-09-19T08:33:12.000Z</time>
      </trkpt>
      <trkpt lat="47.1252" lon="-1.60995">
        <ele>55</ele>
        <time>2020-09-19T08:33:14.000Z</time>
      </trkpt>
      <trkpt lat="47.12522" lon="-1.60975">
        <ele>55</ele>
        <time>2020-09-19T08:33:16.000Z</time>
      </trkpt>
      <trkpt lat="47.12524" lon="-1.60955">
        <ele>55</ele>
        <time>2020-09-19T08:33:18.000Z</time>
      </trkpt>
      <trkpt lat="47.12526" lon="-1.60935">
        <ele>56</ele>
        <time>2020-09-19T08:33:20.000Z</time>
      </trkpt>
      <trkpt lat="47.12528" lon="-1.60916">
        <ele>56</ele>
        <time>2020-09-19T08:33:22.000Z</time>
      </trkpt>
      <trkpt lat="47.12529" lon="-1.60896">
        <ele>56</ele>
        <time>2020-09-19T08:33:24.000Z</time>
      </trkpt>
      <trkpt lat="47.12531" lon="-1.60876">
        <ele>55</ele>
        <time>2020-09-19T08:33:26.000Z</time>
      </trkpt>
      <trkpt lat="47.12533" lon="-1.60856">
        <ele>56</ele>
        <time>2020-09-19T08:33:28.000Z</time>
      </trkpt>
      <trkpt lat="47.12535" lon="-1.60837">
        <ele>55</ele>
        <time>2020-09-19T08:33:30.000Z</time>
      </trkpt>
      <trkpt lat="47.12537" lon="-1.60818">
        <ele>56</ele>
        <time>2020-09-19T08:33:32.000Z</time>
      </trkpt>
      <trkpt lat="47.12539" lon="-1.60798">
        <ele>56</ele>
        <time>2020-09-19T08:33:34.000Z</time>
      </trkpt>
      <trkpt lat="47.1254" lon="-1.60778">
        <ele>56</ele>
        <time>2020-09-19T08:33:36.000Z</time>
      </trkpt>
      <trkpt lat="47.12541" lon="-1.60758">
        <ele>56</ele>
        <time>2020-09-19T08:33:38.000Z</time>
      </trkpt>
      <trkpt lat="47.12542" lon="-1.60737">
        <ele>56</ele>
        <time>2020-09-19T08:33:40.000Z</time>
      </trkpt>
      <trkpt lat="47.12543" lon="-1.60717">
        <ele>56</ele>
        <time>2020-09-19T08:33:42.000Z</time>
      </trkpt>
      <trkpt lat="47.12543" lon="-1.60697">
        <ele>56</ele>
        <time>2020-09-19T08:33:44.000Z</time>
      </trkpt>
      <trkpt lat="47.12542" lon="-1.60677">
        <ele>56</ele>
        <time>2020-09-19T08:33:46.000Z</time>
      </trkpt>
      <trkpt lat="47.12542" lon="-1.60657">
        <ele>56</ele>
        <time>2020-09-19T08:33:48.000Z</time>
      </trkpt>
      <trkpt lat="47.12542" lon="-1.60638">
        <ele>56</ele>
        <time>2020-09-19T08:33:50.000Z</time>
      </trkpt>
      <trkpt lat="47.12542" lon="-1.60618">
        <ele>56</ele>
        <time>2020-09-19T08:33:52.000Z</time>
      </trkpt>
      <trkpt lat="47.12542" lon="-1.60598">
        <ele>56</ele>
        <time>2020-09-19T08:33:54.000Z</time>
      </trkpt>
      <trkpt lat="47.12541" lon="-1.60579">
        <ele>56</ele>
        <time>2020-09-19T08:33:56.000Z</time>
      </trkpt>
      <trkpt lat="47.1254" lon="-1.60559">
        <ele>56</ele>
        <time>2020-09-19T08:33:58.000Z</time>
      </trkpt>
      <trkpt lat="47.12539" lon="-1.60539">
        <ele>55</ele>
        <time>2020-09-19T08:34:00.000Z</time>
      </trkpt>
      <trkpt lat="47.12539" lon="-1.6052">
        <ele>55</ele>
        <time>2020-09-19T08:34:02.000Z</time>
      </trkpt>
      <trkpt lat="47.12537" lon="-1.605">
        <ele>55</ele>
        <time>2020-09-19T08:34:04.000Z</time>
      </trkpt>
      <trkpt lat="47.12534" lon="-1.6048">
        <ele>55</ele>
        <time>2020-09-19T08:34:06.000Z</time>
      </trkpt>
      <trkpt lat="47.12531" lon="-1.60461">
        <ele>55</ele>
        <time>2020-09-19T08:34:08.000Z</time>
      </trkpt>
      <trkpt lat="47.12528" lon="-1.60441">
        <ele>55</ele>
        <time>2020-09-19T08:34:10.000Z</time>
      </trkpt>
      <trkpt lat="47.12524" lon="-1.60422">
        <ele>55</ele>
        <time>2020-09-19T08:34:12.000Z</time>
      </trkpt>
      <trkpt lat="47.1252" lon="-1.60401">
        <ele>54</ele>
        <time>2020-09-19T08:34:14.000Z</time>
      </trkpt>
      <trkpt lat="47.12516" lon="-1.60381">
        <ele>53</ele>
        <time>2020-09-19T08:34:16.000Z</time>
      </trkpt>
      <trkpt lat="47.12512" lon="-1.60359">
        <ele>53</ele>
        <time>2020-09-19T08:34:18.000Z</time>
      </trkpt>
      <trkpt lat="47.12507" lon="-1.60338">
        <ele>54</ele>
        <time>2020-09-19T08:34:20.000Z</time>
      </trkpt>
      <trkpt lat="47.12503" lon="-1.60317">
        <ele>53</ele>
        <time>2020-09-19T08:34:22.000Z</time>
      </trkpt>
      <trkpt lat="47.12499" lon="-1.60296">
        <ele>53</ele>
        <time>2020-09-19T08:34:24.000Z</time>
      </trkpt>
      <trkpt lat="47.12494" lon="-1.60274">
        <ele>53</ele>
        <time>2020-09-19T08:34:26.000Z</time>
      </trkpt>
      <trkpt lat="47.12491" lon="-1.60253">
        <ele>53</ele>
        <time>2020-09-19T08:34:28.000Z</time>
      </trkpt>
      <trkpt lat="47.12487" lon="-1.60232">
        <ele>53</ele>
        <time>2020-09-19T08:34:30.000Z</time>
      </trkpt>
      <trkpt lat="47.12484" lon="-1.60212">
        <ele>53</ele>
        <time>2020-09-19T08:34:32.000Z</time>
      </trkpt>
      <trkpt lat="47.12481" lon="-1.60192">
        <ele>53</ele>
        <time>2020-09-19T08:34:34.000Z</time>
      </trkpt>
      <trkpt lat="47.1248" lon="-1.60172">
        <ele>53</ele>
        <time>2020-09-19T08:34:36.000Z</time>
      </trkpt>
      <trkpt lat="47.12478" lon="-1.60152">
        <ele>53</ele>
        <time>2020-09-19T08:34:38.000Z</time>
      </trkpt>
      <trkpt lat="47.12478" lon="-1.60132">
        <ele>52</ele>
        <time>2020-09-19T08:34:40.000Z</time>
      </trkpt>
      <trkpt lat="47.12476" lon="-1.60112">
        <ele>52</ele>
        <time>2020-09-19T08:34:42.000Z</time>
      </trkpt>
      <trkpt lat="47.12475" lon="-1.60092">
        <ele>52</ele>
        <time>2020-09-19T08:34:44.000Z</time>
      </trkpt>
      <trkpt lat="47.12475" lon="-1.60072">
        <ele>53</ele>
        <time>2020-09-19T08:34:46.000Z</time>
      </trkpt>
      <trkpt lat="47.12474" lon="-1.60052">
        <ele>53</ele>
        <time>2020-09-19T08:34:48.000Z</time>
      </trkpt>
      <trkpt lat="47.12473" lon="-1.60032">
        <ele>53</ele>
        <time>2020-09-19T08:34:50.000Z</time>
      </trkpt>
      <trkpt lat="47.12471" lon="-1.60012">
        <ele>53</ele>
        <time>2020-09-19T08:34:52.000Z</time>
      </trkpt>
      <trkpt lat="47.12471" lon="-1.59992">
        <ele>54</ele>
        <time>2020-09-19T08:34:54.000Z</time>
      </trkpt>
      <trkpt lat="47.1247" lon="-1.59972">
        <ele>54</ele>
        <time>2020-09-19T08:34:56.000Z</time>
      </trkpt>
      <trkpt lat="47.1247" lon="-1.59951">
        <ele>53</ele>
        <time>2020-09-19T08:34:58.000Z</time>
      </trkpt>
      <trkpt lat="47.1247" lon="-1.59932">
        <ele>53</ele>
        <time>2020-09-19T08:35:00.000Z</time>
      </trkpt>
      <trkpt lat="47.12468" lon="-1.59912">
        <ele>54</ele>
        <time>2020-09-19T08:35:02.000Z</time>
      </trkpt>
      <trkpt lat="47.12467" lon="-1.59892">
        <ele>54</ele>
        <time>2020-09-19T08:35:04.000Z</time>
      </trkpt>
      <trkpt lat="47.12466" lon="-1.59872">
        <ele>55</ele>
        <time>2020-09-19T08:35:06.000Z</time>
      </trkpt>
      <trkpt lat="47.12464" lon="-1.59852">
        <ele>54</ele>
        <time>2020-09-19T08:35:08.000Z</time>
      </trkpt>
      <trkpt lat="47.12463" lon="-1.59832">
        <ele>54</ele>
        <time>2020-09-19T08:35:10.000Z</time>
      </trkpt>
      <trkpt lat="47.12462" lon="-1.59811">
        <ele>54</ele>
        <time>2020-09-19T08:35:12.000Z</time>
      </trkpt>
      <trkpt lat="47.12462" lon="-1.59791">
        <ele>55</ele>
        <time>2020-09-19T08:35:14.000Z</time>
      </trkpt>
      <trkpt lat="47.1246" lon="-1.59771">
        <ele>55</ele>
        <time>2020-09-19T08:35:16.000Z</time>
      </trkpt>
      <trkpt lat="47.1246" lon="-1.59751">
        <ele>55</ele>
        <time>2020-09-19T08:35:18.000Z</time>
      </trkpt>
      <trkpt lat="47.12459" lon="-1.59733">
        <ele>55</ele>
        <time>2020-09-19T08:35:20.000Z</time>
      </trkpt>
      <trkpt lat="47.12457" lon="-1.59713">
        <ele>56</ele>
        <time>2020-09-19T08:35:22.000Z</time>
      </trkpt>
      <trkpt lat="47.12457" lon="-1.59694">
        <ele>56</ele>
        <time>2020-09-19T08:35:24.000Z</time>
      </trkpt>
      <trkpt lat="47.12456" lon="-1.59674">
        <ele>56</ele>
        <time>2020-09-19T08:35:26.000Z</time>
      </trkpt>
      <trkpt lat="47.12455" lon="-1.59654">
        <ele>56</ele>
        <time>2020-09-19T08:35:28.000Z</time>
      </trkpt>
      <trkpt lat="47.12454" lon="-1.59635">
        <ele>56</ele>
        <time>2020-09-19T08:35:30.000Z</time>
      </trkpt>
      <trkpt lat="47.12453" lon="-1.59616">
        <ele>55</ele>
        <time>2020-09-19T08:35:32.000Z</time>
      </trkpt>
      <trkpt lat="47.12452" lon="-1.59596">
        <ele>55</ele>
        <time>2020-09-19T08:35:34.000Z</time>
      </trkpt>
      <trkpt lat="47.12451" lon="-1.59577">
        <ele>55</ele>
        <time>2020-09-19T08:35:36.000Z</time>
      </trkpt>
      <trkpt lat="47.1245" lon="-1.59557">
        <ele>54</ele>
        <time>2020-09-19T08:35:38.000Z</time>
      </trkpt>
      <trkpt lat="47.12449" lon="-1.59538">
        <ele>54</ele>
        <time>2020-09-19T08:35:40.000Z</time>
      </trkpt>
      <trkpt lat="47.12449" lon="-1.59519">
        <ele>54</ele>
        <time>2020-09-19T08:35:42.000Z</time>
      </trkpt>
      <trkpt lat="47.12448" lon="-1.59499">
        <ele>54</ele>
        <time>2020-09-19T08:35:44.000Z</time>
      </trkpt>
      <trkpt lat="47.12446" lon="-1.5948">
        <ele>54</ele>
        <time>2020-09-19T08:35:46.000Z</time>
      </trkpt>
      <trkpt lat="47.12445" lon="-1.59449">
        <ele>54</ele>
        <time>2020-09-19T08:35:49.000Z</time>
      </trkpt>
      <trkpt lat="47.12444" lon="-1.59429">
        <ele>54</ele>
        <time>2020-09-19T08:35:51.000Z</time>
      </trkpt>
      <trkpt lat="47.12444" lon="-1.59408">
        <ele>54</ele>
        <time>2020-09-19T08:35:53.000Z</time>
      </trkpt>
      <trkpt lat="47.12442" lon="-1.59388">
        <ele>54</ele>
        <time>2020-09-19T08:35:55.000Z</time>
      </trkpt>
      <trkpt lat="47.12441" lon="-1.59367">
        <ele>54</ele>
        <time>2020-09-19T08:35:57.000Z</time>
      </trkpt>
      <trkpt lat="47.12439" lon="-1.59347">
        <ele>54</ele>
        <time>2020-09-19T08:35:59.000Z</time>
      </trkpt>
      <trkpt lat="47.12438" lon="-1.59326">
        <ele>54</ele>
        <time>2020-09-19T08:36:01.000Z</time>
      </trkpt>
      <trkpt lat="47.12437" lon="-1.59306">
        <ele>54</ele>
        <time>2020-09-19T08:36:03.000Z</time>
      </trkpt>
      <trkpt lat="47.12436" lon="-1.59285">
        <ele>54</ele>
        <time>2020-09-19T08:36:05.000Z</time>
      </trkpt>
      <trkpt lat="47.12435" lon="-1.59264">
        <ele>54</ele>
        <time>2020-09-19T08:36:07.000Z</time>
      </trkpt>
      <trkpt lat="47.12434" lon="-1.59243">
        <ele>54</ele>
        <time>2020-09-19T08:36:09.000Z</time>
      </trkpt>
      <trkpt lat="47.12431" lon="-1.59223">
        <ele>54</ele>
        <time>2020-09-19T08:36:11.000Z</time>
      </trkpt>
      <trkpt lat="47.12428" lon="-1.59203">
        <ele>53</ele>
        <time>2020-09-19T08:36:13.000Z</time>
      </trkpt>
      <trkpt lat="47.12426" lon="-1.59183">
        <ele>53</ele>
        <time>2020-09-19T08:36:15.000Z</time>
      </trkpt>
      <trkpt lat="47.12429" lon="-1.59162">
        <ele>53</ele>
        <time>2020-09-19T08:36:17.000Z</time>
      </trkpt>
      <trkpt lat="47.12429" lon="-1.59141">
        <ele>53</ele>
        <time>2020-09-19T08:36:19.000Z</time>
      </trkpt>
      <trkpt lat="47.1243" lon="-1.5912">
        <ele>53</ele>
        <time>2020-09-19T08:36:21.000Z</time>
      </trkpt>
      <trkpt lat="47.12429" lon="-1.591">
        <ele>53</ele>
        <time>2020-09-19T08:36:23.000Z</time>
      </trkpt>
      <trkpt lat="47.12428" lon="-1.5908">
        <ele>53</ele>
        <time>2020-09-19T08:36:25.000Z</time>
      </trkpt>
      <trkpt lat="47.12427" lon="-1.5906">
        <ele>53</ele>
        <time>2020-09-19T08:36:27.000Z</time>
      </trkpt>
      <trkpt lat="47.12427" lon="-1.59041">
        <ele>53</ele>
        <time>2020-09-19T08:36:29.000Z</time>
      </trkpt>
      <trkpt lat="47.12426" lon="-1.59023">
        <ele>53</ele>
        <time>2020-09-19T08:36:31.000Z</time>
      </trkpt>
      <trkpt lat="47.12424" lon="-1.59005">
        <ele>54</ele>
        <time>2020-09-19T08:36:33.000Z</time>
      </trkpt>
      <trkpt lat="47.12424" lon="-1.58989">
        <ele>54</ele>
        <time>2020-09-19T08:36:35.000Z</time>
      </trkpt>
      <trkpt lat="47.12423" lon="-1.58972">
        <ele>54</ele>
        <time>2020-09-19T08:36:37.000Z</time>
      </trkpt>
      <trkpt lat="47.12422" lon="-1.58956">
        <ele>54</ele>
        <time>2020-09-19T08:36:39.000Z</time>
      </trkpt>
      <trkpt lat="47.12421" lon="-1.5894">
        <ele>55</ele>
        <time>2020-09-19T08:36:41.000Z</time>
      </trkpt>
      <trkpt lat="47.1242" lon="-1.58924">
        <ele>55</ele>
        <time>2020-09-19T08:36:43.000Z</time>
      </trkpt>
      <trkpt lat="47.12418" lon="-1.58907">
        <ele>56</ele>
        <time>2020-09-19T08:36:45.000Z</time>
      </trkpt>
      <trkpt lat="47.12416" lon="-1.58891">
        <ele>57</ele>
        <time>2020-09-19T08:36:47.000Z</time>
      </trkpt>
      <trkpt lat="47.12415" lon="-1.58875">
        <ele>57</ele>
        <time>2020-09-19T08:36:49.000Z</time>
      </trkpt>
      <trkpt lat="47.12413" lon="-1.58857">
        <ele>57</ele>
        <time>2020-09-19T08:36:51.000Z</time>
      </trkpt>
      <trkpt lat="47.12412" lon="-1.5884">
        <ele>57</ele>
        <time>2020-09-19T08:36:53.000Z</time>
      </trkpt>
      <trkpt lat="47.1241" lon="-1.58822">
        <ele>57</ele>
        <time>2020-09-19T08:36:55.000Z</time>
      </trkpt>
      <trkpt lat="47.12407" lon="-1.58804">
        <ele>56</ele>
        <time>2020-09-19T08:36:57.000Z</time>
      </trkpt>
      <trkpt lat="47.12404" lon="-1.58784">
        <ele>56</ele>
        <time>2020-09-19T08:36:59.000Z</time>
      </trkpt>
      <trkpt lat="47.124" lon="-1.58756">
        <ele>56</ele>
        <time>2020-09-19T08:37:02.000Z</time>
      </trkpt>
      <trkpt lat="47.12397" lon="-1.58737">
        <ele>55</ele>
        <time>2020-09-19T08:37:04.000Z</time>
      </trkpt>
      <trkpt lat="47.12393" lon="-1.58717">
        <ele>55</ele>
        <time>2020-09-19T08:37:06.000Z</time>
      </trkpt>
      <trkpt lat="47.12388" lon="-1.58697">
        <ele>55</ele>
        <time>2020-09-19T08:37:08.000Z</time>
      </trkpt>
      <trkpt lat="47.12382" lon="-1.58667">
        <ele>55</ele>
        <time>2020-09-19T08:37:11.000Z</time>
      </trkpt>
      <trkpt lat="47.12377" lon="-1.58647">
        <ele>55</ele>
        <time>2020-09-19T08:37:13.000Z</time>
      </trkpt>
      <trkpt lat="47.12373" lon="-1.58626">
        <ele>55</ele>
        <time>2020-09-19T08:37:15.000Z</time>
      </trkpt>
      <trkpt lat="47.12368" lon="-1.58606">
        <ele>55</ele>
        <time>2020-09-19T08:37:17.000Z</time>
      </trkpt>
      <trkpt lat="47.12363" lon="-1.58586">
        <ele>55</ele>
        <time>2020-09-19T08:37:19.000Z</time>
      </trkpt>
      <trkpt lat="47.12358" lon="-1.58565">
        <ele>55</ele>
        <time>2020-09-19T08:37:21.000Z</time>
      </trkpt>
      <trkpt lat="47.12353" lon="-1.58545">
        <ele>54</ele>
        <time>2020-09-19T08:37:23.000Z</time>
      </trkpt>
      <trkpt lat="47.12348" lon="-1.58525">
        <ele>55</ele>
        <time>2020-09-19T08:37:25.000Z</time>
      </trkpt>
      <trkpt lat="47.12344" lon="-1.58506">
        <ele>55</ele>
        <time>2020-09-19T08:37:27.000Z</time>
      </trkpt>
      <trkpt lat="47.12339" lon="-1.58488">
        <ele>55</ele>
        <time>2020-09-19T08:37:29.000Z</time>
      </trkpt>
      <trkpt lat="47.12335" lon="-1.58471">
        <ele>55</ele>
        <time>2020-09-19T08:37:31.000Z</time>
      </trkpt>
      <trkpt lat="47.1233" lon="-1.58456">
        <ele>55</ele>
        <time>2020-09-19T08:37:33.000Z</time>
      </trkpt>
      <trkpt lat="47.12318" lon="-1.58434">
        <ele>55</ele>
        <time>2020-09-19T08:37:36.000Z</time>
      </trkpt>
      <trkpt lat="47.12308" lon="-1.5841">
        <ele>55</ele>
        <time>2020-09-19T08:37:39.000Z</time>
      </trkpt>
      <trkpt lat="47.12301" lon="-1.58393">
        <ele>55</ele>
        <time>2020-09-19T08:37:41.000Z</time>
      </trkpt>
      <trkpt lat="47.12298" lon="-1.58375">
        <ele>55</ele>
        <time>2020-09-19T08:37:43.000Z</time>
      </trkpt>
      <trkpt lat="47.12297" lon="-1.58359">
        <ele>56</ele>
        <time>2020-09-19T08:37:45.000Z</time>
      </trkpt>
      <trkpt lat="47.12292" lon="-1.58343">
        <ele>55</ele>
        <time>2020-09-19T08:37:47.000Z</time>
      </trkpt>
      <trkpt lat="47.12284" lon="-1.5833">
        <ele>56</ele>
        <time>2020-09-19T08:37:49.000Z</time>
      </trkpt>
      <trkpt lat="47.12273" lon="-1.5832">
        <ele>56</ele>
        <time>2020-09-19T08:37:51.000Z</time>
      </trkpt>
      <trkpt lat="47.12263" lon="-1.58315">
        <ele>55</ele>
        <time>2020-09-19T08:37:53.000Z</time>
      </trkpt>
      <trkpt lat="47.12255" lon="-1.58309">
        <ele>55</ele>
        <time>2020-09-19T08:37:55.000Z</time>
      </trkpt>
      <trkpt lat="47.12244" lon="-1.58297">
        <ele>54</ele>
        <time>2020-09-19T08:37:58.000Z</time>
      </trkpt>
      <trkpt lat="47.12235" lon="-1.58288">
        <ele>54</ele>
        <time>2020-09-19T08:38:00.000Z</time>
      </trkpt>
      <trkpt lat="47.12224" lon="-1.58277">
        <ele>53</ele>
        <time>2020-09-19T08:38:03.000Z</time>
      </trkpt>
      <trkpt lat="47.12215" lon="-1.58266">
        <ele>53</ele>
        <time>2020-09-19T08:38:06.000Z</time>
      </trkpt>
      <trkpt lat="47.12206" lon="-1.58254">
        <ele>53</ele>
        <time>2020-09-19T08:38:09.000Z</time>
      </trkpt>
      <trkpt lat="47.12199" lon="-1.58244">
        <ele>53</ele>
        <time>2020-09-19T08:38:11.000Z</time>
      </trkpt>
      <trkpt lat="47.122" lon="-1.58226">
        <ele>54</ele>
        <time>2020-09-19T08:38:13.000Z</time>
      </trkpt>
      <trkpt lat="47.12202" lon="-1.58207">
        <ele>54</ele>
        <time>2020-09-19T08:38:15.000Z</time>
      </trkpt>
      <trkpt lat="47.12204" lon="-1.58189">
        <ele>54</ele>
        <time>2020-09-19T08:38:17.000Z</time>
      </trkpt>
      <trkpt lat="47.12205" lon="-1.58171">
        <ele>55</ele>
        <time>2020-09-19T08:38:19.000Z</time>
      </trkpt>
      <trkpt lat="47.12209" lon="-1.58156">
        <ele>54</ele>
        <time>2020-09-19T08:38:21.000Z</time>
      </trkpt>
      <trkpt lat="47.12215" lon="-1.5814">
        <ele>54</ele>
        <time>2020-09-19T08:38:23.000Z</time>
      </trkpt>
      <trkpt lat="47.12222" lon="-1.58124">
        <ele>53</ele>
        <time>2020-09-19T08:38:25.000Z</time>
      </trkpt>
      <trkpt lat="47.12229" lon="-1.58109">
        <ele>53</ele>
        <time>2020-09-19T08:38:27.000Z</time>
      </trkpt>
      <trkpt lat="47.12235" lon="-1.58093">
        <ele>53</ele>
        <time>2020-09-19T08:38:29.000Z</time>
      </trkpt>
      <trkpt lat="47.1224" lon="-1.58077">
        <ele>53</ele>
        <time>2020-09-19T08:38:31.000Z</time>
      </trkpt>
      <trkpt lat="47.12245" lon="-1.58061">
        <ele>53</ele>
        <time>2020-09-19T08:38:33.000Z</time>
      </trkpt>
      <trkpt lat="47.12245" lon="-1.58044">
        <ele>52</ele>
        <time>2020-09-19T08:38:35.000Z</time>
      </trkpt>
      <trkpt lat="47.12241" lon="-1.58027">
        <ele>52</ele>
        <time>2020-09-19T08:38:37.000Z</time>
      </trkpt>
      <trkpt lat="47.12234" lon="-1.58012">
        <ele>53</ele>
        <time>2020-09-19T08:38:39.000Z</time>
      </trkpt>
      <trkpt lat="47.12226" lon="-1.57998">
        <ele>53</ele>
        <time>2020-09-19T08:38:41.000Z</time>
      </trkpt>
      <trkpt lat="47.12219" lon="-1.57984">
        <ele>54</ele>
        <time>2020-09-19T08:38:43.000Z</time>
      </trkpt>
      <trkpt lat="47.12211" lon="-1.57971">
        <ele>55</ele>
        <time>2020-09-19T08:38:45.000Z</time>
      </trkpt>
      <trkpt lat="47.12204" lon="-1.57958">
        <ele>55</ele>
        <time>2020-09-19T08:38:47.000Z</time>
      </trkpt>
      <trkpt lat="47.12193" lon="-1.57936">
        <ele>56</ele>
        <time>2020-09-19T08:38:50.000Z</time>
      </trkpt>
      <trkpt lat="47.12189" lon="-1.57922">
        <ele>56</ele>
        <time>2020-09-19T08:38:52.000Z</time>
      </trkpt>
      <trkpt lat="47.12185" lon="-1.57905">
        <ele>56</ele>
        <time>2020-09-19T08:38:54.000Z</time>
      </trkpt>
      <trkpt lat="47.12184" lon="-1.57889">
        <ele>56</ele>
        <time>2020-09-19T08:38:56.000Z</time>
      </trkpt>
      <trkpt lat="47.12183" lon="-1.57872">
        <ele>56</ele>
        <time>2020-09-19T08:38:58.000Z</time>
      </trkpt>
      <trkpt lat="47.12182" lon="-1.57855">
        <ele>57</ele>
        <time>2020-09-19T08:39:00.000Z</time>
      </trkpt>
      <trkpt lat="47.12181" lon="-1.57838">
        <ele>57</ele>
        <time>2020-09-19T08:39:02.000Z</time>
      </trkpt>
      <trkpt lat="47.12181" lon="-1.5782">
        <ele>57</ele>
        <time>2020-09-19T08:39:04.000Z</time>
      </trkpt>
      <trkpt lat="47.12181" lon="-1.57802">
        <ele>58</ele>
        <time>2020-09-19T08:39:06.000Z</time>
      </trkpt>
      <trkpt lat="47.1218" lon="-1.57785">
        <ele>58</ele>
        <time>2020-09-19T08:39:08.000Z</time>
      </trkpt>
      <trkpt lat="47.1218" lon="-1.57769">
        <ele>59</ele>
        <time>2020-09-19T08:39:10.000Z</time>
      </trkpt>
      <trkpt lat="47.1218" lon="-1.57751">
        <ele>59</ele>
        <time>2020-09-19T08:39:12.000Z</time>
      </trkpt>
      <trkpt lat="47.1218" lon="-1.57734">
        <ele>59</ele>
        <time>2020-09-19T08:39:14.000Z</time>
      </trkpt>
      <trkpt lat="47.1218" lon="-1.57716">
        <ele>59</ele>
        <time>2020-09-19T08:39:16.000Z</time>
      </trkpt>
      <trkpt lat="47.12179" lon="-1.57698">
        <ele>59</ele>
        <time>2020-09-19T08:39:18.000Z</time>
      </trkpt>
      <trkpt lat="47.12179" lon="-1.57679">
        <ele>60</ele>
        <time>2020-09-19T08:39:20.000Z</time>
      </trkpt>
      <trkpt lat="47.12178" lon="-1.57661">
        <ele>60</ele>
        <time>2020-09-19T08:39:22.000Z</time>
      </trkpt>
      <trkpt lat="47.12179" lon="-1.57633">
        <ele>60</ele>
        <time>2020-09-19T08:39:25.000Z</time>
      </trkpt>
      <trkpt lat="47.12179" lon="-1.57615">
        <ele>60</ele>
        <time>2020-09-19T08:39:27.000Z</time>
      </trkpt>
      <trkpt lat="47.12178" lon="-1.57595">
        <ele>59</ele>
        <time>2020-09-19T08:39:29.000Z</time>
      </trkpt>
      <trkpt lat="47.12178" lon="-1.57576">
        <ele>59</ele>
        <time>2020-09-19T08:39:31.000Z</time>
      </trkpt>
      <trkpt lat="47.12177" lon="-1.57556">
        <ele>59</ele>
        <time>2020-09-19T08:39:33.000Z</time>
      </trkpt>
      <trkpt lat="47.12176" lon="-1.57537">
        <ele>59</ele>
        <time>2020-09-19T08:39:35.000Z</time>
      </trkpt>
      <trkpt lat="47.12174" lon="-1.57518">
        <ele>58</ele>
        <time>2020-09-19T08:39:37.000Z</time>
      </trkpt>
      <trkpt lat="47.12172" lon="-1.57498">
        <ele>58</ele>
        <time>2020-09-19T08:39:39.000Z</time>
      </trkpt>
      <trkpt lat="47.12169" lon="-1.57479">
        <ele>58</ele>
        <time>2020-09-19T08:39:41.000Z</time>
      </trkpt>
      <trkpt lat="47.12165" lon="-1.57461">
        <ele>58</ele>
        <time>2020-09-19T08:39:43.000Z</time>
      </trkpt>
      <trkpt lat="47.12162" lon="-1.57442">
        <ele>58</ele>
        <time>2020-09-19T08:39:45.000Z</time>
      </trkpt>
      <trkpt lat="47.12158" lon="-1.57423">
        <ele>58</ele>
        <time>2020-09-19T08:39:47.000Z</time>
      </trkpt>
      <trkpt lat="47.12155" lon="-1.57403">
        <ele>58</ele>
        <time>2020-09-19T08:39:49.000Z</time>
      </trkpt>
      <trkpt lat="47.12151" lon="-1.57384">
        <ele>58</ele>
        <time>2020-09-19T08:39:51.000Z</time>
      </trkpt>
      <trkpt lat="47.12146" lon="-1.57355">
        <ele>57</ele>
        <time>2020-09-19T08:39:54.000Z</time>
      </trkpt>
      <trkpt lat="47.12143" lon="-1.57335">
        <ele>56</ele>
        <time>2020-09-19T08:39:56.000Z</time>
      </trkpt>
      <trkpt lat="47.12139" lon="-1.57314">
        <ele>56</ele>
        <time>2020-09-19T08:39:58.000Z</time>
      </trkpt>
      <trkpt lat="47.12135" lon="-1.57294">
        <ele>56</ele>
        <time>2020-09-19T08:40:00.000Z</time>
      </trkpt>
      <trkpt lat="47.1213" lon="-1.57273">
        <ele>55</ele>
        <time>2020-09-19T08:40:02.000Z</time>
      </trkpt>
      <trkpt lat="47.12125" lon="-1.57252">
        <ele>55</ele>
        <time>2020-09-19T08:40:04.000Z</time>
      </trkpt>
      <trkpt lat="47.12121" lon="-1.57231">
        <ele>55</ele>
        <time>2020-09-19T08:40:06.000Z</time>
      </trkpt>
      <trkpt lat="47.12117" lon="-1.57209">
        <ele>55</ele>
        <time>2020-09-19T08:40:08.000Z</time>
      </trkpt>
      <trkpt lat="47.12111" lon="-1.57176">
        <ele>55</ele>
        <time>2020-09-19T08:40:11.000Z</time>
      </trkpt>
      <trkpt lat="47.12107" lon="-1.57154">
        <ele>55</ele>
        <time>2020-09-19T08:40:13.000Z</time>
      </trkpt>
      <trkpt lat="47.12102" lon="-1.57133">
        <ele>54</ele>
        <time>2020-09-19T08:40:15.000Z</time>
      </trkpt>
      <trkpt lat="47.12098" lon="-1.57112">
        <ele>53</ele>
        <time>2020-09-19T08:40:17.000Z</time>
      </trkpt>
      <trkpt lat="47.12093" lon="-1.57091">
        <ele>53</ele>
        <time>2020-09-19T08:40:19.000Z</time>
      </trkpt>
      <trkpt lat="47.12089" lon="-1.5707">
        <ele>53</ele>
        <time>2020-09-19T08:40:21.000Z</time>
      </trkpt>
      <trkpt lat="47.12086" lon="-1.57048">
        <ele>52</ele>
        <time>2020-09-19T08:40:23.000Z</time>
      </trkpt>
      <trkpt lat="47.12083" lon="-1.57027">
        <ele>52</ele>
        <time>2020-09-19T08:40:25.000Z</time>
      </trkpt>
      <trkpt lat="47.12077" lon="-1.56996">
        <ele>53</ele>
        <time>2020-09-19T08:40:28.000Z</time>
      </trkpt>
      <trkpt lat="47.12072" lon="-1.56975">
        <ele>53</ele>
        <time>2020-09-19T08:40:30.000Z</time>
      </trkpt>
      <trkpt lat="47.12068" lon="-1.56956">
        <ele>53</ele>
        <time>2020-09-19T08:40:32.000Z</time>
      </trkpt>
      <trkpt lat="47.12064" lon="-1.56937">
        <ele>53</ele>
        <time>2020-09-19T08:40:34.000Z</time>
      </trkpt>
      <trkpt lat="47.12061" lon="-1.56919">
        <ele>53</ele>
        <time>2020-09-19T08:40:36.000Z</time>
      </trkpt>
      <trkpt lat="47.12057" lon="-1.56902">
        <ele>54</ele>
        <time>2020-09-19T08:40:38.000Z</time>
      </trkpt>
      <trkpt lat="47.12053" lon="-1.56884">
        <ele>54</ele>
        <time>2020-09-19T08:40:40.000Z</time>
      </trkpt>
      <trkpt lat="47.12051" lon="-1.56866">
        <ele>54</ele>
        <time>2020-09-19T08:40:42.000Z</time>
      </trkpt>
      <trkpt lat="47.12048" lon="-1.56849">
        <ele>54</ele>
        <time>2020-09-19T08:40:44.000Z</time>
      </trkpt>
      <trkpt lat="47.12045" lon="-1.56832">
        <ele>54</ele>
        <time>2020-09-19T08:40:46.000Z</time>
      </trkpt>
      <trkpt lat="47.12043" lon="-1.56816">
        <ele>54</ele>
        <time>2020-09-19T08:40:48.000Z</time>
      </trkpt>
      <trkpt lat="47.1204" lon="-1.56799">
        <ele>55</ele>
        <time>2020-09-19T08:40:50.000Z</time>
      </trkpt>
      <trkpt lat="47.12036" lon="-1.56782">
        <ele>56</ele>
        <time>2020-09-19T08:40:52.000Z</time>
      </trkpt>
      <trkpt lat="47.12033" lon="-1.56766">
        <ele>57</ele>
        <time>2020-09-19T08:40:54.000Z</time>
      </trkpt>
      <trkpt lat="47.1203" lon="-1.56749">
        <ele>58</ele>
        <time>2020-09-19T08:40:56.000Z</time>
      </trkpt>
      <trkpt lat="47.12027" lon="-1.56733">
        <ele>59</ele>
        <time>2020-09-19T08:40:58.000Z</time>
      </trkpt>
      <trkpt lat="47.12023" lon="-1.56717">
        <ele>60</ele>
        <time>2020-09-19T08:41:00.000Z</time>
      </trkpt>
      <trkpt lat="47.1202" lon="-1.567">
        <ele>60</ele>
        <time>2020-09-19T08:41:02.000Z</time>
      </trkpt>
      <trkpt lat="47.12017" lon="-1.56683">
        <ele>61</ele>
        <time>2020-09-19T08:41:04.000Z</time>
      </trkpt>
      <trkpt lat="47.12014" lon="-1.56666">
        <ele>61</ele>
        <time>2020-09-19T08:41:06.000Z</time>
      </trkpt>
      <trkpt lat="47.1201" lon="-1.56649">
        <ele>62</ele>
        <time>2020-09-19T08:41:08.000Z</time>
      </trkpt>
      <trkpt lat="47.12007" lon="-1.56632">
        <ele>62</ele>
        <time>2020-09-19T08:41:10.000Z</time>
      </trkpt>
      <trkpt lat="47.12004" lon="-1.56615">
        <ele>62</ele>
        <time>2020-09-19T08:41:12.000Z</time>
      </trkpt>
      <trkpt lat="47.12" lon="-1.56599">
        <ele>62</ele>
        <time>2020-09-19T08:41:14.000Z</time>
      </trkpt>
      <trkpt lat="47.11997" lon="-1.56582">
        <ele>62</ele>
        <time>2020-09-19T08:41:16.000Z</time>
      </trkpt>
      <trkpt lat="47.11993" lon="-1.56564">
        <ele>63</ele>
        <time>2020-09-19T08:41:18.000Z</time>
      </trkpt>
      <trkpt lat="47.11989" lon="-1.56547">
        <ele>63</ele>
        <time>2020-09-19T08:41:20.000Z</time>
      </trkpt>
      <trkpt lat="47.11985" lon="-1.56528">
        <ele>62</ele>
        <time>2020-09-19T08:41:22.000Z</time>
      </trkpt>
      <trkpt lat="47.11981" lon="-1.5651">
        <ele>63</ele>
        <time>2020-09-19T08:41:24.000Z</time>
      </trkpt>
      <trkpt lat="47.11976" lon="-1.56491">
        <ele>63</ele>
        <time>2020-09-19T08:41:26.000Z</time>
      </trkpt>
      <trkpt lat="47.11971" lon="-1.56472">
        <ele>62</ele>
        <time>2020-09-19T08:41:28.000Z</time>
      </trkpt>
      <trkpt lat="47.11966" lon="-1.56452">
        <ele>62</ele>
        <time>2020-09-19T08:41:30.000Z</time>
      </trkpt>
      <trkpt lat="47.11962" lon="-1.56433">
        <ele>62</ele>
        <time>2020-09-19T08:41:32.000Z</time>
      </trkpt>
      <trkpt lat="47.11957" lon="-1.56414">
        <ele>62</ele>
        <time>2020-09-19T08:41:34.000Z</time>
      </trkpt>
      <trkpt lat="47.11952" lon="-1.56394">
        <ele>61</ele>
        <time>2020-09-19T08:41:36.000Z</time>
      </trkpt>
      <trkpt lat="47.11947" lon="-1.56375">
        <ele>61</ele>
        <time>2020-09-19T08:41:38.000Z</time>
      </trkpt>
      <trkpt lat="47.11942" lon="-1.56355">
        <ele>61</ele>
        <time>2020-09-19T08:41:40.000Z</time>
      </trkpt>
      <trkpt lat="47.11937" lon="-1.56336">
        <ele>61</ele>
        <time>2020-09-19T08:41:42.000Z</time>
      </trkpt>
      <trkpt lat="47.11932" lon="-1.56316">
        <ele>61</ele>
        <time>2020-09-19T08:41:44.000Z</time>
      </trkpt>
      <trkpt lat="47.11927" lon="-1.56296">
        <ele>61</ele>
        <time>2020-09-19T08:41:46.000Z</time>
      </trkpt>
      <trkpt lat="47.11922" lon="-1.56276">
        <ele>60</ele>
        <time>2020-09-19T08:41:48.000Z</time>
      </trkpt>
      <trkpt lat="47.11916" lon="-1.56256">
        <ele>60</ele>
        <time>2020-09-19T08:41:50.000Z</time>
      </trkpt>
      <trkpt lat="47.11911" lon="-1.56237">
        <ele>61</ele>
        <time>2020-09-19T08:41:52.000Z</time>
      </trkpt>
      <trkpt lat="47.11906" lon="-1.56217">
        <ele>61</ele>
        <time>2020-09-19T08:41:54.000Z</time>
      </trkpt>
      <trkpt lat="47.11901" lon="-1.56198">
        <ele>61</ele>
        <time>2020-09-19T08:41:56.000Z</time>
      </trkpt>
      <trkpt lat="47.11896" lon="-1.56179">
        <ele>61</ele>
        <time>2020-09-19T08:41:58.000Z</time>
      </trkpt>
      <trkpt lat="47.11891" lon="-1.5616">
        <ele>61</ele>
        <time>2020-09-19T08:42:00.000Z</time>
      </trkpt>
      <trkpt lat="47.11886" lon="-1.5614">
        <ele>61</ele>
        <time>2020-09-19T08:42:02.000Z</time>
      </trkpt>
      <trkpt lat="47.11882" lon="-1.56122">
        <ele>62</ele>
        <time>2020-09-19T08:42:04.000Z</time>
      </trkpt>
      <trkpt lat="47.11877" lon="-1.56104">
        <ele>62</ele>
        <time>2020-09-19T08:42:06.000Z</time>
      </trkpt>
      <trkpt lat="47.11874" lon="-1.56087">
        <ele>62</ele>
        <time>2020-09-19T08:42:08.000Z</time>
      </trkpt>
      <trkpt lat="47.1187" lon="-1.56068">
        <ele>62</ele>
        <time>2020-09-19T08:42:10.000Z</time>
      </trkpt>
      <trkpt lat="47.11867" lon="-1.56049">
        <ele>62</ele>
        <time>2020-09-19T08:42:12.000Z</time>
      </trkpt>
      <trkpt lat="47.11864" lon="-1.5603">
        <ele>62</ele>
        <time>2020-09-19T08:42:14.000Z</time>
      </trkpt>
      <trkpt lat="47.11862" lon="-1.56011">
        <ele>62</ele>
        <time>2020-09-19T08:42:16.000Z</time>
      </trkpt>
      <trkpt lat="47.1186" lon="-1.55992">
        <ele>62</ele>
        <time>2020-09-19T08:42:18.000Z</time>
      </trkpt>
      <trkpt lat="47.11859" lon="-1.55973">
        <ele>63</ele>
        <time>2020-09-19T08:42:20.000Z</time>
      </trkpt>
      <trkpt lat="47.11858" lon="-1.55954">
        <ele>62</ele>
        <time>2020-09-19T08:42:22.000Z</time>
      </trkpt>
      <trkpt lat="47.11856" lon="-1.55935">
        <ele>63</ele>
        <time>2020-09-19T08:42:24.000Z</time>
      </trkpt>
      <trkpt lat="47.11855" lon="-1.55916">
        <ele>63</ele>
        <time>2020-09-19T08:42:26.000Z</time>
      </trkpt>
      <trkpt lat="47.11853" lon="-1.55898">
        <ele>63</ele>
        <time>2020-09-19T08:42:28.000Z</time>
      </trkpt>
      <trkpt lat="47.11852" lon="-1.55879">
        <ele>64</ele>
        <time>2020-09-19T08:42:30.000Z</time>
      </trkpt>
      <trkpt lat="47.1185" lon="-1.55861">
        <ele>63</ele>
        <time>2020-09-19T08:42:32.000Z</time>
      </trkpt>
      <trkpt lat="47.11849" lon="-1.55842">
        <ele>64</ele>
        <time>2020-09-19T08:42:34.000Z</time>
      </trkpt>
      <trkpt lat="47.11847" lon="-1.55825">
        <ele>64</ele>
        <time>2020-09-19T08:42:36.000Z</time>
      </trkpt>
      <trkpt lat="47.11846" lon="-1.55807">
        <ele>64</ele>
        <time>2020-09-19T08:42:38.000Z</time>
      </trkpt>
      <trkpt lat="47.11844" lon="-1.55787">
        <ele>64</ele>
        <time>2020-09-19T08:42:40.000Z</time>
      </trkpt>
      <trkpt lat="47.11843" lon="-1.55769">
        <ele>65</ele>
        <time>2020-09-19T08:42:42.000Z</time>
      </trkpt>
      <trkpt lat="47.11842" lon="-1.55751">
        <ele>65</ele>
        <time>2020-09-19T08:42:44.000Z</time>
      </trkpt>
      <trkpt lat="47.11841" lon="-1.55732">
        <ele>64</ele>
        <time>2020-09-19T08:42:46.000Z</time>
      </trkpt>
      <trkpt lat="47.11839" lon="-1.55713">
        <ele>65</ele>
        <time>2020-09-19T08:42:48.000Z</time>
      </trkpt>
      <trkpt lat="47.11838" lon="-1.55695">
        <ele>64</ele>
        <time>2020-09-19T08:42:50.000Z</time>
      </trkpt>
      <trkpt lat="47.11837" lon="-1.55677">
        <ele>65</ele>
        <time>2020-09-19T08:42:52.000Z</time>
      </trkpt>
      <trkpt lat="47.11835" lon="-1.55658">
        <ele>65</ele>
        <time>2020-09-19T08:42:54.000Z</time>
      </trkpt>
      <trkpt lat="47.11834" lon="-1.55639">
        <ele>65</ele>
        <time>2020-09-19T08:42:56.000Z</time>
      </trkpt>
      <trkpt lat="47.11832" lon="-1.5562">
        <ele>65</ele>
        <time>2020-09-19T08:42:58.000Z</time>
      </trkpt>
      <trkpt lat="47.11831" lon="-1.55601">
        <ele>65</ele>
        <time>2020-09-19T08:43:00.000Z</time>
      </trkpt>
      <trkpt lat="47.1183" lon="-1.55582">
        <ele>65</ele>
        <time>2020-09-19T08:43:02.000Z</time>
      </trkpt>
      <trkpt lat="47.11828" lon="-1.55563">
        <ele>65</ele>
        <time>2020-09-19T08:43:04.000Z</time>
      </trkpt>
      <trkpt lat="47.11827" lon="-1.55544">
        <ele>65</ele>
        <time>2020-09-19T08:43:06.000Z</time>
      </trkpt>
      <trkpt lat="47.11825" lon="-1.55525">
        <ele>65</ele>
        <time>2020-09-19T08:43:08.000Z</time>
      </trkpt>
      <trkpt lat="47.11824" lon="-1.55506">
        <ele>65</ele>
        <time>2020-09-19T08:43:10.000Z</time>
      </trkpt>
      <trkpt lat="47.11822" lon="-1.55487">
        <ele>65</ele>
        <time>2020-09-19T08:43:12.000Z</time>
      </trkpt>
      <trkpt lat="47.11821" lon="-1.55468">
        <ele>65</ele>
        <time>2020-09-19T08:43:14.000Z</time>
      </trkpt>
      <trkpt lat="47.1182" lon="-1.55449">
        <ele>65</ele>
        <time>2020-09-19T08:43:16.000Z</time>
      </trkpt>
      <trkpt lat="47.11819" lon="-1.55431">
        <ele>65</ele>
        <time>2020-09-19T08:43:18.000Z</time>
      </trkpt>
      <trkpt lat="47.11819" lon="-1.55412">
        <ele>65</ele>
        <time>2020-09-19T08:43:20.000Z</time>
      </trkpt>
      <trkpt lat="47.11819" lon="-1.55393">
        <ele>65</ele>
        <time>2020-09-19T08:43:22.000Z</time>
      </trkpt>
      <trkpt lat="47.11818" lon="-1.55374">
        <ele>65</ele>
        <time>2020-09-19T08:43:24.000Z</time>
      </trkpt>
      <trkpt lat="47.11818" lon="-1.55355">
        <ele>66</ele>
        <time>2020-09-19T08:43:26.000Z</time>
      </trkpt>
      <trkpt lat="47.11817" lon="-1.55336">
        <ele>66</ele>
        <time>2020-09-19T08:43:28.000Z</time>
      </trkpt>
      <trkpt lat="47.11817" lon="-1.55316">
        <ele>66</ele>
        <time>2020-09-19T08:43:30.000Z</time>
      </trkpt>
      <trkpt lat="47.11817" lon="-1.55297">
        <ele>66</ele>
        <time>2020-09-19T08:43:32.000Z</time>
      </trkpt>
      <trkpt lat="47.11816" lon="-1.55277">
        <ele>66</ele>
        <time>2020-09-19T08:43:34.000Z</time>
      </trkpt>
      <trkpt lat="47.11816" lon="-1.55259">
        <ele>66</ele>
        <time>2020-09-19T08:43:36.000Z</time>
      </trkpt>
      <trkpt lat="47.11816" lon="-1.5524">
        <ele>66</ele>
        <time>2020-09-19T08:43:38.000Z</time>
      </trkpt>
      <trkpt lat="47.11815" lon="-1.55221">
        <ele>66</ele>
        <time>2020-09-19T08:43:40.000Z</time>
      </trkpt>
      <trkpt lat="47.11814" lon="-1.55202">
        <ele>66</ele>
        <time>2020-09-19T08:43:42.000Z</time>
      </trkpt>
      <trkpt lat="47.11813" lon="-1.55183">
        <ele>66</ele>
        <time>2020-09-19T08:43:44.000Z</time>
      </trkpt>
      <trkpt lat="47.11812" lon="-1.55164">
        <ele>66</ele>
        <time>2020-09-19T08:43:46.000Z</time>
      </trkpt>
      <trkpt lat="47.11811" lon="-1.55145">
        <ele>67</ele>
        <time>2020-09-19T08:43:48.000Z</time>
      </trkpt>
      <trkpt lat="47.1181" lon="-1.55126">
        <ele>67</ele>
        <time>2020-09-19T08:43:50.000Z</time>
      </trkpt>
      <trkpt lat="47.11808" lon="-1.55107">
        <ele>67</ele>
        <time>2020-09-19T08:43:52.000Z</time>
      </trkpt>
      <trkpt lat="47.11806" lon="-1.55088">
        <ele>67</ele>
        <time>2020-09-19T08:43:54.000Z</time>
      </trkpt>
      <trkpt lat="47.11804" lon="-1.55069">
        <ele>67</ele>
        <time>2020-09-19T08:43:56.000Z</time>
      </trkpt>
      <trkpt lat="47.11801" lon="-1.55051">
        <ele>67</ele>
        <time>2020-09-19T08:43:58.000Z</time>
      </trkpt>
      <trkpt lat="47.11797" lon="-1.55034">
        <ele>67</ele>
        <time>2020-09-19T08:44:00.000Z</time>
      </trkpt>
      <trkpt lat="47.11794" lon="-1.55015">
        <ele>67</ele>
        <time>2020-09-19T08:44:02.000Z</time>
      </trkpt>
      <trkpt lat="47.11791" lon="-1.54997">
        <ele>67</ele>
        <time>2020-09-19T08:44:04.000Z</time>
      </trkpt>
      <trkpt lat="47.11787" lon="-1.54979">
        <ele>67</ele>
        <time>2020-09-19T08:44:06.000Z</time>
      </trkpt>
      <trkpt lat="47.11783" lon="-1.54961">
        <ele>67</ele>
        <time>2020-09-19T08:44:08.000Z</time>
      </trkpt>
      <trkpt lat="47.11779" lon="-1.54944">
        <ele>67</ele>
        <time>2020-09-19T08:44:10.000Z</time>
      </trkpt>
      <trkpt lat="47.11774" lon="-1.54927">
        <ele>67</ele>
        <time>2020-09-19T08:44:12.000Z</time>
      </trkpt>
      <trkpt lat="47.11769" lon="-1.54909">
        <ele>67</ele>
        <time>2020-09-19T08:44:14.000Z</time>
      </trkpt>
      <trkpt lat="47.11764" lon="-1.54892">
        <ele>68</ele>
        <time>2020-09-19T08:44:16.000Z</time>
      </trkpt>
      <trkpt lat="47.11759" lon="-1.54875">
        <ele>67</ele>
        <time>2020-09-19T08:44:18.000Z</time>
      </trkpt>
      <trkpt lat="47.11754" lon="-1.54858">
        <ele>67</ele>
        <time>2020-09-19T08:44:20.000Z</time>
      </trkpt>
      <trkpt lat="47.11749" lon="-1.54841">
        <ele>68</ele>
        <time>2020-09-19T08:44:22.000Z</time>
      </trkpt>
      <trkpt lat="47.11744" lon="-1.54823">
        <ele>67</ele>
        <time>2020-09-19T08:44:24.000Z</time>
      </trkpt>
      <trkpt lat="47.11738" lon="-1.54806">
        <ele>68</ele>
        <time>2020-09-19T08:44:26.000Z</time>
      </trkpt>
      <trkpt lat="47.11734" lon="-1.5479">
        <ele>68</ele>
        <time>2020-09-19T08:44:28.000Z</time>
      </trkpt>
      <trkpt lat="47.11728" lon="-1.54773">
        <ele>68</ele>
        <time>2020-09-19T08:44:30.000Z</time>
      </trkpt>
      <trkpt lat="47.11723" lon="-1.54755">
        <ele>68</ele>
        <time>2020-09-19T08:44:32.000Z</time>
      </trkpt>
      <trkpt lat="47.11717" lon="-1.54738">
        <ele>68</ele>
        <time>2020-09-19T08:44:34.000Z</time>
      </trkpt>
      <trkpt lat="47.11712" lon="-1.54722">
        <ele>68</ele>
        <time>2020-09-19T08:44:36.000Z</time>
      </trkpt>
      <trkpt lat="47.11707" lon="-1.54705">
        <ele>69</ele>
        <time>2020-09-19T08:44:38.000Z</time>
      </trkpt>
      <trkpt lat="47.11702" lon="-1.54688">
        <ele>68</ele>
        <time>2020-09-19T08:44:40.000Z</time>
      </trkpt>
      <trkpt lat="47.11697" lon="-1.54671">
        <ele>69</ele>
        <time>2020-09-19T08:44:42.000Z</time>
      </trkpt>
      <trkpt lat="47.11691" lon="-1.54654">
        <ele>69</ele>
        <time>2020-09-19T08:44:44.000Z</time>
      </trkpt>
      <trkpt lat="47.11687" lon="-1.54637">
        <ele>69</ele>
        <time>2020-09-19T08:44:46.000Z</time>
      </trkpt>
      <trkpt lat="47.11682" lon="-1.54621">
        <ele>69</ele>
        <time>2020-09-19T08:44:48.000Z</time>
      </trkpt>
      <trkpt lat="47.11677" lon="-1.54604">
        <ele>70</ele>
        <time>2020-09-19T08:44:50.000Z</time>
      </trkpt>
      <trkpt lat="47.11671" lon="-1.54587">
        <ele>70</ele>
        <time>2020-09-19T08:44:52.000Z</time>
      </trkpt>
      <trkpt lat="47.11666" lon="-1.5457">
        <ele>70</ele>
        <time>2020-09-19T08:44:54.000Z</time>
      </trkpt>
      <trkpt lat="47.1166" lon="-1.54554">
        <ele>70</ele>
        <time>2020-09-19T08:44:56.000Z</time>
      </trkpt>
      <trkpt lat="47.11655" lon="-1.54537">
        <ele>70</ele>
        <time>2020-09-19T08:44:58.000Z</time>
      </trkpt>
      <trkpt lat="47.11649" lon="-1.5452">
        <ele>70</ele>
        <time>2020-09-19T08:45:00.000Z</time>
      </trkpt>
      <trkpt lat="47.11643" lon="-1.54503">
        <ele>70</ele>
        <time>2020-09-19T08:45:02.000Z</time>
      </trkpt>
      <trkpt lat="47.11637" lon="-1.54486">
        <ele>70</ele>
        <time>2020-09-19T08:45:04.000Z</time>
      </trkpt>
      <trkpt lat="47.11632" lon="-1.54469">
        <ele>70</ele>
        <time>2020-09-19T08:45:06.000Z</time>
      </trkpt>
      <trkpt lat="47.11626" lon="-1.54451">
        <ele>70</ele>
        <time>2020-09-19T08:45:08.000Z</time>
      </trkpt>
      <trkpt lat="47.1162" lon="-1.54435">
        <ele>70</ele>
        <time>2020-09-19T08:45:10.000Z</time>
      </trkpt>
      <trkpt lat="47.11614" lon="-1.54417">
        <ele>70</ele>
        <time>2020-09-19T08:45:12.000Z</time>
      </trkpt>
      <trkpt lat="47.11609" lon="-1.54401">
        <ele>69</ele>
        <time>2020-09-19T08:45:14.000Z</time>
      </trkpt>
      <trkpt lat="47.11603" lon="-1.54383">
        <ele>70</ele>
        <time>2020-09-19T08:45:16.000Z</time>
      </trkpt>
      <trkpt lat="47.11597" lon="-1.54367">
        <ele>70</ele>
        <time>2020-09-19T08:45:18.000Z</time>
      </trkpt>
      <trkpt lat="47.11591" lon="-1.5435">
        <ele>70</ele>
        <time>2020-09-19T08:45:20.000Z</time>
      </trkpt>
      <trkpt lat="47.11586" lon="-1.54333">
        <ele>70</ele>
        <time>2020-09-19T08:45:22.000Z</time>
      </trkpt>
      <trkpt lat="47.11581" lon="-1.54317">
        <ele>70</ele>
        <time>2020-09-19T08:45:24.000Z</time>
      </trkpt>
      <trkpt lat="47.11576" lon="-1.54302">
        <ele>70</ele>
        <time>2020-09-19T08:45:26.000Z</time>
      </trkpt>
      <trkpt lat="47.11571" lon="-1.54288">
        <ele>70</ele>
        <time>2020-09-19T08:45:28.000Z</time>
      </trkpt>
      <trkpt lat="47.11566" lon="-1.54276">
        <ele>70</ele>
        <time>2020-09-19T08:45:30.000Z</time>
      </trkpt>
      <trkpt lat="47.11565" lon="-1.54261">
        <ele>70</ele>
        <time>2020-09-19T08:45:33.000Z</time>
      </trkpt>
      <trkpt lat="47.11572" lon="-1.54251">
        <ele>70</ele>
        <time>2020-09-19T08:45:35.000Z</time>
      </trkpt>
      <trkpt lat="47.11582" lon="-1.54245">
        <ele>71</ele>
        <time>2020-09-19T08:45:37.000Z</time>
      </trkpt>
      <trkpt lat="47.11592" lon="-1.54237">
        <ele>71</ele>
        <time>2020-09-19T08:45:39.000Z</time>
      </trkpt>
      <trkpt lat="47.11603" lon="-1.5423">
        <ele>72</ele>
        <time>2020-09-19T08:45:41.000Z</time>
      </trkpt>
      <trkpt lat="47.11613" lon="-1.54221">
        <ele>73</ele>
        <time>2020-09-19T08:45:43.000Z</time>
      </trkpt>
      <trkpt lat="47.11624" lon="-1.54213">
        <ele>73</ele>
        <time>2020-09-19T08:45:45.000Z</time>
      </trkpt>
      <trkpt lat="47.11633" lon="-1.54203">
        <ele>72</ele>
        <time>2020-09-19T08:45:47.000Z</time>
      </trkpt>
      <trkpt lat="47.11641" lon="-1.54191">
        <ele>72</ele>
        <time>2020-09-19T08:45:49.000Z</time>
      </trkpt>
      <trkpt lat="47.11646" lon="-1.54176">
        <ele>73</ele>
        <time>2020-09-19T08:45:51.000Z</time>
      </trkpt>
      <trkpt lat="47.1165" lon="-1.54159">
        <ele>73</ele>
        <time>2020-09-19T08:45:53.000Z</time>
      </trkpt>
      <trkpt lat="47.1166" lon="-1.54147">
        <ele>72</ele>
        <time>2020-09-19T08:45:55.000Z</time>
      </trkpt>
      <trkpt lat="47.11672" lon="-1.54143">
        <ele>73</ele>
        <time>2020-09-19T08:45:57.000Z</time>
      </trkpt>
      <trkpt lat="47.11682" lon="-1.54134">
        <ele>73</ele>
        <time>2020-09-19T08:45:59.000Z</time>
      </trkpt>
      <trkpt lat="47.11692" lon="-1.54122">
        <ele>73</ele>
        <time>2020-09-19T08:46:01.000Z</time>
      </trkpt>
      <trkpt lat="47.11701" lon="-1.54107">
        <ele>73</ele>
        <time>2020-09-19T08:46:03.000Z</time>
      </trkpt>
      <trkpt lat="47.11708" lon="-1.54091">
        <ele>73</ele>
        <time>2020-09-19T08:46:05.000Z</time>
      </trkpt>
      <trkpt lat="47.11714" lon="-1.54076">
        <ele>74</ele>
        <time>2020-09-19T08:46:07.000Z</time>
      </trkpt>
      <trkpt lat="47.1172" lon="-1.5406">
        <ele>74</ele>
        <time>2020-09-19T08:46:09.000Z</time>
      </trkpt>
      <trkpt lat="47.11727" lon="-1.54044">
        <ele>74</ele>
        <time>2020-09-19T08:46:11.000Z</time>
      </trkpt>
      <trkpt lat="47.11733" lon="-1.5403">
        <ele>74</ele>
        <time>2020-09-19T08:46:13.000Z</time>
      </trkpt>
      <trkpt lat="47.11739" lon="-1.54015">
        <ele>74</ele>
        <time>2020-09-19T08:46:15.000Z</time>
      </trkpt>
      <trkpt lat="47.11745" lon="-1.53999">
        <ele>74</ele>
        <time>2020-09-19T08:46:17.000Z</time>
      </trkpt>
      <trkpt lat="47.11751" lon="-1.53983">
        <ele>73</ele>
        <time>2020-09-19T08:46:19.000Z</time>
      </trkpt>
      <trkpt lat="47.11758" lon="-1.53968">
        <ele>73</ele>
        <time>2020-09-19T08:46:21.000Z</time>
      </trkpt>
      <trkpt lat="47.11765" lon="-1.53951">
        <ele>73</ele>
        <time>2020-09-19T08:46:23.000Z</time>
      </trkpt>
      <trkpt lat="47.11771" lon="-1.53934">
        <ele>72</ele>
        <time>2020-09-19T08:46:25.000Z</time>
      </trkpt>
      <trkpt lat="47.11778" lon="-1.53917">
        <ele>72</ele>
        <time>2020-09-19T08:46:27.000Z</time>
      </trkpt>
      <trkpt lat="47.11786" lon="-1.53901">
        <ele>71</ele>
        <time>2020-09-19T08:46:29.000Z</time>
      </trkpt>
      <trkpt lat="47.11794" lon="-1.53885">
        <ele>71</ele>
        <time>2020-09-19T08:46:31.000Z</time>
      </trkpt>
      <trkpt lat="47.11803" lon="-1.5387">
        <ele>70</ele>
        <time>2020-09-19T08:46:33.000Z</time>
      </trkpt>
      <trkpt lat="47.11812" lon="-1.53855">
        <ele>69</ele>
        <time>2020-09-19T08:46:35.000Z</time>
      </trkpt>
      <trkpt lat="47.11821" lon="-1.5384">
        <ele>69</ele>
        <time>2020-09-19T08:46:37.000Z</time>
      </trkpt>
      <trkpt lat="47.11831" lon="-1.53824">
        <ele>68</ele>
        <time>2020-09-19T08:46:39.000Z</time>
      </trkpt>
      <trkpt lat="47.1184" lon="-1.53807">
        <ele>67</ele>
        <time>2020-09-19T08:46:41.000Z</time>
      </trkpt>
      <trkpt lat="47.11848" lon="-1.53789">
        <ele>66</ele>
        <time>2020-09-19T08:46:43.000Z</time>
      </trkpt>
      <trkpt lat="47.11855" lon="-1.53771">
        <ele>65</ele>
        <time>2020-09-19T08:46:45.000Z</time>
      </trkpt>
      <trkpt lat="47.11862" lon="-1.53752">
        <ele>65</ele>
        <time>2020-09-19T08:46:47.000Z</time>
      </trkpt>
      <trkpt lat="47.11869" lon="-1.53733">
        <ele>65</ele>
        <time>2020-09-19T08:46:49.000Z</time>
      </trkpt>
      <trkpt lat="47.11876" lon="-1.53714">
        <ele>64</ele>
        <time>2020-09-19T08:46:51.000Z</time>
      </trkpt>
      <trkpt lat="47.11884" lon="-1.53696">
        <ele>63</ele>
        <time>2020-09-19T08:46:53.000Z</time>
      </trkpt>
      <trkpt lat="47.11892" lon="-1.5368">
        <ele>63</ele>
        <time>2020-09-19T08:46:55.000Z</time>
      </trkpt>
      <trkpt lat="47.11901" lon="-1.53663">
        <ele>63</ele>
        <time>2020-09-19T08:46:57.000Z</time>
      </trkpt>
      <trkpt lat="47.1191" lon="-1.53647">
        <ele>63</ele>
        <time>2020-09-19T08:46:59.000Z</time>
      </trkpt>
      <trkpt lat="47.11918" lon="-1.53631">
        <ele>63</ele>
        <time>2020-09-19T08:47:01.000Z</time>
      </trkpt>
      <trkpt lat="47.11927" lon="-1.53615">
        <ele>63</ele>
        <time>2020-09-19T08:47:03.000Z</time>
      </trkpt>
      <trkpt lat="47.11935" lon="-1.53599">
        <ele>63</ele>
        <time>2020-09-19T08:47:05.000Z</time>
      </trkpt>
      <trkpt lat="47.11944" lon="-1.53583">
        <ele>63</ele>
        <time>2020-09-19T08:47:07.000Z</time>
      </trkpt>
      <trkpt lat="47.11952" lon="-1.53566">
        <ele>63</ele>
        <time>2020-09-19T08:47:09.000Z</time>
      </trkpt>
      <trkpt lat="47.11961" lon="-1.53551">
        <ele>63</ele>
        <time>2020-09-19T08:47:11.000Z</time>
      </trkpt>
      <trkpt lat="47.1197" lon="-1.53534">
        <ele>62</ele>
        <time>2020-09-19T08:47:13.000Z</time>
      </trkpt>
      <trkpt lat="47.11978" lon="-1.53517">
        <ele>62</ele>
        <time>2020-09-19T08:47:15.000Z</time>
      </trkpt>
      <trkpt lat="47.11987" lon="-1.535">
        <ele>62</ele>
        <time>2020-09-19T08:47:17.000Z</time>
      </trkpt>
      <trkpt lat="47.11995" lon="-1.53484">
        <ele>62</ele>
        <time>2020-09-19T08:47:19.000Z</time>
      </trkpt>
      <trkpt lat="47.12004" lon="-1.53468">
        <ele>62</ele>
        <time>2020-09-19T08:47:21.000Z</time>
      </trkpt>
      <trkpt lat="47.12014" lon="-1.53452">
        <ele>61</ele>
        <time>2020-09-19T08:47:23.000Z</time>
      </trkpt>
      <trkpt lat="47.12022" lon="-1.53436">
        <ele>61</ele>
        <time>2020-09-19T08:47:25.000Z</time>
      </trkpt>
      <trkpt lat="47.1203" lon="-1.53419">
        <ele>61</ele>
        <time>2020-09-19T08:47:27.000Z</time>
      </trkpt>
      <trkpt lat="47.12039" lon="-1.53403">
        <ele>61</ele>
        <time>2020-09-19T08:47:29.000Z</time>
      </trkpt>
      <trkpt lat="47.12047" lon="-1.53387">
        <ele>61</ele>
        <time>2020-09-19T08:47:31.000Z</time>
      </trkpt>
      <trkpt lat="47.12056" lon="-1.53371">
        <ele>61</ele>
        <time>2020-09-19T08:47:33.000Z</time>
      </trkpt>
      <trkpt lat="47.12064" lon="-1.53354">
        <ele>60</ele>
        <time>2020-09-19T08:47:35.000Z</time>
      </trkpt>
      <trkpt lat="47.12074" lon="-1.53337">
        <ele>60</ele>
        <time>2020-09-19T08:47:37.000Z</time>
      </trkpt>
      <trkpt lat="47.12083" lon="-1.53321">
        <ele>59</ele>
        <time>2020-09-19T08:47:39.000Z</time>
      </trkpt>
      <trkpt lat="47.12092" lon="-1.53304">
        <ele>59</ele>
        <time>2020-09-19T08:47:41.000Z</time>
      </trkpt>
      <trkpt lat="47.121" lon="-1.53288">
        <ele>58</ele>
        <time>2020-09-19T08:47:43.000Z</time>
      </trkpt>
      <trkpt lat="47.12109" lon="-1.53271">
        <ele>58</ele>
        <time>2020-09-19T08:47:45.000Z</time>
      </trkpt>
      <trkpt lat="47.12118" lon="-1.53254">
        <ele>57</ele>
        <time>2020-09-19T08:47:47.000Z</time>
      </trkpt>
      <trkpt lat="47.12126" lon="-1.53237">
        <ele>57</ele>
        <time>2020-09-19T08:47:49.000Z</time>
      </trkpt>
      <trkpt lat="47.12135" lon="-1.53221">
        <ele>58</ele>
        <time>2020-09-19T08:47:51.000Z</time>
      </trkpt>
      <trkpt lat="47.12144" lon="-1.53206">
        <ele>58</ele>
        <time>2020-09-19T08:47:53.000Z</time>
      </trkpt>
      <trkpt lat="47.12152" lon="-1.5319">
        <ele>57</ele>
        <time>2020-09-19T08:47:55.000Z</time>
      </trkpt>
      <trkpt lat="47.1216" lon="-1.53176">
        <ele>57</ele>
        <time>2020-09-19T08:47:57.000Z</time>
      </trkpt>
      <trkpt lat="47.12168" lon="-1.53161">
        <ele>57</ele>
        <time>2020-09-19T08:47:59.000Z</time>
      </trkpt>
      <trkpt lat="47.12176" lon="-1.53146">
        <ele>57</ele>
        <time>2020-09-19T08:48:01.000Z</time>
      </trkpt>
      <trkpt lat="47.12184" lon="-1.5313">
        <ele>57</ele>
        <time>2020-09-19T08:48:03.000Z</time>
      </trkpt>
      <trkpt lat="47.12192" lon="-1.53115">
        <ele>57</ele>
        <time>2020-09-19T08:48:05.000Z</time>
      </trkpt>
      <trkpt lat="47.12199" lon="-1.53099">
        <ele>58</ele>
        <time>2020-09-19T08:48:07.000Z</time>
      </trkpt>
      <trkpt lat="47.12207" lon="-1.53084">
        <ele>58</ele>
        <time>2020-09-19T08:48:09.000Z</time>
      </trkpt>
      <trkpt lat="47.12215" lon="-1.53069">
        <ele>58</ele>
        <time>2020-09-19T08:48:11.000Z</time>
      </trkpt>
      <trkpt lat="47.12222" lon="-1.53056">
        <ele>58</ele>
        <time>2020-09-19T08:48:13.000Z</time>
      </trkpt>
      <trkpt lat="47.1223" lon="-1.53041">
        <ele>58</ele>
        <time>2020-09-19T08:48:15.000Z</time>
      </trkpt>
      <trkpt lat="47.12238" lon="-1.53027">
        <ele>59</ele>
        <time>2020-09-19T08:48:17.000Z</time>
      </trkpt>
      <trkpt lat="47.12246" lon="-1.53012">
        <ele>59</ele>
        <time>2020-09-19T08:48:19.000Z</time>
      </trkpt>
      <trkpt lat="47.12253" lon="-1.52998">
        <ele>60</ele>
        <time>2020-09-19T08:48:21.000Z</time>
      </trkpt>
      <trkpt lat="47.12261" lon="-1.52984">
        <ele>60</ele>
        <time>2020-09-19T08:48:23.000Z</time>
      </trkpt>
      <trkpt lat="47.12268" lon="-1.52971">
        <ele>60</ele>
        <time>2020-09-19T08:48:25.000Z</time>
      </trkpt>
      <trkpt lat="47.12275" lon="-1.52958">
        <ele>60</ele>
        <time>2020-09-19T08:48:27.000Z</time>
      </trkpt>
      <trkpt lat="47.12282" lon="-1.52945">
        <ele>61</ele>
        <time>2020-09-19T08:48:29.000Z</time>
      </trkpt>
      <trkpt lat="47.12288" lon="-1.52933">
        <ele>61</ele>
        <time>2020-09-19T08:48:31.000Z</time>
      </trkpt>
      <trkpt lat="47.12296" lon="-1.5292">
        <ele>62</ele>
        <time>2020-09-19T08:48:33.000Z</time>
      </trkpt>
      <trkpt lat="47.12302" lon="-1.52908">
        <ele>62</ele>
        <time>2020-09-19T08:48:35.000Z</time>
      </trkpt>
      <trkpt lat="47.12309" lon="-1.52896">
        <ele>63</ele>
        <time>2020-09-19T08:48:37.000Z</time>
      </trkpt>
      <trkpt lat="47.12316" lon="-1.52884">
        <ele>63</ele>
        <time>2020-09-19T08:48:39.000Z</time>
      </trkpt>
      <trkpt lat="47.12323" lon="-1.52872">
        <ele>63</ele>
        <time>2020-09-19T08:48:41.000Z</time>
      </trkpt>
      <trkpt lat="47.12331" lon="-1.52861">
        <ele>63</ele>
        <time>2020-09-19T08:48:43.000Z</time>
      </trkpt>
      <trkpt lat="47.12339" lon="-1.5285">
        <ele>64</ele>
        <time>2020-09-19T08:48:45.000Z</time>
      </trkpt>
      <trkpt lat="47.12348" lon="-1.5284">
        <ele>64</ele>
        <time>2020-09-19T08:48:47.000Z</time>
      </trkpt>
      <trkpt lat="47.12356" lon="-1.52831">
        <ele>64</ele>
        <time>2020-09-19T08:48:49.000Z</time>
      </trkpt>
      <trkpt lat="47.12365" lon="-1.52822">
        <ele>64</ele>
        <time>2020-09-19T08:48:51.000Z</time>
      </trkpt>
      <trkpt lat="47.12374" lon="-1.52814">
        <ele>64</ele>
        <time>2020-09-19T08:48:53.000Z</time>
      </trkpt>
      <trkpt lat="47.12382" lon="-1.52806">
        <ele>64</ele>
        <time>2020-09-19T08:48:55.000Z</time>
      </trkpt>
      <trkpt lat="47.1239" lon="-1.52797">
        <ele>65</ele>
        <time>2020-09-19T08:48:57.000Z</time>
      </trkpt>
      <trkpt lat="47.12399" lon="-1.52788">
        <ele>65</ele>
        <time>2020-09-19T08:48:59.000Z</time>
      </trkpt>
      <trkpt lat="47.12407" lon="-1.52779">
        <ele>66</ele>
        <time>2020-09-19T08:49:01.000Z</time>
      </trkpt>
      <trkpt lat="47.12415" lon="-1.52771">
        <ele>66</ele>
        <time>2020-09-19T08:49:03.000Z</time>
      </trkpt>
      <trkpt lat="47.12424" lon="-1.52763">
        <ele>66</ele>
        <time>2020-09-19T08:49:05.000Z</time>
      </trkpt>
      <trkpt lat="47.12433" lon="-1.52756">
        <ele>66</ele>
        <time>2020-09-19T08:49:07.000Z</time>
      </trkpt>
      <trkpt lat="47.12442" lon="-1.52748">
        <ele>67</ele>
        <time>2020-09-19T08:49:09.000Z</time>
      </trkpt>
      <trkpt lat="47.12452" lon="-1.52741">
        <ele>67</ele>
        <time>2020-09-19T08:49:11.000Z</time>
      </trkpt>
      <trkpt lat="47.12462" lon="-1.52736">
        <ele>68</ele>
        <time>2020-09-19T08:49:13.000Z</time>
      </trkpt>
      <trkpt lat="47.12472" lon="-1.52732">
        <ele>68</ele>
        <time>2020-09-19T08:49:15.000Z</time>
      </trkpt>
      <trkpt lat="47.12483" lon="-1.52729">
        <ele>69</ele>
        <time>2020-09-19T08:49:17.000Z</time>
      </trkpt>
      <trkpt lat="47.12493" lon="-1.52728">
        <ele>69</ele>
        <time>2020-09-19T08:49:19.000Z</time>
      </trkpt>
      <trkpt lat="47.12502" lon="-1.52726">
        <ele>70</ele>
        <time>2020-09-19T08:49:21.000Z</time>
      </trkpt>
      <trkpt lat="47.1251" lon="-1.52715">
        <ele>70</ele>
        <time>2020-09-19T08:49:24.000Z</time>
      </trkpt>
      <trkpt lat="47.12503" lon="-1.52703">
        <ele>71</ele>
        <time>2020-09-19T08:49:27.000Z</time>
      </trkpt>
      <trkpt lat="47.12493" lon="-1.52701">
        <ele>72</ele>
        <time>2020-09-19T08:49:29.000Z</time>
      </trkpt>
      <trkpt lat="47.12482" lon="-1.52699">
        <ele>72</ele>
        <time>2020-09-19T08:49:31.000Z</time>
      </trkpt>
      <trkpt lat="47.12471" lon="-1.52696">
        <ele>72</ele>
        <time>2020-09-19T08:49:33.000Z</time>
      </trkpt>
      <trkpt lat="47.1246" lon="-1.52694">
        <ele>72</ele>
        <time>2020-09-19T08:49:35.000Z</time>
      </trkpt>
      <trkpt lat="47.12448" lon="-1.52691">
        <ele>73</ele>
        <time>2020-09-19T08:49:37.000Z</time>
      </trkpt>
      <trkpt lat="47.12437" lon="-1.52688">
        <ele>73</ele>
        <time>2020-09-19T08:49:39.000Z</time>
      </trkpt>
      <trkpt lat="47.12425" lon="-1.52685">
        <ele>73</ele>
        <time>2020-09-19T08:49:41.000Z</time>
      </trkpt>
      <trkpt lat="47.12412" lon="-1.52683">
        <ele>72</ele>
        <time>2020-09-19T08:49:43.000Z</time>
      </trkpt>
      <trkpt lat="47.12398" lon="-1.5268">
        <ele>72</ele>
        <time>2020-09-19T08:49:45.000Z</time>
      </trkpt>
      <trkpt lat="47.12384" lon="-1.52677">
        <ele>72</ele>
        <time>2020-09-19T08:49:47.000Z</time>
      </trkpt>
      <trkpt lat="47.12369" lon="-1.52674">
        <ele>71</ele>
        <time>2020-09-19T08:49:49.000Z</time>
      </trkpt>
      <trkpt lat="47.12353" lon="-1.5267">
        <ele>70</ele>
        <time>2020-09-19T08:49:51.000Z</time>
      </trkpt>
      <trkpt lat="47.12336" lon="-1.52664">
        <ele>68</ele>
        <time>2020-09-19T08:49:53.000Z</time>
      </trkpt>
      <trkpt lat="47.12318" lon="-1.52659">
        <ele>68</ele>
        <time>2020-09-19T08:49:55.000Z</time>
      </trkpt>
      <trkpt lat="47.12309" lon="-1.52655">
        <ele>68</ele>
        <time>2020-09-19T08:49:56.000Z</time>
      </trkpt>
      <trkpt lat="47.12301" lon="-1.52651">
        <ele>67</ele>
        <time>2020-09-19T08:49:57.000Z</time>
      </trkpt>
      <trkpt lat="47.12292" lon="-1.52647">
        <ele>67</ele>
        <time>2020-09-19T08:49:58.000Z</time>
      </trkpt>
      <trkpt lat="47.12276" lon="-1.52637">
        <ele>66</ele>
        <time>2020-09-19T08:50:00.000Z</time>
      </trkpt>
      <trkpt lat="47.1226" lon="-1.52628">
        <ele>66</ele>
        <time>2020-09-19T08:50:02.000Z</time>
      </trkpt>
      <trkpt lat="47.12244" lon="-1.52619">
        <ele>65</ele>
        <time>2020-09-19T08:50:04.000Z</time>
      </trkpt>
      <trkpt lat="47.12229" lon="-1.52611">
        <ele>65</ele>
        <time>2020-09-19T08:50:06.000Z</time>
      </trkpt>
      <trkpt lat="47.12214" lon="-1.52605">
        <ele>65</ele>
        <time>2020-09-19T08:50:08.000Z</time>
      </trkpt>
      <trkpt lat="47.12199" lon="-1.526">
        <ele>65</ele>
        <time>2020-09-19T08:50:10.000Z</time>
      </trkpt>
      <trkpt lat="47.12183" lon="-1.52597">
        <ele>65</ele>
        <time>2020-09-19T08:50:12.000Z</time>
      </trkpt>
      <trkpt lat="47.12168" lon="-1.52594">
        <ele>65</ele>
        <time>2020-09-19T08:50:14.000Z</time>
      </trkpt>
      <trkpt lat="47.12153" lon="-1.52594">
        <ele>65</ele>
        <time>2020-09-19T08:50:16.000Z</time>
      </trkpt>
      <trkpt lat="47.12138" lon="-1.52594">
        <ele>65</ele>
        <time>2020-09-19T08:50:18.000Z</time>
      </trkpt>
      <trkpt lat="47.12124" lon="-1.52594">
        <ele>65</ele>
        <time>2020-09-19T08:50:20.000Z</time>
      </trkpt>
      <trkpt lat="47.12109" lon="-1.52594">
        <ele>64</ele>
        <time>2020-09-19T08:50:22.000Z</time>
      </trkpt>
      <trkpt lat="47.12094" lon="-1.52594">
        <ele>64</ele>
        <time>2020-09-19T08:50:24.000Z</time>
      </trkpt>
      <trkpt lat="47.12079" lon="-1.52594">
        <ele>64</ele>
        <time>2020-09-19T08:50:26.000Z</time>
      </trkpt>
      <trkpt lat="47.12064" lon="-1.52594">
        <ele>64</ele>
        <time>2020-09-19T08:50:28.000Z</time>
      </trkpt>
      <trkpt lat="47.12049" lon="-1.52594">
        <ele>64</ele>
        <time>2020-09-19T08:50:30.000Z</time>
      </trkpt>
      <trkpt lat="47.12035" lon="-1.52594">
        <ele>63</ele>
        <time>2020-09-19T08:50:32.000Z</time>
      </trkpt>
      <trkpt lat="47.1202" lon="-1.52594">
        <ele>63</ele>
        <time>2020-09-19T08:50:34.000Z</time>
      </trkpt>
      <trkpt lat="47.12005" lon="-1.5259">
        <ele>62</ele>
        <time>2020-09-19T08:50:36.000Z</time>
      </trkpt>
      <trkpt lat="47.11991" lon="-1.52585">
        <ele>62</ele>
        <time>2020-09-19T08:50:38.000Z</time>
      </trkpt>
      <trkpt lat="47.11975" lon="-1.52578">
        <ele>62</ele>
        <time>2020-09-19T08:50:40.000Z</time>
      </trkpt>
      <trkpt lat="47.11961" lon="-1.52571">
        <ele>61</ele>
        <time>2020-09-19T08:50:42.000Z</time>
      </trkpt>
      <trkpt lat="47.11946" lon="-1.52563">
        <ele>61</ele>
        <time>2020-09-19T08:50:44.000Z</time>
      </trkpt>
      <trkpt lat="47.11931" lon="-1.52553">
        <ele>61</ele>
        <time>2020-09-19T08:50:46.000Z</time>
      </trkpt>
      <trkpt lat="47.11917" lon="-1.52543">
        <ele>60</ele>
        <time>2020-09-19T08:50:48.000Z</time>
      </trkpt>
      <trkpt lat="47.11904" lon="-1.52531">
        <ele>59</ele>
        <time>2020-09-19T08:50:50.000Z</time>
      </trkpt>
      <trkpt lat="47.11892" lon="-1.52518">
        <ele>59</ele>
        <time>2020-09-19T08:50:52.000Z</time>
      </trkpt>
      <trkpt lat="47.11881" lon="-1.52505">
        <ele>59</ele>
        <time>2020-09-19T08:50:54.000Z</time>
      </trkpt>
      <trkpt lat="47.11871" lon="-1.52492">
        <ele>59</ele>
        <time>2020-09-19T08:50:56.000Z</time>
      </trkpt>
      <trkpt lat="47.11861" lon="-1.52479">
        <ele>60</ele>
        <time>2020-09-19T08:50:58.000Z</time>
      </trkpt>
      <trkpt lat="47.11851" lon="-1.52466">
        <ele>60</ele>
        <time>2020-09-19T08:51:00.000Z</time>
      </trkpt>
      <trkpt lat="47.11842" lon="-1.52453">
        <ele>60</ele>
        <time>2020-09-19T08:51:02.000Z</time>
      </trkpt>
      <trkpt lat="47.11834" lon="-1.52443">
        <ele>61</ele>
        <time>2020-09-19T08:51:04.000Z</time>
      </trkpt>
      <trkpt lat="47.11826" lon="-1.52431">
        <ele>61</ele>
        <time>2020-09-19T08:51:06.000Z</time>
      </trkpt>
      <trkpt lat="47.11818" lon="-1.52419">
        <ele>62</ele>
        <time>2020-09-19T08:51:08.000Z</time>
      </trkpt>
      <trkpt lat="47.11809" lon="-1.52407">
        <ele>62</ele>
        <time>2020-09-19T08:51:10.000Z</time>
      </trkpt>
      <trkpt lat="47.118" lon="-1.52396">
        <ele>63</ele>
        <time>2020-09-19T08:51:12.000Z</time>
      </trkpt>
      <trkpt lat="47.11791" lon="-1.52384">
        <ele>64</ele>
        <time>2020-09-19T08:51:14.000Z</time>
      </trkpt>
      <trkpt lat="47.11783" lon="-1.52373">
        <ele>64</ele>
        <time>2020-09-19T08:51:16.000Z</time>
      </trkpt>
      <trkpt lat="47.11774" lon="-1.52362">
        <ele>64</ele>
        <time>2020-09-19T08:51:18.000Z</time>
      </trkpt>
      <trkpt lat="47.11766" lon="-1.52351">
        <ele>65</ele>
        <time>2020-09-19T08:51:20.000Z</time>
      </trkpt>
      <trkpt lat="47.11757" lon="-1.5234">
        <ele>66</ele>
        <time>2020-09-19T08:51:22.000Z</time>
      </trkpt>
      <trkpt lat="47.11748" lon="-1.52329">
        <ele>66</ele>
        <time>2020-09-19T08:51:24.000Z</time>
      </trkpt>
      <trkpt lat="47.11739" lon="-1.52318">
        <ele>66</ele>
        <time>2020-09-19T08:51:26.000Z</time>
      </trkpt>
      <trkpt lat="47.1173" lon="-1.52308">
        <ele>67</ele>
        <time>2020-09-19T08:51:28.000Z</time>
      </trkpt>
      <trkpt lat="47.1172" lon="-1.52298">
        <ele>67</ele>
        <time>2020-09-19T08:51:30.000Z</time>
      </trkpt>
      <trkpt lat="47.1171" lon="-1.52291">
        <ele>67</ele>
        <time>2020-09-19T08:51:32.000Z</time>
      </trkpt>
      <trkpt lat="47.11699" lon="-1.52283">
        <ele>66</ele>
        <time>2020-09-19T08:51:34.000Z</time>
      </trkpt>
      <trkpt lat="47.11686" lon="-1.52276">
        <ele>67</ele>
        <time>2020-09-19T08:51:36.000Z</time>
      </trkpt>
      <trkpt lat="47.11673" lon="-1.5227">
        <ele>66</ele>
        <time>2020-09-19T08:51:38.000Z</time>
      </trkpt>
      <trkpt lat="47.1166" lon="-1.52261">
        <ele>65</ele>
        <time>2020-09-19T08:51:40.000Z</time>
      </trkpt>
      <trkpt lat="47.11645" lon="-1.52252">
        <ele>64</ele>
        <time>2020-09-19T08:51:42.000Z</time>
      </trkpt>
      <trkpt lat="47.11631" lon="-1.52243">
        <ele>64</ele>
        <time>2020-09-19T08:51:44.000Z</time>
      </trkpt>
      <trkpt lat="47.11616" lon="-1.52233">
        <ele>63</ele>
        <time>2020-09-19T08:51:46.000Z</time>
      </trkpt>
      <trkpt lat="47.11601" lon="-1.52222">
        <ele>62</ele>
        <time>2020-09-19T08:51:48.000Z</time>
      </trkpt>
      <trkpt lat="47.11587" lon="-1.52208">
        <ele>61</ele>
        <time>2020-09-19T08:51:50.000Z</time>
      </trkpt>
      <trkpt lat="47.11574" lon="-1.52192">
        <ele>61</ele>
        <time>2020-09-19T08:51:52.000Z</time>
      </trkpt>
      <trkpt lat="47.11563" lon="-1.52175">
        <ele>61</ele>
        <time>2020-09-19T08:51:54.000Z</time>
      </trkpt>
      <trkpt lat="47.11553" lon="-1.52157">
        <ele>60</ele>
        <time>2020-09-19T08:51:56.000Z</time>
      </trkpt>
      <trkpt lat="47.11542" lon="-1.52139">
        <ele>60</ele>
        <time>2020-09-19T08:51:58.000Z</time>
      </trkpt>
      <trkpt lat="47.11532" lon="-1.52121">
        <ele>60</ele>
        <time>2020-09-19T08:52:00.000Z</time>
      </trkpt>
      <trkpt lat="47.11521" lon="-1.52104">
        <ele>59</ele>
        <time>2020-09-19T08:52:02.000Z</time>
      </trkpt>
      <trkpt lat="47.11511" lon="-1.52087">
        <ele>59</ele>
        <time>2020-09-19T08:52:04.000Z</time>
      </trkpt>
      <trkpt lat="47.11501" lon="-1.52069">
        <ele>59</ele>
        <time>2020-09-19T08:52:06.000Z</time>
      </trkpt>
      <trkpt lat="47.11492" lon="-1.52051">
        <ele>59</ele>
        <time>2020-09-19T08:52:08.000Z</time>
      </trkpt>
      <trkpt lat="47.11482" lon="-1.52033">
        <ele>59</ele>
        <time>2020-09-19T08:52:10.000Z</time>
      </trkpt>
      <trkpt lat="47.11473" lon="-1.52016">
        <ele>58</ele>
        <time>2020-09-19T08:52:12.000Z</time>
      </trkpt>
      <trkpt lat="47.11462" lon="-1.51999">
        <ele>58</ele>
        <time>2020-09-19T08:52:14.000Z</time>
      </trkpt>
      <trkpt lat="47.11453" lon="-1.51981">
        <ele>58</ele>
        <time>2020-09-19T08:52:16.000Z</time>
      </trkpt>
      <trkpt lat="47.11444" lon="-1.51964">
        <ele>58</ele>
        <time>2020-09-19T08:52:18.000Z</time>
      </trkpt>
      <trkpt lat="47.11435" lon="-1.51947">
        <ele>58</ele>
        <time>2020-09-19T08:52:20.000Z</time>
      </trkpt>
      <trkpt lat="47.11426" lon="-1.5193">
        <ele>58</ele>
        <time>2020-09-19T08:52:22.000Z</time>
      </trkpt>
      <trkpt lat="47.11417" lon="-1.51913">
        <ele>58</ele>
        <time>2020-09-19T08:52:24.000Z</time>
      </trkpt>
      <trkpt lat="47.11407" lon="-1.51896">
        <ele>58</ele>
        <time>2020-09-19T08:52:26.000Z</time>
      </trkpt>
      <trkpt lat="47.11398" lon="-1.51878">
        <ele>58</ele>
        <time>2020-09-19T08:52:28.000Z</time>
      </trkpt>
      <trkpt lat="47.11389" lon="-1.51862">
        <ele>58</ele>
        <time>2020-09-19T08:52:30.000Z</time>
      </trkpt>
      <trkpt lat="47.11379" lon="-1.51846">
        <ele>58</ele>
        <time>2020-09-19T08:52:32.000Z</time>
      </trkpt>
      <trkpt lat="47.1137" lon="-1.5183">
        <ele>58</ele>
        <time>2020-09-19T08:52:34.000Z</time>
      </trkpt>
      <trkpt lat="47.11361" lon="-1.51815">
        <ele>58</ele>
        <time>2020-09-19T08:52:36.000Z</time>
      </trkpt>
      <trkpt lat="47.11351" lon="-1.518">
        <ele>58</ele>
        <time>2020-09-19T08:52:38.000Z</time>
      </trkpt>
      <trkpt lat="47.1134" lon="-1.51788">
        <ele>58</ele>
        <time>2020-09-19T08:52:40.000Z</time>
      </trkpt>
      <trkpt lat="47.11328" lon="-1.51778">
        <ele>58</ele>
        <time>2020-09-19T08:52:42.000Z</time>
      </trkpt>
      <trkpt lat="47.11317" lon="-1.51768">
        <ele>59</ele>
        <time>2020-09-19T08:52:44.000Z</time>
      </trkpt>
      <trkpt lat="47.11305" lon="-1.51757">
        <ele>59</ele>
        <time>2020-09-19T08:52:46.000Z</time>
      </trkpt>
      <trkpt lat="47.11294" lon="-1.51747">
        <ele>59</ele>
        <time>2020-09-19T08:52:48.000Z</time>
      </trkpt>
      <trkpt lat="47.11282" lon="-1.51737">
        <ele>59</ele>
        <time>2020-09-19T08:52:50.000Z</time>
      </trkpt>
      <trkpt lat="47.1127" lon="-1.51727">
        <ele>60</ele>
        <time>2020-09-19T08:52:52.000Z</time>
      </trkpt>
      <trkpt lat="47.11259" lon="-1.51718">
        <ele>60</ele>
        <time>2020-09-19T08:52:54.000Z</time>
      </trkpt>
      <trkpt lat="47.11247" lon="-1.51708">
        <ele>60</ele>
        <time>2020-09-19T08:52:56.000Z</time>
      </trkpt>
      <trkpt lat="47.11236" lon="-1.51698">
        <ele>60</ele>
        <time>2020-09-19T08:52:58.000Z</time>
      </trkpt>
      <trkpt lat="47.11225" lon="-1.51689">
        <ele>61</ele>
        <time>2020-09-19T08:53:00.000Z</time>
      </trkpt>
      <trkpt lat="47.11214" lon="-1.51679">
        <ele>61</ele>
        <time>2020-09-19T08:53:02.000Z</time>
      </trkpt>
      <trkpt lat="47.11203" lon="-1.51669">
        <ele>62</ele>
        <time>2020-09-19T08:53:04.000Z</time>
      </trkpt>
      <trkpt lat="47.11193" lon="-1.51658">
        <ele>62</ele>
        <time>2020-09-19T08:53:06.000Z</time>
      </trkpt>
      <trkpt lat="47.11183" lon="-1.51646">
        <ele>62</ele>
        <time>2020-09-19T08:53:08.000Z</time>
      </trkpt>
      <trkpt lat="47.11175" lon="-1.51633">
        <ele>63</ele>
        <time>2020-09-19T08:53:10.000Z</time>
      </trkpt>
      <trkpt lat="47.11166" lon="-1.5162">
        <ele>64</ele>
        <time>2020-09-19T08:53:12.000Z</time>
      </trkpt>
      <trkpt lat="47.11158" lon="-1.51607">
        <ele>64</ele>
        <time>2020-09-19T08:53:14.000Z</time>
      </trkpt>
      <trkpt lat="47.1115" lon="-1.51594">
        <ele>65</ele>
        <time>2020-09-19T08:53:16.000Z</time>
      </trkpt>
      <trkpt lat="47.11141" lon="-1.5158">
        <ele>65</ele>
        <time>2020-09-19T08:53:18.000Z</time>
      </trkpt>
      <trkpt lat="47.11133" lon="-1.51567">
        <ele>66</ele>
        <time>2020-09-19T08:53:20.000Z</time>
      </trkpt>
      <trkpt lat="47.11125" lon="-1.51552">
        <ele>67</ele>
        <time>2020-09-19T08:53:22.000Z</time>
      </trkpt>
      <trkpt lat="47.11116" lon="-1.51539">
        <ele>68</ele>
        <time>2020-09-19T08:53:24.000Z</time>
      </trkpt>
      <trkpt lat="47.11108" lon="-1.51526">
        <ele>68</ele>
        <time>2020-09-19T08:53:26.000Z</time>
      </trkpt>
      <trkpt lat="47.11099" lon="-1.51513">
        <ele>68</ele>
        <time>2020-09-19T08:53:28.000Z</time>
      </trkpt>
      <trkpt lat="47.1109" lon="-1.51501">
        <ele>69</ele>
        <time>2020-09-19T08:53:30.000Z</time>
      </trkpt>
      <trkpt lat="47.11081" lon="-1.51489">
        <ele>69</ele>
        <time>2020-09-19T08:53:32.000Z</time>
      </trkpt>
      <trkpt lat="47.11071" lon="-1.51478">
        <ele>69</ele>
        <time>2020-09-19T08:53:34.000Z</time>
      </trkpt>
      <trkpt lat="47.1106" lon="-1.51468">
        <ele>69</ele>
        <time>2020-09-19T08:53:36.000Z</time>
      </trkpt>
      <trkpt lat="47.1105" lon="-1.51458">
        <ele>69</ele>
        <time>2020-09-19T08:53:38.000Z</time>
      </trkpt>
      <trkpt lat="47.11039" lon="-1.51447">
        <ele>70</ele>
        <time>2020-09-19T08:53:40.000Z</time>
      </trkpt>
      <trkpt lat="47.11028" lon="-1.51436">
        <ele>70</ele>
        <time>2020-09-19T08:53:42.000Z</time>
      </trkpt>
      <trkpt lat="47.11017" lon="-1.51427">
        <ele>70</ele>
        <time>2020-09-19T08:53:44.000Z</time>
      </trkpt>
      <trkpt lat="47.11007" lon="-1.51416">
        <ele>70</ele>
        <time>2020-09-19T08:53:46.000Z</time>
      </trkpt>
      <trkpt lat="47.10996" lon="-1.51406">
        <ele>70</ele>
        <time>2020-09-19T08:53:48.000Z</time>
      </trkpt>
      <trkpt lat="47.10985" lon="-1.51396">
        <ele>70</ele>
        <time>2020-09-19T08:53:50.000Z</time>
      </trkpt>
      <trkpt lat="47.10974" lon="-1.51386">
        <ele>70</ele>
        <time>2020-09-19T08:53:52.000Z</time>
      </trkpt>
      <trkpt lat="47.10963" lon="-1.51375">
        <ele>69</ele>
        <time>2020-09-19T08:53:54.000Z</time>
      </trkpt>
      <trkpt lat="47.10952" lon="-1.51364">
        <ele>70</ele>
        <time>2020-09-19T08:53:56.000Z</time>
      </trkpt>
      <trkpt lat="47.10941" lon="-1.51354">
        <ele>70</ele>
        <time>2020-09-19T08:53:58.000Z</time>
      </trkpt>
      <trkpt lat="47.1093" lon="-1.51343">
        <ele>69</ele>
        <time>2020-09-19T08:54:00.000Z</time>
      </trkpt>
      <trkpt lat="47.10919" lon="-1.51332">
        <ele>69</ele>
        <time>2020-09-19T08:54:02.000Z</time>
      </trkpt>
      <trkpt lat="47.10908" lon="-1.51322">
        <ele>69</ele>
        <time>2020-09-19T08:54:04.000Z</time>
      </trkpt>
      <trkpt lat="47.10897" lon="-1.51312">
        <ele>69</ele>
        <time>2020-09-19T08:54:06.000Z</time>
      </trkpt>
      <trkpt lat="47.10886" lon="-1.51301">
        <ele>70</ele>
        <time>2020-09-19T08:54:08.000Z</time>
      </trkpt>
      <trkpt lat="47.10875" lon="-1.5129">
        <ele>69</ele>
        <time>2020-09-19T08:54:10.000Z</time>
      </trkpt>
      <trkpt lat="47.10864" lon="-1.5128">
        <ele>69</ele>
        <time>2020-09-19T08:54:12.000Z</time>
      </trkpt>
      <trkpt lat="47.10852" lon="-1.5127">
        <ele>69</ele>
        <time>2020-09-19T08:54:14.000Z</time>
      </trkpt>
      <trkpt lat="47.10841" lon="-1.51259">
        <ele>69</ele>
        <time>2020-09-19T08:54:16.000Z</time>
      </trkpt>
      <trkpt lat="47.1083" lon="-1.51248">
        <ele>70</ele>
        <time>2020-09-19T08:54:18.000Z</time>
      </trkpt>
      <trkpt lat="47.10819" lon="-1.51238">
        <ele>70</ele>
        <time>2020-09-19T08:54:20.000Z</time>
      </trkpt>
      <trkpt lat="47.10808" lon="-1.51227">
        <ele>70</ele>
        <time>2020-09-19T08:54:22.000Z</time>
      </trkpt>
      <trkpt lat="47.10797" lon="-1.51217">
        <ele>70</ele>
        <time>2020-09-19T08:54:24.000Z</time>
      </trkpt>
      <trkpt lat="47.10786" lon="-1.51206">
        <ele>70</ele>
        <time>2020-09-19T08:54:26.000Z</time>
      </trkpt>
      <trkpt lat="47.10775" lon="-1.51195">
        <ele>70</ele>
        <time>2020-09-19T08:54:28.000Z</time>
      </trkpt>
      <trkpt lat="47.10764" lon="-1.51184">
        <ele>70</ele>
        <time>2020-09-19T08:54:30.000Z</time>
      </trkpt>
      <trkpt lat="47.10752" lon="-1.51173">
        <ele>70</ele>
        <time>2020-09-19T08:54:32.000Z</time>
      </trkpt>
      <trkpt lat="47.10741" lon="-1.51162">
        <ele>70</ele>
        <time>2020-09-19T08:54:34.000Z</time>
      </trkpt>
      <trkpt lat="47.1073" lon="-1.51152">
        <ele>69</ele>
        <time>2020-09-19T08:54:36.000Z</time>
      </trkpt>
      <trkpt lat="47.10718" lon="-1.51141">
        <ele>69</ele>
        <time>2020-09-19T08:54:38.000Z</time>
      </trkpt>
      <trkpt lat="47.10707" lon="-1.5113">
        <ele>69</ele>
        <time>2020-09-19T08:54:40.000Z</time>
      </trkpt>
      <trkpt lat="47.10696" lon="-1.51117">
        <ele>69</ele>
        <time>2020-09-19T08:54:42.000Z</time>
      </trkpt>
      <trkpt lat="47.10687" lon="-1.51102">
        <ele>69</ele>
        <time>2020-09-19T08:54:44.000Z</time>
      </trkpt>
      <trkpt lat="47.10679" lon="-1.51085">
        <ele>68</ele>
        <time>2020-09-19T08:54:46.000Z</time>
      </trkpt>
      <trkpt lat="47.10672" lon="-1.51067">
        <ele>67</ele>
        <time>2020-09-19T08:54:48.000Z</time>
      </trkpt>
      <trkpt lat="47.10666" lon="-1.51048">
        <ele>67</ele>
        <time>2020-09-19T08:54:50.000Z</time>
      </trkpt>
      <trkpt lat="47.1066" lon="-1.51029">
        <ele>67</ele>
        <time>2020-09-19T08:54:52.000Z</time>
      </trkpt>
      <trkpt lat="47.10652" lon="-1.5101">
        <ele>66</ele>
        <time>2020-09-19T08:54:54.000Z</time>
      </trkpt>
      <trkpt lat="47.10642" lon="-1.50994">
        <ele>65</ele>
        <time>2020-09-19T08:54:56.000Z</time>
      </trkpt>
      <trkpt lat="47.10631" lon="-1.50979">
        <ele>65</ele>
        <time>2020-09-19T08:54:58.000Z</time>
      </trkpt>
      <trkpt lat="47.10619" lon="-1.50966">
        <ele>64</ele>
        <time>2020-09-19T08:55:00.000Z</time>
      </trkpt>
      <trkpt lat="47.10607" lon="-1.50953">
        <ele>64</ele>
        <time>2020-09-19T08:55:02.000Z</time>
      </trkpt>
      <trkpt lat="47.10595" lon="-1.50939">
        <ele>63</ele>
        <time>2020-09-19T08:55:04.000Z</time>
      </trkpt>
      <trkpt lat="47.10583" lon="-1.50926">
        <ele>64</ele>
        <time>2020-09-19T08:55:06.000Z</time>
      </trkpt>
      <trkpt lat="47.1057" lon="-1.50913">
        <ele>63</ele>
        <time>2020-09-19T08:55:08.000Z</time>
      </trkpt>
      <trkpt lat="47.10557" lon="-1.50899">
        <ele>63</ele>
        <time>2020-09-19T08:55:10.000Z</time>
      </trkpt>
      <trkpt lat="47.10546" lon="-1.50885">
        <ele>62</ele>
        <time>2020-09-19T08:55:12.000Z</time>
      </trkpt>
      <trkpt lat="47.10534" lon="-1.50872">
        <ele>63</ele>
        <time>2020-09-19T08:55:14.000Z</time>
      </trkpt>
      <trkpt lat="47.10524" lon="-1.50856">
        <ele>63</ele>
        <time>2020-09-19T08:55:16.000Z</time>
      </trkpt>
      <trkpt lat="47.10515" lon="-1.50841">
        <ele>63</ele>
        <time>2020-09-19T08:55:18.000Z</time>
      </trkpt>
      <trkpt lat="47.10506" lon="-1.50824">
        <ele>62</ele>
        <time>2020-09-19T08:55:20.000Z</time>
      </trkpt>
      <trkpt lat="47.10497" lon="-1.50807">
        <ele>62</ele>
        <time>2020-09-19T08:55:22.000Z</time>
      </trkpt>
      <trkpt lat="47.10488" lon="-1.5079">
        <ele>62</ele>
        <time>2020-09-19T08:55:24.000Z</time>
      </trkpt>
      <trkpt lat="47.10479" lon="-1.50773">
        <ele>62</ele>
        <time>2020-09-19T08:55:26.000Z</time>
      </trkpt>
      <trkpt lat="47.1047" lon="-1.50756">
        <ele>61</ele>
        <time>2020-09-19T08:55:28.000Z</time>
      </trkpt>
      <trkpt lat="47.10464" lon="-1.50736">
        <ele>60</ele>
        <time>2020-09-19T08:55:30.000Z</time>
      </trkpt>
      <trkpt lat="47.10459" lon="-1.50716">
        <ele>59</ele>
        <time>2020-09-19T08:55:32.000Z</time>
      </trkpt>
      <trkpt lat="47.10454" lon="-1.50698">
        <ele>59</ele>
        <time>2020-09-19T08:55:34.000Z</time>
      </trkpt>
      <trkpt lat="47.10449" lon="-1.50679">
        <ele>59</ele>
        <time>2020-09-19T08:55:36.000Z</time>
      </trkpt>
      <trkpt lat="47.10444" lon="-1.50661">
        <ele>59</ele>
        <time>2020-09-19T08:55:38.000Z</time>
      </trkpt>
      <trkpt lat="47.10436" lon="-1.50645">
        <ele>59</ele>
        <time>2020-09-19T08:55:40.000Z</time>
      </trkpt>
      <trkpt lat="47.10425" lon="-1.50633">
        <ele>59</ele>
        <time>2020-09-19T08:55:42.000Z</time>
      </trkpt>
      <trkpt lat="47.10413" lon="-1.50622">
        <ele>59</ele>
        <time>2020-09-19T08:55:44.000Z</time>
      </trkpt>
      <trkpt lat="47.10401" lon="-1.50613">
        <ele>60</ele>
        <time>2020-09-19T08:55:46.000Z</time>
      </trkpt>
      <trkpt lat="47.1039" lon="-1.50603">
        <ele>61</ele>
        <time>2020-09-19T08:55:48.000Z</time>
      </trkpt>
      <trkpt lat="47.1038" lon="-1.50591">
        <ele>60</ele>
        <time>2020-09-19T08:55:50.000Z</time>
      </trkpt>
      <trkpt lat="47.10371" lon="-1.50577">
        <ele>60</ele>
        <time>2020-09-19T08:55:52.000Z</time>
      </trkpt>
      <trkpt lat="47.10362" lon="-1.50563">
        <ele>60</ele>
        <time>2020-09-19T08:55:54.000Z</time>
      </trkpt>
      <trkpt lat="47.10353" lon="-1.50548">
        <ele>61</ele>
        <time>2020-09-19T08:55:56.000Z</time>
      </trkpt>
      <trkpt lat="47.10344" lon="-1.50534">
        <ele>61</ele>
        <time>2020-09-19T08:55:58.000Z</time>
      </trkpt>
      <trkpt lat="47.10335" lon="-1.5052">
        <ele>61</ele>
        <time>2020-09-19T08:56:00.000Z</time>
      </trkpt>
      <trkpt lat="47.10327" lon="-1.50505">
        <ele>61</ele>
        <time>2020-09-19T08:56:02.000Z</time>
      </trkpt>
      <trkpt lat="47.10318" lon="-1.50491">
        <ele>61</ele>
        <time>2020-09-19T08:56:04.000Z</time>
      </trkpt>
      <trkpt lat="47.10309" lon="-1.50477">
        <ele>61</ele>
        <time>2020-09-19T08:56:06.000Z</time>
      </trkpt>
      <trkpt lat="47.103" lon="-1.50463">
        <ele>61</ele>
        <time>2020-09-19T08:56:08.000Z</time>
      </trkpt>
      <trkpt lat="47.10292" lon="-1.5045">
        <ele>62</ele>
        <time>2020-09-19T08:56:10.000Z</time>
      </trkpt>
      <trkpt lat="47.10284" lon="-1.50436">
        <ele>62</ele>
        <time>2020-09-19T08:56:12.000Z</time>
      </trkpt>
      <trkpt lat="47.10275" lon="-1.50421">
        <ele>62</ele>
        <time>2020-09-19T08:56:14.000Z</time>
      </trkpt>
      <trkpt lat="47.10267" lon="-1.50407">
        <ele>63</ele>
        <time>2020-09-19T08:56:16.000Z</time>
      </trkpt>
      <trkpt lat="47.10258" lon="-1.50393">
        <ele>63</ele>
        <time>2020-09-19T08:56:18.000Z</time>
      </trkpt>
      <trkpt lat="47.1025" lon="-1.50379">
        <ele>63</ele>
        <time>2020-09-19T08:56:20.000Z</time>
      </trkpt>
      <trkpt lat="47.10242" lon="-1.50366">
        <ele>63</ele>
        <time>2020-09-19T08:56:22.000Z</time>
      </trkpt>
      <trkpt lat="47.10235" lon="-1.50352">
        <ele>63</ele>
        <time>2020-09-19T08:56:24.000Z</time>
      </trkpt>
      <trkpt lat="47.10227" lon="-1.5034">
        <ele>64</ele>
        <time>2020-09-19T08:56:26.000Z</time>
      </trkpt>
      <trkpt lat="47.10219" lon="-1.50328">
        <ele>64</ele>
        <time>2020-09-19T08:56:28.000Z</time>
      </trkpt>
      <trkpt lat="47.10212" lon="-1.50317">
        <ele>65</ele>
        <time>2020-09-19T08:56:30.000Z</time>
      </trkpt>
      <trkpt lat="47.10204" lon="-1.50308">
        <ele>66</ele>
        <time>2020-09-19T08:56:32.000Z</time>
      </trkpt>
      <trkpt lat="47.10195" lon="-1.50298">
        <ele>66</ele>
        <time>2020-09-19T08:56:34.000Z</time>
      </trkpt>
      <trkpt lat="47.10186" lon="-1.5029">
        <ele>67</ele>
        <time>2020-09-19T08:56:36.000Z</time>
      </trkpt>
      <trkpt lat="47.10176" lon="-1.50283">
        <ele>67</ele>
        <time>2020-09-19T08:56:38.000Z</time>
      </trkpt>
      <trkpt lat="47.10166" lon="-1.50276">
        <ele>67</ele>
        <time>2020-09-19T08:56:40.000Z</time>
      </trkpt>
      <trkpt lat="47.10156" lon="-1.50268">
        <ele>67</ele>
        <time>2020-09-19T08:56:42.000Z</time>
      </trkpt>
      <trkpt lat="47.10145" lon="-1.50261">
        <ele>68</ele>
        <time>2020-09-19T08:56:44.000Z</time>
      </trkpt>
      <trkpt lat="47.10135" lon="-1.50253">
        <ele>68</ele>
        <time>2020-09-19T08:56:46.000Z</time>
      </trkpt>
      <trkpt lat="47.10125" lon="-1.50245">
        <ele>68</ele>
        <time>2020-09-19T08:56:48.000Z</time>
      </trkpt>
      <trkpt lat="47.10115" lon="-1.50237">
        <ele>68</ele>
        <time>2020-09-19T08:56:50.000Z</time>
      </trkpt>
      <trkpt lat="47.10105" lon="-1.50229">
        <ele>69</ele>
        <time>2020-09-19T08:56:52.000Z</time>
      </trkpt>
      <trkpt lat="47.10097" lon="-1.50219">
        <ele>69</ele>
        <time>2020-09-19T08:56:54.000Z</time>
      </trkpt>
      <trkpt lat="47.10091" lon="-1.50206">
        <ele>69</ele>
        <time>2020-09-19T08:56:56.000Z</time>
      </trkpt>
      <trkpt lat="47.10085" lon="-1.50192">
        <ele>69</ele>
        <time>2020-09-19T08:56:58.000Z</time>
      </trkpt>
      <trkpt lat="47.10082" lon="-1.50178">
        <ele>69</ele>
        <time>2020-09-19T08:57:00.000Z</time>
      </trkpt>
      <trkpt lat="47.10081" lon="-1.50161">
        <ele>69</ele>
        <time>2020-09-19T08:57:02.000Z</time>
      </trkpt>
      <trkpt lat="47.1008" lon="-1.50145">
        <ele>69</ele>
        <time>2020-09-19T08:57:04.000Z</time>
      </trkpt>
      <trkpt lat="47.10079" lon="-1.50129">
        <ele>69</ele>
        <time>2020-09-19T08:57:06.000Z</time>
      </trkpt>
      <trkpt lat="47.10079" lon="-1.50114">
        <ele>70</ele>
        <time>2020-09-19T08:57:08.000Z</time>
      </trkpt>
      <trkpt lat="47.10079" lon="-1.50099">
        <ele>70</ele>
        <time>2020-09-19T08:57:10.000Z</time>
      </trkpt>
      <trkpt lat="47.10078" lon="-1.50083">
        <ele>70</ele>
        <time>2020-09-19T08:57:12.000Z</time>
      </trkpt>
      <trkpt lat="47.10078" lon="-1.50067">
        <ele>70</ele>
        <time>2020-09-19T08:57:14.000Z</time>
      </trkpt>
      <trkpt lat="47.10077" lon="-1.50051">
        <ele>70</ele>
        <time>2020-09-19T08:57:16.000Z</time>
      </trkpt>
      <trkpt lat="47.10076" lon="-1.50035">
        <ele>71</ele>
        <time>2020-09-19T08:57:18.000Z</time>
      </trkpt>
      <trkpt lat="47.10076" lon="-1.50018">
        <ele>71</ele>
        <time>2020-09-19T08:57:20.000Z</time>
      </trkpt>
      <trkpt lat="47.10075" lon="-1.50002">
        <ele>71</ele>
        <time>2020-09-19T08:57:22.000Z</time>
      </trkpt>
      <trkpt lat="47.10075" lon="-1.49986">
        <ele>71</ele>
        <time>2020-09-19T08:57:24.000Z</time>
      </trkpt>
      <trkpt lat="47.10074" lon="-1.4997">
        <ele>71</ele>
        <time>2020-09-19T08:57:26.000Z</time>
      </trkpt>
      <trkpt lat="47.10074" lon="-1.49953">
        <ele>71</ele>
        <time>2020-09-19T08:57:28.000Z</time>
      </trkpt>
      <trkpt lat="47.10073" lon="-1.49936">
        <ele>70</ele>
        <time>2020-09-19T08:57:30.000Z</time>
      </trkpt>
      <trkpt lat="47.10072" lon="-1.49919">
        <ele>70</ele>
        <time>2020-09-19T08:57:32.000Z</time>
      </trkpt>
      <trkpt lat="47.10069" lon="-1.49901">
        <ele>70</ele>
        <time>2020-09-19T08:57:34.000Z</time>
      </trkpt>
      <trkpt lat="47.10064" lon="-1.49884">
        <ele>69</ele>
        <time>2020-09-19T08:57:36.000Z</time>
      </trkpt>
      <trkpt lat="47.10059" lon="-1.49868">
        <ele>68</ele>
        <time>2020-09-19T08:57:38.000Z</time>
      </trkpt>
      <trkpt lat="47.10053" lon="-1.49851">
        <ele>68</ele>
        <time>2020-09-19T08:57:40.000Z</time>
      </trkpt>
      <trkpt lat="47.10046" lon="-1.49834">
        <ele>68</ele>
        <time>2020-09-19T08:57:42.000Z</time>
      </trkpt>
      <trkpt lat="47.10039" lon="-1.49818">
        <ele>68</ele>
        <time>2020-09-19T08:57:44.000Z</time>
      </trkpt>
      <trkpt lat="47.10032" lon="-1.49801">
        <ele>68</ele>
        <time>2020-09-19T08:57:46.000Z</time>
      </trkpt>
      <trkpt lat="47.10024" lon="-1.49785">
        <ele>68</ele>
        <time>2020-09-19T08:57:48.000Z</time>
      </trkpt>
      <trkpt lat="47.10017" lon="-1.49769">
        <ele>68</ele>
        <time>2020-09-19T08:57:50.000Z</time>
      </trkpt>
      <trkpt lat="47.1001" lon="-1.49752">
        <ele>68</ele>
        <time>2020-09-19T08:57:52.000Z</time>
      </trkpt>
      <trkpt lat="47.10003" lon="-1.49735">
        <ele>68</ele>
        <time>2020-09-19T08:57:54.000Z</time>
      </trkpt>
      <trkpt lat="47.09996" lon="-1.49719">
        <ele>68</ele>
        <time>2020-09-19T08:57:56.000Z</time>
      </trkpt>
      <trkpt lat="47.09989" lon="-1.49703">
        <ele>68</ele>
        <time>2020-09-19T08:57:58.000Z</time>
      </trkpt>
      <trkpt lat="47.09982" lon="-1.49688">
        <ele>68</ele>
        <time>2020-09-19T08:58:00.000Z</time>
      </trkpt>
      <trkpt lat="47.09975" lon="-1.49673">
        <ele>68</ele>
        <time>2020-09-19T08:58:02.000Z</time>
      </trkpt>
      <trkpt lat="47.09968" lon="-1.49658">
        <ele>68</ele>
        <time>2020-09-19T08:58:04.000Z</time>
      </trkpt>
      <trkpt lat="47.09961" lon="-1.49643">
        <ele>68</ele>
        <time>2020-09-19T08:58:06.000Z</time>
      </trkpt>
      <trkpt lat="47.09954" lon="-1.49627">
        <ele>69</ele>
        <time>2020-09-19T08:58:08.000Z</time>
      </trkpt>
      <trkpt lat="47.09948" lon="-1.49612">
        <ele>69</ele>
        <time>2020-09-19T08:58:10.000Z</time>
      </trkpt>
      <trkpt lat="47.09941" lon="-1.49597">
        <ele>69</ele>
        <time>2020-09-19T08:58:12.000Z</time>
      </trkpt>
      <trkpt lat="47.09934" lon="-1.49581">
        <ele>69</ele>
        <time>2020-09-19T08:58:14.000Z</time>
      </trkpt>
      <trkpt lat="47.09927" lon="-1.49566">
        <ele>69</ele>
        <time>2020-09-19T08:58:16.000Z</time>
      </trkpt>
      <trkpt lat="47.09921" lon="-1.49551">
        <ele>70</ele>
        <time>2020-09-19T08:58:18.000Z</time>
      </trkpt>
      <trkpt lat="47.09914" lon="-1.49536">
        <ele>69</ele>
        <time>2020-09-19T08:58:20.000Z</time>
      </trkpt>
      <trkpt lat="47.09908" lon="-1.49521">
        <ele>70</ele>
        <time>2020-09-19T08:58:22.000Z</time>
      </trkpt>
      <trkpt lat="47.09902" lon="-1.49506">
        <ele>70</ele>
        <time>2020-09-19T08:58:24.000Z</time>
      </trkpt>
      <trkpt lat="47.09896" lon="-1.49491">
        <ele>70</ele>
        <time>2020-09-19T08:58:26.000Z</time>
      </trkpt>
      <trkpt lat="47.0989" lon="-1.49476">
        <ele>70</ele>
        <time>2020-09-19T08:58:28.000Z</time>
      </trkpt>
      <trkpt lat="47.09886" lon="-1.49461">
        <ele>71</ele>
        <time>2020-09-19T08:58:30.000Z</time>
      </trkpt>
      <trkpt lat="47.09879" lon="-1.49447">
        <ele>71</ele>
        <time>2020-09-19T08:58:32.000Z</time>
      </trkpt>
      <trkpt lat="47.09876" lon="-1.49431">
        <ele>70</ele>
        <time>2020-09-19T08:58:34.000Z</time>
      </trkpt>
      <trkpt lat="47.09874" lon="-1.49412">
        <ele>71</ele>
        <time>2020-09-19T08:58:36.000Z</time>
      </trkpt>
      <trkpt lat="47.09872" lon="-1.49394">
        <ele>71</ele>
        <time>2020-09-19T08:58:38.000Z</time>
      </trkpt>
      <trkpt lat="47.0987" lon="-1.49376">
        <ele>70</ele>
        <time>2020-09-19T08:58:40.000Z</time>
      </trkpt>
      <trkpt lat="47.09867" lon="-1.49358">
        <ele>71</ele>
        <time>2020-09-19T08:58:42.000Z</time>
      </trkpt>
      <trkpt lat="47.09864" lon="-1.49341">
        <ele>71</ele>
        <time>2020-09-19T08:58:44.000Z</time>
      </trkpt>
      <trkpt lat="47.09862" lon="-1.49324">
        <ele>71</ele>
        <time>2020-09-19T08:58:46.000Z</time>
      </trkpt>
      <trkpt lat="47.0986" lon="-1.49307">
        <ele>71</ele>
        <time>2020-09-19T08:58:48.000Z</time>
      </trkpt>
      <trkpt lat="47.09858" lon="-1.49291">
        <ele>71</ele>
        <time>2020-09-19T08:58:50.000Z</time>
      </trkpt>
      <trkpt lat="47.09857" lon="-1.49274">
        <ele>71</ele>
        <time>2020-09-19T08:58:52.000Z</time>
      </trkpt>
      <trkpt lat="47.09856" lon="-1.49256">
        <ele>71</ele>
        <time>2020-09-19T08:58:54.000Z</time>
      </trkpt>
      <trkpt lat="47.09856" lon="-1.49238">
        <ele>71</ele>
        <time>2020-09-19T08:58:56.000Z</time>
      </trkpt>
      <trkpt lat="47.09855" lon="-1.49219">
        <ele>71</ele>
        <time>2020-09-19T08:58:58.000Z</time>
      </trkpt>
      <trkpt lat="47.09855" lon="-1.492">
        <ele>70</ele>
        <time>2020-09-19T08:59:00.000Z</time>
      </trkpt>
      <trkpt lat="47.09854" lon="-1.49182">
        <ele>70</ele>
        <time>2020-09-19T08:59:02.000Z</time>
      </trkpt>
      <trkpt lat="47.09854" lon="-1.49164">
        <ele>70</ele>
        <time>2020-09-19T08:59:04.000Z</time>
      </trkpt>
      <trkpt lat="47.09853" lon="-1.49145">
        <ele>70</ele>
        <time>2020-09-19T08:59:06.000Z</time>
      </trkpt>
      <trkpt lat="47.09853" lon="-1.49127">
        <ele>70</ele>
        <time>2020-09-19T08:59:08.000Z</time>
      </trkpt>
      <trkpt lat="47.09852" lon="-1.49112">
        <ele>70</ele>
        <time>2020-09-19T08:59:10.000Z</time>
      </trkpt>
      <trkpt lat="47.09853" lon="-1.49096">
        <ele>70</ele>
        <time>2020-09-19T08:59:12.000Z</time>
      </trkpt>
      <trkpt lat="47.09854" lon="-1.49079">
        <ele>70</ele>
        <time>2020-09-19T08:59:14.000Z</time>
      </trkpt>
      <trkpt lat="47.09852" lon="-1.49063">
        <ele>69</ele>
        <time>2020-09-19T08:59:16.000Z</time>
      </trkpt>
      <trkpt lat="47.09848" lon="-1.49048">
        <ele>69</ele>
        <time>2020-09-19T08:59:18.000Z</time>
      </trkpt>
      <trkpt lat="47.09842" lon="-1.49034">
        <ele>69</ele>
        <time>2020-09-19T08:59:20.000Z</time>
      </trkpt>
      <trkpt lat="47.09837" lon="-1.4902">
        <ele>69</ele>
        <time>2020-09-19T08:59:22.000Z</time>
      </trkpt>
      <trkpt lat="47.09832" lon="-1.49006">
        <ele>69</ele>
        <time>2020-09-19T08:59:24.000Z</time>
      </trkpt>
      <trkpt lat="47.09826" lon="-1.48993">
        <ele>69</ele>
        <time>2020-09-19T08:59:26.000Z</time>
      </trkpt>
      <trkpt lat="47.09821" lon="-1.48978">
        <ele>69</ele>
        <time>2020-09-19T08:59:28.000Z</time>
      </trkpt>
      <trkpt lat="47.09819" lon="-1.48965">
        <ele>68</ele>
        <time>2020-09-19T08:59:30.000Z</time>
      </trkpt>
      <trkpt lat="47.09809" lon="-1.4896">
        <ele>66</ele>
        <time>2020-09-19T08:59:33.000Z</time>
      </trkpt>
      <trkpt lat="47.09798" lon="-1.48961">
        <ele>66</ele>
        <time>2020-09-19T08:59:36.000Z</time>
      </trkpt>
      <trkpt lat="47.09793" lon="-1.48949">
        <ele>67</ele>
        <time>2020-09-19T08:59:39.000Z</time>
      </trkpt>
      <trkpt lat="47.09795" lon="-1.48934">
        <ele>67</ele>
        <time>2020-09-19T08:59:41.000Z</time>
      </trkpt>
      <trkpt lat="47.09798" lon="-1.48918">
        <ele>67</ele>
        <time>2020-09-19T08:59:43.000Z</time>
      </trkpt>
      <trkpt lat="47.098" lon="-1.48902">
        <ele>67</ele>
        <time>2020-09-19T08:59:45.000Z</time>
      </trkpt>
      <trkpt lat="47.09795" lon="-1.48885">
        <ele>66</ele>
        <time>2020-09-19T08:59:47.000Z</time>
      </trkpt>
      <trkpt lat="47.0979" lon="-1.4887">
        <ele>66</ele>
        <time>2020-09-19T08:59:49.000Z</time>
      </trkpt>
      <trkpt lat="47.09785" lon="-1.48854">
        <ele>66</ele>
        <time>2020-09-19T08:59:51.000Z</time>
      </trkpt>
      <trkpt lat="47.09778" lon="-1.48839">
        <ele>65</ele>
        <time>2020-09-19T08:59:53.000Z</time>
      </trkpt>
      <trkpt lat="47.09773" lon="-1.48822">
        <ele>65</ele>
        <time>2020-09-19T08:59:55.000Z</time>
      </trkpt>
      <trkpt lat="47.09768" lon="-1.48805">
        <ele>66</ele>
        <time>2020-09-19T08:59:57.000Z</time>
      </trkpt>
      <trkpt lat="47.09764" lon="-1.48789">
        <ele>66</ele>
        <time>2020-09-19T08:59:59.000Z</time>
      </trkpt>
      <trkpt lat="47.09764" lon="-1.48772">
        <ele>66</ele>
        <time>2020-09-19T09:00:01.000Z</time>
      </trkpt>
      <trkpt lat="47.09766" lon="-1.48756">
        <ele>66</ele>
        <time>2020-09-19T09:00:03.000Z</time>
      </trkpt>
      <trkpt lat="47.09776" lon="-1.48744">
        <ele>66</ele>
        <time>2020-09-19T09:00:05.000Z</time>
      </trkpt>
      <trkpt lat="47.09785" lon="-1.48731">
        <ele>66</ele>
        <time>2020-09-19T09:00:07.000Z</time>
      </trkpt>
      <trkpt lat="47.09794" lon="-1.48717">
        <ele>66</ele>
        <time>2020-09-19T09:00:09.000Z</time>
      </trkpt>
      <trkpt lat="47.09802" lon="-1.48703">
        <ele>66</ele>
        <time>2020-09-19T09:00:11.000Z</time>
      </trkpt>
      <trkpt lat="47.09809" lon="-1.48689">
        <ele>66</ele>
        <time>2020-09-19T09:00:13.000Z</time>
      </trkpt>
      <trkpt lat="47.09816" lon="-1.48674">
        <ele>66</ele>
        <time>2020-09-19T09:00:15.000Z</time>
      </trkpt>
      <trkpt lat="47.09824" lon="-1.4866">
        <ele>66</ele>
        <time>2020-09-19T09:00:17.000Z</time>
      </trkpt>
      <trkpt lat="47.09832" lon="-1.48646">
        <ele>66</ele>
        <time>2020-09-19T09:00:19.000Z</time>
      </trkpt>
      <trkpt lat="47.0984" lon="-1.48633">
        <ele>66</ele>
        <time>2020-09-19T09:00:21.000Z</time>
      </trkpt>
      <trkpt lat="47.09848" lon="-1.48618">
        <ele>66</ele>
        <time>2020-09-19T09:00:23.000Z</time>
      </trkpt>
      <trkpt lat="47.09856" lon="-1.48604">
        <ele>66</ele>
        <time>2020-09-19T09:00:25.000Z</time>
      </trkpt>
      <trkpt lat="47.09861" lon="-1.48587">
        <ele>66</ele>
        <time>2020-09-19T09:00:27.000Z</time>
      </trkpt>
      <trkpt lat="47.09865" lon="-1.4857">
        <ele>67</ele>
        <time>2020-09-19T09:00:29.000Z</time>
      </trkpt>
      <trkpt lat="47.09867" lon="-1.48553">
        <ele>67</ele>
        <time>2020-09-19T09:00:31.000Z</time>
      </trkpt>
      <trkpt lat="47.09868" lon="-1.48534">
        <ele>67</ele>
        <time>2020-09-19T09:00:33.000Z</time>
      </trkpt>
      <trkpt lat="47.09868" lon="-1.48517">
        <ele>67</ele>
        <time>2020-09-19T09:00:35.000Z</time>
      </trkpt>
      <trkpt lat="47.09867" lon="-1.48499">
        <ele>67</ele>
        <time>2020-09-19T09:00:37.000Z</time>
      </trkpt>
      <trkpt lat="47.09866" lon="-1.48481">
        <ele>67</ele>
        <time>2020-09-19T09:00:39.000Z</time>
      </trkpt>
      <trkpt lat="47.09864" lon="-1.48462">
        <ele>68</ele>
        <time>2020-09-19T09:00:41.000Z</time>
      </trkpt>
      <trkpt lat="47.09861" lon="-1.48444">
        <ele>68</ele>
        <time>2020-09-19T09:00:43.000Z</time>
      </trkpt>
      <trkpt lat="47.09859" lon="-1.48427">
        <ele>67</ele>
        <time>2020-09-19T09:00:45.000Z</time>
      </trkpt>
      <trkpt lat="47.09858" lon="-1.48408">
        <ele>67</ele>
        <time>2020-09-19T09:00:47.000Z</time>
      </trkpt>
      <trkpt lat="47.09856" lon="-1.4839">
        <ele>67</ele>
        <time>2020-09-19T09:00:49.000Z</time>
      </trkpt>
      <trkpt lat="47.09854" lon="-1.48372">
        <ele>67</ele>
        <time>2020-09-19T09:00:51.000Z</time>
      </trkpt>
      <trkpt lat="47.09853" lon="-1.48355">
        <ele>67</ele>
        <time>2020-09-19T09:00:53.000Z</time>
      </trkpt>
      <trkpt lat="47.09851" lon="-1.48337">
        <ele>67</ele>
        <time>2020-09-19T09:00:55.000Z</time>
      </trkpt>
      <trkpt lat="47.0985" lon="-1.48319">
        <ele>67</ele>
        <time>2020-09-19T09:00:57.000Z</time>
      </trkpt>
      <trkpt lat="47.09849" lon="-1.48302">
        <ele>67</ele>
        <time>2020-09-19T09:00:59.000Z</time>
      </trkpt>
      <trkpt lat="47.09847" lon="-1.48284">
        <ele>67</ele>
        <time>2020-09-19T09:01:01.000Z</time>
      </trkpt>
      <trkpt lat="47.09844" lon="-1.48267">
        <ele>67</ele>
        <time>2020-09-19T09:01:03.000Z</time>
      </trkpt>
      <trkpt lat="47.09842" lon="-1.48249">
        <ele>67</ele>
        <time>2020-09-19T09:01:05.000Z</time>
      </trkpt>
      <trkpt lat="47.0984" lon="-1.48231">
        <ele>68</ele>
        <time>2020-09-19T09:01:07.000Z</time>
      </trkpt>
      <trkpt lat="47.09839" lon="-1.48214">
        <ele>68</ele>
        <time>2020-09-19T09:01:09.000Z</time>
      </trkpt>
      <trkpt lat="47.09839" lon="-1.48196">
        <ele>68</ele>
        <time>2020-09-19T09:01:11.000Z</time>
      </trkpt>
      <trkpt lat="47.09839" lon="-1.48178">
        <ele>68</ele>
        <time>2020-09-19T09:01:13.000Z</time>
      </trkpt>
      <trkpt lat="47.0984" lon="-1.4816">
        <ele>68</ele>
        <time>2020-09-19T09:01:15.000Z</time>
      </trkpt>
      <trkpt lat="47.09841" lon="-1.48141">
        <ele>68</ele>
        <time>2020-09-19T09:01:17.000Z</time>
      </trkpt>
      <trkpt lat="47.09841" lon="-1.48123">
        <ele>69</ele>
        <time>2020-09-19T09:01:19.000Z</time>
      </trkpt>
      <trkpt lat="47.09841" lon="-1.48105">
        <ele>69</ele>
        <time>2020-09-19T09:01:21.000Z</time>
      </trkpt>
      <trkpt lat="47.09841" lon="-1.48086">
        <ele>69</ele>
        <time>2020-09-19T09:01:23.000Z</time>
      </trkpt>
      <trkpt lat="47.0984" lon="-1.48067">
        <ele>70</ele>
        <time>2020-09-19T09:01:25.000Z</time>
      </trkpt>
      <trkpt lat="47.09838" lon="-1.48047">
        <ele>69</ele>
        <time>2020-09-19T09:01:27.000Z</time>
      </trkpt>
      <trkpt lat="47.09836" lon="-1.48028">
        <ele>69</ele>
        <time>2020-09-19T09:01:29.000Z</time>
      </trkpt>
      <trkpt lat="47.09835" lon="-1.48009">
        <ele>69</ele>
        <time>2020-09-19T09:01:31.000Z</time>
      </trkpt>
      <trkpt lat="47.09833" lon="-1.47991">
        <ele>69</ele>
        <time>2020-09-19T09:01:33.000Z</time>
      </trkpt>
      <trkpt lat="47.09832" lon="-1.47972">
        <ele>69</ele>
        <time>2020-09-19T09:01:35.000Z</time>
      </trkpt>
      <trkpt lat="47.09831" lon="-1.47953">
        <ele>69</ele>
        <time>2020-09-19T09:01:37.000Z</time>
      </trkpt>
      <trkpt lat="47.09829" lon="-1.47936">
        <ele>70</ele>
        <time>2020-09-19T09:01:39.000Z</time>
      </trkpt>
      <trkpt lat="47.09828" lon="-1.47917">
        <ele>70</ele>
        <time>2020-09-19T09:01:41.000Z</time>
      </trkpt>
      <trkpt lat="47.09827" lon="-1.47899">
        <ele>69</ele>
        <time>2020-09-19T09:01:43.000Z</time>
      </trkpt>
      <trkpt lat="47.09826" lon="-1.47882">
        <ele>69</ele>
        <time>2020-09-19T09:01:45.000Z</time>
      </trkpt>
      <trkpt lat="47.09824" lon="-1.47865">
        <ele>70</ele>
        <time>2020-09-19T09:01:47.000Z</time>
      </trkpt>
      <trkpt lat="47.09823" lon="-1.47848">
        <ele>70</ele>
        <time>2020-09-19T09:01:49.000Z</time>
      </trkpt>
      <trkpt lat="47.09821" lon="-1.4783">
        <ele>70</ele>
        <time>2020-09-19T09:01:51.000Z</time>
      </trkpt>
      <trkpt lat="47.0982" lon="-1.47813">
        <ele>70</ele>
        <time>2020-09-19T09:01:53.000Z</time>
      </trkpt>
      <trkpt lat="47.09819" lon="-1.47796">
        <ele>70</ele>
        <time>2020-09-19T09:01:55.000Z</time>
      </trkpt>
      <trkpt lat="47.09818" lon="-1.4778">
        <ele>71</ele>
        <time>2020-09-19T09:01:57.000Z</time>
      </trkpt>
      <trkpt lat="47.09817" lon="-1.47761">
        <ele>71</ele>
        <time>2020-09-19T09:01:59.000Z</time>
      </trkpt>
      <trkpt lat="47.09817" lon="-1.47744">
        <ele>71</ele>
        <time>2020-09-19T09:02:01.000Z</time>
      </trkpt>
      <trkpt lat="47.09816" lon="-1.47726">
        <ele>71</ele>
        <time>2020-09-19T09:02:03.000Z</time>
      </trkpt>
      <trkpt lat="47.09816" lon="-1.47709">
        <ele>71</ele>
        <time>2020-09-19T09:02:05.000Z</time>
      </trkpt>
      <trkpt lat="47.09816" lon="-1.47693">
        <ele>71</ele>
        <time>2020-09-19T09:02:07.000Z</time>
      </trkpt>
      <trkpt lat="47.09818" lon="-1.47676">
        <ele>71</ele>
        <time>2020-09-19T09:02:09.000Z</time>
      </trkpt>
      <trkpt lat="47.09819" lon="-1.47659">
        <ele>71</ele>
        <time>2020-09-19T09:02:11.000Z</time>
      </trkpt>
      <trkpt lat="47.09821" lon="-1.47644">
        <ele>71</ele>
        <time>2020-09-19T09:02:13.000Z</time>
      </trkpt>
      <trkpt lat="47.09824" lon="-1.47629">
        <ele>71</ele>
        <time>2020-09-19T09:02:15.000Z</time>
      </trkpt>
      <trkpt lat="47.09827" lon="-1.47615">
        <ele>72</ele>
        <time>2020-09-19T09:02:17.000Z</time>
      </trkpt>
      <trkpt lat="47.0983" lon="-1.47602">
        <ele>73</ele>
        <time>2020-09-19T09:02:19.000Z</time>
      </trkpt>
      <trkpt lat="47.09834" lon="-1.47589">
        <ele>73</ele>
        <time>2020-09-19T09:02:21.000Z</time>
      </trkpt>
      <trkpt lat="47.09838" lon="-1.47576">
        <ele>73</ele>
        <time>2020-09-19T09:02:23.000Z</time>
      </trkpt>
      <trkpt lat="47.09842" lon="-1.47564">
        <ele>74</ele>
        <time>2020-09-19T09:02:25.000Z</time>
      </trkpt>
      <trkpt lat="47.09846" lon="-1.47552">
        <ele>74</ele>
        <time>2020-09-19T09:02:27.000Z</time>
      </trkpt>
      <trkpt lat="47.09852" lon="-1.47539">
        <ele>75</ele>
        <time>2020-09-19T09:02:29.000Z</time>
      </trkpt>
      <trkpt lat="47.09856" lon="-1.47528">
        <ele>75</ele>
        <time>2020-09-19T09:02:31.000Z</time>
      </trkpt>
      <trkpt lat="47.09862" lon="-1.47516">
        <ele>76</ele>
        <time>2020-09-19T09:02:33.000Z</time>
      </trkpt>
      <trkpt lat="47.09867" lon="-1.47505">
        <ele>76</ele>
        <time>2020-09-19T09:02:35.000Z</time>
      </trkpt>
      <trkpt lat="47.09873" lon="-1.47495">
        <ele>76</ele>
        <time>2020-09-19T09:02:37.000Z</time>
      </trkpt>
      <trkpt lat="47.09879" lon="-1.47483">
        <ele>77</ele>
        <time>2020-09-19T09:02:39.000Z</time>
      </trkpt>
      <trkpt lat="47.09885" lon="-1.47473">
        <ele>78</ele>
        <time>2020-09-19T09:02:41.000Z</time>
      </trkpt>
      <trkpt lat="47.09891" lon="-1.47462">
        <ele>78</ele>
        <time>2020-09-19T09:02:43.000Z</time>
      </trkpt>
      <trkpt lat="47.09896" lon="-1.47451">
        <ele>78</ele>
        <time>2020-09-19T09:02:45.000Z</time>
      </trkpt>
      <trkpt lat="47.09902" lon="-1.4744">
        <ele>79</ele>
        <time>2020-09-19T09:02:47.000Z</time>
      </trkpt>
      <trkpt lat="47.09908" lon="-1.4743">
        <ele>79</ele>
        <time>2020-09-19T09:02:49.000Z</time>
      </trkpt>
      <trkpt lat="47.09914" lon="-1.4742">
        <ele>80</ele>
        <time>2020-09-19T09:02:51.000Z</time>
      </trkpt>
      <trkpt lat="47.0992" lon="-1.47409">
        <ele>80</ele>
        <time>2020-09-19T09:02:53.000Z</time>
      </trkpt>
      <trkpt lat="47.09926" lon="-1.47398">
        <ele>81</ele>
        <time>2020-09-19T09:02:55.000Z</time>
      </trkpt>
      <trkpt lat="47.09932" lon="-1.47387">
        <ele>81</ele>
        <time>2020-09-19T09:02:57.000Z</time>
      </trkpt>
      <trkpt lat="47.09938" lon="-1.47376">
        <ele>82</ele>
        <time>2020-09-19T09:02:59.000Z</time>
      </trkpt>
      <trkpt lat="47.09944" lon="-1.47365">
        <ele>82</ele>
        <time>2020-09-19T09:03:01.000Z</time>
      </trkpt>
      <trkpt lat="47.0995" lon="-1.47353">
        <ele>82</ele>
        <time>2020-09-19T09:03:03.000Z</time>
      </trkpt>
      <trkpt lat="47.09957" lon="-1.47341">
        <ele>83</ele>
        <time>2020-09-19T09:03:05.000Z</time>
      </trkpt>
      <trkpt lat="47.09962" lon="-1.4733">
        <ele>82</ele>
        <time>2020-09-19T09:03:07.000Z</time>
      </trkpt>
      <trkpt lat="47.09968" lon="-1.47319">
        <ele>82</ele>
        <time>2020-09-19T09:03:09.000Z</time>
      </trkpt>
      <trkpt lat="47.09974" lon="-1.47309">
        <ele>82</ele>
        <time>2020-09-19T09:03:11.000Z</time>
      </trkpt>
      <trkpt lat="47.0998" lon="-1.47298">
        <ele>83</ele>
        <time>2020-09-19T09:03:13.000Z</time>
      </trkpt>
      <trkpt lat="47.09986" lon="-1.47287">
        <ele>83</ele>
        <time>2020-09-19T09:03:15.000Z</time>
      </trkpt>
      <trkpt lat="47.09992" lon="-1.47276">
        <ele>83</ele>
        <time>2020-09-19T09:03:17.000Z</time>
      </trkpt>
      <trkpt lat="47.09998" lon="-1.47264">
        <ele>83</ele>
        <time>2020-09-19T09:03:19.000Z</time>
      </trkpt>
      <trkpt lat="47.10004" lon="-1.47253">
        <ele>83</ele>
        <time>2020-09-19T09:03:21.000Z</time>
      </trkpt>
      <trkpt lat="47.1001" lon="-1.4724">
        <ele>83</ele>
        <time>2020-09-19T09:03:23.000Z</time>
      </trkpt>
      <trkpt lat="47.10016" lon="-1.47227">
        <ele>83</ele>
        <time>2020-09-19T09:03:25.000Z</time>
      </trkpt>
      <trkpt lat="47.10023" lon="-1.47215">
        <ele>83</ele>
        <time>2020-09-19T09:03:27.000Z</time>
      </trkpt>
      <trkpt lat="47.10031" lon="-1.47201">
        <ele>83</ele>
        <time>2020-09-19T09:03:29.000Z</time>
      </trkpt>
      <trkpt lat="47.10038" lon="-1.47188">
        <ele>82</ele>
        <time>2020-09-19T09:03:31.000Z</time>
      </trkpt>
      <trkpt lat="47.10046" lon="-1.47174">
        <ele>82</ele>
        <time>2020-09-19T09:03:33.000Z</time>
      </trkpt>
      <trkpt lat="47.10052" lon="-1.4716">
        <ele>82</ele>
        <time>2020-09-19T09:03:35.000Z</time>
      </trkpt>
      <trkpt lat="47.10059" lon="-1.47145">
        <ele>81</ele>
        <time>2020-09-19T09:03:37.000Z</time>
      </trkpt>
      <trkpt lat="47.10066" lon="-1.47129">
        <ele>81</ele>
        <time>2020-09-19T09:03:39.000Z</time>
      </trkpt>
      <trkpt lat="47.10072" lon="-1.47112">
        <ele>81</ele>
        <time>2020-09-19T09:03:41.000Z</time>
      </trkpt>
      <trkpt lat="47.10078" lon="-1.47095">
        <ele>81</ele>
        <time>2020-09-19T09:03:43.000Z</time>
      </trkpt>
      <trkpt lat="47.10083" lon="-1.47078">
        <ele>81</ele>
        <time>2020-09-19T09:03:45.000Z</time>
      </trkpt>
      <trkpt lat="47.10088" lon="-1.47062">
        <ele>81</ele>
        <time>2020-09-19T09:03:47.000Z</time>
      </trkpt>
      <trkpt lat="47.10092" lon="-1.47045">
        <ele>81</ele>
        <time>2020-09-19T09:03:49.000Z</time>
      </trkpt>
      <trkpt lat="47.10097" lon="-1.47029">
        <ele>81</ele>
        <time>2020-09-19T09:03:51.000Z</time>
      </trkpt>
      <trkpt lat="47.10101" lon="-1.47013">
        <ele>81</ele>
        <time>2020-09-19T09:03:53.000Z</time>
      </trkpt>
      <trkpt lat="47.10105" lon="-1.46997">
        <ele>81</ele>
        <time>2020-09-19T09:03:55.000Z</time>
      </trkpt>
      <trkpt lat="47.10109" lon="-1.46982">
        <ele>81</ele>
        <time>2020-09-19T09:03:57.000Z</time>
      </trkpt>
      <trkpt lat="47.10112" lon="-1.46968">
        <ele>82</ele>
        <time>2020-09-19T09:03:59.000Z</time>
      </trkpt>
      <trkpt lat="47.10116" lon="-1.46955">
        <ele>82</ele>
        <time>2020-09-19T09:04:01.000Z</time>
      </trkpt>
      <trkpt lat="47.10119" lon="-1.46942">
        <ele>82</ele>
        <time>2020-09-19T09:04:03.000Z</time>
      </trkpt>
      <trkpt lat="47.10123" lon="-1.46929">
        <ele>82</ele>
        <time>2020-09-19T09:04:05.000Z</time>
      </trkpt>
      <trkpt lat="47.10126" lon="-1.46915">
        <ele>83</ele>
        <time>2020-09-19T09:04:07.000Z</time>
      </trkpt>
      <trkpt lat="47.10129" lon="-1.46902">
        <ele>83</ele>
        <time>2020-09-19T09:04:09.000Z</time>
      </trkpt>
      <trkpt lat="47.10133" lon="-1.46888">
        <ele>83</ele>
        <time>2020-09-19T09:04:11.000Z</time>
      </trkpt>
      <trkpt lat="47.10136" lon="-1.46875">
        <ele>84</ele>
        <time>2020-09-19T09:04:13.000Z</time>
      </trkpt>
      <trkpt lat="47.1014" lon="-1.46861">
        <ele>84</ele>
        <time>2020-09-19T09:04:15.000Z</time>
      </trkpt>
      <trkpt lat="47.10143" lon="-1.46847">
        <ele>84</ele>
        <time>2020-09-19T09:04:17.000Z</time>
      </trkpt>
      <trkpt lat="47.10146" lon="-1.46833">
        <ele>85</ele>
        <time>2020-09-19T09:04:19.000Z</time>
      </trkpt>
      <trkpt lat="47.10149" lon="-1.4682">
        <ele>85</ele>
        <time>2020-09-19T09:04:21.000Z</time>
      </trkpt>
      <trkpt lat="47.10153" lon="-1.46806">
        <ele>85</ele>
        <time>2020-09-19T09:04:23.000Z</time>
      </trkpt>
      <trkpt lat="47.10156" lon="-1.46794">
        <ele>85</ele>
        <time>2020-09-19T09:04:25.000Z</time>
      </trkpt>
      <trkpt lat="47.10159" lon="-1.46781">
        <ele>86</ele>
        <time>2020-09-19T09:04:27.000Z</time>
      </trkpt>
      <trkpt lat="47.10161" lon="-1.46768">
        <ele>86</ele>
        <time>2020-09-19T09:04:29.000Z</time>
      </trkpt>
      <trkpt lat="47.10163" lon="-1.46754">
        <ele>86</ele>
        <time>2020-09-19T09:04:31.000Z</time>
      </trkpt>
      <trkpt lat="47.10166" lon="-1.46741">
        <ele>87</ele>
        <time>2020-09-19T09:04:33.000Z</time>
      </trkpt>
      <trkpt lat="47.10167" lon="-1.46727">
        <ele>87</ele>
        <time>2020-09-19T09:04:35.000Z</time>
      </trkpt>
      <trkpt lat="47.10169" lon="-1.46713">
        <ele>87</ele>
        <time>2020-09-19T09:04:37.000Z</time>
      </trkpt>
      <trkpt lat="47.10171" lon="-1.467">
        <ele>87</ele>
        <time>2020-09-19T09:04:39.000Z</time>
      </trkpt>
      <trkpt lat="47.10173" lon="-1.4668">
        <ele>87</ele>
        <time>2020-09-19T09:04:42.000Z</time>
      </trkpt>
      <trkpt lat="47.10175" lon="-1.46666">
        <ele>87</ele>
        <time>2020-09-19T09:04:44.000Z</time>
      </trkpt>
      <trkpt lat="47.10177" lon="-1.46652">
        <ele>87</ele>
        <time>2020-09-19T09:04:46.000Z</time>
      </trkpt>
      <trkpt lat="47.1018" lon="-1.46638">
        <ele>88</ele>
        <time>2020-09-19T09:04:48.000Z</time>
      </trkpt>
      <trkpt lat="47.10182" lon="-1.46624">
        <ele>88</ele>
        <time>2020-09-19T09:04:50.000Z</time>
      </trkpt>
      <trkpt lat="47.10183" lon="-1.4661">
        <ele>89</ele>
        <time>2020-09-19T09:04:52.000Z</time>
      </trkpt>
      <trkpt lat="47.10185" lon="-1.46595">
        <ele>89</ele>
        <time>2020-09-19T09:04:54.000Z</time>
      </trkpt>
      <trkpt lat="47.10187" lon="-1.46582">
        <ele>89</ele>
        <time>2020-09-19T09:04:56.000Z</time>
      </trkpt>
      <trkpt lat="47.10189" lon="-1.46569">
        <ele>89</ele>
        <time>2020-09-19T09:04:58.000Z</time>
      </trkpt>
      <trkpt lat="47.10191" lon="-1.46555">
        <ele>90</ele>
        <time>2020-09-19T09:05:00.000Z</time>
      </trkpt>
      <trkpt lat="47.10192" lon="-1.46542">
        <ele>90</ele>
        <time>2020-09-19T09:05:02.000Z</time>
      </trkpt>
      <trkpt lat="47.10193" lon="-1.46528">
        <ele>90</ele>
        <time>2020-09-19T09:05:04.000Z</time>
      </trkpt>
      <trkpt lat="47.10194" lon="-1.46514">
        <ele>90</ele>
        <time>2020-09-19T09:05:06.000Z</time>
      </trkpt>
      <trkpt lat="47.10195" lon="-1.46501">
        <ele>90</ele>
        <time>2020-09-19T09:05:08.000Z</time>
      </trkpt>
      <trkpt lat="47.10196" lon="-1.46481">
        <ele>91</ele>
        <time>2020-09-19T09:05:11.000Z</time>
      </trkpt>
      <trkpt lat="47.10196" lon="-1.46468">
        <ele>91</ele>
        <time>2020-09-19T09:05:13.000Z</time>
      </trkpt>
      <trkpt lat="47.10197" lon="-1.46455">
        <ele>92</ele>
        <time>2020-09-19T09:05:15.000Z</time>
      </trkpt>
      <trkpt lat="47.10198" lon="-1.46441">
        <ele>92</ele>
        <time>2020-09-19T09:05:17.000Z</time>
      </trkpt>
      <trkpt lat="47.10199" lon="-1.46428">
        <ele>93</ele>
        <time>2020-09-19T09:05:19.000Z</time>
      </trkpt>
      <trkpt lat="47.102" lon="-1.46414">
        <ele>93</ele>
        <time>2020-09-19T09:05:21.000Z</time>
      </trkpt>
      <trkpt lat="47.10201" lon="-1.46394">
        <ele>93</ele>
        <time>2020-09-19T09:05:24.000Z</time>
      </trkpt>
      <trkpt lat="47.10204" lon="-1.46381">
        <ele>94</ele>
        <time>2020-09-19T09:05:26.000Z</time>
      </trkpt>
      <trkpt lat="47.10208" lon="-1.46363">
        <ele>95</ele>
        <time>2020-09-19T09:05:29.000Z</time>
      </trkpt>
      <trkpt lat="47.10213" lon="-1.4635">
        <ele>95</ele>
        <time>2020-09-19T09:05:31.000Z</time>
      </trkpt>
      <trkpt lat="47.10218" lon="-1.46339">
        <ele>95</ele>
        <time>2020-09-19T09:05:33.000Z</time>
      </trkpt>
      <trkpt lat="47.10224" lon="-1.46328">
        <ele>96</ele>
        <time>2020-09-19T09:05:35.000Z</time>
      </trkpt>
      <trkpt lat="47.1023" lon="-1.46318">
        <ele>96</ele>
        <time>2020-09-19T09:05:37.000Z</time>
      </trkpt>
      <trkpt lat="47.10237" lon="-1.46308">
        <ele>96</ele>
        <time>2020-09-19T09:05:39.000Z</time>
      </trkpt>
      <trkpt lat="47.10244" lon="-1.46297">
        <ele>97</ele>
        <time>2020-09-19T09:05:41.000Z</time>
      </trkpt>
      <trkpt lat="47.10251" lon="-1.46287">
        <ele>97</ele>
        <time>2020-09-19T09:05:43.000Z</time>
      </trkpt>
      <trkpt lat="47.10258" lon="-1.46276">
        <ele>97</ele>
        <time>2020-09-19T09:05:45.000Z</time>
      </trkpt>
      <trkpt lat="47.10264" lon="-1.46267">
        <ele>97</ele>
        <time>2020-09-19T09:05:47.000Z</time>
      </trkpt>
      <trkpt lat="47.10271" lon="-1.46257">
        <ele>97</ele>
        <time>2020-09-19T09:05:49.000Z</time>
      </trkpt>
      <trkpt lat="47.10277" lon="-1.46247">
        <ele>98</ele>
        <time>2020-09-19T09:05:51.000Z</time>
      </trkpt>
      <trkpt lat="47.10283" lon="-1.46237">
        <ele>98</ele>
        <time>2020-09-19T09:05:53.000Z</time>
      </trkpt>
      <trkpt lat="47.10291" lon="-1.46221">
        <ele>98</ele>
        <time>2020-09-19T09:05:56.000Z</time>
      </trkpt>
      <trkpt lat="47.10284" lon="-1.46204">
        <ele>98</ele>
        <time>2020-09-19T09:05:59.000Z</time>
      </trkpt>
      <trkpt lat="47.10278" lon="-1.46192">
        <ele>98</ele>
        <time>2020-09-19T09:06:01.000Z</time>
      </trkpt>
      <trkpt lat="47.10271" lon="-1.46179">
        <ele>98</ele>
        <time>2020-09-19T09:06:03.000Z</time>
      </trkpt>
      <trkpt lat="47.10263" lon="-1.46167">
        <ele>98</ele>
        <time>2020-09-19T09:06:05.000Z</time>
      </trkpt>
      <trkpt lat="47.10256" lon="-1.46154">
        <ele>98</ele>
        <time>2020-09-19T09:06:07.000Z</time>
      </trkpt>
      <trkpt lat="47.10248" lon="-1.4614">
        <ele>99</ele>
        <time>2020-09-19T09:06:09.000Z</time>
      </trkpt>
      <trkpt lat="47.10241" lon="-1.46127">
        <ele>99</ele>
        <time>2020-09-19T09:06:11.000Z</time>
      </trkpt>
      <trkpt lat="47.10234" lon="-1.46113">
        <ele>99</ele>
        <time>2020-09-19T09:06:13.000Z</time>
      </trkpt>
      <trkpt lat="47.10226" lon="-1.46101">
        <ele>100</ele>
        <time>2020-09-19T09:06:15.000Z</time>
      </trkpt>
      <trkpt lat="47.10219" lon="-1.46087">
        <ele>100</ele>
        <time>2020-09-19T09:06:17.000Z</time>
      </trkpt>
      <trkpt lat="47.10211" lon="-1.46073">
        <ele>100</ele>
        <time>2020-09-19T09:06:19.000Z</time>
      </trkpt>
      <trkpt lat="47.10204" lon="-1.4606">
        <ele>100</ele>
        <time>2020-09-19T09:06:21.000Z</time>
      </trkpt>
      <trkpt lat="47.10196" lon="-1.46047">
        <ele>100</ele>
        <time>2020-09-19T09:06:23.000Z</time>
      </trkpt>
      <trkpt lat="47.10188" lon="-1.46035">
        <ele>100</ele>
        <time>2020-09-19T09:06:25.000Z</time>
      </trkpt>
      <trkpt lat="47.10181" lon="-1.46021">
        <ele>101</ele>
        <time>2020-09-19T09:06:27.000Z</time>
      </trkpt>
      <trkpt lat="47.10173" lon="-1.46006">
        <ele>100</ele>
        <time>2020-09-19T09:06:29.000Z</time>
      </trkpt>
      <trkpt lat="47.10165" lon="-1.45992">
        <ele>100</ele>
        <time>2020-09-19T09:06:31.000Z</time>
      </trkpt>
      <trkpt lat="47.10157" lon="-1.45979">
        <ele>101</ele>
        <time>2020-09-19T09:06:33.000Z</time>
      </trkpt>
      <trkpt lat="47.1015" lon="-1.45964">
        <ele>101</ele>
        <time>2020-09-19T09:06:35.000Z</time>
      </trkpt>
      <trkpt lat="47.10143" lon="-1.4595">
        <ele>101</ele>
        <time>2020-09-19T09:06:37.000Z</time>
      </trkpt>
      <trkpt lat="47.10135" lon="-1.45937">
        <ele>101</ele>
        <time>2020-09-19T09:06:39.000Z</time>
      </trkpt>
      <trkpt lat="47.10127" lon="-1.45923">
        <ele>101</ele>
        <time>2020-09-19T09:06:41.000Z</time>
      </trkpt>
      <trkpt lat="47.10119" lon="-1.45909">
        <ele>101</ele>
        <time>2020-09-19T09:06:43.000Z</time>
      </trkpt>
      <trkpt lat="47.10112" lon="-1.45895">
        <ele>101</ele>
        <time>2020-09-19T09:06:45.000Z</time>
      </trkpt>
      <trkpt lat="47.10103" lon="-1.45881">
        <ele>101</ele>
        <time>2020-09-19T09:06:47.000Z</time>
      </trkpt>
      <trkpt lat="47.10095" lon="-1.45867">
        <ele>101</ele>
        <time>2020-09-19T09:06:49.000Z</time>
      </trkpt>
      <trkpt lat="47.10087" lon="-1.45851">
        <ele>101</ele>
        <time>2020-09-19T09:06:51.000Z</time>
      </trkpt>
      <trkpt lat="47.1008" lon="-1.45836">
        <ele>101</ele>
        <time>2020-09-19T09:06:53.000Z</time>
      </trkpt>
      <trkpt lat="47.10072" lon="-1.4582">
        <ele>101</ele>
        <time>2020-09-19T09:06:55.000Z</time>
      </trkpt>
      <trkpt lat="47.10064" lon="-1.45805">
        <ele>101</ele>
        <time>2020-09-19T09:06:57.000Z</time>
      </trkpt>
      <trkpt lat="47.10056" lon="-1.45789">
        <ele>100</ele>
        <time>2020-09-19T09:06:59.000Z</time>
      </trkpt>
      <trkpt lat="47.10048" lon="-1.45774">
        <ele>101</ele>
        <time>2020-09-19T09:07:01.000Z</time>
      </trkpt>
      <trkpt lat="47.1004" lon="-1.45759">
        <ele>100</ele>
        <time>2020-09-19T09:07:03.000Z</time>
      </trkpt>
      <trkpt lat="47.10033" lon="-1.45743">
        <ele>100</ele>
        <time>2020-09-19T09:07:05.000Z</time>
      </trkpt>
      <trkpt lat="47.10024" lon="-1.45727">
        <ele>100</ele>
        <time>2020-09-19T09:07:07.000Z</time>
      </trkpt>
      <trkpt lat="47.10016" lon="-1.45712">
        <ele>100</ele>
        <time>2020-09-19T09:07:09.000Z</time>
      </trkpt>
      <trkpt lat="47.10008" lon="-1.45697">
        <ele>99</ele>
        <time>2020-09-19T09:07:11.000Z</time>
      </trkpt>
      <trkpt lat="47.1" lon="-1.45681">
        <ele>99</ele>
        <time>2020-09-19T09:07:13.000Z</time>
      </trkpt>
      <trkpt lat="47.09992" lon="-1.45666">
        <ele>99</ele>
        <time>2020-09-19T09:07:15.000Z</time>
      </trkpt>
      <trkpt lat="47.09983" lon="-1.45649">
        <ele>99</ele>
        <time>2020-09-19T09:07:17.000Z</time>
      </trkpt>
      <trkpt lat="47.09975" lon="-1.45634">
        <ele>99</ele>
        <time>2020-09-19T09:07:19.000Z</time>
      </trkpt>
      <trkpt lat="47.09967" lon="-1.45617">
        <ele>99</ele>
        <time>2020-09-19T09:07:21.000Z</time>
      </trkpt>
      <trkpt lat="47.09959" lon="-1.45601">
        <ele>100</ele>
        <time>2020-09-19T09:07:23.000Z</time>
      </trkpt>
      <trkpt lat="47.0995" lon="-1.45585">
        <ele>100</ele>
        <time>2020-09-19T09:07:25.000Z</time>
      </trkpt>
      <trkpt lat="47.09942" lon="-1.4557">
        <ele>100</ele>
        <time>2020-09-19T09:07:27.000Z</time>
      </trkpt>
      <trkpt lat="47.09934" lon="-1.45554">
        <ele>100</ele>
        <time>2020-09-19T09:07:29.000Z</time>
      </trkpt>
      <trkpt lat="47.09927" lon="-1.45538">
        <ele>99</ele>
        <time>2020-09-19T09:07:31.000Z</time>
      </trkpt>
      <trkpt lat="47.09919" lon="-1.45521">
        <ele>99</ele>
        <time>2020-09-19T09:07:33.000Z</time>
      </trkpt>
      <trkpt lat="47.09912" lon="-1.45504">
        <ele>99</ele>
        <time>2020-09-19T09:07:35.000Z</time>
      </trkpt>
      <trkpt lat="47.09904" lon="-1.45487">
        <ele>99</ele>
        <time>2020-09-19T09:07:37.000Z</time>
      </trkpt>
      <trkpt lat="47.09897" lon="-1.45469">
        <ele>98</ele>
        <time>2020-09-19T09:07:39.000Z</time>
      </trkpt>
      <trkpt lat="47.09889" lon="-1.45452">
        <ele>98</ele>
        <time>2020-09-19T09:07:41.000Z</time>
      </trkpt>
      <trkpt lat="47.09882" lon="-1.45435">
        <ele>98</ele>
        <time>2020-09-19T09:07:43.000Z</time>
      </trkpt>
      <trkpt lat="47.09874" lon="-1.45418">
        <ele>98</ele>
        <time>2020-09-19T09:07:45.000Z</time>
      </trkpt>
      <trkpt lat="47.09866" lon="-1.45401">
        <ele>98</ele>
        <time>2020-09-19T09:07:47.000Z</time>
      </trkpt>
      <trkpt lat="47.09859" lon="-1.45383">
        <ele>98</ele>
        <time>2020-09-19T09:07:49.000Z</time>
      </trkpt>
      <trkpt lat="47.09851" lon="-1.45366">
        <ele>98</ele>
        <time>2020-09-19T09:07:51.000Z</time>
      </trkpt>
      <trkpt lat="47.09844" lon="-1.45349">
        <ele>98</ele>
        <time>2020-09-19T09:07:53.000Z</time>
      </trkpt>
      <trkpt lat="47.09836" lon="-1.45331">
        <ele>97</ele>
        <time>2020-09-19T09:07:55.000Z</time>
      </trkpt>
      <trkpt lat="47.09829" lon="-1.45313">
        <ele>97</ele>
        <time>2020-09-19T09:07:57.000Z</time>
      </trkpt>
      <trkpt lat="47.09821" lon="-1.45295">
        <ele>97</ele>
        <time>2020-09-19T09:07:59.000Z</time>
      </trkpt>
      <trkpt lat="47.09814" lon="-1.45278">
        <ele>97</ele>
        <time>2020-09-19T09:08:01.000Z</time>
      </trkpt>
      <trkpt lat="47.09806" lon="-1.4526">
        <ele>97</ele>
        <time>2020-09-19T09:08:03.000Z</time>
      </trkpt>
      <trkpt lat="47.09798" lon="-1.45243">
        <ele>97</ele>
        <time>2020-09-19T09:08:05.000Z</time>
      </trkpt>
      <trkpt lat="47.0979" lon="-1.45226">
        <ele>97</ele>
        <time>2020-09-19T09:08:07.000Z</time>
      </trkpt>
      <trkpt lat="47.09782" lon="-1.45208">
        <ele>97</ele>
        <time>2020-09-19T09:08:09.000Z</time>
      </trkpt>
      <trkpt lat="47.09774" lon="-1.4519">
        <ele>97</ele>
        <time>2020-09-19T09:08:11.000Z</time>
      </trkpt>
      <trkpt lat="47.09766" lon="-1.45173">
        <ele>97</ele>
        <time>2020-09-19T09:08:13.000Z</time>
      </trkpt>
      <trkpt lat="47.09758" lon="-1.45156">
        <ele>97</ele>
        <time>2020-09-19T09:08:15.000Z</time>
      </trkpt>
      <trkpt lat="47.09751" lon="-1.4514">
        <ele>97</ele>
        <time>2020-09-19T09:08:17.000Z</time>
      </trkpt>
      <trkpt lat="47.09743" lon="-1.45123">
        <ele>96</ele>
        <time>2020-09-19T09:08:19.000Z</time>
      </trkpt>
      <trkpt lat="47.09735" lon="-1.45106">
        <ele>96</ele>
        <time>2020-09-19T09:08:21.000Z</time>
      </trkpt>
      <trkpt lat="47.09727" lon="-1.4509">
        <ele>96</ele>
        <time>2020-09-19T09:08:23.000Z</time>
      </trkpt>
      <trkpt lat="47.0972" lon="-1.45073">
        <ele>96</ele>
        <time>2020-09-19T09:08:25.000Z</time>
      </trkpt>
      <trkpt lat="47.09712" lon="-1.45057">
        <ele>96</ele>
        <time>2020-09-19T09:08:27.000Z</time>
      </trkpt>
      <trkpt lat="47.09704" lon="-1.45042">
        <ele>96</ele>
        <time>2020-09-19T09:08:29.000Z</time>
      </trkpt>
      <trkpt lat="47.09696" lon="-1.45025">
        <ele>97</ele>
        <time>2020-09-19T09:08:31.000Z</time>
      </trkpt>
      <trkpt lat="47.09689" lon="-1.45009">
        <ele>96</ele>
        <time>2020-09-19T09:08:33.000Z</time>
      </trkpt>
      <trkpt lat="47.09681" lon="-1.44994">
        <ele>96</ele>
        <time>2020-09-19T09:08:35.000Z</time>
      </trkpt>
      <trkpt lat="47.09671" lon="-1.44981">
        <ele>97</ele>
        <time>2020-09-19T09:08:37.000Z</time>
      </trkpt>
      <trkpt lat="47.0966" lon="-1.44969">
        <ele>97</ele>
        <time>2020-09-19T09:08:39.000Z</time>
      </trkpt>
      <trkpt lat="47.09647" lon="-1.44964">
        <ele>97</ele>
        <time>2020-09-19T09:08:41.000Z</time>
      </trkpt>
      <trkpt lat="47.09636" lon="-1.44953">
        <ele>98</ele>
        <time>2020-09-19T09:08:43.000Z</time>
      </trkpt>
      <trkpt lat="47.0963" lon="-1.44935">
        <ele>98</ele>
        <time>2020-09-19T09:08:45.000Z</time>
      </trkpt>
      <trkpt lat="47.09629" lon="-1.44915">
        <ele>98</ele>
        <time>2020-09-19T09:08:47.000Z</time>
      </trkpt>
      <trkpt lat="47.09635" lon="-1.44897">
        <ele>97</ele>
        <time>2020-09-19T09:08:49.000Z</time>
      </trkpt>
      <trkpt lat="47.09646" lon="-1.44885">
        <ele>97</ele>
        <time>2020-09-19T09:08:51.000Z</time>
      </trkpt>
      <trkpt lat="47.09659" lon="-1.44878">
        <ele>96</ele>
        <time>2020-09-19T09:08:53.000Z</time>
      </trkpt>
      <trkpt lat="47.0967" lon="-1.44866">
        <ele>96</ele>
        <time>2020-09-19T09:08:55.000Z</time>
      </trkpt>
      <trkpt lat="47.09678" lon="-1.4485">
        <ele>95</ele>
        <time>2020-09-19T09:08:57.000Z</time>
      </trkpt>
      <trkpt lat="47.09684" lon="-1.44833">
        <ele>95</ele>
        <time>2020-09-19T09:08:59.000Z</time>
      </trkpt>
      <trkpt lat="47.09687" lon="-1.44815">
        <ele>95</ele>
        <time>2020-09-19T09:09:01.000Z</time>
      </trkpt>
      <trkpt lat="47.09685" lon="-1.44796">
        <ele>95</ele>
        <time>2020-09-19T09:09:03.000Z</time>
      </trkpt>
      <trkpt lat="47.09681" lon="-1.44779">
        <ele>95</ele>
        <time>2020-09-19T09:09:05.000Z</time>
      </trkpt>
      <trkpt lat="47.09674" lon="-1.44764">
        <ele>95</ele>
        <time>2020-09-19T09:09:07.000Z</time>
      </trkpt>
      <trkpt lat="47.09666" lon="-1.4475">
        <ele>95</ele>
        <time>2020-09-19T09:09:09.000Z</time>
      </trkpt>
      <trkpt lat="47.09658" lon="-1.44736">
        <ele>96</ele>
        <time>2020-09-19T09:09:11.000Z</time>
      </trkpt>
      <trkpt lat="47.09652" lon="-1.4472">
        <ele>96</ele>
        <time>2020-09-19T09:09:13.000Z</time>
      </trkpt>
      <trkpt lat="47.09648" lon="-1.44702">
        <ele>96</ele>
        <time>2020-09-19T09:09:15.000Z</time>
      </trkpt>
      <trkpt lat="47.09647" lon="-1.44684">
        <ele>96</ele>
        <time>2020-09-19T09:09:17.000Z</time>
      </trkpt>
      <trkpt lat="47.09649" lon="-1.44666">
        <ele>96</ele>
        <time>2020-09-19T09:09:19.000Z</time>
      </trkpt>
      <trkpt lat="47.09653" lon="-1.44648">
        <ele>96</ele>
        <time>2020-09-19T09:09:21.000Z</time>
      </trkpt>
      <trkpt lat="47.09659" lon="-1.44633">
        <ele>96</ele>
        <time>2020-09-19T09:09:23.000Z</time>
      </trkpt>
      <trkpt lat="47.09668" lon="-1.4462">
        <ele>96</ele>
        <time>2020-09-19T09:09:25.000Z</time>
      </trkpt>
      <trkpt lat="47.09678" lon="-1.44609">
        <ele>96</ele>
        <time>2020-09-19T09:09:27.000Z</time>
      </trkpt>
      <trkpt lat="47.0969" lon="-1.446">
        <ele>96</ele>
        <time>2020-09-19T09:09:29.000Z</time>
      </trkpt>
      <trkpt lat="47.09702" lon="-1.44591">
        <ele>96</ele>
        <time>2020-09-19T09:09:31.000Z</time>
      </trkpt>
      <trkpt lat="47.09713" lon="-1.44583">
        <ele>95</ele>
        <time>2020-09-19T09:09:33.000Z</time>
      </trkpt>
      <trkpt lat="47.09725" lon="-1.44577">
        <ele>95</ele>
        <time>2020-09-19T09:09:35.000Z</time>
      </trkpt>
      <trkpt lat="47.09737" lon="-1.4457">
        <ele>94</ele>
        <time>2020-09-19T09:09:37.000Z</time>
      </trkpt>
      <trkpt lat="47.0975" lon="-1.44564">
        <ele>94</ele>
        <time>2020-09-19T09:09:39.000Z</time>
      </trkpt>
      <trkpt lat="47.09764" lon="-1.44557">
        <ele>93</ele>
        <time>2020-09-19T09:09:41.000Z</time>
      </trkpt>
      <trkpt lat="47.09777" lon="-1.44551">
        <ele>93</ele>
        <time>2020-09-19T09:09:43.000Z</time>
      </trkpt>
      <trkpt lat="47.09791" lon="-1.44545">
        <ele>92</ele>
        <time>2020-09-19T09:09:45.000Z</time>
      </trkpt>
      <trkpt lat="47.09805" lon="-1.4454">
        <ele>92</ele>
        <time>2020-09-19T09:09:47.000Z</time>
      </trkpt>
      <trkpt lat="47.09819" lon="-1.44535">
        <ele>91</ele>
        <time>2020-09-19T09:09:49.000Z</time>
      </trkpt>
      <trkpt lat="47.09834" lon="-1.44529">
        <ele>90</ele>
        <time>2020-09-19T09:09:51.000Z</time>
      </trkpt>
      <trkpt lat="47.09849" lon="-1.44524">
        <ele>90</ele>
        <time>2020-09-19T09:09:53.000Z</time>
      </trkpt>
      <trkpt lat="47.09865" lon="-1.44517">
        <ele>89</ele>
        <time>2020-09-19T09:09:55.000Z</time>
      </trkpt>
      <trkpt lat="47.09881" lon="-1.44511">
        <ele>88</ele>
        <time>2020-09-19T09:09:57.000Z</time>
      </trkpt>
      <trkpt lat="47.09897" lon="-1.44504">
        <ele>87</ele>
        <time>2020-09-19T09:09:59.000Z</time>
      </trkpt>
      <trkpt lat="47.09913" lon="-1.44498">
        <ele>86</ele>
        <time>2020-09-19T09:10:01.000Z</time>
      </trkpt>
      <trkpt lat="47.0993" lon="-1.44492">
        <ele>85</ele>
        <time>2020-09-19T09:10:03.000Z</time>
      </trkpt>
      <trkpt lat="47.09948" lon="-1.44486">
        <ele>84</ele>
        <time>2020-09-19T09:10:05.000Z</time>
      </trkpt>
      <trkpt lat="47.09965" lon="-1.44479">
        <ele>83</ele>
        <time>2020-09-19T09:10:07.000Z</time>
      </trkpt>
      <trkpt lat="47.09974" lon="-1.44476">
        <ele>82</ele>
        <time>2020-09-19T09:10:08.000Z</time>
      </trkpt>
      <trkpt lat="47.09983" lon="-1.44472">
        <ele>82</ele>
        <time>2020-09-19T09:10:09.000Z</time>
      </trkpt>
      <trkpt lat="47.09992" lon="-1.44469">
        <ele>81</ele>
        <time>2020-09-19T09:10:10.000Z</time>
      </trkpt>
      <trkpt lat="47.10001" lon="-1.44466">
        <ele>81</ele>
        <time>2020-09-19T09:10:11.000Z</time>
      </trkpt>
      <trkpt lat="47.1001" lon="-1.44462">
        <ele>80</ele>
        <time>2020-09-19T09:10:12.000Z</time>
      </trkpt>
      <trkpt lat="47.10019" lon="-1.44458">
        <ele>80</ele>
        <time>2020-09-19T09:10:13.000Z</time>
      </trkpt>
      <trkpt lat="47.10028" lon="-1.44455">
        <ele>80</ele>
        <time>2020-09-19T09:10:14.000Z</time>
      </trkpt>
      <trkpt lat="47.10037" lon="-1.44451">
        <ele>79</ele>
        <time>2020-09-19T09:10:15.000Z</time>
      </trkpt>
      <trkpt lat="47.10046" lon="-1.44448">
        <ele>79</ele>
        <time>2020-09-19T09:10:16.000Z</time>
      </trkpt>
      <trkpt lat="47.10055" lon="-1.44445">
        <ele>78</ele>
        <time>2020-09-19T09:10:17.000Z</time>
      </trkpt>
      <trkpt lat="47.10064" lon="-1.44442">
        <ele>78</ele>
        <time>2020-09-19T09:10:18.000Z</time>
      </trkpt>
      <trkpt lat="47.10073" lon="-1.44438">
        <ele>78</ele>
        <time>2020-09-19T09:10:19.000Z</time>
      </trkpt>
      <trkpt lat="47.1009" lon="-1.44433">
        <ele>78</ele>
        <time>2020-09-19T09:10:21.000Z</time>
      </trkpt>
      <trkpt lat="47.10099" lon="-1.4443">
        <ele>77</ele>
        <time>2020-09-19T09:10:22.000Z</time>
      </trkpt>
      <trkpt lat="47.10115" lon="-1.44422">
        <ele>77</ele>
        <time>2020-09-19T09:10:24.000Z</time>
      </trkpt>
      <trkpt lat="47.10131" lon="-1.44411">
        <ele>76</ele>
        <time>2020-09-19T09:10:26.000Z</time>
      </trkpt>
      <trkpt lat="47.10146" lon="-1.44396">
        <ele>77</ele>
        <time>2020-09-19T09:10:28.000Z</time>
      </trkpt>
      <trkpt lat="47.10153" lon="-1.44389">
        <ele>77</ele>
        <time>2020-09-19T09:10:29.000Z</time>
      </trkpt>
      <trkpt lat="47.10167" lon="-1.44374">
        <ele>77</ele>
        <time>2020-09-19T09:10:31.000Z</time>
      </trkpt>
      <trkpt lat="47.1018" lon="-1.4436">
        <ele>76</ele>
        <time>2020-09-19T09:10:33.000Z</time>
      </trkpt>
      <trkpt lat="47.10192" lon="-1.44346">
        <ele>76</ele>
        <time>2020-09-19T09:10:35.000Z</time>
      </trkpt>
      <trkpt lat="47.10204" lon="-1.44332">
        <ele>75</ele>
        <time>2020-09-19T09:10:37.000Z</time>
      </trkpt>
      <trkpt lat="47.10215" lon="-1.44319">
        <ele>75</ele>
        <time>2020-09-19T09:10:39.000Z</time>
      </trkpt>
      <trkpt lat="47.10226" lon="-1.44305">
        <ele>75</ele>
        <time>2020-09-19T09:10:41.000Z</time>
      </trkpt>
      <trkpt lat="47.10237" lon="-1.44292">
        <ele>74</ele>
        <time>2020-09-19T09:10:43.000Z</time>
      </trkpt>
      <trkpt lat="47.10248" lon="-1.44279">
        <ele>74</ele>
        <time>2020-09-19T09:10:45.000Z</time>
      </trkpt>
      <trkpt lat="47.10259" lon="-1.44266">
        <ele>74</ele>
        <time>2020-09-19T09:10:47.000Z</time>
      </trkpt>
      <trkpt lat="47.10271" lon="-1.44254">
        <ele>74</ele>
        <time>2020-09-19T09:10:49.000Z</time>
      </trkpt>
      <trkpt lat="47.10283" lon="-1.44242">
        <ele>74</ele>
        <time>2020-09-19T09:10:51.000Z</time>
      </trkpt>
      <trkpt lat="47.10297" lon="-1.44232">
        <ele>73</ele>
        <time>2020-09-19T09:10:53.000Z</time>
      </trkpt>
      <trkpt lat="47.1031" lon="-1.44224">
        <ele>73</ele>
        <time>2020-09-19T09:10:55.000Z</time>
      </trkpt>
      <trkpt lat="47.10324" lon="-1.44218">
        <ele>73</ele>
        <time>2020-09-19T09:10:57.000Z</time>
      </trkpt>
      <trkpt lat="47.10338" lon="-1.44211">
        <ele>73</ele>
        <time>2020-09-19T09:10:59.000Z</time>
      </trkpt>
      <trkpt lat="47.10351" lon="-1.44204">
        <ele>72</ele>
        <time>2020-09-19T09:11:01.000Z</time>
      </trkpt>
      <trkpt lat="47.10364" lon="-1.44199">
        <ele>72</ele>
        <time>2020-09-19T09:11:03.000Z</time>
      </trkpt>
      <trkpt lat="47.10376" lon="-1.44193">
        <ele>72</ele>
        <time>2020-09-19T09:11:05.000Z</time>
      </trkpt>
      <trkpt lat="47.10389" lon="-1.44187">
        <ele>72</ele>
        <time>2020-09-19T09:11:07.000Z</time>
      </trkpt>
      <trkpt lat="47.10401" lon="-1.44182">
        <ele>73</ele>
        <time>2020-09-19T09:11:09.000Z</time>
      </trkpt>
      <trkpt lat="47.10414" lon="-1.44176">
        <ele>73</ele>
        <time>2020-09-19T09:11:11.000Z</time>
      </trkpt>
      <trkpt lat="47.10427" lon="-1.4417">
        <ele>73</ele>
        <time>2020-09-19T09:11:13.000Z</time>
      </trkpt>
      <trkpt lat="47.1044" lon="-1.44164">
        <ele>73</ele>
        <time>2020-09-19T09:11:15.000Z</time>
      </trkpt>
      <trkpt lat="47.10453" lon="-1.44158">
        <ele>74</ele>
        <time>2020-09-19T09:11:17.000Z</time>
      </trkpt>
      <trkpt lat="47.10465" lon="-1.44152">
        <ele>74</ele>
        <time>2020-09-19T09:11:19.000Z</time>
      </trkpt>
      <trkpt lat="47.10477" lon="-1.44146">
        <ele>74</ele>
        <time>2020-09-19T09:11:21.000Z</time>
      </trkpt>
      <trkpt lat="47.10488" lon="-1.44139">
        <ele>74</ele>
        <time>2020-09-19T09:11:23.000Z</time>
      </trkpt>
      <trkpt lat="47.10499" lon="-1.44132">
        <ele>75</ele>
        <time>2020-09-19T09:11:25.000Z</time>
      </trkpt>
      <trkpt lat="47.1051" lon="-1.44124">
        <ele>75</ele>
        <time>2020-09-19T09:11:27.000Z</time>
      </trkpt>
      <trkpt lat="47.1052" lon="-1.44116">
        <ele>76</ele>
        <time>2020-09-19T09:11:29.000Z</time>
      </trkpt>
      <trkpt lat="47.10531" lon="-1.44108">
        <ele>76</ele>
        <time>2020-09-19T09:11:31.000Z</time>
      </trkpt>
      <trkpt lat="47.10542" lon="-1.44099">
        <ele>76</ele>
        <time>2020-09-19T09:11:33.000Z</time>
      </trkpt>
      <trkpt lat="47.10553" lon="-1.44091">
        <ele>77</ele>
        <time>2020-09-19T09:11:35.000Z</time>
      </trkpt>
      <trkpt lat="47.10563" lon="-1.44082">
        <ele>77</ele>
        <time>2020-09-19T09:11:37.000Z</time>
      </trkpt>
      <trkpt lat="47.10572" lon="-1.44073">
        <ele>77</ele>
        <time>2020-09-19T09:11:39.000Z</time>
      </trkpt>
      <trkpt lat="47.10581" lon="-1.44063">
        <ele>77</ele>
        <time>2020-09-19T09:11:41.000Z</time>
      </trkpt>
      <trkpt lat="47.10591" lon="-1.44053">
        <ele>76</ele>
        <time>2020-09-19T09:11:43.000Z</time>
      </trkpt>
      <trkpt lat="47.10601" lon="-1.44045">
        <ele>76</ele>
        <time>2020-09-19T09:11:45.000Z</time>
      </trkpt>
      <trkpt lat="47.10612" lon="-1.44037">
        <ele>76</ele>
        <time>2020-09-19T09:11:47.000Z</time>
      </trkpt>
      <trkpt lat="47.10623" lon="-1.4403">
        <ele>76</ele>
        <time>2020-09-19T09:11:49.000Z</time>
      </trkpt>
      <trkpt lat="47.10634" lon="-1.44023">
        <ele>77</ele>
        <time>2020-09-19T09:11:51.000Z</time>
      </trkpt>
      <trkpt lat="47.10644" lon="-1.44017">
        <ele>76</ele>
        <time>2020-09-19T09:11:53.000Z</time>
      </trkpt>
      <trkpt lat="47.10656" lon="-1.4401">
        <ele>76</ele>
        <time>2020-09-19T09:11:55.000Z</time>
      </trkpt>
      <trkpt lat="47.10667" lon="-1.44004">
        <ele>77</ele>
        <time>2020-09-19T09:11:57.000Z</time>
      </trkpt>
      <trkpt lat="47.10678" lon="-1.43998">
        <ele>77</ele>
        <time>2020-09-19T09:11:59.000Z</time>
      </trkpt>
      <trkpt lat="47.10689" lon="-1.43992">
        <ele>78</ele>
        <time>2020-09-19T09:12:01.000Z</time>
      </trkpt>
      <trkpt lat="47.107" lon="-1.43985">
        <ele>78</ele>
        <time>2020-09-19T09:12:03.000Z</time>
      </trkpt>
      <trkpt lat="47.1071" lon="-1.43977">
        <ele>79</ele>
        <time>2020-09-19T09:12:05.000Z</time>
      </trkpt>
      <trkpt lat="47.1072" lon="-1.4397">
        <ele>79</ele>
        <time>2020-09-19T09:12:07.000Z</time>
      </trkpt>
      <trkpt lat="47.10729" lon="-1.43961">
        <ele>79</ele>
        <time>2020-09-19T09:12:09.000Z</time>
      </trkpt>
      <trkpt lat="47.10737" lon="-1.43953">
        <ele>79</ele>
        <time>2020-09-19T09:12:11.000Z</time>
      </trkpt>
      <trkpt lat="47.10746" lon="-1.43943">
        <ele>79</ele>
        <time>2020-09-19T09:12:13.000Z</time>
      </trkpt>
      <trkpt lat="47.10754" lon="-1.43934">
        <ele>80</ele>
        <time>2020-09-19T09:12:15.000Z</time>
      </trkpt>
      <trkpt lat="47.10763" lon="-1.43927">
        <ele>80</ele>
        <time>2020-09-19T09:12:17.000Z</time>
      </trkpt>
      <trkpt lat="47.10772" lon="-1.43919">
        <ele>81</ele>
        <time>2020-09-19T09:12:19.000Z</time>
      </trkpt>
      <trkpt lat="47.10781" lon="-1.43912">
        <ele>81</ele>
        <time>2020-09-19T09:12:21.000Z</time>
      </trkpt>
      <trkpt lat="47.10789" lon="-1.43903">
        <ele>81</ele>
        <time>2020-09-19T09:12:23.000Z</time>
      </trkpt>
      <trkpt lat="47.10798" lon="-1.43895">
        <ele>82</ele>
        <time>2020-09-19T09:12:25.000Z</time>
      </trkpt>
      <trkpt lat="47.10807" lon="-1.43888">
        <ele>82</ele>
        <time>2020-09-19T09:12:27.000Z</time>
      </trkpt>
      <trkpt lat="47.10815" lon="-1.43881">
        <ele>82</ele>
        <time>2020-09-19T09:12:29.000Z</time>
      </trkpt>
      <trkpt lat="47.10824" lon="-1.43874">
        <ele>82</ele>
        <time>2020-09-19T09:12:31.000Z</time>
      </trkpt>
      <trkpt lat="47.10833" lon="-1.43866">
        <ele>83</ele>
        <time>2020-09-19T09:12:33.000Z</time>
      </trkpt>
      <trkpt lat="47.10841" lon="-1.43856">
        <ele>84</ele>
        <time>2020-09-19T09:12:35.000Z</time>
      </trkpt>
      <trkpt lat="47.1085" lon="-1.43847">
        <ele>84</ele>
        <time>2020-09-19T09:12:37.000Z</time>
      </trkpt>
      <trkpt lat="47.10858" lon="-1.43839">
        <ele>85</ele>
        <time>2020-09-19T09:12:39.000Z</time>
      </trkpt>
      <trkpt lat="47.10867" lon="-1.43831">
        <ele>85</ele>
        <time>2020-09-19T09:12:41.000Z</time>
      </trkpt>
      <trkpt lat="47.10877" lon="-1.43824">
        <ele>85</ele>
        <time>2020-09-19T09:12:43.000Z</time>
      </trkpt>
      <trkpt lat="47.10886" lon="-1.43816">
        <ele>85</ele>
        <time>2020-09-19T09:12:45.000Z</time>
      </trkpt>
      <trkpt lat="47.10895" lon="-1.43807">
        <ele>85</ele>
        <time>2020-09-19T09:12:47.000Z</time>
      </trkpt>
      <trkpt lat="47.10904" lon="-1.43798">
        <ele>86</ele>
        <time>2020-09-19T09:12:49.000Z</time>
      </trkpt>
      <trkpt lat="47.10913" lon="-1.43789">
        <ele>86</ele>
        <time>2020-09-19T09:12:51.000Z</time>
      </trkpt>
      <trkpt lat="47.10922" lon="-1.4378">
        <ele>86</ele>
        <time>2020-09-19T09:12:53.000Z</time>
      </trkpt>
      <trkpt lat="47.10931" lon="-1.43772">
        <ele>86</ele>
        <time>2020-09-19T09:12:55.000Z</time>
      </trkpt>
      <trkpt lat="47.10939" lon="-1.43763">
        <ele>86</ele>
        <time>2020-09-19T09:12:57.000Z</time>
      </trkpt>
      <trkpt lat="47.10947" lon="-1.43754">
        <ele>87</ele>
        <time>2020-09-19T09:12:59.000Z</time>
      </trkpt>
      <trkpt lat="47.10956" lon="-1.43746">
        <ele>87</ele>
        <time>2020-09-19T09:13:01.000Z</time>
      </trkpt>
      <trkpt lat="47.10965" lon="-1.43736">
        <ele>87</ele>
        <time>2020-09-19T09:13:03.000Z</time>
      </trkpt>
      <trkpt lat="47.10973" lon="-1.43727">
        <ele>87</ele>
        <time>2020-09-19T09:13:05.000Z</time>
      </trkpt>
      <trkpt lat="47.10982" lon="-1.43718">
        <ele>88</ele>
        <time>2020-09-19T09:13:07.000Z</time>
      </trkpt>
      <trkpt lat="47.10991" lon="-1.43709">
        <ele>88</ele>
        <time>2020-09-19T09:13:09.000Z</time>
      </trkpt>
      <trkpt lat="47.11" lon="-1.43699">
        <ele>88</ele>
        <time>2020-09-19T09:13:11.000Z</time>
      </trkpt>
      <trkpt lat="47.11009" lon="-1.43689">
        <ele>88</ele>
        <time>2020-09-19T09:13:13.000Z</time>
      </trkpt>
      <trkpt lat="47.11017" lon="-1.43679">
        <ele>88</ele>
        <time>2020-09-19T09:13:15.000Z</time>
      </trkpt>
      <trkpt lat="47.11025" lon="-1.43669">
        <ele>88</ele>
        <time>2020-09-19T09:13:17.000Z</time>
      </trkpt>
      <trkpt lat="47.11033" lon="-1.43659">
        <ele>89</ele>
        <time>2020-09-19T09:13:19.000Z</time>
      </trkpt>
      <trkpt lat="47.11039" lon="-1.43648">
        <ele>89</ele>
        <time>2020-09-19T09:13:21.000Z</time>
      </trkpt>
      <trkpt lat="47.11046" lon="-1.43637">
        <ele>89</ele>
        <time>2020-09-19T09:13:23.000Z</time>
      </trkpt>
      <trkpt lat="47.11055" lon="-1.43626">
        <ele>90</ele>
        <time>2020-09-19T09:13:25.000Z</time>
      </trkpt>
      <trkpt lat="47.11063" lon="-1.43616">
        <ele>90</ele>
        <time>2020-09-19T09:13:27.000Z</time>
      </trkpt>
      <trkpt lat="47.11072" lon="-1.43607">
        <ele>90</ele>
        <time>2020-09-19T09:13:29.000Z</time>
      </trkpt>
      <trkpt lat="47.1108" lon="-1.43598">
        <ele>90</ele>
        <time>2020-09-19T09:13:31.000Z</time>
      </trkpt>
      <trkpt lat="47.11089" lon="-1.43589">
        <ele>91</ele>
        <time>2020-09-19T09:13:33.000Z</time>
      </trkpt>
      <trkpt lat="47.11098" lon="-1.43581">
        <ele>91</ele>
        <time>2020-09-19T09:13:35.000Z</time>
      </trkpt>
      <trkpt lat="47.11106" lon="-1.4357">
        <ele>91</ele>
        <time>2020-09-19T09:13:37.000Z</time>
      </trkpt>
      <trkpt lat="47.11114" lon="-1.43558">
        <ele>92</ele>
        <time>2020-09-19T09:13:39.000Z</time>
      </trkpt>
      <trkpt lat="47.11122" lon="-1.43547">
        <ele>92</ele>
        <time>2020-09-19T09:13:41.000Z</time>
      </trkpt>
      <trkpt lat="47.11129" lon="-1.43536">
        <ele>92</ele>
        <time>2020-09-19T09:13:43.000Z</time>
      </trkpt>
      <trkpt lat="47.11136" lon="-1.43524">
        <ele>92</ele>
        <time>2020-09-19T09:13:45.000Z</time>
      </trkpt>
      <trkpt lat="47.11143" lon="-1.43512">
        <ele>92</ele>
        <time>2020-09-19T09:13:47.000Z</time>
      </trkpt>
      <trkpt lat="47.1115" lon="-1.435">
        <ele>93</ele>
        <time>2020-09-19T09:13:49.000Z</time>
      </trkpt>
      <trkpt lat="47.11156" lon="-1.43488">
        <ele>93</ele>
        <time>2020-09-19T09:13:51.000Z</time>
      </trkpt>
      <trkpt lat="47.11163" lon="-1.43476">
        <ele>93</ele>
        <time>2020-09-19T09:13:53.000Z</time>
      </trkpt>
      <trkpt lat="47.1117" lon="-1.43463">
        <ele>94</ele>
        <time>2020-09-19T09:13:55.000Z</time>
      </trkpt>
      <trkpt lat="47.11177" lon="-1.43451">
        <ele>94</ele>
        <time>2020-09-19T09:13:57.000Z</time>
      </trkpt>
      <trkpt lat="47.11183" lon="-1.43438">
        <ele>94</ele>
        <time>2020-09-19T09:13:59.000Z</time>
      </trkpt>
      <trkpt lat="47.1119" lon="-1.43427">
        <ele>94</ele>
        <time>2020-09-19T09:14:01.000Z</time>
      </trkpt>
      <trkpt lat="47.11197" lon="-1.43416">
        <ele>93</ele>
        <time>2020-09-19T09:14:03.000Z</time>
      </trkpt>
      <trkpt lat="47.11204" lon="-1.43403">
        <ele>94</ele>
        <time>2020-09-19T09:14:05.000Z</time>
      </trkpt>
      <trkpt lat="47.11212" lon="-1.43391">
        <ele>93</ele>
        <time>2020-09-19T09:14:07.000Z</time>
      </trkpt>
      <trkpt lat="47.11219" lon="-1.43378">
        <ele>94</ele>
        <time>2020-09-19T09:14:09.000Z</time>
      </trkpt>
      <trkpt lat="47.11227" lon="-1.43365">
        <ele>94</ele>
        <time>2020-09-19T09:14:11.000Z</time>
      </trkpt>
      <trkpt lat="47.11234" lon="-1.43352">
        <ele>94</ele>
        <time>2020-09-19T09:14:13.000Z</time>
      </trkpt>
      <trkpt lat="47.11242" lon="-1.43339">
        <ele>94</ele>
        <time>2020-09-19T09:14:15.000Z</time>
      </trkpt>
      <trkpt lat="47.11249" lon="-1.43327">
        <ele>94</ele>
        <time>2020-09-19T09:14:17.000Z</time>
      </trkpt>
      <trkpt lat="47.11258" lon="-1.43314">
        <ele>94</ele>
        <time>2020-09-19T09:14:19.000Z</time>
      </trkpt>
      <trkpt lat="47.11267" lon="-1.43303">
        <ele>93</ele>
        <time>2020-09-19T09:14:21.000Z</time>
      </trkpt>
      <trkpt lat="47.11277" lon="-1.43291">
        <ele>93</ele>
        <time>2020-09-19T09:14:23.000Z</time>
      </trkpt>
      <trkpt lat="47.11286" lon="-1.4328">
        <ele>93</ele>
        <time>2020-09-19T09:14:25.000Z</time>
      </trkpt>
      <trkpt lat="47.11297" lon="-1.43268">
        <ele>92</ele>
        <time>2020-09-19T09:14:27.000Z</time>
      </trkpt>
      <trkpt lat="47.11307" lon="-1.43256">
        <ele>92</ele>
        <time>2020-09-19T09:14:29.000Z</time>
      </trkpt>
      <trkpt lat="47.11317" lon="-1.43243">
        <ele>92</ele>
        <time>2020-09-19T09:14:31.000Z</time>
      </trkpt>
      <trkpt lat="47.11327" lon="-1.43231">
        <ele>92</ele>
        <time>2020-09-19T09:14:33.000Z</time>
      </trkpt>
      <trkpt lat="47.11337" lon="-1.43218">
        <ele>91</ele>
        <time>2020-09-19T09:14:35.000Z</time>
      </trkpt>
      <trkpt lat="47.11348" lon="-1.43206">
        <ele>91</ele>
        <time>2020-09-19T09:14:37.000Z</time>
      </trkpt>
      <trkpt lat="47.11359" lon="-1.43193">
        <ele>91</ele>
        <time>2020-09-19T09:14:39.000Z</time>
      </trkpt>
      <trkpt lat="47.1137" lon="-1.4318">
        <ele>91</ele>
        <time>2020-09-19T09:14:41.000Z</time>
      </trkpt>
      <trkpt lat="47.1138" lon="-1.43168">
        <ele>91</ele>
        <time>2020-09-19T09:14:43.000Z</time>
      </trkpt>
      <trkpt lat="47.11391" lon="-1.43154">
        <ele>91</ele>
        <time>2020-09-19T09:14:45.000Z</time>
      </trkpt>
      <trkpt lat="47.11401" lon="-1.43141">
        <ele>90</ele>
        <time>2020-09-19T09:14:47.000Z</time>
      </trkpt>
      <trkpt lat="47.11411" lon="-1.43127">
        <ele>90</ele>
        <time>2020-09-19T09:14:49.000Z</time>
      </trkpt>
      <trkpt lat="47.11421" lon="-1.43114">
        <ele>89</ele>
        <time>2020-09-19T09:14:51.000Z</time>
      </trkpt>
      <trkpt lat="47.11432" lon="-1.43101">
        <ele>89</ele>
        <time>2020-09-19T09:14:53.000Z</time>
      </trkpt>
      <trkpt lat="47.11443" lon="-1.43089">
        <ele>89</ele>
        <time>2020-09-19T09:14:55.000Z</time>
      </trkpt>
      <trkpt lat="47.11455" lon="-1.43077">
        <ele>88</ele>
        <time>2020-09-19T09:14:57.000Z</time>
      </trkpt>
      <trkpt lat="47.11467" lon="-1.43066">
        <ele>88</ele>
        <time>2020-09-19T09:14:59.000Z</time>
      </trkpt>
      <trkpt lat="47.1148" lon="-1.43055">
        <ele>87</ele>
        <time>2020-09-19T09:15:01.000Z</time>
      </trkpt>
      <trkpt lat="47.11492" lon="-1.43043">
        <ele>87</ele>
        <time>2020-09-19T09:15:03.000Z</time>
      </trkpt>
      <trkpt lat="47.11505" lon="-1.43032">
        <ele>86</ele>
        <time>2020-09-19T09:15:05.000Z</time>
      </trkpt>
      <trkpt lat="47.11517" lon="-1.4302">
        <ele>85</ele>
        <time>2020-09-19T09:15:07.000Z</time>
      </trkpt>
      <trkpt lat="47.1153" lon="-1.43008">
        <ele>85</ele>
        <time>2020-09-19T09:15:09.000Z</time>
      </trkpt>
      <trkpt lat="47.11543" lon="-1.42996">
        <ele>85</ele>
        <time>2020-09-19T09:15:11.000Z</time>
      </trkpt>
      <trkpt lat="47.11555" lon="-1.42984">
        <ele>84</ele>
        <time>2020-09-19T09:15:13.000Z</time>
      </trkpt>
      <trkpt lat="47.11567" lon="-1.42973">
        <ele>84</ele>
        <time>2020-09-19T09:15:15.000Z</time>
      </trkpt>
      <trkpt lat="47.1158" lon="-1.42961">
        <ele>84</ele>
        <time>2020-09-19T09:15:17.000Z</time>
      </trkpt>
      <trkpt lat="47.11592" lon="-1.42949">
        <ele>83</ele>
        <time>2020-09-19T09:15:19.000Z</time>
      </trkpt>
      <trkpt lat="47.11604" lon="-1.42937">
        <ele>82</ele>
        <time>2020-09-19T09:15:21.000Z</time>
      </trkpt>
      <trkpt lat="47.11616" lon="-1.42924">
        <ele>81</ele>
        <time>2020-09-19T09:15:23.000Z</time>
      </trkpt>
      <trkpt lat="47.11627" lon="-1.42909">
        <ele>80</ele>
        <time>2020-09-19T09:15:25.000Z</time>
      </trkpt>
      <trkpt lat="47.11636" lon="-1.42892">
        <ele>79</ele>
        <time>2020-09-19T09:15:27.000Z</time>
      </trkpt>
      <trkpt lat="47.11645" lon="-1.42874">
        <ele>79</ele>
        <time>2020-09-19T09:15:29.000Z</time>
      </trkpt>
      <trkpt lat="47.11653" lon="-1.42855">
        <ele>79</ele>
        <time>2020-09-19T09:15:31.000Z</time>
      </trkpt>
      <trkpt lat="47.1166" lon="-1.42838">
        <ele>79</ele>
        <time>2020-09-19T09:15:33.000Z</time>
      </trkpt>
      <trkpt lat="47.11667" lon="-1.42821">
        <ele>79</ele>
        <time>2020-09-19T09:15:35.000Z</time>
      </trkpt>
      <trkpt lat="47.11674" lon="-1.42805">
        <ele>79</ele>
        <time>2020-09-19T09:15:37.000Z</time>
      </trkpt>
      <trkpt lat="47.11679" lon="-1.42789">
        <ele>79</ele>
        <time>2020-09-19T09:15:39.000Z</time>
      </trkpt>
      <trkpt lat="47.11682" lon="-1.42774">
        <ele>79</ele>
        <time>2020-09-19T09:15:41.000Z</time>
      </trkpt>
      <trkpt lat="47.11685" lon="-1.4276">
        <ele>80</ele>
        <time>2020-09-19T09:15:43.000Z</time>
      </trkpt>
      <trkpt lat="47.11688" lon="-1.42746">
        <ele>81</ele>
        <time>2020-09-19T09:15:45.000Z</time>
      </trkpt>
      <trkpt lat="47.11692" lon="-1.42733">
        <ele>81</ele>
        <time>2020-09-19T09:15:47.000Z</time>
      </trkpt>
      <trkpt lat="47.11698" lon="-1.42716">
        <ele>82</ele>
        <time>2020-09-19T09:15:50.000Z</time>
      </trkpt>
      <trkpt lat="47.11703" lon="-1.42705">
        <ele>82</ele>
        <time>2020-09-19T09:15:52.000Z</time>
      </trkpt>
      <trkpt lat="47.1171" lon="-1.42697">
        <ele>83</ele>
        <time>2020-09-19T09:15:54.000Z</time>
      </trkpt>
      <trkpt lat="47.11721" lon="-1.42688">
        <ele>84</ele>
        <time>2020-09-19T09:15:57.000Z</time>
      </trkpt>
      <trkpt lat="47.11729" lon="-1.42683">
        <ele>85</ele>
        <time>2020-09-19T09:15:59.000Z</time>
      </trkpt>
      <trkpt lat="47.11738" lon="-1.42678">
        <ele>86</ele>
        <time>2020-09-19T09:16:01.000Z</time>
      </trkpt>
      <trkpt lat="47.11746" lon="-1.42673">
        <ele>86</ele>
        <time>2020-09-19T09:16:03.000Z</time>
      </trkpt>
      <trkpt lat="47.11759" lon="-1.42666">
        <ele>87</ele>
        <time>2020-09-19T09:16:06.000Z</time>
      </trkpt>
      <trkpt lat="47.1177" lon="-1.42658">
        <ele>87</ele>
        <time>2020-09-19T09:16:09.000Z</time>
      </trkpt>
      <trkpt lat="47.11782" lon="-1.42651">
        <ele>88</ele>
        <time>2020-09-19T09:16:12.000Z</time>
      </trkpt>
      <trkpt lat="47.11794" lon="-1.42644">
        <ele>88</ele>
        <time>2020-09-19T09:16:15.000Z</time>
      </trkpt>
      <trkpt lat="47.11806" lon="-1.42637">
        <ele>89</ele>
        <time>2020-09-19T09:16:18.000Z</time>
      </trkpt>
      <trkpt lat="47.11817" lon="-1.4263">
        <ele>91</ele>
        <time>2020-09-19T09:16:21.000Z</time>
      </trkpt>
      <trkpt lat="47.11828" lon="-1.42623">
        <ele>91</ele>
        <time>2020-09-19T09:16:24.000Z</time>
      </trkpt>
      <trkpt lat="47.11839" lon="-1.42616">
        <ele>93</ele>
        <time>2020-09-19T09:16:27.000Z</time>
      </trkpt>
      <trkpt lat="47.1185" lon="-1.42609">
        <ele>93</ele>
        <time>2020-09-19T09:16:30.000Z</time>
      </trkpt>
      <trkpt lat="47.11861" lon="-1.426">
        <ele>94</ele>
        <time>2020-09-19T09:16:33.000Z</time>
      </trkpt>
      <trkpt lat="47.11872" lon="-1.42591">
        <ele>95</ele>
        <time>2020-09-19T09:16:36.000Z</time>
      </trkpt>
      <trkpt lat="47.11883" lon="-1.42581">
        <ele>96</ele>
        <time>2020-09-19T09:16:39.000Z</time>
      </trkpt>
      <trkpt lat="47.11893" lon="-1.4257">
        <ele>96</ele>
        <time>2020-09-19T09:16:42.000Z</time>
      </trkpt>
      <trkpt lat="47.11904" lon="-1.42559">
        <ele>97</ele>
        <time>2020-09-19T09:16:45.000Z</time>
      </trkpt>
      <trkpt lat="47.11912" lon="-1.42551">
        <ele>98</ele>
        <time>2020-09-19T09:16:47.000Z</time>
      </trkpt>
      <trkpt lat="47.11923" lon="-1.42541">
        <ele>99</ele>
        <time>2020-09-19T09:16:50.000Z</time>
      </trkpt>
      <trkpt lat="47.11934" lon="-1.4253">
        <ele>99</ele>
        <time>2020-09-19T09:16:53.000Z</time>
      </trkpt>
      <trkpt lat="47.11945" lon="-1.42519">
        <ele>99</ele>
        <time>2020-09-19T09:16:56.000Z</time>
      </trkpt>
      <trkpt lat="47.11953" lon="-1.42511">
        <ele>99</ele>
        <time>2020-09-19T09:16:58.000Z</time>
      </trkpt>
      <trkpt lat="47.11961" lon="-1.42503">
        <ele>100</ele>
        <time>2020-09-19T09:17:00.000Z</time>
      </trkpt>
      <trkpt lat="47.11974" lon="-1.42491">
        <ele>100</ele>
        <time>2020-09-19T09:17:03.000Z</time>
      </trkpt>
      <trkpt lat="47.11982" lon="-1.42483">
        <ele>100</ele>
        <time>2020-09-19T09:17:05.000Z</time>
      </trkpt>
      <trkpt lat="47.11992" lon="-1.42474">
        <ele>100</ele>
        <time>2020-09-19T09:17:07.000Z</time>
      </trkpt>
      <trkpt lat="47.12001" lon="-1.42465">
        <ele>100</ele>
        <time>2020-09-19T09:17:09.000Z</time>
      </trkpt>
      <trkpt lat="47.12009" lon="-1.42456">
        <ele>101</ele>
        <time>2020-09-19T09:17:11.000Z</time>
      </trkpt>
      <trkpt lat="47.12018" lon="-1.42447">
        <ele>101</ele>
        <time>2020-09-19T09:17:13.000Z</time>
      </trkpt>
      <trkpt lat="47.12026" lon="-1.42439">
        <ele>101</ele>
        <time>2020-09-19T09:17:15.000Z</time>
      </trkpt>
      <trkpt lat="47.12035" lon="-1.4243">
        <ele>102</ele>
        <time>2020-09-19T09:17:17.000Z</time>
      </trkpt>
      <trkpt lat="47.12043" lon="-1.42421">
        <ele>102</ele>
        <time>2020-09-19T09:17:19.000Z</time>
      </trkpt>
      <trkpt lat="47.12051" lon="-1.4241">
        <ele>102</ele>
        <time>2020-09-19T09:17:21.000Z</time>
      </trkpt>
      <trkpt lat="47.12059" lon="-1.42399">
        <ele>102</ele>
        <time>2020-09-19T09:17:23.000Z</time>
      </trkpt>
      <trkpt lat="47.12066" lon="-1.42387">
        <ele>102</ele>
        <time>2020-09-19T09:17:25.000Z</time>
      </trkpt>
      <trkpt lat="47.12069" lon="-1.42371">
        <ele>102</ele>
        <time>2020-09-19T09:17:27.000Z</time>
      </trkpt>
      <trkpt lat="47.12073" lon="-1.42354">
        <ele>102</ele>
        <time>2020-09-19T09:17:29.000Z</time>
      </trkpt>
      <trkpt lat="47.12078" lon="-1.42339">
        <ele>102</ele>
        <time>2020-09-19T09:17:31.000Z</time>
      </trkpt>
      <trkpt lat="47.12085" lon="-1.42315">
        <ele>101</ele>
        <time>2020-09-19T09:17:34.000Z</time>
      </trkpt>
      <trkpt lat="47.1209" lon="-1.42298">
        <ele>101</ele>
        <time>2020-09-19T09:17:36.000Z</time>
      </trkpt>
      <trkpt lat="47.12096" lon="-1.42283">
        <ele>101</ele>
        <time>2020-09-19T09:17:38.000Z</time>
      </trkpt>
      <trkpt lat="47.121" lon="-1.42266">
        <ele>101</ele>
        <time>2020-09-19T09:17:40.000Z</time>
      </trkpt>
      <trkpt lat="47.12105" lon="-1.42251">
        <ele>101</ele>
        <time>2020-09-19T09:17:42.000Z</time>
      </trkpt>
      <trkpt lat="47.1211" lon="-1.42235">
        <ele>101</ele>
        <time>2020-09-19T09:17:44.000Z</time>
      </trkpt>
      <trkpt lat="47.12115" lon="-1.4222">
        <ele>102</ele>
        <time>2020-09-19T09:17:46.000Z</time>
      </trkpt>
      <trkpt lat="47.12122" lon="-1.42201">
        <ele>102</ele>
        <time>2020-09-19T09:17:50.000Z</time>
      </trkpt>
      <trkpt lat="47.12129" lon="-1.4219">
        <ele>102</ele>
        <time>2020-09-19T09:17:54.000Z</time>
      </trkpt>
      <trkpt lat="47.12143" lon="-1.42172">
        <ele>102</ele>
        <time>2020-09-19T09:18:02.000Z</time>
      </trkpt>
      <trkpt lat="47.12152" lon="-1.42163">
        <ele>102</ele>
        <time>2020-09-19T09:18:04.000Z</time>
      </trkpt>
      <trkpt lat="47.12168" lon="-1.42153">
        <ele>102</ele>
        <time>2020-09-19T09:18:07.000Z</time>
      </trkpt>
      <trkpt lat="47.12179" lon="-1.42147">
        <ele>101</ele>
        <time>2020-09-19T09:18:09.000Z</time>
      </trkpt>
      <trkpt lat="47.12196" lon="-1.42138">
        <ele>101</ele>
        <time>2020-09-19T09:18:12.000Z</time>
      </trkpt>
      <trkpt lat="47.12207" lon="-1.42132">
        <ele>101</ele>
        <time>2020-09-19T09:18:14.000Z</time>
      </trkpt>
      <trkpt lat="47.12218" lon="-1.42126">
        <ele>101</ele>
        <time>2020-09-19T09:18:16.000Z</time>
      </trkpt>
      <trkpt lat="47.12228" lon="-1.42117">
        <ele>101</ele>
        <time>2020-09-19T09:18:18.000Z</time>
      </trkpt>
      <trkpt lat="47.12238" lon="-1.42107">
        <ele>101</ele>
        <time>2020-09-19T09:18:20.000Z</time>
      </trkpt>
      <trkpt lat="47.12249" lon="-1.42098">
        <ele>101</ele>
        <time>2020-09-19T09:18:22.000Z</time>
      </trkpt>
      <trkpt lat="47.12259" lon="-1.4209">
        <ele>100</ele>
        <time>2020-09-19T09:18:24.000Z</time>
      </trkpt>
      <trkpt lat="47.12269" lon="-1.42081">
        <ele>100</ele>
        <time>2020-09-19T09:18:26.000Z</time>
      </trkpt>
      <trkpt lat="47.12279" lon="-1.42073">
        <ele>100</ele>
        <time>2020-09-19T09:18:28.000Z</time>
      </trkpt>
      <trkpt lat="47.12294" lon="-1.4206">
        <ele>101</ele>
        <time>2020-09-19T09:18:31.000Z</time>
      </trkpt>
      <trkpt lat="47.12305" lon="-1.42052">
        <ele>101</ele>
        <time>2020-09-19T09:18:33.000Z</time>
      </trkpt>
      <trkpt lat="47.12315" lon="-1.42045">
        <ele>102</ele>
        <time>2020-09-19T09:18:35.000Z</time>
      </trkpt>
      <trkpt lat="47.12326" lon="-1.42039">
        <ele>101</ele>
        <time>2020-09-19T09:18:37.000Z</time>
      </trkpt>
      <trkpt lat="47.12335" lon="-1.42046">
        <ele>101</ele>
        <time>2020-09-19T09:18:39.000Z</time>
      </trkpt>
      <trkpt lat="47.12344" lon="-1.4205">
        <ele>101</ele>
        <time>2020-09-19T09:18:41.000Z</time>
      </trkpt>
      <trkpt lat="47.12355" lon="-1.42041">
        <ele>101</ele>
        <time>2020-09-19T09:18:43.000Z</time>
      </trkpt>
      <trkpt lat="47.12366" lon="-1.42033">
        <ele>101</ele>
        <time>2020-09-19T09:18:45.000Z</time>
      </trkpt>
      <trkpt lat="47.12383" lon="-1.42021">
        <ele>101</ele>
        <time>2020-09-19T09:18:48.000Z</time>
      </trkpt>
      <trkpt lat="47.12393" lon="-1.42011">
        <ele>101</ele>
        <time>2020-09-19T09:18:50.000Z</time>
      </trkpt>
      <trkpt lat="47.12401" lon="-1.42">
        <ele>100</ele>
        <time>2020-09-19T09:18:52.000Z</time>
      </trkpt>
      <trkpt lat="47.12409" lon="-1.41989">
        <ele>100</ele>
        <time>2020-09-19T09:18:54.000Z</time>
      </trkpt>
      <trkpt lat="47.12417" lon="-1.41977">
        <ele>100</ele>
        <time>2020-09-19T09:18:56.000Z</time>
      </trkpt>
      <trkpt lat="47.12425" lon="-1.4196">
        <ele>99</ele>
        <time>2020-09-19T09:18:58.000Z</time>
      </trkpt>
      <trkpt lat="47.12434" lon="-1.41946">
        <ele>99</ele>
        <time>2020-09-19T09:19:00.000Z</time>
      </trkpt>
      <trkpt lat="47.12444" lon="-1.41931">
        <ele>99</ele>
        <time>2020-09-19T09:19:02.000Z</time>
      </trkpt>
      <trkpt lat="47.12454" lon="-1.41917">
        <ele>99</ele>
        <time>2020-09-19T09:19:04.000Z</time>
      </trkpt>
      <trkpt lat="47.12465" lon="-1.41906">
        <ele>99</ele>
        <time>2020-09-19T09:19:06.000Z</time>
      </trkpt>
      <trkpt lat="47.12481" lon="-1.41889">
        <ele>100</ele>
        <time>2020-09-19T09:19:09.000Z</time>
      </trkpt>
      <trkpt lat="47.12498" lon="-1.41875">
        <ele>99</ele>
        <time>2020-09-19T09:19:12.000Z</time>
      </trkpt>
      <trkpt lat="47.12511" lon="-1.41868">
        <ele>99</ele>
        <time>2020-09-19T09:19:14.000Z</time>
      </trkpt>
      <trkpt lat="47.12525" lon="-1.4186">
        <ele>98</ele>
        <time>2020-09-19T09:19:16.000Z</time>
      </trkpt>
      <trkpt lat="47.1254" lon="-1.41855">
        <ele>98</ele>
        <time>2020-09-19T09:19:18.000Z</time>
      </trkpt>
      <trkpt lat="47.12555" lon="-1.41848">
        <ele>97</ele>
        <time>2020-09-19T09:19:20.000Z</time>
      </trkpt>
      <trkpt lat="47.12568" lon="-1.41837">
        <ele>96</ele>
        <time>2020-09-19T09:19:22.000Z</time>
      </trkpt>
      <trkpt lat="47.12575" lon="-1.41815">
        <ele>95</ele>
        <time>2020-09-19T09:19:24.000Z</time>
      </trkpt>
      <trkpt lat="47.12579" lon="-1.41792">
        <ele>93</ele>
        <time>2020-09-19T09:19:26.000Z</time>
      </trkpt>
      <trkpt lat="47.12588" lon="-1.41756">
        <ele>91</ele>
        <time>2020-09-19T09:19:29.000Z</time>
      </trkpt>
      <trkpt lat="47.12594" lon="-1.41746">
        <ele>90</ele>
        <time>2020-09-19T09:19:30.000Z</time>
      </trkpt>
      <trkpt lat="47.12607" lon="-1.41731">
        <ele>90</ele>
        <time>2020-09-19T09:19:32.000Z</time>
      </trkpt>
      <trkpt lat="47.12624" lon="-1.41726">
        <ele>90</ele>
        <time>2020-09-19T09:19:34.000Z</time>
      </trkpt>
      <trkpt lat="47.12633" lon="-1.41724">
        <ele>89</ele>
        <time>2020-09-19T09:19:35.000Z</time>
      </trkpt>
      <trkpt lat="47.12643" lon="-1.41721">
        <ele>89</ele>
        <time>2020-09-19T09:19:36.000Z</time>
      </trkpt>
      <trkpt lat="47.12651" lon="-1.41717">
        <ele>88</ele>
        <time>2020-09-19T09:19:37.000Z</time>
      </trkpt>
      <trkpt lat="47.1266" lon="-1.4171">
        <ele>88</ele>
        <time>2020-09-19T09:19:38.000Z</time>
      </trkpt>
      <trkpt lat="47.12669" lon="-1.41702">
        <ele>88</ele>
        <time>2020-09-19T09:19:39.000Z</time>
      </trkpt>
      <trkpt lat="47.12678" lon="-1.41695">
        <ele>87</ele>
        <time>2020-09-19T09:19:40.000Z</time>
      </trkpt>
      <trkpt lat="47.12687" lon="-1.41687">
        <ele>86</ele>
        <time>2020-09-19T09:19:41.000Z</time>
      </trkpt>
      <trkpt lat="47.12696" lon="-1.41681">
        <ele>85</ele>
        <time>2020-09-19T09:19:42.000Z</time>
      </trkpt>
      <trkpt lat="47.12706" lon="-1.41675">
        <ele>84</ele>
        <time>2020-09-19T09:19:43.000Z</time>
      </trkpt>
      <trkpt lat="47.12717" lon="-1.41671">
        <ele>83</ele>
        <time>2020-09-19T09:19:44.000Z</time>
      </trkpt>
      <trkpt lat="47.12727" lon="-1.4167">
        <ele>82</ele>
        <time>2020-09-19T09:19:45.000Z</time>
      </trkpt>
      <trkpt lat="47.12738" lon="-1.4167">
        <ele>81</ele>
        <time>2020-09-19T09:19:46.000Z</time>
      </trkpt>
      <trkpt lat="47.12748" lon="-1.4167">
        <ele>80</ele>
        <time>2020-09-19T09:19:47.000Z</time>
      </trkpt>
      <trkpt lat="47.12758" lon="-1.41669">
        <ele>79</ele>
        <time>2020-09-19T09:19:48.000Z</time>
      </trkpt>
      <trkpt lat="47.12767" lon="-1.41663">
        <ele>78</ele>
        <time>2020-09-19T09:19:49.000Z</time>
      </trkpt>
      <trkpt lat="47.12775" lon="-1.41653">
        <ele>77</ele>
        <time>2020-09-19T09:19:50.000Z</time>
      </trkpt>
      <trkpt lat="47.1278" lon="-1.41642">
        <ele>77</ele>
        <time>2020-09-19T09:19:51.000Z</time>
      </trkpt>
      <trkpt lat="47.12779" lon="-1.41614">
        <ele>74</ele>
        <time>2020-09-19T09:19:53.000Z</time>
      </trkpt>
      <trkpt lat="47.12774" lon="-1.41601">
        <ele>74</ele>
        <time>2020-09-19T09:19:54.000Z</time>
      </trkpt>
      <trkpt lat="47.12766" lon="-1.41592">
        <ele>73</ele>
        <time>2020-09-19T09:19:55.000Z</time>
      </trkpt>
      <trkpt lat="47.12757" lon="-1.41586">
        <ele>73</ele>
        <time>2020-09-19T09:19:56.000Z</time>
      </trkpt>
      <trkpt lat="47.12747" lon="-1.41585">
        <ele>72</ele>
        <time>2020-09-19T09:19:57.000Z</time>
      </trkpt>
      <trkpt lat="47.12728" lon="-1.41592">
        <ele>70</ele>
        <time>2020-09-19T09:19:59.000Z</time>
      </trkpt>
      <trkpt lat="47.12718" lon="-1.41593">
        <ele>70</ele>
        <time>2020-09-19T09:20:00.000Z</time>
      </trkpt>
      <trkpt lat="47.12707" lon="-1.41592">
        <ele>69</ele>
        <time>2020-09-19T09:20:01.000Z</time>
      </trkpt>
      <trkpt lat="47.12698" lon="-1.41588">
        <ele>69</ele>
        <time>2020-09-19T09:20:02.000Z</time>
      </trkpt>
      <trkpt lat="47.12688" lon="-1.41582">
        <ele>69</ele>
        <time>2020-09-19T09:20:03.000Z</time>
      </trkpt>
      <trkpt lat="47.12671" lon="-1.41573">
        <ele>68</ele>
        <time>2020-09-19T09:20:05.000Z</time>
      </trkpt>
      <trkpt lat="47.12661" lon="-1.41577">
        <ele>68</ele>
        <time>2020-09-19T09:20:06.000Z</time>
      </trkpt>
      <trkpt lat="47.12652" lon="-1.41583">
        <ele>68</ele>
        <time>2020-09-19T09:20:07.000Z</time>
      </trkpt>
      <trkpt lat="47.12643" lon="-1.41587">
        <ele>68</ele>
        <time>2020-09-19T09:20:08.000Z</time>
      </trkpt>
      <trkpt lat="47.12633" lon="-1.41589">
        <ele>68</ele>
        <time>2020-09-19T09:20:09.000Z</time>
      </trkpt>
      <trkpt lat="47.12622" lon="-1.41587">
        <ele>67</ele>
        <time>2020-09-19T09:20:10.000Z</time>
      </trkpt>
      <trkpt lat="47.12612" lon="-1.41578">
        <ele>65</ele>
        <time>2020-09-19T09:20:11.000Z</time>
      </trkpt>
      <trkpt lat="47.12603" lon="-1.41568">
        <ele>63</ele>
        <time>2020-09-19T09:20:12.000Z</time>
      </trkpt>
      <trkpt lat="47.12597" lon="-1.41554">
        <ele>61</ele>
        <time>2020-09-19T09:20:13.000Z</time>
      </trkpt>
      <trkpt lat="47.12591" lon="-1.41542">
        <ele>60</ele>
        <time>2020-09-19T09:20:14.000Z</time>
      </trkpt>
      <trkpt lat="47.12577" lon="-1.41517">
        <ele>57</ele>
        <time>2020-09-19T09:20:16.000Z</time>
      </trkpt>
      <trkpt lat="47.1257" lon="-1.41505">
        <ele>57</ele>
        <time>2020-09-19T09:20:17.000Z</time>
      </trkpt>
      <trkpt lat="47.12563" lon="-1.41495">
        <ele>57</ele>
        <time>2020-09-19T09:20:18.000Z</time>
      </trkpt>
      <trkpt lat="47.12557" lon="-1.41483">
        <ele>56</ele>
        <time>2020-09-19T09:20:19.000Z</time>
      </trkpt>
      <trkpt lat="47.12551" lon="-1.41472">
        <ele>56</ele>
        <time>2020-09-19T09:20:20.000Z</time>
      </trkpt>
      <trkpt lat="47.1254" lon="-1.41454">
        <ele>56</ele>
        <time>2020-09-19T09:20:22.000Z</time>
      </trkpt>
      <trkpt lat="47.1253" lon="-1.41437">
        <ele>56</ele>
        <time>2020-09-19T09:20:24.000Z</time>
      </trkpt>
      <trkpt lat="47.12526" lon="-1.41421">
        <ele>56</ele>
        <time>2020-09-19T09:20:26.000Z</time>
      </trkpt>
      <trkpt lat="47.12531" lon="-1.41406">
        <ele>57</ele>
        <time>2020-09-19T09:20:28.000Z</time>
      </trkpt>
      <trkpt lat="47.12538" lon="-1.41395">
        <ele>58</ele>
        <time>2020-09-19T09:20:30.000Z</time>
      </trkpt>
      <trkpt lat="47.12546" lon="-1.41384">
        <ele>59</ele>
        <time>2020-09-19T09:20:32.000Z</time>
      </trkpt>
      <trkpt lat="47.12553" lon="-1.41374">
        <ele>60</ele>
        <time>2020-09-19T09:20:34.000Z</time>
      </trkpt>
      <trkpt lat="47.12559" lon="-1.41362">
        <ele>61</ele>
        <time>2020-09-19T09:20:36.000Z</time>
      </trkpt>
      <trkpt lat="47.12565" lon="-1.41352">
        <ele>61</ele>
        <time>2020-09-19T09:20:38.000Z</time>
      </trkpt>
      <trkpt lat="47.12574" lon="-1.41337">
        <ele>62</ele>
        <time>2020-09-19T09:20:41.000Z</time>
      </trkpt>
      <trkpt lat="47.12583" lon="-1.41324">
        <ele>64</ele>
        <time>2020-09-19T09:20:44.000Z</time>
      </trkpt>
      <trkpt lat="47.12591" lon="-1.41311">
        <ele>65</ele>
        <time>2020-09-19T09:20:47.000Z</time>
      </trkpt>
      <trkpt lat="47.12597" lon="-1.41299">
        <ele>65</ele>
        <time>2020-09-19T09:20:50.000Z</time>
      </trkpt>
      <trkpt lat="47.12603" lon="-1.41288">
        <ele>67</ele>
        <time>2020-09-19T09:20:53.000Z</time>
      </trkpt>
      <trkpt lat="47.12611" lon="-1.41278">
        <ele>70</ele>
        <time>2020-09-19T09:20:56.000Z</time>
      </trkpt>
      <trkpt lat="47.12622" lon="-1.41272">
        <ele>70</ele>
        <time>2020-09-19T09:20:59.000Z</time>
      </trkpt>
      <trkpt lat="47.12635" lon="-1.41265">
        <ele>70</ele>
        <time>2020-09-19T09:21:03.000Z</time>
      </trkpt>
      <trkpt lat="47.12645" lon="-1.41256">
        <ele>71</ele>
        <time>2020-09-19T09:21:06.000Z</time>
      </trkpt>
      <trkpt lat="47.12657" lon="-1.4125">
        <ele>73</ele>
        <time>2020-09-19T09:21:09.000Z</time>
      </trkpt>
      <trkpt lat="47.12668" lon="-1.41247">
        <ele>73</ele>
        <time>2020-09-19T09:21:12.000Z</time>
      </trkpt>
      <trkpt lat="47.1268" lon="-1.41243">
        <ele>74</ele>
        <time>2020-09-19T09:21:15.000Z</time>
      </trkpt>
      <trkpt lat="47.1269" lon="-1.41238">
        <ele>75</ele>
        <time>2020-09-19T09:21:18.000Z</time>
      </trkpt>
      <trkpt lat="47.127" lon="-1.4123">
        <ele>76</ele>
        <time>2020-09-19T09:21:21.000Z</time>
      </trkpt>
      <trkpt lat="47.12711" lon="-1.41222">
        <ele>75</ele>
        <time>2020-09-19T09:21:24.000Z</time>
      </trkpt>
      <trkpt lat="47.12721" lon="-1.41214">
        <ele>76</ele>
        <time>2020-09-19T09:21:27.000Z</time>
      </trkpt>
      <trkpt lat="47.1273" lon="-1.41205">
        <ele>77</ele>
        <time>2020-09-19T09:21:30.000Z</time>
      </trkpt>
      <trkpt lat="47.12739" lon="-1.41196">
        <ele>78</ele>
        <time>2020-09-19T09:21:33.000Z</time>
      </trkpt>
      <trkpt lat="47.12747" lon="-1.41186">
        <ele>78</ele>
        <time>2020-09-19T09:21:36.000Z</time>
      </trkpt>
      <trkpt lat="47.12754" lon="-1.41174">
        <ele>79</ele>
        <time>2020-09-19T09:21:39.000Z</time>
      </trkpt>
      <trkpt lat="47.12761" lon="-1.41161">
        <ele>79</ele>
        <time>2020-09-19T09:21:42.000Z</time>
      </trkpt>
      <trkpt lat="47.12768" lon="-1.41147">
        <ele>79</ele>
        <time>2020-09-19T09:21:45.000Z</time>
      </trkpt>
      <trkpt lat="47.12775" lon="-1.41134">
        <ele>80</ele>
        <time>2020-09-19T09:21:48.000Z</time>
      </trkpt>
      <trkpt lat="47.12781" lon="-1.41122">
        <ele>80</ele>
        <time>2020-09-19T09:21:51.000Z</time>
      </trkpt>
      <trkpt lat="47.12788" lon="-1.4111">
        <ele>80</ele>
        <time>2020-09-19T09:21:54.000Z</time>
      </trkpt>
      <trkpt lat="47.12795" lon="-1.41097">
        <ele>80</ele>
        <time>2020-09-19T09:21:57.000Z</time>
      </trkpt>
      <trkpt lat="47.12802" lon="-1.41083">
        <ele>80</ele>
        <time>2020-09-19T09:22:00.000Z</time>
      </trkpt>
      <trkpt lat="47.12807" lon="-1.41067">
        <ele>81</ele>
        <time>2020-09-19T09:22:03.000Z</time>
      </trkpt>
      <trkpt lat="47.1281" lon="-1.41048">
        <ele>82</ele>
        <time>2020-09-19T09:22:06.000Z</time>
      </trkpt>
      <trkpt lat="47.12808" lon="-1.4103">
        <ele>84</ele>
        <time>2020-09-19T09:22:09.000Z</time>
      </trkpt>
      <trkpt lat="47.12803" lon="-1.41015">
        <ele>85</ele>
        <time>2020-09-19T09:22:12.000Z</time>
      </trkpt>
      <trkpt lat="47.12798" lon="-1.41">
        <ele>86</ele>
        <time>2020-09-19T09:22:15.000Z</time>
      </trkpt>
      <trkpt lat="47.12792" lon="-1.40986">
        <ele>86</ele>
        <time>2020-09-19T09:22:18.000Z</time>
      </trkpt>
      <trkpt lat="47.12785" lon="-1.40972">
        <ele>87</ele>
        <time>2020-09-19T09:22:21.000Z</time>
      </trkpt>
      <trkpt lat="47.12779" lon="-1.40958">
        <ele>88</ele>
        <time>2020-09-19T09:22:24.000Z</time>
      </trkpt>
      <trkpt lat="47.12774" lon="-1.40944">
        <ele>88</ele>
        <time>2020-09-19T09:22:27.000Z</time>
      </trkpt>
      <trkpt lat="47.12767" lon="-1.40932">
        <ele>88</ele>
        <time>2020-09-19T09:22:30.000Z</time>
      </trkpt>
      <trkpt lat="47.12757" lon="-1.40923">
        <ele>89</ele>
        <time>2020-09-19T09:22:33.000Z</time>
      </trkpt>
      <trkpt lat="47.12747" lon="-1.40917">
        <ele>91</ele>
        <time>2020-09-19T09:22:36.000Z</time>
      </trkpt>
      <trkpt lat="47.12735" lon="-1.40913">
        <ele>91</ele>
        <time>2020-09-19T09:22:39.000Z</time>
      </trkpt>
      <trkpt lat="47.12724" lon="-1.4091">
        <ele>92</ele>
        <time>2020-09-19T09:22:42.000Z</time>
      </trkpt>
      <trkpt lat="47.12712" lon="-1.40908">
        <ele>93</ele>
        <time>2020-09-19T09:22:45.000Z</time>
      </trkpt>
      <trkpt lat="47.127" lon="-1.40905">
        <ele>95</ele>
        <time>2020-09-19T09:22:48.000Z</time>
      </trkpt>
      <trkpt lat="47.12689" lon="-1.40903">
        <ele>96</ele>
        <time>2020-09-19T09:22:51.000Z</time>
      </trkpt>
      <trkpt lat="47.12676" lon="-1.409">
        <ele>97</ele>
        <time>2020-09-19T09:22:54.000Z</time>
      </trkpt>
      <trkpt lat="47.12664" lon="-1.40897">
        <ele>98</ele>
        <time>2020-09-19T09:22:57.000Z</time>
      </trkpt>
      <trkpt lat="47.12651" lon="-1.40894">
        <ele>98</ele>
        <time>2020-09-19T09:23:00.000Z</time>
      </trkpt>
      <trkpt lat="47.12642" lon="-1.40891">
        <ele>98</ele>
        <time>2020-09-19T09:23:02.000Z</time>
      </trkpt>
      <trkpt lat="47.12632" lon="-1.40889">
        <ele>99</ele>
        <time>2020-09-19T09:23:04.000Z</time>
      </trkpt>
      <trkpt lat="47.12623" lon="-1.40887">
        <ele>99</ele>
        <time>2020-09-19T09:23:06.000Z</time>
      </trkpt>
      <trkpt lat="47.12614" lon="-1.40886">
        <ele>99</ele>
        <time>2020-09-19T09:23:08.000Z</time>
      </trkpt>
      <trkpt lat="47.12604" lon="-1.40884">
        <ele>99</ele>
        <time>2020-09-19T09:23:10.000Z</time>
      </trkpt>
      <trkpt lat="47.12594" lon="-1.40881">
        <ele>99</ele>
        <time>2020-09-19T09:23:12.000Z</time>
      </trkpt>
      <trkpt lat="47.12584" lon="-1.40879">
        <ele>99</ele>
        <time>2020-09-19T09:23:14.000Z</time>
      </trkpt>
      <trkpt lat="47.12573" lon="-1.40877">
        <ele>100</ele>
        <time>2020-09-19T09:23:16.000Z</time>
      </trkpt>
      <trkpt lat="47.12562" lon="-1.40875">
        <ele>100</ele>
        <time>2020-09-19T09:23:18.000Z</time>
      </trkpt>
      <trkpt lat="47.12551" lon="-1.40872">
        <ele>100</ele>
        <time>2020-09-19T09:23:20.000Z</time>
      </trkpt>
      <trkpt lat="47.1254" lon="-1.4087">
        <ele>100</ele>
        <time>2020-09-19T09:23:22.000Z</time>
      </trkpt>
      <trkpt lat="47.1253" lon="-1.40867">
        <ele>100</ele>
        <time>2020-09-19T09:23:24.000Z</time>
      </trkpt>
      <trkpt lat="47.12518" lon="-1.40864">
        <ele>100</ele>
        <time>2020-09-19T09:23:26.000Z</time>
      </trkpt>
      <trkpt lat="47.12507" lon="-1.40862">
        <ele>100</ele>
        <time>2020-09-19T09:23:28.000Z</time>
      </trkpt>
      <trkpt lat="47.12496" lon="-1.40859">
        <ele>100</ele>
        <time>2020-09-19T09:23:30.000Z</time>
      </trkpt>
      <trkpt lat="47.12484" lon="-1.40856">
        <ele>101</ele>
        <time>2020-09-19T09:23:32.000Z</time>
      </trkpt>
      <trkpt lat="47.12472" lon="-1.40853">
        <ele>101</ele>
        <time>2020-09-19T09:23:34.000Z</time>
      </trkpt>
      <trkpt lat="47.12461" lon="-1.40848">
        <ele>101</ele>
        <time>2020-09-19T09:23:36.000Z</time>
      </trkpt>
      <trkpt lat="47.1245" lon="-1.40842">
        <ele>101</ele>
        <time>2020-09-19T09:23:38.000Z</time>
      </trkpt>
      <trkpt lat="47.12439" lon="-1.40834">
        <ele>102</ele>
        <time>2020-09-19T09:23:40.000Z</time>
      </trkpt>
      <trkpt lat="47.12429" lon="-1.40825">
        <ele>101</ele>
        <time>2020-09-19T09:23:42.000Z</time>
      </trkpt>
      <trkpt lat="47.12421" lon="-1.40814">
        <ele>102</ele>
        <time>2020-09-19T09:23:44.000Z</time>
      </trkpt>
      <trkpt lat="47.12413" lon="-1.40802">
        <ele>102</ele>
        <time>2020-09-19T09:23:46.000Z</time>
      </trkpt>
      <trkpt lat="47.12406" lon="-1.40789">
        <ele>102</ele>
        <time>2020-09-19T09:23:48.000Z</time>
      </trkpt>
      <trkpt lat="47.12398" lon="-1.40777">
        <ele>101</ele>
        <time>2020-09-19T09:23:50.000Z</time>
      </trkpt>
      <trkpt lat="47.12391" lon="-1.40765">
        <ele>101</ele>
        <time>2020-09-19T09:23:52.000Z</time>
      </trkpt>
      <trkpt lat="47.12383" lon="-1.40754">
        <ele>101</ele>
        <time>2020-09-19T09:23:54.000Z</time>
      </trkpt>
      <trkpt lat="47.12376" lon="-1.40742">
        <ele>102</ele>
        <time>2020-09-19T09:23:56.000Z</time>
      </trkpt>
      <trkpt lat="47.12369" lon="-1.4073">
        <ele>101</ele>
        <time>2020-09-19T09:23:58.000Z</time>
      </trkpt>
      <trkpt lat="47.12361" lon="-1.4072">
        <ele>102</ele>
        <time>2020-09-19T09:24:00.000Z</time>
      </trkpt>
      <trkpt lat="47.12352" lon="-1.4071">
        <ele>102</ele>
        <time>2020-09-19T09:24:02.000Z</time>
      </trkpt>
      <trkpt lat="47.12342" lon="-1.40702">
        <ele>102</ele>
        <time>2020-09-19T09:24:04.000Z</time>
      </trkpt>
      <trkpt lat="47.12331" lon="-1.40695">
        <ele>102</ele>
        <time>2020-09-19T09:24:06.000Z</time>
      </trkpt>
      <trkpt lat="47.1232" lon="-1.4069">
        <ele>103</ele>
        <time>2020-09-19T09:24:08.000Z</time>
      </trkpt>
      <trkpt lat="47.12308" lon="-1.40685">
        <ele>103</ele>
        <time>2020-09-19T09:24:10.000Z</time>
      </trkpt>
      <trkpt lat="47.12297" lon="-1.40679">
        <ele>103</ele>
        <time>2020-09-19T09:24:12.000Z</time>
      </trkpt>
      <trkpt lat="47.12286" lon="-1.40671">
        <ele>104</ele>
        <time>2020-09-19T09:24:14.000Z</time>
      </trkpt>
      <trkpt lat="47.12279" lon="-1.40659">
        <ele>104</ele>
        <time>2020-09-19T09:24:16.000Z</time>
      </trkpt>
      <trkpt lat="47.12272" lon="-1.40645">
        <ele>104</ele>
        <time>2020-09-19T09:24:18.000Z</time>
      </trkpt>
      <trkpt lat="47.12267" lon="-1.40631">
        <ele>104</ele>
        <time>2020-09-19T09:24:20.000Z</time>
      </trkpt>
      <trkpt lat="47.12261" lon="-1.40616">
        <ele>104</ele>
        <time>2020-09-19T09:24:22.000Z</time>
      </trkpt>
      <trkpt lat="47.12254" lon="-1.40601">
        <ele>105</ele>
        <time>2020-09-19T09:24:24.000Z</time>
      </trkpt>
      <trkpt lat="47.12248" lon="-1.40586">
        <ele>105</ele>
        <time>2020-09-19T09:24:26.000Z</time>
      </trkpt>
      <trkpt lat="47.12243" lon="-1.40571">
        <ele>105</ele>
        <time>2020-09-19T09:24:28.000Z</time>
      </trkpt>
      <trkpt lat="47.12238" lon="-1.40555">
        <ele>105</ele>
        <time>2020-09-19T09:24:30.000Z</time>
      </trkpt>
      <trkpt lat="47.12234" lon="-1.40538">
        <ele>104</ele>
        <time>2020-09-19T09:24:32.000Z</time>
      </trkpt>
      <trkpt lat="47.1223" lon="-1.4052">
        <ele>104</ele>
        <time>2020-09-19T09:24:34.000Z</time>
      </trkpt>
      <trkpt lat="47.12226" lon="-1.40503">
        <ele>104</ele>
        <time>2020-09-19T09:24:36.000Z</time>
      </trkpt>
      <trkpt lat="47.12222" lon="-1.40486">
        <ele>103</ele>
        <time>2020-09-19T09:24:38.000Z</time>
      </trkpt>
      <trkpt lat="47.12218" lon="-1.40468">
        <ele>104</ele>
        <time>2020-09-19T09:24:40.000Z</time>
      </trkpt>
      <trkpt lat="47.12215" lon="-1.40452">
        <ele>103</ele>
        <time>2020-09-19T09:24:42.000Z</time>
      </trkpt>
      <trkpt lat="47.12211" lon="-1.40434">
        <ele>104</ele>
        <time>2020-09-19T09:24:44.000Z</time>
      </trkpt>
      <trkpt lat="47.12208" lon="-1.40418">
        <ele>104</ele>
        <time>2020-09-19T09:24:46.000Z</time>
      </trkpt>
      <trkpt lat="47.12204" lon="-1.40401">
        <ele>104</ele>
        <time>2020-09-19T09:24:48.000Z</time>
      </trkpt>
      <trkpt lat="47.122" lon="-1.40385">
        <ele>104</ele>
        <time>2020-09-19T09:24:50.000Z</time>
      </trkpt>
      <trkpt lat="47.12197" lon="-1.40368">
        <ele>104</ele>
        <time>2020-09-19T09:24:52.000Z</time>
      </trkpt>
      <trkpt lat="47.12194" lon="-1.40353">
        <ele>105</ele>
        <time>2020-09-19T09:24:54.000Z</time>
      </trkpt>
      <trkpt lat="47.12191" lon="-1.40338">
        <ele>105</ele>
        <time>2020-09-19T09:24:56.000Z</time>
      </trkpt>
      <trkpt lat="47.12188" lon="-1.40324">
        <ele>105</ele>
        <time>2020-09-19T09:24:58.000Z</time>
      </trkpt>
      <trkpt lat="47.12186" lon="-1.40306">
        <ele>105</ele>
        <time>2020-09-19T09:25:01.000Z</time>
      </trkpt>
      <trkpt lat="47.12193" lon="-1.40296">
        <ele>105</ele>
        <time>2020-09-19T09:25:03.000Z</time>
      </trkpt>
      <trkpt lat="47.12203" lon="-1.40289">
        <ele>105</ele>
        <time>2020-09-19T09:25:05.000Z</time>
      </trkpt>
      <trkpt lat="47.12214" lon="-1.40285">
        <ele>105</ele>
        <time>2020-09-19T09:25:07.000Z</time>
      </trkpt>
      <trkpt lat="47.12225" lon="-1.4028">
        <ele>105</ele>
        <time>2020-09-19T09:25:09.000Z</time>
      </trkpt>
      <trkpt lat="47.12236" lon="-1.40274">
        <ele>105</ele>
        <time>2020-09-19T09:25:11.000Z</time>
      </trkpt>
      <trkpt lat="47.12248" lon="-1.40269">
        <ele>105</ele>
        <time>2020-09-19T09:25:13.000Z</time>
      </trkpt>
      <trkpt lat="47.12259" lon="-1.40263">
        <ele>105</ele>
        <time>2020-09-19T09:25:15.000Z</time>
      </trkpt>
      <trkpt lat="47.12271" lon="-1.40258">
        <ele>106</ele>
        <time>2020-09-19T09:25:17.000Z</time>
      </trkpt>
      <trkpt lat="47.12282" lon="-1.40253">
        <ele>105</ele>
        <time>2020-09-19T09:25:19.000Z</time>
      </trkpt>
      <trkpt lat="47.12293" lon="-1.40247">
        <ele>105</ele>
        <time>2020-09-19T09:25:21.000Z</time>
      </trkpt>
      <trkpt lat="47.12305" lon="-1.40242">
        <ele>104</ele>
        <time>2020-09-19T09:25:23.000Z</time>
      </trkpt>
      <trkpt lat="47.12316" lon="-1.40237">
        <ele>104</ele>
        <time>2020-09-19T09:25:25.000Z</time>
      </trkpt>
      <trkpt lat="47.12329" lon="-1.40231">
        <ele>104</ele>
        <time>2020-09-19T09:25:27.000Z</time>
      </trkpt>
      <trkpt lat="47.12342" lon="-1.40225">
        <ele>103</ele>
        <time>2020-09-19T09:25:29.000Z</time>
      </trkpt>
      <trkpt lat="47.12355" lon="-1.4022">
        <ele>103</ele>
        <time>2020-09-19T09:25:31.000Z</time>
      </trkpt>
      <trkpt lat="47.12368" lon="-1.40214">
        <ele>103</ele>
        <time>2020-09-19T09:25:33.000Z</time>
      </trkpt>
      <trkpt lat="47.12382" lon="-1.40207">
        <ele>103</ele>
        <time>2020-09-19T09:25:35.000Z</time>
      </trkpt>
      <trkpt lat="47.12395" lon="-1.40201">
        <ele>102</ele>
        <time>2020-09-19T09:25:37.000Z</time>
      </trkpt>
      <trkpt lat="47.12408" lon="-1.40195">
        <ele>102</ele>
        <time>2020-09-19T09:25:39.000Z</time>
      </trkpt>
      <trkpt lat="47.12422" lon="-1.40188">
        <ele>102</ele>
        <time>2020-09-19T09:25:41.000Z</time>
      </trkpt>
      <trkpt lat="47.12435" lon="-1.40181">
        <ele>102</ele>
        <time>2020-09-19T09:25:43.000Z</time>
      </trkpt>
      <trkpt lat="47.12449" lon="-1.40175">
        <ele>102</ele>
        <time>2020-09-19T09:25:45.000Z</time>
      </trkpt>
      <trkpt lat="47.12463" lon="-1.40168">
        <ele>101</ele>
        <time>2020-09-19T09:25:47.000Z</time>
      </trkpt>
      <trkpt lat="47.12477" lon="-1.40161">
        <ele>101</ele>
        <time>2020-09-19T09:25:49.000Z</time>
      </trkpt>
      <trkpt lat="47.12492" lon="-1.40154">
        <ele>101</ele>
        <time>2020-09-19T09:25:51.000Z</time>
      </trkpt>
      <trkpt lat="47.12506" lon="-1.40149">
        <ele>100</ele>
        <time>2020-09-19T09:25:53.000Z</time>
      </trkpt>
      <trkpt lat="47.1252" lon="-1.40147">
        <ele>99</ele>
        <time>2020-09-19T09:25:55.000Z</time>
      </trkpt>
      <trkpt lat="47.12534" lon="-1.40147">
        <ele>98</ele>
        <time>2020-09-19T09:25:57.000Z</time>
      </trkpt>
      <trkpt lat="47.12549" lon="-1.40151">
        <ele>98</ele>
        <time>2020-09-19T09:25:59.000Z</time>
      </trkpt>
      <trkpt lat="47.12563" lon="-1.40155">
        <ele>97</ele>
        <time>2020-09-19T09:26:01.000Z</time>
      </trkpt>
      <trkpt lat="47.12577" lon="-1.40159">
        <ele>96</ele>
        <time>2020-09-19T09:26:03.000Z</time>
      </trkpt>
      <trkpt lat="47.12592" lon="-1.40164">
        <ele>96</ele>
        <time>2020-09-19T09:26:05.000Z</time>
      </trkpt>
      <trkpt lat="47.12606" lon="-1.40166">
        <ele>96</ele>
        <time>2020-09-19T09:26:07.000Z</time>
      </trkpt>
      <trkpt lat="47.1262" lon="-1.40164">
        <ele>95</ele>
        <time>2020-09-19T09:26:09.000Z</time>
      </trkpt>
      <trkpt lat="47.12635" lon="-1.40161">
        <ele>95</ele>
        <time>2020-09-19T09:26:11.000Z</time>
      </trkpt>
      <trkpt lat="47.1265" lon="-1.40158">
        <ele>94</ele>
        <time>2020-09-19T09:26:13.000Z</time>
      </trkpt>
      <trkpt lat="47.12665" lon="-1.40157">
        <ele>94</ele>
        <time>2020-09-19T09:26:15.000Z</time>
      </trkpt>
      <trkpt lat="47.12679" lon="-1.40153">
        <ele>93</ele>
        <time>2020-09-19T09:26:17.000Z</time>
      </trkpt>
      <trkpt lat="47.12694" lon="-1.40146">
        <ele>93</ele>
        <time>2020-09-19T09:26:19.000Z</time>
      </trkpt>
      <trkpt lat="47.12707" lon="-1.40136">
        <ele>93</ele>
        <time>2020-09-19T09:26:21.000Z</time>
      </trkpt>
      <trkpt lat="47.12719" lon="-1.40124">
        <ele>93</ele>
        <time>2020-09-19T09:26:23.000Z</time>
      </trkpt>
      <trkpt lat="47.1273" lon="-1.40112">
        <ele>92</ele>
        <time>2020-09-19T09:26:25.000Z</time>
      </trkpt>
      <trkpt lat="47.12741" lon="-1.40101">
        <ele>92</ele>
        <time>2020-09-19T09:26:27.000Z</time>
      </trkpt>
      <trkpt lat="47.12753" lon="-1.40089">
        <ele>92</ele>
        <time>2020-09-19T09:26:29.000Z</time>
      </trkpt>
      <trkpt lat="47.12764" lon="-1.40079">
        <ele>92</ele>
        <time>2020-09-19T09:26:31.000Z</time>
      </trkpt>
      <trkpt lat="47.12776" lon="-1.40067">
        <ele>92</ele>
        <time>2020-09-19T09:26:33.000Z</time>
      </trkpt>
      <trkpt lat="47.12787" lon="-1.40056">
        <ele>92</ele>
        <time>2020-09-19T09:26:35.000Z</time>
      </trkpt>
      <trkpt lat="47.12799" lon="-1.40045">
        <ele>92</ele>
        <time>2020-09-19T09:26:37.000Z</time>
      </trkpt>
      <trkpt lat="47.12811" lon="-1.40034">
        <ele>92</ele>
        <time>2020-09-19T09:26:39.000Z</time>
      </trkpt>
      <trkpt lat="47.12822" lon="-1.40022">
        <ele>91</ele>
        <time>2020-09-19T09:26:41.000Z</time>
      </trkpt>
      <trkpt lat="47.12834" lon="-1.40011">
        <ele>91</ele>
        <time>2020-09-19T09:26:43.000Z</time>
      </trkpt>
      <trkpt lat="47.12845" lon="-1.4">
        <ele>91</ele>
        <time>2020-09-19T09:26:45.000Z</time>
      </trkpt>
      <trkpt lat="47.12856" lon="-1.39989">
        <ele>91</ele>
        <time>2020-09-19T09:26:47.000Z</time>
      </trkpt>
      <trkpt lat="47.12868" lon="-1.39978">
        <ele>91</ele>
        <time>2020-09-19T09:26:49.000Z</time>
      </trkpt>
      <trkpt lat="47.1288" lon="-1.39968">
        <ele>91</ele>
        <time>2020-09-19T09:26:51.000Z</time>
      </trkpt>
      <trkpt lat="47.12891" lon="-1.39959">
        <ele>91</ele>
        <time>2020-09-19T09:26:53.000Z</time>
      </trkpt>
      <trkpt lat="47.12904" lon="-1.39951">
        <ele>91</ele>
        <time>2020-09-19T09:26:55.000Z</time>
      </trkpt>
      <trkpt lat="47.12916" lon="-1.39945">
        <ele>91</ele>
        <time>2020-09-19T09:26:57.000Z</time>
      </trkpt>
      <trkpt lat="47.12928" lon="-1.3994">
        <ele>91</ele>
        <time>2020-09-19T09:26:59.000Z</time>
      </trkpt>
      <trkpt lat="47.1294" lon="-1.39935">
        <ele>91</ele>
        <time>2020-09-19T09:27:01.000Z</time>
      </trkpt>
      <trkpt lat="47.12952" lon="-1.39929">
        <ele>92</ele>
        <time>2020-09-19T09:27:03.000Z</time>
      </trkpt>
      <trkpt lat="47.12963" lon="-1.39924">
        <ele>92</ele>
        <time>2020-09-19T09:27:05.000Z</time>
      </trkpt>
      <trkpt lat="47.12973" lon="-1.39918">
        <ele>92</ele>
        <time>2020-09-19T09:27:07.000Z</time>
      </trkpt>
      <trkpt lat="47.12982" lon="-1.3991">
        <ele>93</ele>
        <time>2020-09-19T09:27:09.000Z</time>
      </trkpt>
      <trkpt lat="47.12991" lon="-1.39897">
        <ele>93</ele>
        <time>2020-09-19T09:27:12.000Z</time>
      </trkpt>
      <trkpt lat="47.13004" lon="-1.399">
        <ele>93</ele>
        <time>2020-09-19T09:27:15.000Z</time>
      </trkpt>
      <trkpt lat="47.13012" lon="-1.39913">
        <ele>93</ele>
        <time>2020-09-19T09:27:17.000Z</time>
      </trkpt>
      <trkpt lat="47.13019" lon="-1.39928">
        <ele>92</ele>
        <time>2020-09-19T09:27:19.000Z</time>
      </trkpt>
      <trkpt lat="47.13029" lon="-1.39942">
        <ele>92</ele>
        <time>2020-09-19T09:27:21.000Z</time>
      </trkpt>
      <trkpt lat="47.13039" lon="-1.39956">
        <ele>92</ele>
        <time>2020-09-19T09:27:23.000Z</time>
      </trkpt>
      <trkpt lat="47.13051" lon="-1.39968">
        <ele>91</ele>
        <time>2020-09-19T09:27:25.000Z</time>
      </trkpt>
      <trkpt lat="47.13063" lon="-1.39979">
        <ele>90</ele>
        <time>2020-09-19T09:27:27.000Z</time>
      </trkpt>
      <trkpt lat="47.13076" lon="-1.39988">
        <ele>90</ele>
        <time>2020-09-19T09:27:29.000Z</time>
      </trkpt>
      <trkpt lat="47.13089" lon="-1.39996">
        <ele>90</ele>
        <time>2020-09-19T09:27:31.000Z</time>
      </trkpt>
      <trkpt lat="47.13102" lon="-1.40004">
        <ele>90</ele>
        <time>2020-09-19T09:27:33.000Z</time>
      </trkpt>
      <trkpt lat="47.13115" lon="-1.4001">
        <ele>90</ele>
        <time>2020-09-19T09:27:35.000Z</time>
      </trkpt>
      <trkpt lat="47.13128" lon="-1.40017">
        <ele>90</ele>
        <time>2020-09-19T09:27:37.000Z</time>
      </trkpt>
      <trkpt lat="47.1314" lon="-1.40023">
        <ele>90</ele>
        <time>2020-09-19T09:27:39.000Z</time>
      </trkpt>
      <trkpt lat="47.13153" lon="-1.4003">
        <ele>89</ele>
        <time>2020-09-19T09:27:41.000Z</time>
      </trkpt>
      <trkpt lat="47.13166" lon="-1.40037">
        <ele>89</ele>
        <time>2020-09-19T09:27:43.000Z</time>
      </trkpt>
      <trkpt lat="47.13179" lon="-1.40044">
        <ele>90</ele>
        <time>2020-09-19T09:27:45.000Z</time>
      </trkpt>
      <trkpt lat="47.13191" lon="-1.40052">
        <ele>89</ele>
        <time>2020-09-19T09:27:47.000Z</time>
      </trkpt>
      <trkpt lat="47.13203" lon="-1.4006">
        <ele>89</ele>
        <time>2020-09-19T09:27:49.000Z</time>
      </trkpt>
      <trkpt lat="47.13215" lon="-1.40068">
        <ele>89</ele>
        <time>2020-09-19T09:27:51.000Z</time>
      </trkpt>
      <trkpt lat="47.13227" lon="-1.40078">
        <ele>89</ele>
        <time>2020-09-19T09:27:53.000Z</time>
      </trkpt>
      <trkpt lat="47.13238" lon="-1.40087">
        <ele>89</ele>
        <time>2020-09-19T09:27:55.000Z</time>
      </trkpt>
      <trkpt lat="47.1325" lon="-1.40096">
        <ele>89</ele>
        <time>2020-09-19T09:27:57.000Z</time>
      </trkpt>
      <trkpt lat="47.13262" lon="-1.40105">
        <ele>89</ele>
        <time>2020-09-19T09:27:59.000Z</time>
      </trkpt>
      <trkpt lat="47.13273" lon="-1.40115">
        <ele>90</ele>
        <time>2020-09-19T09:28:01.000Z</time>
      </trkpt>
      <trkpt lat="47.13285" lon="-1.40124">
        <ele>89</ele>
        <time>2020-09-19T09:28:03.000Z</time>
      </trkpt>
      <trkpt lat="47.13296" lon="-1.40134">
        <ele>90</ele>
        <time>2020-09-19T09:28:05.000Z</time>
      </trkpt>
      <trkpt lat="47.13307" lon="-1.40143">
        <ele>90</ele>
        <time>2020-09-19T09:28:07.000Z</time>
      </trkpt>
      <trkpt lat="47.13318" lon="-1.40151">
        <ele>90</ele>
        <time>2020-09-19T09:28:09.000Z</time>
      </trkpt>
      <trkpt lat="47.13329" lon="-1.4016">
        <ele>90</ele>
        <time>2020-09-19T09:28:11.000Z</time>
      </trkpt>
      <trkpt lat="47.1334" lon="-1.40168">
        <ele>90</ele>
        <time>2020-09-19T09:28:13.000Z</time>
      </trkpt>
      <trkpt lat="47.13351" lon="-1.40174">
        <ele>90</ele>
        <time>2020-09-19T09:28:15.000Z</time>
      </trkpt>
      <trkpt lat="47.13363" lon="-1.40178">
        <ele>91</ele>
        <time>2020-09-19T09:28:17.000Z</time>
      </trkpt>
      <trkpt lat="47.13376" lon="-1.4018">
        <ele>91</ele>
        <time>2020-09-19T09:28:19.000Z</time>
      </trkpt>
      <trkpt lat="47.13388" lon="-1.4018">
        <ele>90</ele>
        <time>2020-09-19T09:28:21.000Z</time>
      </trkpt>
      <trkpt lat="47.134" lon="-1.40181">
        <ele>91</ele>
        <time>2020-09-19T09:28:23.000Z</time>
      </trkpt>
      <trkpt lat="47.13413" lon="-1.4018">
        <ele>91</ele>
        <time>2020-09-19T09:28:25.000Z</time>
      </trkpt>
      <trkpt lat="47.13425" lon="-1.4018">
        <ele>91</ele>
        <time>2020-09-19T09:28:27.000Z</time>
      </trkpt>
      <trkpt lat="47.13437" lon="-1.40183">
        <ele>91</ele>
        <time>2020-09-19T09:28:29.000Z</time>
      </trkpt>
      <trkpt lat="47.1345" lon="-1.40188">
        <ele>91</ele>
        <time>2020-09-19T09:28:31.000Z</time>
      </trkpt>
      <trkpt lat="47.13462" lon="-1.40193">
        <ele>91</ele>
        <time>2020-09-19T09:28:33.000Z</time>
      </trkpt>
      <trkpt lat="47.13475" lon="-1.40199">
        <ele>91</ele>
        <time>2020-09-19T09:28:35.000Z</time>
      </trkpt>
      <trkpt lat="47.13487" lon="-1.40204">
        <ele>90</ele>
        <time>2020-09-19T09:28:37.000Z</time>
      </trkpt>
      <trkpt lat="47.135" lon="-1.4021">
        <ele>90</ele>
        <time>2020-09-19T09:28:39.000Z</time>
      </trkpt>
      <trkpt lat="47.13512" lon="-1.40216">
        <ele>90</ele>
        <time>2020-09-19T09:28:41.000Z</time>
      </trkpt>
      <trkpt lat="47.13525" lon="-1.40223">
        <ele>90</ele>
        <time>2020-09-19T09:28:43.000Z</time>
      </trkpt>
      <trkpt lat="47.13538" lon="-1.40229">
        <ele>90</ele>
        <time>2020-09-19T09:28:45.000Z</time>
      </trkpt>
      <trkpt lat="47.1355" lon="-1.40234">
        <ele>90</ele>
        <time>2020-09-19T09:28:47.000Z</time>
      </trkpt>
      <trkpt lat="47.13563" lon="-1.4024">
        <ele>90</ele>
        <time>2020-09-19T09:28:49.000Z</time>
      </trkpt>
      <trkpt lat="47.13575" lon="-1.40246">
        <ele>90</ele>
        <time>2020-09-19T09:28:51.000Z</time>
      </trkpt>
      <trkpt lat="47.13588" lon="-1.40251">
        <ele>90</ele>
        <time>2020-09-19T09:28:53.000Z</time>
      </trkpt>
      <trkpt lat="47.13601" lon="-1.40257">
        <ele>90</ele>
        <time>2020-09-19T09:28:55.000Z</time>
      </trkpt>
      <trkpt lat="47.13614" lon="-1.40263">
        <ele>90</ele>
        <time>2020-09-19T09:28:57.000Z</time>
      </trkpt>
      <trkpt lat="47.13627" lon="-1.40269">
        <ele>90</ele>
        <time>2020-09-19T09:28:59.000Z</time>
      </trkpt>
      <trkpt lat="47.13639" lon="-1.40274">
        <ele>90</ele>
        <time>2020-09-19T09:29:01.000Z</time>
      </trkpt>
      <trkpt lat="47.13652" lon="-1.40278">
        <ele>90</ele>
        <time>2020-09-19T09:29:03.000Z</time>
      </trkpt>
      <trkpt lat="47.13665" lon="-1.4028">
        <ele>90</ele>
        <time>2020-09-19T09:29:05.000Z</time>
      </trkpt>
      <trkpt lat="47.13678" lon="-1.4028">
        <ele>90</ele>
        <time>2020-09-19T09:29:07.000Z</time>
      </trkpt>
      <trkpt lat="47.13691" lon="-1.40278">
        <ele>90</ele>
        <time>2020-09-19T09:29:09.000Z</time>
      </trkpt>
      <trkpt lat="47.13704" lon="-1.40276">
        <ele>90</ele>
        <time>2020-09-19T09:29:11.000Z</time>
      </trkpt>
      <trkpt lat="47.13717" lon="-1.40275">
        <ele>90</ele>
        <time>2020-09-19T09:29:13.000Z</time>
      </trkpt>
      <trkpt lat="47.13731" lon="-1.40272">
        <ele>89</ele>
        <time>2020-09-19T09:29:15.000Z</time>
      </trkpt>
      <trkpt lat="47.13743" lon="-1.4027">
        <ele>90</ele>
        <time>2020-09-19T09:29:17.000Z</time>
      </trkpt>
      <trkpt lat="47.13756" lon="-1.40268">
        <ele>90</ele>
        <time>2020-09-19T09:29:19.000Z</time>
      </trkpt>
      <trkpt lat="47.13769" lon="-1.40265">
        <ele>89</ele>
        <time>2020-09-19T09:29:21.000Z</time>
      </trkpt>
      <trkpt lat="47.13782" lon="-1.40262">
        <ele>90</ele>
        <time>2020-09-19T09:29:23.000Z</time>
      </trkpt>
      <trkpt lat="47.13795" lon="-1.4026">
        <ele>89</ele>
        <time>2020-09-19T09:29:25.000Z</time>
      </trkpt>
      <trkpt lat="47.13808" lon="-1.40258">
        <ele>90</ele>
        <time>2020-09-19T09:29:27.000Z</time>
      </trkpt>
      <trkpt lat="47.13821" lon="-1.40256">
        <ele>90</ele>
        <time>2020-09-19T09:29:29.000Z</time>
      </trkpt>
      <trkpt lat="47.13834" lon="-1.40253">
        <ele>90</ele>
        <time>2020-09-19T09:29:31.000Z</time>
      </trkpt>
      <trkpt lat="47.13846" lon="-1.40251">
        <ele>89</ele>
        <time>2020-09-19T09:29:33.000Z</time>
      </trkpt>
      <trkpt lat="47.13859" lon="-1.40248">
        <ele>89</ele>
        <time>2020-09-19T09:29:35.000Z</time>
      </trkpt>
      <trkpt lat="47.13872" lon="-1.40246">
        <ele>89</ele>
        <time>2020-09-19T09:29:37.000Z</time>
      </trkpt>
      <trkpt lat="47.13885" lon="-1.40244">
        <ele>89</ele>
        <time>2020-09-19T09:29:39.000Z</time>
      </trkpt>
      <trkpt lat="47.13897" lon="-1.40242">
        <ele>89</ele>
        <time>2020-09-19T09:29:41.000Z</time>
      </trkpt>
      <trkpt lat="47.1391" lon="-1.40242">
        <ele>89</ele>
        <time>2020-09-19T09:29:43.000Z</time>
      </trkpt>
      <trkpt lat="47.13923" lon="-1.40245">
        <ele>90</ele>
        <time>2020-09-19T09:29:45.000Z</time>
      </trkpt>
      <trkpt lat="47.13935" lon="-1.40248">
        <ele>90</ele>
        <time>2020-09-19T09:29:47.000Z</time>
      </trkpt>
      <trkpt lat="47.13948" lon="-1.40253">
        <ele>90</ele>
        <time>2020-09-19T09:29:49.000Z</time>
      </trkpt>
      <trkpt lat="47.1396" lon="-1.40258">
        <ele>90</ele>
        <time>2020-09-19T09:29:51.000Z</time>
      </trkpt>
      <trkpt lat="47.13973" lon="-1.40265">
        <ele>91</ele>
        <time>2020-09-19T09:29:53.000Z</time>
      </trkpt>
      <trkpt lat="47.13984" lon="-1.40273">
        <ele>90</ele>
        <time>2020-09-19T09:29:55.000Z</time>
      </trkpt>
      <trkpt lat="47.13996" lon="-1.40284">
        <ele>90</ele>
        <time>2020-09-19T09:29:57.000Z</time>
      </trkpt>
      <trkpt lat="47.14007" lon="-1.40297">
        <ele>90</ele>
        <time>2020-09-19T09:29:59.000Z</time>
      </trkpt>
      <trkpt lat="47.14018" lon="-1.40311">
        <ele>90</ele>
        <time>2020-09-19T09:30:01.000Z</time>
      </trkpt>
      <trkpt lat="47.14028" lon="-1.40327">
        <ele>90</ele>
        <time>2020-09-19T09:30:03.000Z</time>
      </trkpt>
      <trkpt lat="47.14037" lon="-1.40345">
        <ele>90</ele>
        <time>2020-09-19T09:30:05.000Z</time>
      </trkpt>
      <trkpt lat="47.14045" lon="-1.40363">
        <ele>90</ele>
        <time>2020-09-19T09:30:07.000Z</time>
      </trkpt>
      <trkpt lat="47.14051" lon="-1.40383">
        <ele>89</ele>
        <time>2020-09-19T09:30:09.000Z</time>
      </trkpt>
      <trkpt lat="47.14057" lon="-1.40402">
        <ele>89</ele>
        <time>2020-09-19T09:30:11.000Z</time>
      </trkpt>
      <trkpt lat="47.14063" lon="-1.40421">
        <ele>89</ele>
        <time>2020-09-19T09:30:13.000Z</time>
      </trkpt>
      <trkpt lat="47.1407" lon="-1.40439">
        <ele>89</ele>
        <time>2020-09-19T09:30:15.000Z</time>
      </trkpt>
      <trkpt lat="47.14077" lon="-1.40457">
        <ele>89</ele>
        <time>2020-09-19T09:30:17.000Z</time>
      </trkpt>
      <trkpt lat="47.14087" lon="-1.40473">
        <ele>88</ele>
        <time>2020-09-19T09:30:19.000Z</time>
      </trkpt>
      <trkpt lat="47.14097" lon="-1.40488">
        <ele>88</ele>
        <time>2020-09-19T09:30:21.000Z</time>
      </trkpt>
      <trkpt lat="47.14107" lon="-1.40503">
        <ele>88</ele>
        <time>2020-09-19T09:30:23.000Z</time>
      </trkpt>
      <trkpt lat="47.14117" lon="-1.40517">
        <ele>88</ele>
        <time>2020-09-19T09:30:25.000Z</time>
      </trkpt>
      <trkpt lat="47.14128" lon="-1.40531">
        <ele>87</ele>
        <time>2020-09-19T09:30:27.000Z</time>
      </trkpt>
      <trkpt lat="47.14138" lon="-1.40545">
        <ele>87</ele>
        <time>2020-09-19T09:30:29.000Z</time>
      </trkpt>
      <trkpt lat="47.14148" lon="-1.4056">
        <ele>87</ele>
        <time>2020-09-19T09:30:31.000Z</time>
      </trkpt>
      <trkpt lat="47.14158" lon="-1.40574">
        <ele>87</ele>
        <time>2020-09-19T09:30:33.000Z</time>
      </trkpt>
      <trkpt lat="47.14168" lon="-1.40589">
        <ele>87</ele>
        <time>2020-09-19T09:30:35.000Z</time>
      </trkpt>
      <trkpt lat="47.14179" lon="-1.40604">
        <ele>87</ele>
        <time>2020-09-19T09:30:37.000Z</time>
      </trkpt>
      <trkpt lat="47.14189" lon="-1.40618">
        <ele>86</ele>
        <time>2020-09-19T09:30:39.000Z</time>
      </trkpt>
      <trkpt lat="47.142" lon="-1.40633">
        <ele>86</ele>
        <time>2020-09-19T09:30:41.000Z</time>
      </trkpt>
      <trkpt lat="47.1421" lon="-1.40648">
        <ele>86</ele>
        <time>2020-09-19T09:30:43.000Z</time>
      </trkpt>
      <trkpt lat="47.1422" lon="-1.40662">
        <ele>86</ele>
        <time>2020-09-19T09:30:45.000Z</time>
      </trkpt>
      <trkpt lat="47.1423" lon="-1.40678">
        <ele>86</ele>
        <time>2020-09-19T09:30:47.000Z</time>
      </trkpt>
      <trkpt lat="47.1424" lon="-1.40693">
        <ele>86</ele>
        <time>2020-09-19T09:30:49.000Z</time>
      </trkpt>
      <trkpt lat="47.14249" lon="-1.40709">
        <ele>85</ele>
        <time>2020-09-19T09:30:51.000Z</time>
      </trkpt>
      <trkpt lat="47.14258" lon="-1.40726">
        <ele>85</ele>
        <time>2020-09-19T09:30:53.000Z</time>
      </trkpt>
      <trkpt lat="47.14267" lon="-1.40742">
        <ele>85</ele>
        <time>2020-09-19T09:30:55.000Z</time>
      </trkpt>
      <trkpt lat="47.14277" lon="-1.40759">
        <ele>85</ele>
        <time>2020-09-19T09:30:57.000Z</time>
      </trkpt>
      <trkpt lat="47.14286" lon="-1.40776">
        <ele>85</ele>
        <time>2020-09-19T09:30:59.000Z</time>
      </trkpt>
      <trkpt lat="47.14295" lon="-1.40792">
        <ele>84</ele>
        <time>2020-09-19T09:31:01.000Z</time>
      </trkpt>
      <trkpt lat="47.14304" lon="-1.40809">
        <ele>84</ele>
        <time>2020-09-19T09:31:03.000Z</time>
      </trkpt>
      <trkpt lat="47.14313" lon="-1.40826">
        <ele>84</ele>
        <time>2020-09-19T09:31:05.000Z</time>
      </trkpt>
      <trkpt lat="47.14322" lon="-1.40842">
        <ele>84</ele>
        <time>2020-09-19T09:31:07.000Z</time>
      </trkpt>
      <trkpt lat="47.14331" lon="-1.40858">
        <ele>84</ele>
        <time>2020-09-19T09:31:09.000Z</time>
      </trkpt>
      <trkpt lat="47.14339" lon="-1.40874">
        <ele>85</ele>
        <time>2020-09-19T09:31:11.000Z</time>
      </trkpt>
      <trkpt lat="47.14348" lon="-1.40889">
        <ele>85</ele>
        <time>2020-09-19T09:31:13.000Z</time>
      </trkpt>
      <trkpt lat="47.14356" lon="-1.40903">
        <ele>85</ele>
        <time>2020-09-19T09:31:15.000Z</time>
      </trkpt>
      <trkpt lat="47.14364" lon="-1.40917">
        <ele>85</ele>
        <time>2020-09-19T09:31:17.000Z</time>
      </trkpt>
      <trkpt lat="47.14372" lon="-1.40932">
        <ele>86</ele>
        <time>2020-09-19T09:31:19.000Z</time>
      </trkpt>
      <trkpt lat="47.1438" lon="-1.40946">
        <ele>86</ele>
        <time>2020-09-19T09:31:21.000Z</time>
      </trkpt>
      <trkpt lat="47.14388" lon="-1.40961">
        <ele>86</ele>
        <time>2020-09-19T09:31:23.000Z</time>
      </trkpt>
      <trkpt lat="47.14395" lon="-1.40976">
        <ele>87</ele>
        <time>2020-09-19T09:31:25.000Z</time>
      </trkpt>
      <trkpt lat="47.14402" lon="-1.40992">
        <ele>87</ele>
        <time>2020-09-19T09:31:27.000Z</time>
      </trkpt>
      <trkpt lat="47.14407" lon="-1.4101">
        <ele>87</ele>
        <time>2020-09-19T09:31:29.000Z</time>
      </trkpt>
      <trkpt lat="47.1441" lon="-1.41029">
        <ele>87</ele>
        <time>2020-09-19T09:31:31.000Z</time>
      </trkpt>
      <trkpt lat="47.14411" lon="-1.41049">
        <ele>87</ele>
        <time>2020-09-19T09:31:33.000Z</time>
      </trkpt>
      <trkpt lat="47.1441" lon="-1.41069">
        <ele>88</ele>
        <time>2020-09-19T09:31:35.000Z</time>
      </trkpt>
      <trkpt lat="47.14409" lon="-1.41089">
        <ele>88</ele>
        <time>2020-09-19T09:31:37.000Z</time>
      </trkpt>
      <trkpt lat="47.14408" lon="-1.41108">
        <ele>88</ele>
        <time>2020-09-19T09:31:39.000Z</time>
      </trkpt>
      <trkpt lat="47.14407" lon="-1.41128">
        <ele>89</ele>
        <time>2020-09-19T09:31:41.000Z</time>
      </trkpt>
      <trkpt lat="47.14405" lon="-1.41148">
        <ele>89</ele>
        <time>2020-09-19T09:31:43.000Z</time>
      </trkpt>
      <trkpt lat="47.14404" lon="-1.41167">
        <ele>89</ele>
        <time>2020-09-19T09:31:45.000Z</time>
      </trkpt>
      <trkpt lat="47.14403" lon="-1.41186">
        <ele>90</ele>
        <time>2020-09-19T09:31:47.000Z</time>
      </trkpt>
      <trkpt lat="47.14402" lon="-1.41206">
        <ele>90</ele>
        <time>2020-09-19T09:31:49.000Z</time>
      </trkpt>
      <trkpt lat="47.14401" lon="-1.41226">
        <ele>90</ele>
        <time>2020-09-19T09:31:51.000Z</time>
      </trkpt>
      <trkpt lat="47.14399" lon="-1.41245">
        <ele>90</ele>
        <time>2020-09-19T09:31:53.000Z</time>
      </trkpt>
      <trkpt lat="47.14398" lon="-1.41264">
        <ele>90</ele>
        <time>2020-09-19T09:31:55.000Z</time>
      </trkpt>
      <trkpt lat="47.14397" lon="-1.41283">
        <ele>90</ele>
        <time>2020-09-19T09:31:57.000Z</time>
      </trkpt>
      <trkpt lat="47.14396" lon="-1.41303">
        <ele>90</ele>
        <time>2020-09-19T09:31:59.000Z</time>
      </trkpt>
      <trkpt lat="47.14396" lon="-1.41322">
        <ele>91</ele>
        <time>2020-09-19T09:32:01.000Z</time>
      </trkpt>
      <trkpt lat="47.14396" lon="-1.41341">
        <ele>91</ele>
        <time>2020-09-19T09:32:03.000Z</time>
      </trkpt>
      <trkpt lat="47.14397" lon="-1.4136">
        <ele>92</ele>
        <time>2020-09-19T09:32:05.000Z</time>
      </trkpt>
      <trkpt lat="47.14398" lon="-1.4138">
        <ele>92</ele>
        <time>2020-09-19T09:32:07.000Z</time>
      </trkpt>
      <trkpt lat="47.14398" lon="-1.41399">
        <ele>92</ele>
        <time>2020-09-19T09:32:09.000Z</time>
      </trkpt>
      <trkpt lat="47.14398" lon="-1.41418">
        <ele>92</ele>
        <time>2020-09-19T09:32:11.000Z</time>
      </trkpt>
      <trkpt lat="47.14398" lon="-1.41436">
        <ele>93</ele>
        <time>2020-09-19T09:32:13.000Z</time>
      </trkpt>
      <trkpt lat="47.14398" lon="-1.41454">
        <ele>93</ele>
        <time>2020-09-19T09:32:15.000Z</time>
      </trkpt>
      <trkpt lat="47.14398" lon="-1.41473">
        <ele>93</ele>
        <time>2020-09-19T09:32:17.000Z</time>
      </trkpt>
      <trkpt lat="47.14399" lon="-1.41492">
        <ele>93</ele>
        <time>2020-09-19T09:32:19.000Z</time>
      </trkpt>
      <trkpt lat="47.144" lon="-1.4151">
        <ele>93</ele>
        <time>2020-09-19T09:32:21.000Z</time>
      </trkpt>
      <trkpt lat="47.144" lon="-1.41529">
        <ele>93</ele>
        <time>2020-09-19T09:32:23.000Z</time>
      </trkpt>
      <trkpt lat="47.144" lon="-1.41548">
        <ele>93</ele>
        <time>2020-09-19T09:32:25.000Z</time>
      </trkpt>
      <trkpt lat="47.144" lon="-1.41566">
        <ele>93</ele>
        <time>2020-09-19T09:32:27.000Z</time>
      </trkpt>
      <trkpt lat="47.144" lon="-1.41583">
        <ele>93</ele>
        <time>2020-09-19T09:32:29.000Z</time>
      </trkpt>
      <trkpt lat="47.14398" lon="-1.41599">
        <ele>93</ele>
        <time>2020-09-19T09:32:31.000Z</time>
      </trkpt>
      <trkpt lat="47.14394" lon="-1.41615">
        <ele>93</ele>
        <time>2020-09-19T09:32:33.000Z</time>
      </trkpt>
      <trkpt lat="47.14389" lon="-1.41632">
        <ele>93</ele>
        <time>2020-09-19T09:32:35.000Z</time>
      </trkpt>
      <trkpt lat="47.14385" lon="-1.41651">
        <ele>93</ele>
        <time>2020-09-19T09:32:37.000Z</time>
      </trkpt>
      <trkpt lat="47.14386" lon="-1.41671">
        <ele>93</ele>
        <time>2020-09-19T09:32:39.000Z</time>
      </trkpt>
      <trkpt lat="47.1439" lon="-1.41692">
        <ele>92</ele>
        <time>2020-09-19T09:32:41.000Z</time>
      </trkpt>
      <trkpt lat="47.14395" lon="-1.41711">
        <ele>91</ele>
        <time>2020-09-19T09:32:43.000Z</time>
      </trkpt>
      <trkpt lat="47.144" lon="-1.41732">
        <ele>91</ele>
        <time>2020-09-19T09:32:45.000Z</time>
      </trkpt>
      <trkpt lat="47.14404" lon="-1.41755">
        <ele>91</ele>
        <time>2020-09-19T09:32:47.000Z</time>
      </trkpt>
      <trkpt lat="47.14405" lon="-1.41779">
        <ele>90</ele>
        <time>2020-09-19T09:32:49.000Z</time>
      </trkpt>
      <trkpt lat="47.14407" lon="-1.41802">
        <ele>89</ele>
        <time>2020-09-19T09:32:51.000Z</time>
      </trkpt>
      <trkpt lat="47.14408" lon="-1.41821">
        <ele>88</ele>
        <time>2020-09-19T09:32:53.000Z</time>
      </trkpt>
      <trkpt lat="47.14409" lon="-1.41839">
        <ele>89</ele>
        <time>2020-09-19T09:32:55.000Z</time>
      </trkpt>
      <trkpt lat="47.14412" lon="-1.41859">
        <ele>88</ele>
        <time>2020-09-19T09:32:57.000Z</time>
      </trkpt>
      <trkpt lat="47.14417" lon="-1.4188">
        <ele>88</ele>
        <time>2020-09-19T09:32:59.000Z</time>
      </trkpt>
      <trkpt lat="47.14422" lon="-1.41902">
        <ele>87</ele>
        <time>2020-09-19T09:33:01.000Z</time>
      </trkpt>
      <trkpt lat="47.14427" lon="-1.41925">
        <ele>86</ele>
        <time>2020-09-19T09:33:03.000Z</time>
      </trkpt>
      <trkpt lat="47.14433" lon="-1.41948">
        <ele>85</ele>
        <time>2020-09-19T09:33:05.000Z</time>
      </trkpt>
      <trkpt lat="47.14439" lon="-1.41972">
        <ele>84</ele>
        <time>2020-09-19T09:33:07.000Z</time>
      </trkpt>
      <trkpt lat="47.14442" lon="-1.41985">
        <ele>84</ele>
        <time>2020-09-19T09:33:08.000Z</time>
      </trkpt>
      <trkpt lat="47.14444" lon="-1.41998">
        <ele>83</ele>
        <time>2020-09-19T09:33:09.000Z</time>
      </trkpt>
      <trkpt lat="47.14448" lon="-1.42011">
        <ele>83</ele>
        <time>2020-09-19T09:33:10.000Z</time>
      </trkpt>
      <trkpt lat="47.14451" lon="-1.42024">
        <ele>82</ele>
        <time>2020-09-19T09:33:11.000Z</time>
      </trkpt>
      <trkpt lat="47.14455" lon="-1.42037">
        <ele>81</ele>
        <time>2020-09-19T09:33:12.000Z</time>
      </trkpt>
      <trkpt lat="47.1446" lon="-1.42051">
        <ele>81</ele>
        <time>2020-09-19T09:33:13.000Z</time>
      </trkpt>
      <trkpt lat="47.14466" lon="-1.42063">
        <ele>79</ele>
        <time>2020-09-19T09:33:14.000Z</time>
      </trkpt>
      <trkpt lat="47.14471" lon="-1.42076">
        <ele>79</ele>
        <time>2020-09-19T09:33:15.000Z</time>
      </trkpt>
      <trkpt lat="47.14478" lon="-1.42088">
        <ele>78</ele>
        <time>2020-09-19T09:33:16.000Z</time>
      </trkpt>
      <trkpt lat="47.14483" lon="-1.42101">
        <ele>78</ele>
        <time>2020-09-19T09:33:17.000Z</time>
      </trkpt>
      <trkpt lat="47.14489" lon="-1.42114">
        <ele>77</ele>
        <time>2020-09-19T09:33:18.000Z</time>
      </trkpt>
      <trkpt lat="47.14494" lon="-1.42127">
        <ele>76</ele>
        <time>2020-09-19T09:33:19.000Z</time>
      </trkpt>
      <trkpt lat="47.145" lon="-1.4214">
        <ele>76</ele>
        <time>2020-09-19T09:33:20.000Z</time>
      </trkpt>
      <trkpt lat="47.14505" lon="-1.42153">
        <ele>75</ele>
        <time>2020-09-19T09:33:21.000Z</time>
      </trkpt>
      <trkpt lat="47.1451" lon="-1.42166">
        <ele>74</ele>
        <time>2020-09-19T09:33:22.000Z</time>
      </trkpt>
      <trkpt lat="47.14515" lon="-1.42179">
        <ele>73</ele>
        <time>2020-09-19T09:33:23.000Z</time>
      </trkpt>
      <trkpt lat="47.1452" lon="-1.42193">
        <ele>73</ele>
        <time>2020-09-19T09:33:24.000Z</time>
      </trkpt>
      <trkpt lat="47.14524" lon="-1.42207">
        <ele>73</ele>
        <time>2020-09-19T09:33:25.000Z</time>
      </trkpt>
      <trkpt lat="47.14529" lon="-1.4222">
        <ele>73</ele>
        <time>2020-09-19T09:33:26.000Z</time>
      </trkpt>
      <trkpt lat="47.14534" lon="-1.42233">
        <ele>72</ele>
        <time>2020-09-19T09:33:27.000Z</time>
      </trkpt>
      <trkpt lat="47.14538" lon="-1.42246">
        <ele>72</ele>
        <time>2020-09-19T09:33:28.000Z</time>
      </trkpt>
      <trkpt lat="47.14543" lon="-1.42258">
        <ele>72</ele>
        <time>2020-09-19T09:33:29.000Z</time>
      </trkpt>
      <trkpt lat="47.14548" lon="-1.4227">
        <ele>72</ele>
        <time>2020-09-19T09:33:30.000Z</time>
      </trkpt>
      <trkpt lat="47.14553" lon="-1.42281">
        <ele>72</ele>
        <time>2020-09-19T09:33:31.000Z</time>
      </trkpt>
      <trkpt lat="47.14559" lon="-1.42291">
        <ele>71</ele>
        <time>2020-09-19T09:33:32.000Z</time>
      </trkpt>
      <trkpt lat="47.14571" lon="-1.4231">
        <ele>72</ele>
        <time>2020-09-19T09:33:34.000Z</time>
      </trkpt>
      <trkpt lat="47.14582" lon="-1.42325">
        <ele>71</ele>
        <time>2020-09-19T09:33:36.000Z</time>
      </trkpt>
      <trkpt lat="47.14593" lon="-1.42339">
        <ele>71</ele>
        <time>2020-09-19T09:33:38.000Z</time>
      </trkpt>
      <trkpt lat="47.14604" lon="-1.4235">
        <ele>72</ele>
        <time>2020-09-19T09:33:40.000Z</time>
      </trkpt>
      <trkpt lat="47.14615" lon="-1.42361">
        <ele>72</ele>
        <time>2020-09-19T09:33:42.000Z</time>
      </trkpt>
      <trkpt lat="47.14626" lon="-1.42371">
        <ele>73</ele>
        <time>2020-09-19T09:33:44.000Z</time>
      </trkpt>
      <trkpt lat="47.14636" lon="-1.42381">
        <ele>73</ele>
        <time>2020-09-19T09:33:46.000Z</time>
      </trkpt>
      <trkpt lat="47.14646" lon="-1.4239">
        <ele>74</ele>
        <time>2020-09-19T09:33:48.000Z</time>
      </trkpt>
      <trkpt lat="47.14655" lon="-1.42399">
        <ele>74</ele>
        <time>2020-09-19T09:33:50.000Z</time>
      </trkpt>
      <trkpt lat="47.14665" lon="-1.42409">
        <ele>75</ele>
        <time>2020-09-19T09:33:52.000Z</time>
      </trkpt>
      <trkpt lat="47.14674" lon="-1.42418">
        <ele>75</ele>
        <time>2020-09-19T09:33:54.000Z</time>
      </trkpt>
      <trkpt lat="47.14683" lon="-1.42427">
        <ele>76</ele>
        <time>2020-09-19T09:33:56.000Z</time>
      </trkpt>
      <trkpt lat="47.14691" lon="-1.42436">
        <ele>76</ele>
        <time>2020-09-19T09:33:58.000Z</time>
      </trkpt>
      <trkpt lat="47.14701" lon="-1.42445">
        <ele>77</ele>
        <time>2020-09-19T09:34:00.000Z</time>
      </trkpt>
      <trkpt lat="47.1471" lon="-1.42453">
        <ele>78</ele>
        <time>2020-09-19T09:34:02.000Z</time>
      </trkpt>
      <trkpt lat="47.14719" lon="-1.42463">
        <ele>78</ele>
        <time>2020-09-19T09:34:04.000Z</time>
      </trkpt>
      <trkpt lat="47.14729" lon="-1.42472">
        <ele>79</ele>
        <time>2020-09-19T09:34:06.000Z</time>
      </trkpt>
      <trkpt lat="47.14738" lon="-1.42481">
        <ele>79</ele>
        <time>2020-09-19T09:34:08.000Z</time>
      </trkpt>
      <trkpt lat="47.14746" lon="-1.4249">
        <ele>80</ele>
        <time>2020-09-19T09:34:10.000Z</time>
      </trkpt>
      <trkpt lat="47.14756" lon="-1.42499">
        <ele>80</ele>
        <time>2020-09-19T09:34:12.000Z</time>
      </trkpt>
      <trkpt lat="47.14765" lon="-1.42508">
        <ele>80</ele>
        <time>2020-09-19T09:34:14.000Z</time>
      </trkpt>
      <trkpt lat="47.14775" lon="-1.42518">
        <ele>81</ele>
        <time>2020-09-19T09:34:16.000Z</time>
      </trkpt>
      <trkpt lat="47.14784" lon="-1.42528">
        <ele>81</ele>
        <time>2020-09-19T09:34:18.000Z</time>
      </trkpt>
      <trkpt lat="47.14794" lon="-1.42538">
        <ele>81</ele>
        <time>2020-09-19T09:34:20.000Z</time>
      </trkpt>
      <trkpt lat="47.14803" lon="-1.42549">
        <ele>81</ele>
        <time>2020-09-19T09:34:22.000Z</time>
      </trkpt>
      <trkpt lat="47.14812" lon="-1.42561">
        <ele>81</ele>
        <time>2020-09-19T09:34:24.000Z</time>
      </trkpt>
      <trkpt lat="47.14821" lon="-1.42573">
        <ele>81</ele>
        <time>2020-09-19T09:34:26.000Z</time>
      </trkpt>
      <trkpt lat="47.14831" lon="-1.42585">
        <ele>81</ele>
        <time>2020-09-19T09:34:28.000Z</time>
      </trkpt>
      <trkpt lat="47.1484" lon="-1.42598">
        <ele>80</ele>
        <time>2020-09-19T09:34:30.000Z</time>
      </trkpt>
      <trkpt lat="47.1485" lon="-1.4261">
        <ele>80</ele>
        <time>2020-09-19T09:34:32.000Z</time>
      </trkpt>
      <trkpt lat="47.14859" lon="-1.42624">
        <ele>79</ele>
        <time>2020-09-19T09:34:34.000Z</time>
      </trkpt>
      <trkpt lat="47.14869" lon="-1.42637">
        <ele>79</ele>
        <time>2020-09-19T09:34:36.000Z</time>
      </trkpt>
      <trkpt lat="47.14879" lon="-1.4265">
        <ele>79</ele>
        <time>2020-09-19T09:34:38.000Z</time>
      </trkpt>
      <trkpt lat="47.14889" lon="-1.42664">
        <ele>79</ele>
        <time>2020-09-19T09:34:40.000Z</time>
      </trkpt>
      <trkpt lat="47.149" lon="-1.42679">
        <ele>78</ele>
        <time>2020-09-19T09:34:42.000Z</time>
      </trkpt>
      <trkpt lat="47.1491" lon="-1.42695">
        <ele>77</ele>
        <time>2020-09-19T09:34:44.000Z</time>
      </trkpt>
      <trkpt lat="47.14921" lon="-1.42713">
        <ele>77</ele>
        <time>2020-09-19T09:34:46.000Z</time>
      </trkpt>
      <trkpt lat="47.14933" lon="-1.4273">
        <ele>76</ele>
        <time>2020-09-19T09:34:48.000Z</time>
      </trkpt>
      <trkpt lat="47.14944" lon="-1.42747">
        <ele>76</ele>
        <time>2020-09-19T09:34:50.000Z</time>
      </trkpt>
      <trkpt lat="47.14955" lon="-1.42764">
        <ele>76</ele>
        <time>2020-09-19T09:34:52.000Z</time>
      </trkpt>
      <trkpt lat="47.14966" lon="-1.42781">
        <ele>76</ele>
        <time>2020-09-19T09:34:54.000Z</time>
      </trkpt>
      <trkpt lat="47.14976" lon="-1.42799">
        <ele>75</ele>
        <time>2020-09-19T09:34:56.000Z</time>
      </trkpt>
      <trkpt lat="47.14988" lon="-1.42816">
        <ele>75</ele>
        <time>2020-09-19T09:34:58.000Z</time>
      </trkpt>
      <trkpt lat="47.14999" lon="-1.42833">
        <ele>74</ele>
        <time>2020-09-19T09:35:00.000Z</time>
      </trkpt>
      <trkpt lat="47.15011" lon="-1.42847">
        <ele>74</ele>
        <time>2020-09-19T09:35:02.000Z</time>
      </trkpt>
      <trkpt lat="47.15024" lon="-1.42859">
        <ele>74</ele>
        <time>2020-09-19T09:35:04.000Z</time>
      </trkpt>
      <trkpt lat="47.15038" lon="-1.42865">
        <ele>74</ele>
        <time>2020-09-19T09:35:06.000Z</time>
      </trkpt>
      <trkpt lat="47.15052" lon="-1.4287">
        <ele>75</ele>
        <time>2020-09-19T09:35:08.000Z</time>
      </trkpt>
      <trkpt lat="47.15066" lon="-1.42874">
        <ele>74</ele>
        <time>2020-09-19T09:35:10.000Z</time>
      </trkpt>
      <trkpt lat="47.15081" lon="-1.42879">
        <ele>75</ele>
        <time>2020-09-19T09:35:12.000Z</time>
      </trkpt>
      <trkpt lat="47.15095" lon="-1.42884">
        <ele>75</ele>
        <time>2020-09-19T09:35:14.000Z</time>
      </trkpt>
      <trkpt lat="47.15109" lon="-1.42888">
        <ele>74</ele>
        <time>2020-09-19T09:35:16.000Z</time>
      </trkpt>
      <trkpt lat="47.15123" lon="-1.42893">
        <ele>74</ele>
        <time>2020-09-19T09:35:18.000Z</time>
      </trkpt>
      <trkpt lat="47.15138" lon="-1.429">
        <ele>74</ele>
        <time>2020-09-19T09:35:20.000Z</time>
      </trkpt>
      <trkpt lat="47.15151" lon="-1.42908">
        <ele>74</ele>
        <time>2020-09-19T09:35:22.000Z</time>
      </trkpt>
      <trkpt lat="47.15164" lon="-1.42916">
        <ele>74</ele>
        <time>2020-09-19T09:35:24.000Z</time>
      </trkpt>
      <trkpt lat="47.15177" lon="-1.42923">
        <ele>74</ele>
        <time>2020-09-19T09:35:26.000Z</time>
      </trkpt>
      <trkpt lat="47.1519" lon="-1.42933">
        <ele>73</ele>
        <time>2020-09-19T09:35:28.000Z</time>
      </trkpt>
      <trkpt lat="47.15202" lon="-1.42947">
        <ele>73</ele>
        <time>2020-09-19T09:35:30.000Z</time>
      </trkpt>
      <trkpt lat="47.15212" lon="-1.42964">
        <ele>72</ele>
        <time>2020-09-19T09:35:32.000Z</time>
      </trkpt>
      <trkpt lat="47.15221" lon="-1.42983">
        <ele>72</ele>
        <time>2020-09-19T09:35:34.000Z</time>
      </trkpt>
      <trkpt lat="47.15231" lon="-1.43002">
        <ele>71</ele>
        <time>2020-09-19T09:35:36.000Z</time>
      </trkpt>
      <trkpt lat="47.1524" lon="-1.43023">
        <ele>70</ele>
        <time>2020-09-19T09:35:38.000Z</time>
      </trkpt>
      <trkpt lat="47.15248" lon="-1.43047">
        <ele>69</ele>
        <time>2020-09-19T09:35:40.000Z</time>
      </trkpt>
      <trkpt lat="47.15253" lon="-1.43071">
        <ele>69</ele>
        <time>2020-09-19T09:35:42.000Z</time>
      </trkpt>
      <trkpt lat="47.15255" lon="-1.43084">
        <ele>69</ele>
        <time>2020-09-19T09:35:43.000Z</time>
      </trkpt>
      <trkpt lat="47.15256" lon="-1.43098">
        <ele>68</ele>
        <time>2020-09-19T09:35:44.000Z</time>
      </trkpt>
      <trkpt lat="47.15257" lon="-1.43123">
        <ele>67</ele>
        <time>2020-09-19T09:35:46.000Z</time>
      </trkpt>
      <trkpt lat="47.15256" lon="-1.43137">
        <ele>67</ele>
        <time>2020-09-19T09:35:47.000Z</time>
      </trkpt>
      <trkpt lat="47.15256" lon="-1.4315">
        <ele>66</ele>
        <time>2020-09-19T09:35:48.000Z</time>
      </trkpt>
      <trkpt lat="47.15256" lon="-1.43177">
        <ele>65</ele>
        <time>2020-09-19T09:35:50.000Z</time>
      </trkpt>
      <trkpt lat="47.15255" lon="-1.4319">
        <ele>64</ele>
        <time>2020-09-19T09:35:51.000Z</time>
      </trkpt>
      <trkpt lat="47.15255" lon="-1.43204">
        <ele>63</ele>
        <time>2020-09-19T09:35:52.000Z</time>
      </trkpt>
      <trkpt lat="47.15254" lon="-1.43217">
        <ele>63</ele>
        <time>2020-09-19T09:35:53.000Z</time>
      </trkpt>
      <trkpt lat="47.15254" lon="-1.43231">
        <ele>62</ele>
        <time>2020-09-19T09:35:54.000Z</time>
      </trkpt>
      <trkpt lat="47.15254" lon="-1.43244">
        <ele>62</ele>
        <time>2020-09-19T09:35:55.000Z</time>
      </trkpt>
      <trkpt lat="47.15253" lon="-1.43258">
        <ele>61</ele>
        <time>2020-09-19T09:35:56.000Z</time>
      </trkpt>
      <trkpt lat="47.15253" lon="-1.43272">
        <ele>60</ele>
        <time>2020-09-19T09:35:57.000Z</time>
      </trkpt>
      <trkpt lat="47.15252" lon="-1.43285">
        <ele>60</ele>
        <time>2020-09-19T09:35:58.000Z</time>
      </trkpt>
      <trkpt lat="47.15252" lon="-1.43298">
        <ele>59</ele>
        <time>2020-09-19T09:35:59.000Z</time>
      </trkpt>
      <trkpt lat="47.15251" lon="-1.43325">
        <ele>59</ele>
        <time>2020-09-19T09:36:01.000Z</time>
      </trkpt>
      <trkpt lat="47.15251" lon="-1.43339">
        <ele>59</ele>
        <time>2020-09-19T09:36:02.000Z</time>
      </trkpt>
      <trkpt lat="47.15251" lon="-1.43352">
        <ele>59</ele>
        <time>2020-09-19T09:36:03.000Z</time>
      </trkpt>
      <trkpt lat="47.15253" lon="-1.43378">
        <ele>60</ele>
        <time>2020-09-19T09:36:05.000Z</time>
      </trkpt>
      <trkpt lat="47.15255" lon="-1.43404">
        <ele>59</ele>
        <time>2020-09-19T09:36:07.000Z</time>
      </trkpt>
      <trkpt lat="47.15257" lon="-1.43429">
        <ele>59</ele>
        <time>2020-09-19T09:36:09.000Z</time>
      </trkpt>
      <trkpt lat="47.1526" lon="-1.43453">
        <ele>59</ele>
        <time>2020-09-19T09:36:11.000Z</time>
      </trkpt>
      <trkpt lat="47.15264" lon="-1.43477">
        <ele>60</ele>
        <time>2020-09-19T09:36:13.000Z</time>
      </trkpt>
      <trkpt lat="47.15266" lon="-1.43501">
        <ele>59</ele>
        <time>2020-09-19T09:36:15.000Z</time>
      </trkpt>
      <trkpt lat="47.15269" lon="-1.43524">
        <ele>59</ele>
        <time>2020-09-19T09:36:17.000Z</time>
      </trkpt>
      <trkpt lat="47.15272" lon="-1.43546">
        <ele>58</ele>
        <time>2020-09-19T09:36:19.000Z</time>
      </trkpt>
      <trkpt lat="47.15273" lon="-1.43569">
        <ele>57</ele>
        <time>2020-09-19T09:36:21.000Z</time>
      </trkpt>
      <trkpt lat="47.15276" lon="-1.43593">
        <ele>56</ele>
        <time>2020-09-19T09:36:23.000Z</time>
      </trkpt>
      <trkpt lat="47.15278" lon="-1.43617">
        <ele>56</ele>
        <time>2020-09-19T09:36:25.000Z</time>
      </trkpt>
      <trkpt lat="47.1528" lon="-1.4364">
        <ele>56</ele>
        <time>2020-09-19T09:36:27.000Z</time>
      </trkpt>
      <trkpt lat="47.15281" lon="-1.43662">
        <ele>57</ele>
        <time>2020-09-19T09:36:29.000Z</time>
      </trkpt>
      <trkpt lat="47.15284" lon="-1.43684">
        <ele>57</ele>
        <time>2020-09-19T09:36:31.000Z</time>
      </trkpt>
      <trkpt lat="47.15284" lon="-1.43708">
        <ele>56</ele>
        <time>2020-09-19T09:36:33.000Z</time>
      </trkpt>
      <trkpt lat="47.15283" lon="-1.43731">
        <ele>56</ele>
        <time>2020-09-19T09:36:35.000Z</time>
      </trkpt>
      <trkpt lat="47.15281" lon="-1.43755">
        <ele>55</ele>
        <time>2020-09-19T09:36:37.000Z</time>
      </trkpt>
      <trkpt lat="47.15279" lon="-1.43777">
        <ele>56</ele>
        <time>2020-09-19T09:36:39.000Z</time>
      </trkpt>
      <trkpt lat="47.15277" lon="-1.438">
        <ele>56</ele>
        <time>2020-09-19T09:36:41.000Z</time>
      </trkpt>
      <trkpt lat="47.15276" lon="-1.43824">
        <ele>56</ele>
        <time>2020-09-19T09:36:43.000Z</time>
      </trkpt>
      <trkpt lat="47.15275" lon="-1.43848">
        <ele>55</ele>
        <time>2020-09-19T09:36:45.000Z</time>
      </trkpt>
      <trkpt lat="47.15279" lon="-1.43872">
        <ele>55</ele>
        <time>2020-09-19T09:36:47.000Z</time>
      </trkpt>
      <trkpt lat="47.15286" lon="-1.43892">
        <ele>55</ele>
        <time>2020-09-19T09:36:49.000Z</time>
      </trkpt>
      <trkpt lat="47.15295" lon="-1.43911">
        <ele>55</ele>
        <time>2020-09-19T09:36:51.000Z</time>
      </trkpt>
      <trkpt lat="47.15305" lon="-1.43927">
        <ele>55</ele>
        <time>2020-09-19T09:36:53.000Z</time>
      </trkpt>
      <trkpt lat="47.15315" lon="-1.43942">
        <ele>56</ele>
        <time>2020-09-19T09:36:55.000Z</time>
      </trkpt>
      <trkpt lat="47.15324" lon="-1.43956">
        <ele>57</ele>
        <time>2020-09-19T09:36:57.000Z</time>
      </trkpt>
      <trkpt lat="47.15333" lon="-1.43968">
        <ele>57</ele>
        <time>2020-09-19T09:36:59.000Z</time>
      </trkpt>
      <trkpt lat="47.15341" lon="-1.4398">
        <ele>57</ele>
        <time>2020-09-19T09:37:01.000Z</time>
      </trkpt>
      <trkpt lat="47.15349" lon="-1.43993">
        <ele>57</ele>
        <time>2020-09-19T09:37:03.000Z</time>
      </trkpt>
      <trkpt lat="47.15358" lon="-1.44006">
        <ele>57</ele>
        <time>2020-09-19T09:37:05.000Z</time>
      </trkpt>
      <trkpt lat="47.15367" lon="-1.44019">
        <ele>56</ele>
        <time>2020-09-19T09:37:07.000Z</time>
      </trkpt>
      <trkpt lat="47.15376" lon="-1.44034">
        <ele>55</ele>
        <time>2020-09-19T09:37:09.000Z</time>
      </trkpt>
      <trkpt lat="47.15383" lon="-1.44053">
        <ele>55</ele>
        <time>2020-09-19T09:37:11.000Z</time>
      </trkpt>
      <trkpt lat="47.15388" lon="-1.44073">
        <ele>55</ele>
        <time>2020-09-19T09:37:13.000Z</time>
      </trkpt>
      <trkpt lat="47.15387" lon="-1.44094">
        <ele>54</ele>
        <time>2020-09-19T09:37:15.000Z</time>
      </trkpt>
      <trkpt lat="47.15385" lon="-1.44114">
        <ele>54</ele>
        <time>2020-09-19T09:37:17.000Z</time>
      </trkpt>
      <trkpt lat="47.15381" lon="-1.44134">
        <ele>54</ele>
        <time>2020-09-19T09:37:19.000Z</time>
      </trkpt>
      <trkpt lat="47.15377" lon="-1.44155">
        <ele>54</ele>
        <time>2020-09-19T09:37:21.000Z</time>
      </trkpt>
      <trkpt lat="47.15373" lon="-1.44176">
        <ele>53</ele>
        <time>2020-09-19T09:37:23.000Z</time>
      </trkpt>
      <trkpt lat="47.1537" lon="-1.44196">
        <ele>53</ele>
        <time>2020-09-19T09:37:25.000Z</time>
      </trkpt>
      <trkpt lat="47.1537" lon="-1.44216">
        <ele>53</ele>
        <time>2020-09-19T09:37:27.000Z</time>
      </trkpt>
      <trkpt lat="47.15371" lon="-1.44236">
        <ele>52</ele>
        <time>2020-09-19T09:37:29.000Z</time>
      </trkpt>
      <trkpt lat="47.15373" lon="-1.44256">
        <ele>52</ele>
        <time>2020-09-19T09:37:31.000Z</time>
      </trkpt>
      <trkpt lat="47.15377" lon="-1.44275">
        <ele>52</ele>
        <time>2020-09-19T09:37:33.000Z</time>
      </trkpt>
      <trkpt lat="47.15382" lon="-1.44295">
        <ele>52</ele>
        <time>2020-09-19T09:37:35.000Z</time>
      </trkpt>
      <trkpt lat="47.15387" lon="-1.44313">
        <ele>52</ele>
        <time>2020-09-19T09:37:37.000Z</time>
      </trkpt>
      <trkpt lat="47.15394" lon="-1.44331">
        <ele>52</ele>
        <time>2020-09-19T09:37:39.000Z</time>
      </trkpt>
      <trkpt lat="47.15401" lon="-1.44346">
        <ele>53</ele>
        <time>2020-09-19T09:37:41.000Z</time>
      </trkpt>
      <trkpt lat="47.15409" lon="-1.44362">
        <ele>54</ele>
        <time>2020-09-19T09:37:43.000Z</time>
      </trkpt>
      <trkpt lat="47.15418" lon="-1.44375">
        <ele>55</ele>
        <time>2020-09-19T09:37:45.000Z</time>
      </trkpt>
      <trkpt lat="47.15429" lon="-1.44385">
        <ele>55</ele>
        <time>2020-09-19T09:37:47.000Z</time>
      </trkpt>
      <trkpt lat="47.15439" lon="-1.44395">
        <ele>55</ele>
        <time>2020-09-19T09:37:49.000Z</time>
      </trkpt>
      <trkpt lat="47.1545" lon="-1.44402">
        <ele>55</ele>
        <time>2020-09-19T09:37:51.000Z</time>
      </trkpt>
      <trkpt lat="47.15461" lon="-1.44408">
        <ele>56</ele>
        <time>2020-09-19T09:37:53.000Z</time>
      </trkpt>
      <trkpt lat="47.15473" lon="-1.44413">
        <ele>56</ele>
        <time>2020-09-19T09:37:55.000Z</time>
      </trkpt>
      <trkpt lat="47.15484" lon="-1.44416">
        <ele>56</ele>
        <time>2020-09-19T09:37:57.000Z</time>
      </trkpt>
      <trkpt lat="47.15495" lon="-1.44417">
        <ele>56</ele>
        <time>2020-09-19T09:37:59.000Z</time>
      </trkpt>
      <trkpt lat="47.15506" lon="-1.44419">
        <ele>56</ele>
        <time>2020-09-19T09:38:01.000Z</time>
      </trkpt>
      <trkpt lat="47.15517" lon="-1.44419">
        <ele>57</ele>
        <time>2020-09-19T09:38:03.000Z</time>
      </trkpt>
      <trkpt lat="47.15528" lon="-1.4442">
        <ele>58</ele>
        <time>2020-09-19T09:38:05.000Z</time>
      </trkpt>
      <trkpt lat="47.15539" lon="-1.4442">
        <ele>59</ele>
        <time>2020-09-19T09:38:07.000Z</time>
      </trkpt>
      <trkpt lat="47.15549" lon="-1.44421">
        <ele>60</ele>
        <time>2020-09-19T09:38:09.000Z</time>
      </trkpt>
      <trkpt lat="47.15559" lon="-1.4442">
        <ele>61</ele>
        <time>2020-09-19T09:38:11.000Z</time>
      </trkpt>
      <trkpt lat="47.1557" lon="-1.44419">
        <ele>61</ele>
        <time>2020-09-19T09:38:13.000Z</time>
      </trkpt>
      <trkpt lat="47.1558" lon="-1.44415">
        <ele>62</ele>
        <time>2020-09-19T09:38:15.000Z</time>
      </trkpt>
      <trkpt lat="47.15591" lon="-1.44411">
        <ele>62</ele>
        <time>2020-09-19T09:38:17.000Z</time>
      </trkpt>
      <trkpt lat="47.15601" lon="-1.44405">
        <ele>63</ele>
        <time>2020-09-19T09:38:19.000Z</time>
      </trkpt>
      <trkpt lat="47.15612" lon="-1.444">
        <ele>63</ele>
        <time>2020-09-19T09:38:21.000Z</time>
      </trkpt>
      <trkpt lat="47.15622" lon="-1.44397">
        <ele>64</ele>
        <time>2020-09-19T09:38:23.000Z</time>
      </trkpt>
      <trkpt lat="47.15632" lon="-1.44392">
        <ele>64</ele>
        <time>2020-09-19T09:38:25.000Z</time>
      </trkpt>
      <trkpt lat="47.15641" lon="-1.44388">
        <ele>65</ele>
        <time>2020-09-19T09:38:27.000Z</time>
      </trkpt>
      <trkpt lat="47.15651" lon="-1.44384">
        <ele>65</ele>
        <time>2020-09-19T09:38:29.000Z</time>
      </trkpt>
      <trkpt lat="47.15661" lon="-1.44379">
        <ele>65</ele>
        <time>2020-09-19T09:38:31.000Z</time>
      </trkpt>
      <trkpt lat="47.1567" lon="-1.44375">
        <ele>65</ele>
        <time>2020-09-19T09:38:33.000Z</time>
      </trkpt>
      <trkpt lat="47.15681" lon="-1.44371">
        <ele>65</ele>
        <time>2020-09-19T09:38:35.000Z</time>
      </trkpt>
      <trkpt lat="47.15691" lon="-1.44367">
        <ele>66</ele>
        <time>2020-09-19T09:38:37.000Z</time>
      </trkpt>
      <trkpt lat="47.15702" lon="-1.44363">
        <ele>66</ele>
        <time>2020-09-19T09:38:39.000Z</time>
      </trkpt>
      <trkpt lat="47.15712" lon="-1.44358">
        <ele>66</ele>
        <time>2020-09-19T09:38:41.000Z</time>
      </trkpt>
      <trkpt lat="47.15722" lon="-1.44354">
        <ele>66</ele>
        <time>2020-09-19T09:38:43.000Z</time>
      </trkpt>
      <trkpt lat="47.15731" lon="-1.44349">
        <ele>67</ele>
        <time>2020-09-19T09:38:45.000Z</time>
      </trkpt>
      <trkpt lat="47.1574" lon="-1.44345">
        <ele>67</ele>
        <time>2020-09-19T09:38:47.000Z</time>
      </trkpt>
      <trkpt lat="47.1575" lon="-1.44342">
        <ele>67</ele>
        <time>2020-09-19T09:38:49.000Z</time>
      </trkpt>
      <trkpt lat="47.1576" lon="-1.44337">
        <ele>67</ele>
        <time>2020-09-19T09:38:51.000Z</time>
      </trkpt>
      <trkpt lat="47.1577" lon="-1.44332">
        <ele>68</ele>
        <time>2020-09-19T09:38:53.000Z</time>
      </trkpt>
      <trkpt lat="47.1578" lon="-1.44329">
        <ele>68</ele>
        <time>2020-09-19T09:38:55.000Z</time>
      </trkpt>
      <trkpt lat="47.15791" lon="-1.44326">
        <ele>68</ele>
        <time>2020-09-19T09:38:57.000Z</time>
      </trkpt>
      <trkpt lat="47.15802" lon="-1.44329">
        <ele>68</ele>
        <time>2020-09-19T09:38:59.000Z</time>
      </trkpt>
      <trkpt lat="47.15812" lon="-1.44336">
        <ele>68</ele>
        <time>2020-09-19T09:39:01.000Z</time>
      </trkpt>
      <trkpt lat="47.15821" lon="-1.44347">
        <ele>67</ele>
        <time>2020-09-19T09:39:03.000Z</time>
      </trkpt>
      <trkpt lat="47.15828" lon="-1.44361">
        <ele>68</ele>
        <time>2020-09-19T09:39:05.000Z</time>
      </trkpt>
      <trkpt lat="47.15835" lon="-1.44375">
        <ele>68</ele>
        <time>2020-09-19T09:39:07.000Z</time>
      </trkpt>
      <trkpt lat="47.15841" lon="-1.4439">
        <ele>69</ele>
        <time>2020-09-19T09:39:09.000Z</time>
      </trkpt>
      <trkpt lat="47.15846" lon="-1.44404">
        <ele>69</ele>
        <time>2020-09-19T09:39:11.000Z</time>
      </trkpt>
      <trkpt lat="47.15852" lon="-1.44418">
        <ele>69</ele>
        <time>2020-09-19T09:39:13.000Z</time>
      </trkpt>
      <trkpt lat="47.15858" lon="-1.44432">
        <ele>70</ele>
        <time>2020-09-19T09:39:15.000Z</time>
      </trkpt>
      <trkpt lat="47.15864" lon="-1.44446">
        <ele>70</ele>
        <time>2020-09-19T09:39:17.000Z</time>
      </trkpt>
      <trkpt lat="47.15869" lon="-1.4446">
        <ele>71</ele>
        <time>2020-09-19T09:39:19.000Z</time>
      </trkpt>
      <trkpt lat="47.15875" lon="-1.44474">
        <ele>71</ele>
        <time>2020-09-19T09:39:21.000Z</time>
      </trkpt>
      <trkpt lat="47.1588" lon="-1.44487">
        <ele>71</ele>
        <time>2020-09-19T09:39:23.000Z</time>
      </trkpt>
      <trkpt lat="47.15885" lon="-1.445">
        <ele>72</ele>
        <time>2020-09-19T09:39:25.000Z</time>
      </trkpt>
      <trkpt lat="47.1589" lon="-1.44515">
        <ele>73</ele>
        <time>2020-09-19T09:39:27.000Z</time>
      </trkpt>
      <trkpt lat="47.15895" lon="-1.44528">
        <ele>73</ele>
        <time>2020-09-19T09:39:29.000Z</time>
      </trkpt>
      <trkpt lat="47.159" lon="-1.44542">
        <ele>73</ele>
        <time>2020-09-19T09:39:31.000Z</time>
      </trkpt>
      <trkpt lat="47.15906" lon="-1.44555">
        <ele>74</ele>
        <time>2020-09-19T09:39:33.000Z</time>
      </trkpt>
      <trkpt lat="47.15911" lon="-1.44568">
        <ele>74</ele>
        <time>2020-09-19T09:39:35.000Z</time>
      </trkpt>
      <trkpt lat="47.15915" lon="-1.44582">
        <ele>74</ele>
        <time>2020-09-19T09:39:37.000Z</time>
      </trkpt>
      <trkpt lat="47.1592" lon="-1.44595">
        <ele>75</ele>
        <time>2020-09-19T09:39:39.000Z</time>
      </trkpt>
      <trkpt lat="47.15924" lon="-1.44609">
        <ele>76</ele>
        <time>2020-09-19T09:39:41.000Z</time>
      </trkpt>
      <trkpt lat="47.15928" lon="-1.44623">
        <ele>76</ele>
        <time>2020-09-19T09:39:43.000Z</time>
      </trkpt>
      <trkpt lat="47.15933" lon="-1.44637">
        <ele>77</ele>
        <time>2020-09-19T09:39:45.000Z</time>
      </trkpt>
      <trkpt lat="47.15937" lon="-1.44651">
        <ele>77</ele>
        <time>2020-09-19T09:39:47.000Z</time>
      </trkpt>
      <trkpt lat="47.15941" lon="-1.44665">
        <ele>78</ele>
        <time>2020-09-19T09:39:49.000Z</time>
      </trkpt>
      <trkpt lat="47.15945" lon="-1.4468">
        <ele>78</ele>
        <time>2020-09-19T09:39:51.000Z</time>
      </trkpt>
      <trkpt lat="47.15949" lon="-1.44694">
        <ele>78</ele>
        <time>2020-09-19T09:39:53.000Z</time>
      </trkpt>
      <trkpt lat="47.15953" lon="-1.44708">
        <ele>79</ele>
        <time>2020-09-19T09:39:55.000Z</time>
      </trkpt>
      <trkpt lat="47.15958" lon="-1.44723">
        <ele>79</ele>
        <time>2020-09-19T09:39:57.000Z</time>
      </trkpt>
      <trkpt lat="47.15962" lon="-1.44738">
        <ele>78</ele>
        <time>2020-09-19T09:39:59.000Z</time>
      </trkpt>
      <trkpt lat="47.15967" lon="-1.44753">
        <ele>78</ele>
        <time>2020-09-19T09:40:01.000Z</time>
      </trkpt>
      <trkpt lat="47.15972" lon="-1.44769">
        <ele>78</ele>
        <time>2020-09-19T09:40:03.000Z</time>
      </trkpt>
      <trkpt lat="47.15978" lon="-1.44785">
        <ele>78</ele>
        <time>2020-09-19T09:40:05.000Z</time>
      </trkpt>
      <trkpt lat="47.15984" lon="-1.44801">
        <ele>78</ele>
        <time>2020-09-19T09:40:07.000Z</time>
      </trkpt>
      <trkpt lat="47.15991" lon="-1.44817">
        <ele>78</ele>
        <time>2020-09-19T09:40:09.000Z</time>
      </trkpt>
      <trkpt lat="47.15999" lon="-1.44832">
        <ele>78</ele>
        <time>2020-09-19T09:40:11.000Z</time>
      </trkpt>
      <trkpt lat="47.16008" lon="-1.44847">
        <ele>77</ele>
        <time>2020-09-19T09:40:13.000Z</time>
      </trkpt>
      <trkpt lat="47.16018" lon="-1.44862">
        <ele>78</ele>
        <time>2020-09-19T09:40:15.000Z</time>
      </trkpt>
      <trkpt lat="47.16028" lon="-1.44875">
        <ele>78</ele>
        <time>2020-09-19T09:40:17.000Z</time>
      </trkpt>
      <trkpt lat="47.16038" lon="-1.44886">
        <ele>78</ele>
        <time>2020-09-19T09:40:19.000Z</time>
      </trkpt>
      <trkpt lat="47.16049" lon="-1.44898">
        <ele>78</ele>
        <time>2020-09-19T09:40:21.000Z</time>
      </trkpt>
      <trkpt lat="47.1606" lon="-1.44909">
        <ele>78</ele>
        <time>2020-09-19T09:40:23.000Z</time>
      </trkpt>
      <trkpt lat="47.1607" lon="-1.44922">
        <ele>78</ele>
        <time>2020-09-19T09:40:25.000Z</time>
      </trkpt>
      <trkpt lat="47.16079" lon="-1.44935">
        <ele>78</ele>
        <time>2020-09-19T09:40:27.000Z</time>
      </trkpt>
      <trkpt lat="47.16088" lon="-1.44949">
        <ele>78</ele>
        <time>2020-09-19T09:40:29.000Z</time>
      </trkpt>
      <trkpt lat="47.16096" lon="-1.44965">
        <ele>78</ele>
        <time>2020-09-19T09:40:31.000Z</time>
      </trkpt>
      <trkpt lat="47.16102" lon="-1.44981">
        <ele>78</ele>
        <time>2020-09-19T09:40:33.000Z</time>
      </trkpt>
      <trkpt lat="47.16109" lon="-1.44998">
        <ele>78</ele>
        <time>2020-09-19T09:40:35.000Z</time>
      </trkpt>
      <trkpt lat="47.16115" lon="-1.45014">
        <ele>78</ele>
        <time>2020-09-19T09:40:37.000Z</time>
      </trkpt>
      <trkpt lat="47.16121" lon="-1.45032">
        <ele>79</ele>
        <time>2020-09-19T09:40:39.000Z</time>
      </trkpt>
      <trkpt lat="47.16127" lon="-1.45048">
        <ele>79</ele>
        <time>2020-09-19T09:40:41.000Z</time>
      </trkpt>
      <trkpt lat="47.16132" lon="-1.45065">
        <ele>79</ele>
        <time>2020-09-19T09:40:43.000Z</time>
      </trkpt>
      <trkpt lat="47.16137" lon="-1.45081">
        <ele>80</ele>
        <time>2020-09-19T09:40:45.000Z</time>
      </trkpt>
      <trkpt lat="47.16141" lon="-1.45097">
        <ele>80</ele>
        <time>2020-09-19T09:40:47.000Z</time>
      </trkpt>
      <trkpt lat="47.16144" lon="-1.45114">
        <ele>80</ele>
        <time>2020-09-19T09:40:49.000Z</time>
      </trkpt>
      <trkpt lat="47.16148" lon="-1.45128">
        <ele>81</ele>
        <time>2020-09-19T09:40:51.000Z</time>
      </trkpt>
      <trkpt lat="47.16152" lon="-1.45143">
        <ele>81</ele>
        <time>2020-09-19T09:40:53.000Z</time>
      </trkpt>
      <trkpt lat="47.16159" lon="-1.45155">
        <ele>82</ele>
        <time>2020-09-19T09:40:55.000Z</time>
      </trkpt>
      <trkpt lat="47.16169" lon="-1.45161">
        <ele>83</ele>
        <time>2020-09-19T09:40:57.000Z</time>
      </trkpt>
      <trkpt lat="47.16179" lon="-1.45167">
        <ele>83</ele>
        <time>2020-09-19T09:40:59.000Z</time>
      </trkpt>
      <trkpt lat="47.16189" lon="-1.45174">
        <ele>83</ele>
        <time>2020-09-19T09:41:01.000Z</time>
      </trkpt>
      <trkpt lat="47.16199" lon="-1.4518">
        <ele>84</ele>
        <time>2020-09-19T09:41:03.000Z</time>
      </trkpt>
      <trkpt lat="47.16209" lon="-1.45186">
        <ele>85</ele>
        <time>2020-09-19T09:41:05.000Z</time>
      </trkpt>
      <trkpt lat="47.16219" lon="-1.45192">
        <ele>85</ele>
        <time>2020-09-19T09:41:07.000Z</time>
      </trkpt>
      <trkpt lat="47.16229" lon="-1.45198">
        <ele>85</ele>
        <time>2020-09-19T09:41:09.000Z</time>
      </trkpt>
      <trkpt lat="47.16239" lon="-1.45207">
        <ele>84</ele>
        <time>2020-09-19T09:41:11.000Z</time>
      </trkpt>
      <trkpt lat="47.16246" lon="-1.45217">
        <ele>83</ele>
        <time>2020-09-19T09:41:13.000Z</time>
      </trkpt>
      <trkpt lat="47.16254" lon="-1.45229">
        <ele>83</ele>
        <time>2020-09-19T09:41:15.000Z</time>
      </trkpt>
      <trkpt lat="47.1626" lon="-1.45243">
        <ele>82</ele>
        <time>2020-09-19T09:41:17.000Z</time>
      </trkpt>
      <trkpt lat="47.16265" lon="-1.45259">
        <ele>83</ele>
        <time>2020-09-19T09:41:19.000Z</time>
      </trkpt>
      <trkpt lat="47.1627" lon="-1.45276">
        <ele>83</ele>
        <time>2020-09-19T09:41:21.000Z</time>
      </trkpt>
      <trkpt lat="47.16276" lon="-1.45292">
        <ele>82</ele>
        <time>2020-09-19T09:41:23.000Z</time>
      </trkpt>
      <trkpt lat="47.16283" lon="-1.45308">
        <ele>81</ele>
        <time>2020-09-19T09:41:25.000Z</time>
      </trkpt>
      <trkpt lat="47.16289" lon="-1.45326">
        <ele>81</ele>
        <time>2020-09-19T09:41:27.000Z</time>
      </trkpt>
      <trkpt lat="47.16294" lon="-1.45344">
        <ele>80</ele>
        <time>2020-09-19T09:41:29.000Z</time>
      </trkpt>
      <trkpt lat="47.16298" lon="-1.45365">
        <ele>79</ele>
        <time>2020-09-19T09:41:31.000Z</time>
      </trkpt>
      <trkpt lat="47.163" lon="-1.45388">
        <ele>78</ele>
        <time>2020-09-19T09:41:33.000Z</time>
      </trkpt>
      <trkpt lat="47.16303" lon="-1.45412">
        <ele>77</ele>
        <time>2020-09-19T09:41:35.000Z</time>
      </trkpt>
      <trkpt lat="47.1631" lon="-1.45434">
        <ele>77</ele>
        <time>2020-09-19T09:41:37.000Z</time>
      </trkpt>
      <trkpt lat="47.1632" lon="-1.45455">
        <ele>77</ele>
        <time>2020-09-19T09:41:39.000Z</time>
      </trkpt>
      <trkpt lat="47.16329" lon="-1.45474">
        <ele>77</ele>
        <time>2020-09-19T09:41:41.000Z</time>
      </trkpt>
      <trkpt lat="47.16339" lon="-1.45492">
        <ele>77</ele>
        <time>2020-09-19T09:41:43.000Z</time>
      </trkpt>
      <trkpt lat="47.16349" lon="-1.4551">
        <ele>77</ele>
        <time>2020-09-19T09:41:45.000Z</time>
      </trkpt>
      <trkpt lat="47.16358" lon="-1.45527">
        <ele>77</ele>
        <time>2020-09-19T09:41:47.000Z</time>
      </trkpt>
      <trkpt lat="47.16368" lon="-1.45543">
        <ele>77</ele>
        <time>2020-09-19T09:41:49.000Z</time>
      </trkpt>
      <trkpt lat="47.16377" lon="-1.4556">
        <ele>77</ele>
        <time>2020-09-19T09:41:51.000Z</time>
      </trkpt>
      <trkpt lat="47.16386" lon="-1.45577">
        <ele>77</ele>
        <time>2020-09-19T09:41:53.000Z</time>
      </trkpt>
      <trkpt lat="47.16394" lon="-1.45593">
        <ele>77</ele>
        <time>2020-09-19T09:41:55.000Z</time>
      </trkpt>
      <trkpt lat="47.16401" lon="-1.4561">
        <ele>77</ele>
        <time>2020-09-19T09:41:57.000Z</time>
      </trkpt>
      <trkpt lat="47.16408" lon="-1.45628">
        <ele>77</ele>
        <time>2020-09-19T09:41:59.000Z</time>
      </trkpt>
      <trkpt lat="47.16414" lon="-1.45648">
        <ele>77</ele>
        <time>2020-09-19T09:42:01.000Z</time>
      </trkpt>
      <trkpt lat="47.1642" lon="-1.45667">
        <ele>77</ele>
        <time>2020-09-19T09:42:03.000Z</time>
      </trkpt>
      <trkpt lat="47.16425" lon="-1.45686">
        <ele>77</ele>
        <time>2020-09-19T09:42:05.000Z</time>
      </trkpt>
      <trkpt lat="47.16429" lon="-1.45705">
        <ele>77</ele>
        <time>2020-09-19T09:42:07.000Z</time>
      </trkpt>
      <trkpt lat="47.16434" lon="-1.45724">
        <ele>77</ele>
        <time>2020-09-19T09:42:09.000Z</time>
      </trkpt>
      <trkpt lat="47.16438" lon="-1.45743">
        <ele>77</ele>
        <time>2020-09-19T09:42:11.000Z</time>
      </trkpt>
      <trkpt lat="47.16443" lon="-1.45762">
        <ele>77</ele>
        <time>2020-09-19T09:42:13.000Z</time>
      </trkpt>
      <trkpt lat="47.16448" lon="-1.4578">
        <ele>77</ele>
        <time>2020-09-19T09:42:15.000Z</time>
      </trkpt>
      <trkpt lat="47.16452" lon="-1.45798">
        <ele>76</ele>
        <time>2020-09-19T09:42:17.000Z</time>
      </trkpt>
      <trkpt lat="47.16457" lon="-1.45816">
        <ele>76</ele>
        <time>2020-09-19T09:42:19.000Z</time>
      </trkpt>
      <trkpt lat="47.16461" lon="-1.45834">
        <ele>76</ele>
        <time>2020-09-19T09:42:21.000Z</time>
      </trkpt>
      <trkpt lat="47.16466" lon="-1.45851">
        <ele>76</ele>
        <time>2020-09-19T09:42:23.000Z</time>
      </trkpt>
      <trkpt lat="47.1647" lon="-1.45866">
        <ele>77</ele>
        <time>2020-09-19T09:42:25.000Z</time>
      </trkpt>
      <trkpt lat="47.16476" lon="-1.45882">
        <ele>77</ele>
        <time>2020-09-19T09:42:27.000Z</time>
      </trkpt>
      <trkpt lat="47.1648" lon="-1.45897">
        <ele>78</ele>
        <time>2020-09-19T09:42:29.000Z</time>
      </trkpt>
      <trkpt lat="47.16486" lon="-1.45913">
        <ele>78</ele>
        <time>2020-09-19T09:42:31.000Z</time>
      </trkpt>
      <trkpt lat="47.16491" lon="-1.45928">
        <ele>78</ele>
        <time>2020-09-19T09:42:33.000Z</time>
      </trkpt>
      <trkpt lat="47.16495" lon="-1.45943">
        <ele>79</ele>
        <time>2020-09-19T09:42:35.000Z</time>
      </trkpt>
      <trkpt lat="47.165" lon="-1.45958">
        <ele>78</ele>
        <time>2020-09-19T09:42:37.000Z</time>
      </trkpt>
      <trkpt lat="47.16505" lon="-1.45974">
        <ele>79</ele>
        <time>2020-09-19T09:42:39.000Z</time>
      </trkpt>
      <trkpt lat="47.1651" lon="-1.45989">
        <ele>79</ele>
        <time>2020-09-19T09:42:41.000Z</time>
      </trkpt>
      <trkpt lat="47.16515" lon="-1.46004">
        <ele>80</ele>
        <time>2020-09-19T09:42:43.000Z</time>
      </trkpt>
      <trkpt lat="47.16521" lon="-1.46019">
        <ele>80</ele>
        <time>2020-09-19T09:42:45.000Z</time>
      </trkpt>
      <trkpt lat="47.16529" lon="-1.4603">
        <ele>80</ele>
        <time>2020-09-19T09:42:47.000Z</time>
      </trkpt>
      <trkpt lat="47.1654" lon="-1.46034">
        <ele>81</ele>
        <time>2020-09-19T09:42:49.000Z</time>
      </trkpt>
      <trkpt lat="47.16549" lon="-1.46044">
        <ele>80</ele>
        <time>2020-09-19T09:42:51.000Z</time>
      </trkpt>
      <trkpt lat="47.16556" lon="-1.46059">
        <ele>80</ele>
        <time>2020-09-19T09:42:53.000Z</time>
      </trkpt>
      <trkpt lat="47.1656" lon="-1.46075">
        <ele>80</ele>
        <time>2020-09-19T09:42:55.000Z</time>
      </trkpt>
      <trkpt lat="47.16562" lon="-1.46093">
        <ele>81</ele>
        <time>2020-09-19T09:42:57.000Z</time>
      </trkpt>
      <trkpt lat="47.16566" lon="-1.46108">
        <ele>81</ele>
        <time>2020-09-19T09:42:59.000Z</time>
      </trkpt>
      <trkpt lat="47.16572" lon="-1.46125">
        <ele>82</ele>
        <time>2020-09-19T09:43:01.000Z</time>
      </trkpt>
      <trkpt lat="47.16577" lon="-1.46139">
        <ele>83</ele>
        <time>2020-09-19T09:43:03.000Z</time>
      </trkpt>
      <trkpt lat="47.16585" lon="-1.46154">
        <ele>83</ele>
        <time>2020-09-19T09:43:05.000Z</time>
      </trkpt>
      <trkpt lat="47.16592" lon="-1.46168">
        <ele>83</ele>
        <time>2020-09-19T09:43:07.000Z</time>
      </trkpt>
      <trkpt lat="47.16599" lon="-1.46181">
        <ele>84</ele>
        <time>2020-09-19T09:43:09.000Z</time>
      </trkpt>
      <trkpt lat="47.16606" lon="-1.46194">
        <ele>84</ele>
        <time>2020-09-19T09:43:11.000Z</time>
      </trkpt>
      <trkpt lat="47.16617" lon="-1.46202">
        <ele>84</ele>
        <time>2020-09-19T09:43:13.000Z</time>
      </trkpt>
      <trkpt lat="47.16626" lon="-1.46212">
        <ele>84</ele>
        <time>2020-09-19T09:43:15.000Z</time>
      </trkpt>
      <trkpt lat="47.16629" lon="-1.4623">
        <ele>84</ele>
        <time>2020-09-19T09:43:17.000Z</time>
      </trkpt>
      <trkpt lat="47.16633" lon="-1.46247">
        <ele>84</ele>
        <time>2020-09-19T09:43:19.000Z</time>
      </trkpt>
      <trkpt lat="47.1664" lon="-1.4626">
        <ele>84</ele>
        <time>2020-09-19T09:43:21.000Z</time>
      </trkpt>
      <trkpt lat="47.16649" lon="-1.46274">
        <ele>85</ele>
        <time>2020-09-19T09:43:23.000Z</time>
      </trkpt>
      <trkpt lat="47.16657" lon="-1.46288">
        <ele>85</ele>
        <time>2020-09-19T09:43:25.000Z</time>
      </trkpt>
      <trkpt lat="47.16664" lon="-1.46303">
        <ele>85</ele>
        <time>2020-09-19T09:43:27.000Z</time>
      </trkpt>
      <trkpt lat="47.1667" lon="-1.4632">
        <ele>85</ele>
        <time>2020-09-19T09:43:29.000Z</time>
      </trkpt>
      <trkpt lat="47.16678" lon="-1.46336">
        <ele>86</ele>
        <time>2020-09-19T09:43:31.000Z</time>
      </trkpt>
      <trkpt lat="47.16686" lon="-1.46351">
        <ele>86</ele>
        <time>2020-09-19T09:43:33.000Z</time>
      </trkpt>
      <trkpt lat="47.16694" lon="-1.46366">
        <ele>86</ele>
        <time>2020-09-19T09:43:35.000Z</time>
      </trkpt>
      <trkpt lat="47.16702" lon="-1.46382">
        <ele>86</ele>
        <time>2020-09-19T09:43:37.000Z</time>
      </trkpt>
      <trkpt lat="47.1671" lon="-1.46397">
        <ele>86</ele>
        <time>2020-09-19T09:43:39.000Z</time>
      </trkpt>
      <trkpt lat="47.1672" lon="-1.46413">
        <ele>86</ele>
        <time>2020-09-19T09:43:41.000Z</time>
      </trkpt>
      <trkpt lat="47.16729" lon="-1.46428">
        <ele>85</ele>
        <time>2020-09-19T09:43:43.000Z</time>
      </trkpt>
      <trkpt lat="47.16739" lon="-1.46443">
        <ele>85</ele>
        <time>2020-09-19T09:43:45.000Z</time>
      </trkpt>
      <trkpt lat="47.16749" lon="-1.46458">
        <ele>84</ele>
        <time>2020-09-19T09:43:47.000Z</time>
      </trkpt>
      <trkpt lat="47.1676" lon="-1.46473">
        <ele>84</ele>
        <time>2020-09-19T09:43:49.000Z</time>
      </trkpt>
      <trkpt lat="47.16771" lon="-1.46487">
        <ele>83</ele>
        <time>2020-09-19T09:43:51.000Z</time>
      </trkpt>
      <trkpt lat="47.16781" lon="-1.46501">
        <ele>83</ele>
        <time>2020-09-19T09:43:53.000Z</time>
      </trkpt>
      <trkpt lat="47.16792" lon="-1.46515">
        <ele>83</ele>
        <time>2020-09-19T09:43:55.000Z</time>
      </trkpt>
      <trkpt lat="47.16804" lon="-1.46528">
        <ele>83</ele>
        <time>2020-09-19T09:43:57.000Z</time>
      </trkpt>
      <trkpt lat="47.16815" lon="-1.4654">
        <ele>83</ele>
        <time>2020-09-19T09:43:59.000Z</time>
      </trkpt>
      <trkpt lat="47.16827" lon="-1.46553">
        <ele>83</ele>
        <time>2020-09-19T09:44:01.000Z</time>
      </trkpt>
      <trkpt lat="47.16838" lon="-1.46565">
        <ele>82</ele>
        <time>2020-09-19T09:44:03.000Z</time>
      </trkpt>
      <trkpt lat="47.1685" lon="-1.46577">
        <ele>82</ele>
        <time>2020-09-19T09:44:05.000Z</time>
      </trkpt>
      <trkpt lat="47.16862" lon="-1.46589">
        <ele>81</ele>
        <time>2020-09-19T09:44:07.000Z</time>
      </trkpt>
      <trkpt lat="47.16875" lon="-1.46599">
        <ele>80</ele>
        <time>2020-09-19T09:44:09.000Z</time>
      </trkpt>
      <trkpt lat="47.16888" lon="-1.46611">
        <ele>81</ele>
        <time>2020-09-19T09:44:11.000Z</time>
      </trkpt>
      <trkpt lat="47.16901" lon="-1.46622">
        <ele>80</ele>
        <time>2020-09-19T09:44:13.000Z</time>
      </trkpt>
      <trkpt lat="47.16913" lon="-1.46632">
        <ele>79</ele>
        <time>2020-09-19T09:44:15.000Z</time>
      </trkpt>
      <trkpt lat="47.16926" lon="-1.46642">
        <ele>79</ele>
        <time>2020-09-19T09:44:17.000Z</time>
      </trkpt>
      <trkpt lat="47.16938" lon="-1.46651">
        <ele>79</ele>
        <time>2020-09-19T09:44:19.000Z</time>
      </trkpt>
      <trkpt lat="47.16949" lon="-1.46658">
        <ele>79</ele>
        <time>2020-09-19T09:44:21.000Z</time>
      </trkpt>
      <trkpt lat="47.16961" lon="-1.46662">
        <ele>78</ele>
        <time>2020-09-19T09:44:25.000Z</time>
      </trkpt>
      <trkpt lat="47.16974" lon="-1.46663">
        <ele>79</ele>
        <time>2020-09-19T09:44:28.000Z</time>
      </trkpt>
      <trkpt lat="47.16982" lon="-1.46677">
        <ele>78</ele>
        <time>2020-09-19T09:44:30.000Z</time>
      </trkpt>
      <trkpt lat="47.1699" lon="-1.46693">
        <ele>78</ele>
        <time>2020-09-19T09:44:32.000Z</time>
      </trkpt>
      <trkpt lat="47.17001" lon="-1.46703">
        <ele>77</ele>
        <time>2020-09-19T09:44:34.000Z</time>
      </trkpt>
      <trkpt lat="47.17015" lon="-1.46713">
        <ele>76</ele>
        <time>2020-09-19T09:44:36.000Z</time>
      </trkpt>
      <trkpt lat="47.17028" lon="-1.46724">
        <ele>75</ele>
        <time>2020-09-19T09:44:38.000Z</time>
      </trkpt>
      <trkpt lat="47.17042" lon="-1.46735">
        <ele>75</ele>
        <time>2020-09-19T09:44:40.000Z</time>
      </trkpt>
      <trkpt lat="47.17056" lon="-1.46745">
        <ele>74</ele>
        <time>2020-09-19T09:44:42.000Z</time>
      </trkpt>
      <trkpt lat="47.1707" lon="-1.46759">
        <ele>75</ele>
        <time>2020-09-19T09:44:44.000Z</time>
      </trkpt>
      <trkpt lat="47.17084" lon="-1.46773">
        <ele>74</ele>
        <time>2020-09-19T09:44:46.000Z</time>
      </trkpt>
      <trkpt lat="47.17091" lon="-1.46781">
        <ele>74</ele>
        <time>2020-09-19T09:44:47.000Z</time>
      </trkpt>
      <trkpt lat="47.17105" lon="-1.46795">
        <ele>73</ele>
        <time>2020-09-19T09:44:49.000Z</time>
      </trkpt>
      <trkpt lat="47.1712" lon="-1.46806">
        <ele>72</ele>
        <time>2020-09-19T09:44:51.000Z</time>
      </trkpt>
      <trkpt lat="47.17136" lon="-1.46815">
        <ele>71</ele>
        <time>2020-09-19T09:44:53.000Z</time>
      </trkpt>
      <trkpt lat="47.1714" lon="-1.46828">
        <ele>71</ele>
        <time>2020-09-19T09:44:54.000Z</time>
      </trkpt>
      <trkpt lat="47.17149" lon="-1.46848">
        <ele>70</ele>
        <time>2020-09-19T09:44:56.000Z</time>
      </trkpt>
      <trkpt lat="47.1716" lon="-1.46865">
        <ele>69</ele>
        <time>2020-09-19T09:44:58.000Z</time>
      </trkpt>
      <trkpt lat="47.1717" lon="-1.46882">
        <ele>69</ele>
        <time>2020-09-19T09:45:00.000Z</time>
      </trkpt>
      <trkpt lat="47.1718" lon="-1.46901">
        <ele>69</ele>
        <time>2020-09-19T09:45:02.000Z</time>
      </trkpt>
      <trkpt lat="47.1719" lon="-1.46923">
        <ele>69</ele>
        <time>2020-09-19T09:45:04.000Z</time>
      </trkpt>
      <trkpt lat="47.17199" lon="-1.46944">
        <ele>69</ele>
        <time>2020-09-19T09:45:06.000Z</time>
      </trkpt>
      <trkpt lat="47.17209" lon="-1.46965">
        <ele>68</ele>
        <time>2020-09-19T09:45:08.000Z</time>
      </trkpt>
      <trkpt lat="47.17218" lon="-1.46987">
        <ele>67</ele>
        <time>2020-09-19T09:45:10.000Z</time>
      </trkpt>
      <trkpt lat="47.17226" lon="-1.47008">
        <ele>67</ele>
        <time>2020-09-19T09:45:12.000Z</time>
      </trkpt>
      <trkpt lat="47.17234" lon="-1.4703">
        <ele>66</ele>
        <time>2020-09-19T09:45:14.000Z</time>
      </trkpt>
      <trkpt lat="47.17242" lon="-1.47053">
        <ele>66</ele>
        <time>2020-09-19T09:45:16.000Z</time>
      </trkpt>
      <trkpt lat="47.17248" lon="-1.47076">
        <ele>65</ele>
        <time>2020-09-19T09:45:18.000Z</time>
      </trkpt>
      <trkpt lat="47.17254" lon="-1.47099">
        <ele>65</ele>
        <time>2020-09-19T09:45:20.000Z</time>
      </trkpt>
      <trkpt lat="47.1726" lon="-1.47122">
        <ele>64</ele>
        <time>2020-09-19T09:45:22.000Z</time>
      </trkpt>
      <trkpt lat="47.17265" lon="-1.47144">
        <ele>62</ele>
        <time>2020-09-19T09:45:24.000Z</time>
      </trkpt>
      <trkpt lat="47.17269" lon="-1.47166">
        <ele>62</ele>
        <time>2020-09-19T09:45:26.000Z</time>
      </trkpt>
      <trkpt lat="47.17274" lon="-1.47189">
        <ele>62</ele>
        <time>2020-09-19T09:45:28.000Z</time>
      </trkpt>
      <trkpt lat="47.17279" lon="-1.47213">
        <ele>61</ele>
        <time>2020-09-19T09:45:30.000Z</time>
      </trkpt>
      <trkpt lat="47.17283" lon="-1.47236">
        <ele>60</ele>
        <time>2020-09-19T09:45:32.000Z</time>
      </trkpt>
      <trkpt lat="47.17287" lon="-1.4726">
        <ele>60</ele>
        <time>2020-09-19T09:45:34.000Z</time>
      </trkpt>
      <trkpt lat="47.17292" lon="-1.47282">
        <ele>60</ele>
        <time>2020-09-19T09:45:36.000Z</time>
      </trkpt>
      <trkpt lat="47.17295" lon="-1.47305">
        <ele>60</ele>
        <time>2020-09-19T09:45:38.000Z</time>
      </trkpt>
      <trkpt lat="47.17299" lon="-1.47326">
        <ele>60</ele>
        <time>2020-09-19T09:45:40.000Z</time>
      </trkpt>
      <trkpt lat="47.17303" lon="-1.47347">
        <ele>59</ele>
        <time>2020-09-19T09:45:42.000Z</time>
      </trkpt>
      <trkpt lat="47.1731" lon="-1.47361">
        <ele>58</ele>
        <time>2020-09-19T09:45:44.000Z</time>
      </trkpt>
      <trkpt lat="47.17321" lon="-1.47366">
        <ele>59</ele>
        <time>2020-09-19T09:45:46.000Z</time>
      </trkpt>
      <trkpt lat="47.17336" lon="-1.47364">
        <ele>58</ele>
        <time>2020-09-19T09:45:48.000Z</time>
      </trkpt>
      <trkpt lat="47.17352" lon="-1.4736">
        <ele>58</ele>
        <time>2020-09-19T09:45:50.000Z</time>
      </trkpt>
      <trkpt lat="47.17368" lon="-1.47357">
        <ele>58</ele>
        <time>2020-09-19T09:45:52.000Z</time>
      </trkpt>
      <trkpt lat="47.17384" lon="-1.47354">
        <ele>58</ele>
        <time>2020-09-19T09:45:54.000Z</time>
      </trkpt>
      <trkpt lat="47.174" lon="-1.47353">
        <ele>58</ele>
        <time>2020-09-19T09:45:56.000Z</time>
      </trkpt>
      <trkpt lat="47.17416" lon="-1.47351">
        <ele>58</ele>
        <time>2020-09-19T09:45:58.000Z</time>
      </trkpt>
      <trkpt lat="47.17432" lon="-1.47348">
        <ele>58</ele>
        <time>2020-09-19T09:46:00.000Z</time>
      </trkpt>
      <trkpt lat="47.17449" lon="-1.47348">
        <ele>57</ele>
        <time>2020-09-19T09:46:02.000Z</time>
      </trkpt>
      <trkpt lat="47.17466" lon="-1.47349">
        <ele>57</ele>
        <time>2020-09-19T09:46:04.000Z</time>
      </trkpt>
      <trkpt lat="47.17482" lon="-1.4735">
        <ele>56</ele>
        <time>2020-09-19T09:46:06.000Z</time>
      </trkpt>
      <trkpt lat="47.17499" lon="-1.47351">
        <ele>56</ele>
        <time>2020-09-19T09:46:08.000Z</time>
      </trkpt>
      <trkpt lat="47.17517" lon="-1.47351">
        <ele>56</ele>
        <time>2020-09-19T09:46:10.000Z</time>
      </trkpt>
      <trkpt lat="47.17534" lon="-1.47351">
        <ele>56</ele>
        <time>2020-09-19T09:46:12.000Z</time>
      </trkpt>
      <trkpt lat="47.17551" lon="-1.47352">
        <ele>56</ele>
        <time>2020-09-19T09:46:14.000Z</time>
      </trkpt>
      <trkpt lat="47.17568" lon="-1.47354">
        <ele>55</ele>
        <time>2020-09-19T09:46:16.000Z</time>
      </trkpt>
      <trkpt lat="47.17584" lon="-1.47357">
        <ele>55</ele>
        <time>2020-09-19T09:46:18.000Z</time>
      </trkpt>
      <trkpt lat="47.17601" lon="-1.4736">
        <ele>54</ele>
        <time>2020-09-19T09:46:20.000Z</time>
      </trkpt>
      <trkpt lat="47.17616" lon="-1.47364">
        <ele>54</ele>
        <time>2020-09-19T09:46:22.000Z</time>
      </trkpt>
      <trkpt lat="47.17632" lon="-1.47368">
        <ele>54</ele>
        <time>2020-09-19T09:46:24.000Z</time>
      </trkpt>
      <trkpt lat="47.17647" lon="-1.47375">
        <ele>54</ele>
        <time>2020-09-19T09:46:26.000Z</time>
      </trkpt>
      <trkpt lat="47.17662" lon="-1.47382">
        <ele>55</ele>
        <time>2020-09-19T09:46:28.000Z</time>
      </trkpt>
      <trkpt lat="47.17675" lon="-1.4739">
        <ele>55</ele>
        <time>2020-09-19T09:46:30.000Z</time>
      </trkpt>
      <trkpt lat="47.17689" lon="-1.47396">
        <ele>56</ele>
        <time>2020-09-19T09:46:32.000Z</time>
      </trkpt>
      <trkpt lat="47.17702" lon="-1.47403">
        <ele>56</ele>
        <time>2020-09-19T09:46:34.000Z</time>
      </trkpt>
      <trkpt lat="47.17715" lon="-1.47409">
        <ele>57</ele>
        <time>2020-09-19T09:46:36.000Z</time>
      </trkpt>
      <trkpt lat="47.17729" lon="-1.47415">
        <ele>56</ele>
        <time>2020-09-19T09:46:38.000Z</time>
      </trkpt>
      <trkpt lat="47.17742" lon="-1.47423">
        <ele>56</ele>
        <time>2020-09-19T09:46:40.000Z</time>
      </trkpt>
      <trkpt lat="47.17756" lon="-1.47431">
        <ele>57</ele>
        <time>2020-09-19T09:46:42.000Z</time>
      </trkpt>
      <trkpt lat="47.1777" lon="-1.47439">
        <ele>57</ele>
        <time>2020-09-19T09:46:44.000Z</time>
      </trkpt>
      <trkpt lat="47.17785" lon="-1.47446">
        <ele>57</ele>
        <time>2020-09-19T09:46:46.000Z</time>
      </trkpt>
      <trkpt lat="47.178" lon="-1.47452">
        <ele>56</ele>
        <time>2020-09-19T09:46:48.000Z</time>
      </trkpt>
      <trkpt lat="47.17815" lon="-1.47457">
        <ele>56</ele>
        <time>2020-09-19T09:46:50.000Z</time>
      </trkpt>
      <trkpt lat="47.17829" lon="-1.47461">
        <ele>56</ele>
        <time>2020-09-19T09:46:52.000Z</time>
      </trkpt>
      <trkpt lat="47.17843" lon="-1.47465">
        <ele>56</ele>
        <time>2020-09-19T09:46:54.000Z</time>
      </trkpt>
      <trkpt lat="47.17857" lon="-1.47469">
        <ele>56</ele>
        <time>2020-09-19T09:46:56.000Z</time>
      </trkpt>
      <trkpt lat="47.1787" lon="-1.47473">
        <ele>56</ele>
        <time>2020-09-19T09:46:58.000Z</time>
      </trkpt>
      <trkpt lat="47.17882" lon="-1.47474">
        <ele>56</ele>
        <time>2020-09-19T09:47:00.000Z</time>
      </trkpt>
      <trkpt lat="47.17894" lon="-1.4747">
        <ele>56</ele>
        <time>2020-09-19T09:47:02.000Z</time>
      </trkpt>
      <trkpt lat="47.17906" lon="-1.47464">
        <ele>56</ele>
        <time>2020-09-19T09:47:04.000Z</time>
      </trkpt>
      <trkpt lat="47.1792" lon="-1.47469">
        <ele>56</ele>
        <time>2020-09-19T09:47:06.000Z</time>
      </trkpt>
      <trkpt lat="47.1793" lon="-1.47484">
        <ele>55</ele>
        <time>2020-09-19T09:47:08.000Z</time>
      </trkpt>
      <trkpt lat="47.17944" lon="-1.47491">
        <ele>55</ele>
        <time>2020-09-19T09:47:10.000Z</time>
      </trkpt>
      <trkpt lat="47.17957" lon="-1.47493">
        <ele>54</ele>
        <time>2020-09-19T09:47:12.000Z</time>
      </trkpt>
      <trkpt lat="47.17969" lon="-1.47496">
        <ele>55</ele>
        <time>2020-09-19T09:47:14.000Z</time>
      </trkpt>
      <trkpt lat="47.17982" lon="-1.475">
        <ele>55</ele>
        <time>2020-09-19T09:47:16.000Z</time>
      </trkpt>
      <trkpt lat="47.17995" lon="-1.47503">
        <ele>55</ele>
        <time>2020-09-19T09:47:18.000Z</time>
      </trkpt>
      <trkpt lat="47.18007" lon="-1.47506">
        <ele>55</ele>
        <time>2020-09-19T09:47:20.000Z</time>
      </trkpt>
      <trkpt lat="47.1802" lon="-1.4751">
        <ele>56</ele>
        <time>2020-09-19T09:47:22.000Z</time>
      </trkpt>
      <trkpt lat="47.18031" lon="-1.47512">
        <ele>56</ele>
        <time>2020-09-19T09:47:24.000Z</time>
      </trkpt>
      <trkpt lat="47.18044" lon="-1.47515">
        <ele>56</ele>
        <time>2020-09-19T09:47:26.000Z</time>
      </trkpt>
      <trkpt lat="47.18056" lon="-1.47518">
        <ele>57</ele>
        <time>2020-09-19T09:47:28.000Z</time>
      </trkpt>
      <trkpt lat="47.18069" lon="-1.47522">
        <ele>57</ele>
        <time>2020-09-19T09:47:30.000Z</time>
      </trkpt>
      <trkpt lat="47.18082" lon="-1.47525">
        <ele>57</ele>
        <time>2020-09-19T09:47:32.000Z</time>
      </trkpt>
      <trkpt lat="47.18093" lon="-1.47528">
        <ele>57</ele>
        <time>2020-09-19T09:47:34.000Z</time>
      </trkpt>
      <trkpt lat="47.18106" lon="-1.47532">
        <ele>57</ele>
        <time>2020-09-19T09:47:36.000Z</time>
      </trkpt>
      <trkpt lat="47.18119" lon="-1.47535">
        <ele>57</ele>
        <time>2020-09-19T09:47:38.000Z</time>
      </trkpt>
      <trkpt lat="47.18131" lon="-1.47538">
        <ele>58</ele>
        <time>2020-09-19T09:47:40.000Z</time>
      </trkpt>
      <trkpt lat="47.18143" lon="-1.47542">
        <ele>58</ele>
        <time>2020-09-19T09:47:42.000Z</time>
      </trkpt>
      <trkpt lat="47.18156" lon="-1.47544">
        <ele>59</ele>
        <time>2020-09-19T09:47:44.000Z</time>
      </trkpt>
      <trkpt lat="47.18168" lon="-1.47548">
        <ele>59</ele>
        <time>2020-09-19T09:47:46.000Z</time>
      </trkpt>
      <trkpt lat="47.1818" lon="-1.4755">
        <ele>59</ele>
        <time>2020-09-19T09:47:48.000Z</time>
      </trkpt>
      <trkpt lat="47.18192" lon="-1.47554">
        <ele>60</ele>
        <time>2020-09-19T09:47:50.000Z</time>
      </trkpt>
      <trkpt lat="47.18204" lon="-1.47556">
        <ele>60</ele>
        <time>2020-09-19T09:47:52.000Z</time>
      </trkpt>
      <trkpt lat="47.18216" lon="-1.47559">
        <ele>60</ele>
        <time>2020-09-19T09:47:54.000Z</time>
      </trkpt>
      <trkpt lat="47.18229" lon="-1.47563">
        <ele>60</ele>
        <time>2020-09-19T09:47:56.000Z</time>
      </trkpt>
      <trkpt lat="47.18241" lon="-1.47566">
        <ele>60</ele>
        <time>2020-09-19T09:47:58.000Z</time>
      </trkpt>
      <trkpt lat="47.18252" lon="-1.4757">
        <ele>61</ele>
        <time>2020-09-19T09:48:00.000Z</time>
      </trkpt>
      <trkpt lat="47.18264" lon="-1.47573">
        <ele>61</ele>
        <time>2020-09-19T09:48:02.000Z</time>
      </trkpt>
      <trkpt lat="47.18276" lon="-1.47576">
        <ele>62</ele>
        <time>2020-09-19T09:48:04.000Z</time>
      </trkpt>
      <trkpt lat="47.18288" lon="-1.47579">
        <ele>62</ele>
        <time>2020-09-19T09:48:06.000Z</time>
      </trkpt>
      <trkpt lat="47.183" lon="-1.47584">
        <ele>62</ele>
        <time>2020-09-19T09:48:08.000Z</time>
      </trkpt>
      <trkpt lat="47.18311" lon="-1.47587">
        <ele>63</ele>
        <time>2020-09-19T09:48:10.000Z</time>
      </trkpt>
      <trkpt lat="47.18322" lon="-1.4759">
        <ele>63</ele>
        <time>2020-09-19T09:48:12.000Z</time>
      </trkpt>
      <trkpt lat="47.18333" lon="-1.47593">
        <ele>64</ele>
        <time>2020-09-19T09:48:14.000Z</time>
      </trkpt>
      <trkpt lat="47.18343" lon="-1.47596">
        <ele>65</ele>
        <time>2020-09-19T09:48:16.000Z</time>
      </trkpt>
      <trkpt lat="47.18353" lon="-1.47599">
        <ele>65</ele>
        <time>2020-09-19T09:48:18.000Z</time>
      </trkpt>
      <trkpt lat="47.18363" lon="-1.476">
        <ele>65</ele>
        <time>2020-09-19T09:48:20.000Z</time>
      </trkpt>
      <trkpt lat="47.18372" lon="-1.47601">
        <ele>65</ele>
        <time>2020-09-19T09:48:22.000Z</time>
      </trkpt>
      <trkpt lat="47.18382" lon="-1.47603">
        <ele>65</ele>
        <time>2020-09-19T09:48:24.000Z</time>
      </trkpt>
      <trkpt lat="47.18393" lon="-1.47606">
        <ele>65</ele>
        <time>2020-09-19T09:48:26.000Z</time>
      </trkpt>
      <trkpt lat="47.18403" lon="-1.47607">
        <ele>65</ele>
        <time>2020-09-19T09:48:28.000Z</time>
      </trkpt>
      <trkpt lat="47.18414" lon="-1.47611">
        <ele>66</ele>
        <time>2020-09-19T09:48:30.000Z</time>
      </trkpt>
      <trkpt lat="47.18424" lon="-1.47614">
        <ele>67</ele>
        <time>2020-09-19T09:48:32.000Z</time>
      </trkpt>
      <trkpt lat="47.18434" lon="-1.47617">
        <ele>67</ele>
        <time>2020-09-19T09:48:34.000Z</time>
      </trkpt>
      <trkpt lat="47.18445" lon="-1.4762">
        <ele>67</ele>
        <time>2020-09-19T09:48:36.000Z</time>
      </trkpt>
      <trkpt lat="47.18455" lon="-1.47623">
        <ele>68</ele>
        <time>2020-09-19T09:48:38.000Z</time>
      </trkpt>
      <trkpt lat="47.18464" lon="-1.47626">
        <ele>68</ele>
        <time>2020-09-19T09:48:40.000Z</time>
      </trkpt>
      <trkpt lat="47.18474" lon="-1.47628">
        <ele>69</ele>
        <time>2020-09-19T09:48:42.000Z</time>
      </trkpt>
      <trkpt lat="47.18484" lon="-1.47631">
        <ele>69</ele>
        <time>2020-09-19T09:48:44.000Z</time>
      </trkpt>
      <trkpt lat="47.18494" lon="-1.47634">
        <ele>70</ele>
        <time>2020-09-19T09:48:46.000Z</time>
      </trkpt>
      <trkpt lat="47.18503" lon="-1.47637">
        <ele>70</ele>
        <time>2020-09-19T09:48:48.000Z</time>
      </trkpt>
      <trkpt lat="47.18514" lon="-1.47639">
        <ele>71</ele>
        <time>2020-09-19T09:48:50.000Z</time>
      </trkpt>
      <trkpt lat="47.18524" lon="-1.47642">
        <ele>71</ele>
        <time>2020-09-19T09:48:52.000Z</time>
      </trkpt>
      <trkpt lat="47.18535" lon="-1.47645">
        <ele>71</ele>
        <time>2020-09-19T09:48:54.000Z</time>
      </trkpt>
      <trkpt lat="47.18544" lon="-1.47647">
        <ele>72</ele>
        <time>2020-09-19T09:48:56.000Z</time>
      </trkpt>
      <trkpt lat="47.18553" lon="-1.47651">
        <ele>72</ele>
        <time>2020-09-19T09:48:58.000Z</time>
      </trkpt>
      <trkpt lat="47.18562" lon="-1.47654">
        <ele>72</ele>
        <time>2020-09-19T09:49:00.000Z</time>
      </trkpt>
      <trkpt lat="47.18572" lon="-1.47656">
        <ele>73</ele>
        <time>2020-09-19T09:49:02.000Z</time>
      </trkpt>
      <trkpt lat="47.18585" lon="-1.47659">
        <ele>73</ele>
        <time>2020-09-19T09:49:05.000Z</time>
      </trkpt>
      <trkpt lat="47.18594" lon="-1.47661">
        <ele>73</ele>
        <time>2020-09-19T09:49:07.000Z</time>
      </trkpt>
      <trkpt lat="47.18603" lon="-1.47663">
        <ele>73</ele>
        <time>2020-09-19T09:49:09.000Z</time>
      </trkpt>
      <trkpt lat="47.18611" lon="-1.47667">
        <ele>73</ele>
        <time>2020-09-19T09:49:11.000Z</time>
      </trkpt>
      <trkpt lat="47.18621" lon="-1.47671">
        <ele>73</ele>
        <time>2020-09-19T09:49:14.000Z</time>
      </trkpt>
      <trkpt lat="47.18632" lon="-1.47673">
        <ele>73</ele>
        <time>2020-09-19T09:49:18.000Z</time>
      </trkpt>
      <trkpt lat="47.18644" lon="-1.47675">
        <ele>74</ele>
        <time>2020-09-19T09:49:21.000Z</time>
      </trkpt>
      <trkpt lat="47.18654" lon="-1.47677">
        <ele>75</ele>
        <time>2020-09-19T09:49:23.000Z</time>
      </trkpt>
      <trkpt lat="47.18665" lon="-1.4768">
        <ele>75</ele>
        <time>2020-09-19T09:49:25.000Z</time>
      </trkpt>
      <trkpt lat="47.18677" lon="-1.47683">
        <ele>76</ele>
        <time>2020-09-19T09:49:27.000Z</time>
      </trkpt>
      <trkpt lat="47.18692" lon="-1.47682">
        <ele>76</ele>
        <time>2020-09-19T09:49:29.000Z</time>
      </trkpt>
      <trkpt lat="47.18704" lon="-1.47679">
        <ele>76</ele>
        <time>2020-09-19T09:49:31.000Z</time>
      </trkpt>
      <trkpt lat="47.18715" lon="-1.47669">
        <ele>77</ele>
        <time>2020-09-19T09:49:33.000Z</time>
      </trkpt>
      <trkpt lat="47.1872" lon="-1.47651">
        <ele>77</ele>
        <time>2020-09-19T09:49:35.000Z</time>
      </trkpt>
      <trkpt lat="47.18726" lon="-1.47634">
        <ele>77</ele>
        <time>2020-09-19T09:49:37.000Z</time>
      </trkpt>
      <trkpt lat="47.18733" lon="-1.47619">
        <ele>77</ele>
        <time>2020-09-19T09:49:39.000Z</time>
      </trkpt>
      <trkpt lat="47.1874" lon="-1.47603">
        <ele>78</ele>
        <time>2020-09-19T09:49:41.000Z</time>
      </trkpt>
      <trkpt lat="47.18748" lon="-1.47587">
        <ele>78</ele>
        <time>2020-09-19T09:49:43.000Z</time>
      </trkpt>
      <trkpt lat="47.18754" lon="-1.47573">
        <ele>79</ele>
        <time>2020-09-19T09:49:45.000Z</time>
      </trkpt>
      <trkpt lat="47.18761" lon="-1.4756">
        <ele>79</ele>
        <time>2020-09-19T09:49:47.000Z</time>
      </trkpt>
      <trkpt lat="47.18769" lon="-1.47545">
        <ele>78</ele>
        <time>2020-09-19T09:49:49.000Z</time>
      </trkpt>
      <trkpt lat="47.18775" lon="-1.47531">
        <ele>78</ele>
        <time>2020-09-19T09:49:51.000Z</time>
      </trkpt>
      <trkpt lat="47.18782" lon="-1.47517">
        <ele>78</ele>
        <time>2020-09-19T09:49:53.000Z</time>
      </trkpt>
      <trkpt lat="47.18789" lon="-1.47503">
        <ele>78</ele>
        <time>2020-09-19T09:49:55.000Z</time>
      </trkpt>
      <trkpt lat="47.18796" lon="-1.47488">
        <ele>78</ele>
        <time>2020-09-19T09:49:57.000Z</time>
      </trkpt>
      <trkpt lat="47.18803" lon="-1.47473">
        <ele>78</ele>
        <time>2020-09-19T09:49:59.000Z</time>
      </trkpt>
      <trkpt lat="47.1881" lon="-1.47458">
        <ele>78</ele>
        <time>2020-09-19T09:50:01.000Z</time>
      </trkpt>
      <trkpt lat="47.18817" lon="-1.47445">
        <ele>79</ele>
        <time>2020-09-19T09:50:03.000Z</time>
      </trkpt>
      <trkpt lat="47.18825" lon="-1.47431">
        <ele>79</ele>
        <time>2020-09-19T09:50:05.000Z</time>
      </trkpt>
      <trkpt lat="47.18831" lon="-1.47416">
        <ele>79</ele>
        <time>2020-09-19T09:50:07.000Z</time>
      </trkpt>
      <trkpt lat="47.18838" lon="-1.47403">
        <ele>80</ele>
        <time>2020-09-19T09:50:09.000Z</time>
      </trkpt>
      <trkpt lat="47.18844" lon="-1.47389">
        <ele>80</ele>
        <time>2020-09-19T09:50:11.000Z</time>
      </trkpt>
      <trkpt lat="47.18851" lon="-1.47374">
        <ele>80</ele>
        <time>2020-09-19T09:50:13.000Z</time>
      </trkpt>
      <trkpt lat="47.18858" lon="-1.4736">
        <ele>80</ele>
        <time>2020-09-19T09:50:15.000Z</time>
      </trkpt>
      <trkpt lat="47.18865" lon="-1.47346">
        <ele>80</ele>
        <time>2020-09-19T09:50:17.000Z</time>
      </trkpt>
      <trkpt lat="47.18871" lon="-1.47332">
        <ele>82</ele>
        <time>2020-09-19T09:50:19.000Z</time>
      </trkpt>
      <trkpt lat="47.18877" lon="-1.47318">
        <ele>82</ele>
        <time>2020-09-19T09:50:21.000Z</time>
      </trkpt>
      <trkpt lat="47.18884" lon="-1.47305">
        <ele>82</ele>
        <time>2020-09-19T09:50:23.000Z</time>
      </trkpt>
      <trkpt lat="47.1889" lon="-1.4729">
        <ele>82</ele>
        <time>2020-09-19T09:50:25.000Z</time>
      </trkpt>
      <trkpt lat="47.18897" lon="-1.47277">
        <ele>83</ele>
        <time>2020-09-19T09:50:27.000Z</time>
      </trkpt>
      <trkpt lat="47.18903" lon="-1.47264">
        <ele>83</ele>
        <time>2020-09-19T09:50:29.000Z</time>
      </trkpt>
      <trkpt lat="47.18909" lon="-1.47251">
        <ele>83</ele>
        <time>2020-09-19T09:50:31.000Z</time>
      </trkpt>
      <trkpt lat="47.18915" lon="-1.47239">
        <ele>84</ele>
        <time>2020-09-19T09:50:33.000Z</time>
      </trkpt>
      <trkpt lat="47.18921" lon="-1.47227">
        <ele>84</ele>
        <time>2020-09-19T09:50:35.000Z</time>
      </trkpt>
      <trkpt lat="47.18926" lon="-1.47214">
        <ele>83</ele>
        <time>2020-09-19T09:50:37.000Z</time>
      </trkpt>
      <trkpt lat="47.18928" lon="-1.47198">
        <ele>83</ele>
        <time>2020-09-19T09:50:39.000Z</time>
      </trkpt>
      <trkpt lat="47.18933" lon="-1.47182">
        <ele>82</ele>
        <time>2020-09-19T09:50:41.000Z</time>
      </trkpt>
      <trkpt lat="47.18943" lon="-1.47171">
        <ele>82</ele>
        <time>2020-09-19T09:50:43.000Z</time>
      </trkpt>
      <trkpt lat="47.18952" lon="-1.47159">
        <ele>82</ele>
        <time>2020-09-19T09:50:45.000Z</time>
      </trkpt>
      <trkpt lat="47.18959" lon="-1.47145">
        <ele>82</ele>
        <time>2020-09-19T09:50:47.000Z</time>
      </trkpt>
      <trkpt lat="47.18966" lon="-1.47131">
        <ele>82</ele>
        <time>2020-09-19T09:50:49.000Z</time>
      </trkpt>
      <trkpt lat="47.18973" lon="-1.47115">
        <ele>82</ele>
        <time>2020-09-19T09:50:51.000Z</time>
      </trkpt>
      <trkpt lat="47.1898" lon="-1.471">
        <ele>82</ele>
        <time>2020-09-19T09:50:53.000Z</time>
      </trkpt>
      <trkpt lat="47.18988" lon="-1.47084">
        <ele>82</ele>
        <time>2020-09-19T09:50:55.000Z</time>
      </trkpt>
      <trkpt lat="47.18997" lon="-1.47065">
        <ele>80</ele>
        <time>2020-09-19T09:50:57.000Z</time>
      </trkpt>
      <trkpt lat="47.19006" lon="-1.47047">
        <ele>80</ele>
        <time>2020-09-19T09:50:59.000Z</time>
      </trkpt>
      <trkpt lat="47.19014" lon="-1.47032">
        <ele>80</ele>
        <time>2020-09-19T09:51:01.000Z</time>
      </trkpt>
      <trkpt lat="47.19022" lon="-1.47015">
        <ele>79</ele>
        <time>2020-09-19T09:51:03.000Z</time>
      </trkpt>
      <trkpt lat="47.1903" lon="-1.46998">
        <ele>79</ele>
        <time>2020-09-19T09:51:05.000Z</time>
      </trkpt>
      <trkpt lat="47.19038" lon="-1.46981">
        <ele>78</ele>
        <time>2020-09-19T09:51:07.000Z</time>
      </trkpt>
      <trkpt lat="47.19046" lon="-1.46964">
        <ele>78</ele>
        <time>2020-09-19T09:51:09.000Z</time>
      </trkpt>
      <trkpt lat="47.19054" lon="-1.46948">
        <ele>78</ele>
        <time>2020-09-19T09:51:11.000Z</time>
      </trkpt>
      <trkpt lat="47.19062" lon="-1.46933">
        <ele>78</ele>
        <time>2020-09-19T09:51:13.000Z</time>
      </trkpt>
      <trkpt lat="47.1907" lon="-1.46917">
        <ele>78</ele>
        <time>2020-09-19T09:51:15.000Z</time>
      </trkpt>
      <trkpt lat="47.19077" lon="-1.46901">
        <ele>78</ele>
        <time>2020-09-19T09:51:17.000Z</time>
      </trkpt>
      <trkpt lat="47.19084" lon="-1.46886">
        <ele>78</ele>
        <time>2020-09-19T09:51:19.000Z</time>
      </trkpt>
      <trkpt lat="47.19091" lon="-1.46872">
        <ele>78</ele>
        <time>2020-09-19T09:51:21.000Z</time>
      </trkpt>
      <trkpt lat="47.19098" lon="-1.46857">
        <ele>78</ele>
        <time>2020-09-19T09:51:23.000Z</time>
      </trkpt>
      <trkpt lat="47.19105" lon="-1.46842">
        <ele>78</ele>
        <time>2020-09-19T09:51:25.000Z</time>
      </trkpt>
      <trkpt lat="47.19112" lon="-1.46826">
        <ele>78</ele>
        <time>2020-09-19T09:51:27.000Z</time>
      </trkpt>
      <trkpt lat="47.19119" lon="-1.46812">
        <ele>78</ele>
        <time>2020-09-19T09:51:29.000Z</time>
      </trkpt>
      <trkpt lat="47.19127" lon="-1.46797">
        <ele>78</ele>
        <time>2020-09-19T09:51:31.000Z</time>
      </trkpt>
      <trkpt lat="47.19133" lon="-1.46782">
        <ele>78</ele>
        <time>2020-09-19T09:51:33.000Z</time>
      </trkpt>
      <trkpt lat="47.19141" lon="-1.46767">
        <ele>78</ele>
        <time>2020-09-19T09:51:35.000Z</time>
      </trkpt>
      <trkpt lat="47.19148" lon="-1.46751">
        <ele>79</ele>
        <time>2020-09-19T09:51:37.000Z</time>
      </trkpt>
      <trkpt lat="47.19155" lon="-1.46736">
        <ele>79</ele>
        <time>2020-09-19T09:51:39.000Z</time>
      </trkpt>
      <trkpt lat="47.19162" lon="-1.46721">
        <ele>79</ele>
        <time>2020-09-19T09:51:41.000Z</time>
      </trkpt>
      <trkpt lat="47.1917" lon="-1.46705">
        <ele>79</ele>
        <time>2020-09-19T09:51:43.000Z</time>
      </trkpt>
      <trkpt lat="47.19177" lon="-1.46689">
        <ele>79</ele>
        <time>2020-09-19T09:51:45.000Z</time>
      </trkpt>
      <trkpt lat="47.19184" lon="-1.46674">
        <ele>80</ele>
        <time>2020-09-19T09:51:47.000Z</time>
      </trkpt>
      <trkpt lat="47.19192" lon="-1.46658">
        <ele>80</ele>
        <time>2020-09-19T09:51:49.000Z</time>
      </trkpt>
      <trkpt lat="47.192" lon="-1.46642">
        <ele>80</ele>
        <time>2020-09-19T09:51:51.000Z</time>
      </trkpt>
      <trkpt lat="47.19208" lon="-1.46626">
        <ele>80</ele>
        <time>2020-09-19T09:51:53.000Z</time>
      </trkpt>
      <trkpt lat="47.19215" lon="-1.4661">
        <ele>80</ele>
        <time>2020-09-19T09:51:55.000Z</time>
      </trkpt>
      <trkpt lat="47.19222" lon="-1.46595">
        <ele>80</ele>
        <time>2020-09-19T09:51:57.000Z</time>
      </trkpt>
      <trkpt lat="47.1923" lon="-1.4658">
        <ele>79</ele>
        <time>2020-09-19T09:51:59.000Z</time>
      </trkpt>
      <trkpt lat="47.19238" lon="-1.46564">
        <ele>79</ele>
        <time>2020-09-19T09:52:01.000Z</time>
      </trkpt>
      <trkpt lat="47.19245" lon="-1.46548">
        <ele>79</ele>
        <time>2020-09-19T09:52:03.000Z</time>
      </trkpt>
      <trkpt lat="47.19252" lon="-1.46533">
        <ele>79</ele>
        <time>2020-09-19T09:52:05.000Z</time>
      </trkpt>
      <trkpt lat="47.1926" lon="-1.46518">
        <ele>80</ele>
        <time>2020-09-19T09:52:07.000Z</time>
      </trkpt>
      <trkpt lat="47.19267" lon="-1.46503">
        <ele>80</ele>
        <time>2020-09-19T09:52:09.000Z</time>
      </trkpt>
      <trkpt lat="47.19274" lon="-1.46488">
        <ele>79</ele>
        <time>2020-09-19T09:52:11.000Z</time>
      </trkpt>
      <trkpt lat="47.19281" lon="-1.46473">
        <ele>79</ele>
        <time>2020-09-19T09:52:13.000Z</time>
      </trkpt>
      <trkpt lat="47.19288" lon="-1.46458">
        <ele>79</ele>
        <time>2020-09-19T09:52:15.000Z</time>
      </trkpt>
      <trkpt lat="47.19295" lon="-1.46443">
        <ele>79</ele>
        <time>2020-09-19T09:52:17.000Z</time>
      </trkpt>
      <trkpt lat="47.19303" lon="-1.46427">
        <ele>79</ele>
        <time>2020-09-19T09:52:19.000Z</time>
      </trkpt>
      <trkpt lat="47.1931" lon="-1.46412">
        <ele>80</ele>
        <time>2020-09-19T09:52:21.000Z</time>
      </trkpt>
      <trkpt lat="47.19318" lon="-1.46397">
        <ele>80</ele>
        <time>2020-09-19T09:52:23.000Z</time>
      </trkpt>
      <trkpt lat="47.19324" lon="-1.46382">
        <ele>80</ele>
        <time>2020-09-19T09:52:25.000Z</time>
      </trkpt>
      <trkpt lat="47.19331" lon="-1.46367">
        <ele>80</ele>
        <time>2020-09-19T09:52:27.000Z</time>
      </trkpt>
      <trkpt lat="47.19338" lon="-1.46352">
        <ele>80</ele>
        <time>2020-09-19T09:52:29.000Z</time>
      </trkpt>
      <trkpt lat="47.19344" lon="-1.46336">
        <ele>80</ele>
        <time>2020-09-19T09:52:31.000Z</time>
      </trkpt>
      <trkpt lat="47.19349" lon="-1.46323">
        <ele>79</ele>
        <time>2020-09-19T09:52:34.000Z</time>
      </trkpt>
      <trkpt lat="47.19353" lon="-1.46304">
        <ele>80</ele>
        <time>2020-09-19T09:52:39.000Z</time>
      </trkpt>
      <trkpt lat="47.19359" lon="-1.46291">
        <ele>79</ele>
        <time>2020-09-19T09:52:41.000Z</time>
      </trkpt>
      <trkpt lat="47.19371" lon="-1.46291">
        <ele>79</ele>
        <time>2020-09-19T09:52:43.000Z</time>
      </trkpt>
      <trkpt lat="47.19382" lon="-1.46302">
        <ele>78</ele>
        <time>2020-09-19T09:52:45.000Z</time>
      </trkpt>
      <trkpt lat="47.19395" lon="-1.46314">
        <ele>77</ele>
        <time>2020-09-19T09:52:47.000Z</time>
      </trkpt>
      <trkpt lat="47.19408" lon="-1.46323">
        <ele>77</ele>
        <time>2020-09-19T09:52:49.000Z</time>
      </trkpt>
      <trkpt lat="47.19421" lon="-1.4633">
        <ele>77</ele>
        <time>2020-09-19T09:52:51.000Z</time>
      </trkpt>
      <trkpt lat="47.19434" lon="-1.46336">
        <ele>76</ele>
        <time>2020-09-19T09:52:53.000Z</time>
      </trkpt>
      <trkpt lat="47.19448" lon="-1.46343">
        <ele>77</ele>
        <time>2020-09-19T09:52:55.000Z</time>
      </trkpt>
      <trkpt lat="47.19461" lon="-1.46349">
        <ele>77</ele>
        <time>2020-09-19T09:52:57.000Z</time>
      </trkpt>
      <trkpt lat="47.19475" lon="-1.46355">
        <ele>77</ele>
        <time>2020-09-19T09:52:59.000Z</time>
      </trkpt>
      <trkpt lat="47.19488" lon="-1.46362">
        <ele>77</ele>
        <time>2020-09-19T09:53:01.000Z</time>
      </trkpt>
      <trkpt lat="47.19502" lon="-1.46368">
        <ele>77</ele>
        <time>2020-09-19T09:53:03.000Z</time>
      </trkpt>
      <trkpt lat="47.19515" lon="-1.46375">
        <ele>76</ele>
        <time>2020-09-19T09:53:05.000Z</time>
      </trkpt>
      <trkpt lat="47.19528" lon="-1.46381">
        <ele>76</ele>
        <time>2020-09-19T09:53:07.000Z</time>
      </trkpt>
      <trkpt lat="47.19542" lon="-1.46387">
        <ele>76</ele>
        <time>2020-09-19T09:53:09.000Z</time>
      </trkpt>
      <trkpt lat="47.19555" lon="-1.46393">
        <ele>76</ele>
        <time>2020-09-19T09:53:11.000Z</time>
      </trkpt>
      <trkpt lat="47.19569" lon="-1.464">
        <ele>76</ele>
        <time>2020-09-19T09:53:13.000Z</time>
      </trkpt>
      <trkpt lat="47.19583" lon="-1.46407">
        <ele>76</ele>
        <time>2020-09-19T09:53:15.000Z</time>
      </trkpt>
      <trkpt lat="47.19597" lon="-1.46414">
        <ele>76</ele>
        <time>2020-09-19T09:53:17.000Z</time>
      </trkpt>
      <trkpt lat="47.19612" lon="-1.46421">
        <ele>76</ele>
        <time>2020-09-19T09:53:19.000Z</time>
      </trkpt>
      <trkpt lat="47.19626" lon="-1.46428">
        <ele>75</ele>
        <time>2020-09-19T09:53:21.000Z</time>
      </trkpt>
      <trkpt lat="47.19642" lon="-1.46435">
        <ele>75</ele>
        <time>2020-09-19T09:53:23.000Z</time>
      </trkpt>
      <trkpt lat="47.19657" lon="-1.46443">
        <ele>74</ele>
        <time>2020-09-19T09:53:25.000Z</time>
      </trkpt>
      <trkpt lat="47.19672" lon="-1.4645">
        <ele>74</ele>
        <time>2020-09-19T09:53:27.000Z</time>
      </trkpt>
      <trkpt lat="47.19687" lon="-1.46457">
        <ele>74</ele>
        <time>2020-09-19T09:53:29.000Z</time>
      </trkpt>
      <trkpt lat="47.19702" lon="-1.46465">
        <ele>73</ele>
        <time>2020-09-19T09:53:31.000Z</time>
      </trkpt>
      <trkpt lat="47.19717" lon="-1.46473">
        <ele>73</ele>
        <time>2020-09-19T09:53:33.000Z</time>
      </trkpt>
      <trkpt lat="47.19732" lon="-1.46479">
        <ele>73</ele>
        <time>2020-09-19T09:53:35.000Z</time>
      </trkpt>
      <trkpt lat="47.19747" lon="-1.46486">
        <ele>73</ele>
        <time>2020-09-19T09:53:37.000Z</time>
      </trkpt>
      <trkpt lat="47.19762" lon="-1.46493">
        <ele>73</ele>
        <time>2020-09-19T09:53:39.000Z</time>
      </trkpt>
      <trkpt lat="47.19777" lon="-1.465">
        <ele>72</ele>
        <time>2020-09-19T09:53:41.000Z</time>
      </trkpt>
      <trkpt lat="47.19793" lon="-1.46506">
        <ele>72</ele>
        <time>2020-09-19T09:53:43.000Z</time>
      </trkpt>
      <trkpt lat="47.19808" lon="-1.46514">
        <ele>72</ele>
        <time>2020-09-19T09:53:45.000Z</time>
      </trkpt>
      <trkpt lat="47.19824" lon="-1.46522">
        <ele>72</ele>
        <time>2020-09-19T09:53:47.000Z</time>
      </trkpt>
      <trkpt lat="47.19839" lon="-1.46529">
        <ele>71</ele>
        <time>2020-09-19T09:53:49.000Z</time>
      </trkpt>
      <trkpt lat="47.19854" lon="-1.46537">
        <ele>71</ele>
        <time>2020-09-19T09:53:51.000Z</time>
      </trkpt>
      <trkpt lat="47.19869" lon="-1.46544">
        <ele>71</ele>
        <time>2020-09-19T09:53:53.000Z</time>
      </trkpt>
      <trkpt lat="47.19884" lon="-1.46551">
        <ele>70</ele>
        <time>2020-09-19T09:53:55.000Z</time>
      </trkpt>
      <trkpt lat="47.19899" lon="-1.46558">
        <ele>70</ele>
        <time>2020-09-19T09:53:57.000Z</time>
      </trkpt>
      <trkpt lat="47.19915" lon="-1.46565">
        <ele>70</ele>
        <time>2020-09-19T09:53:59.000Z</time>
      </trkpt>
      <trkpt lat="47.1993" lon="-1.46572">
        <ele>70</ele>
        <time>2020-09-19T09:54:01.000Z</time>
      </trkpt>
      <trkpt lat="47.19945" lon="-1.46579">
        <ele>69</ele>
        <time>2020-09-19T09:54:03.000Z</time>
      </trkpt>
      <trkpt lat="47.19961" lon="-1.46585">
        <ele>69</ele>
        <time>2020-09-19T09:54:05.000Z</time>
      </trkpt>
      <trkpt lat="47.19976" lon="-1.46591">
        <ele>68</ele>
        <time>2020-09-19T09:54:07.000Z</time>
      </trkpt>
      <trkpt lat="47.19992" lon="-1.46598">
        <ele>69</ele>
        <time>2020-09-19T09:54:09.000Z</time>
      </trkpt>
      <trkpt lat="47.20006" lon="-1.46604">
        <ele>68</ele>
        <time>2020-09-19T09:54:11.000Z</time>
      </trkpt>
      <trkpt lat="47.20022" lon="-1.4661">
        <ele>68</ele>
        <time>2020-09-19T09:54:13.000Z</time>
      </trkpt>
      <trkpt lat="47.20037" lon="-1.46617">
        <ele>68</ele>
        <time>2020-09-19T09:54:15.000Z</time>
      </trkpt>
      <trkpt lat="47.20052" lon="-1.46624">
        <ele>67</ele>
        <time>2020-09-19T09:54:17.000Z</time>
      </trkpt>
      <trkpt lat="47.20067" lon="-1.4663">
        <ele>67</ele>
        <time>2020-09-19T09:54:19.000Z</time>
      </trkpt>
      <trkpt lat="47.20081" lon="-1.46636">
        <ele>67</ele>
        <time>2020-09-19T09:54:21.000Z</time>
      </trkpt>
      <trkpt lat="47.20095" lon="-1.46642">
        <ele>67</ele>
        <time>2020-09-19T09:54:23.000Z</time>
      </trkpt>
      <trkpt lat="47.2011" lon="-1.4665">
        <ele>67</ele>
        <time>2020-09-19T09:54:25.000Z</time>
      </trkpt>
      <trkpt lat="47.20124" lon="-1.46658">
        <ele>66</ele>
        <time>2020-09-19T09:54:27.000Z</time>
      </trkpt>
      <trkpt lat="47.20137" lon="-1.46668">
        <ele>66</ele>
        <time>2020-09-19T09:54:29.000Z</time>
      </trkpt>
      <trkpt lat="47.20152" lon="-1.4667">
        <ele>66</ele>
        <time>2020-09-19T09:54:31.000Z</time>
      </trkpt>
      <trkpt lat="47.20167" lon="-1.46672">
        <ele>67</ele>
        <time>2020-09-19T09:54:33.000Z</time>
      </trkpt>
      <trkpt lat="47.20182" lon="-1.46675">
        <ele>67</ele>
        <time>2020-09-19T09:54:35.000Z</time>
      </trkpt>
      <trkpt lat="47.20196" lon="-1.4668">
        <ele>67</ele>
        <time>2020-09-19T09:54:37.000Z</time>
      </trkpt>
      <trkpt lat="47.20211" lon="-1.46685">
        <ele>68</ele>
        <time>2020-09-19T09:54:39.000Z</time>
      </trkpt>
      <trkpt lat="47.20225" lon="-1.46686">
        <ele>67</ele>
        <time>2020-09-19T09:54:41.000Z</time>
      </trkpt>
      <trkpt lat="47.20239" lon="-1.4669">
        <ele>67</ele>
        <time>2020-09-19T09:54:43.000Z</time>
      </trkpt>
      <trkpt lat="47.20253" lon="-1.46695">
        <ele>67</ele>
        <time>2020-09-19T09:54:45.000Z</time>
      </trkpt>
      <trkpt lat="47.20268" lon="-1.46696">
        <ele>67</ele>
        <time>2020-09-19T09:54:47.000Z</time>
      </trkpt>
      <trkpt lat="47.20282" lon="-1.46698">
        <ele>67</ele>
        <time>2020-09-19T09:54:49.000Z</time>
      </trkpt>
      <trkpt lat="47.20296" lon="-1.467">
        <ele>67</ele>
        <time>2020-09-19T09:54:51.000Z</time>
      </trkpt>
      <trkpt lat="47.2031" lon="-1.46703">
        <ele>67</ele>
        <time>2020-09-19T09:54:53.000Z</time>
      </trkpt>
      <trkpt lat="47.20324" lon="-1.46705">
        <ele>66</ele>
        <time>2020-09-19T09:54:55.000Z</time>
      </trkpt>
      <trkpt lat="47.20337" lon="-1.46708">
        <ele>66</ele>
        <time>2020-09-19T09:54:57.000Z</time>
      </trkpt>
      <trkpt lat="47.20351" lon="-1.46709">
        <ele>66</ele>
        <time>2020-09-19T09:54:59.000Z</time>
      </trkpt>
      <trkpt lat="47.20364" lon="-1.46711">
        <ele>67</ele>
        <time>2020-09-19T09:55:01.000Z</time>
      </trkpt>
      <trkpt lat="47.20377" lon="-1.46714">
        <ele>67</ele>
        <time>2020-09-19T09:55:03.000Z</time>
      </trkpt>
      <trkpt lat="47.20391" lon="-1.46715">
        <ele>67</ele>
        <time>2020-09-19T09:55:05.000Z</time>
      </trkpt>
      <trkpt lat="47.20404" lon="-1.46717">
        <ele>67</ele>
        <time>2020-09-19T09:55:07.000Z</time>
      </trkpt>
      <trkpt lat="47.20418" lon="-1.4672">
        <ele>68</ele>
        <time>2020-09-19T09:55:09.000Z</time>
      </trkpt>
      <trkpt lat="47.2043" lon="-1.46722">
        <ele>68</ele>
        <time>2020-09-19T09:55:11.000Z</time>
      </trkpt>
      <trkpt lat="47.20443" lon="-1.46723">
        <ele>68</ele>
        <time>2020-09-19T09:55:13.000Z</time>
      </trkpt>
      <trkpt lat="47.20456" lon="-1.46725">
        <ele>68</ele>
        <time>2020-09-19T09:55:15.000Z</time>
      </trkpt>
      <trkpt lat="47.20469" lon="-1.46726">
        <ele>68</ele>
        <time>2020-09-19T09:55:17.000Z</time>
      </trkpt>
      <trkpt lat="47.20482" lon="-1.46728">
        <ele>68</ele>
        <time>2020-09-19T09:55:19.000Z</time>
      </trkpt>
      <trkpt lat="47.20495" lon="-1.46731">
        <ele>68</ele>
        <time>2020-09-19T09:55:21.000Z</time>
      </trkpt>
      <trkpt lat="47.20508" lon="-1.46733">
        <ele>68</ele>
        <time>2020-09-19T09:55:23.000Z</time>
      </trkpt>
      <trkpt lat="47.20521" lon="-1.46735">
        <ele>68</ele>
        <time>2020-09-19T09:55:25.000Z</time>
      </trkpt>
      <trkpt lat="47.20534" lon="-1.46736">
        <ele>68</ele>
        <time>2020-09-19T09:55:27.000Z</time>
      </trkpt>
      <trkpt lat="47.20547" lon="-1.46737">
        <ele>69</ele>
        <time>2020-09-19T09:55:29.000Z</time>
      </trkpt>
      <trkpt lat="47.2056" lon="-1.46737">
        <ele>69</ele>
        <time>2020-09-19T09:55:31.000Z</time>
      </trkpt>
      <trkpt lat="47.20573" lon="-1.46735">
        <ele>70</ele>
        <time>2020-09-19T09:55:33.000Z</time>
      </trkpt>
      <trkpt lat="47.20586" lon="-1.46734">
        <ele>69</ele>
        <time>2020-09-19T09:55:35.000Z</time>
      </trkpt>
      <trkpt lat="47.20598" lon="-1.46732">
        <ele>69</ele>
        <time>2020-09-19T09:55:37.000Z</time>
      </trkpt>
      <trkpt lat="47.20611" lon="-1.46728">
        <ele>69</ele>
        <time>2020-09-19T09:55:39.000Z</time>
      </trkpt>
      <trkpt lat="47.20623" lon="-1.46725">
        <ele>69</ele>
        <time>2020-09-19T09:55:41.000Z</time>
      </trkpt>
      <trkpt lat="47.20636" lon="-1.46722">
        <ele>69</ele>
        <time>2020-09-19T09:55:43.000Z</time>
      </trkpt>
      <trkpt lat="47.20648" lon="-1.4672">
        <ele>69</ele>
        <time>2020-09-19T09:55:45.000Z</time>
      </trkpt>
      <trkpt lat="47.20661" lon="-1.46719">
        <ele>69</ele>
        <time>2020-09-19T09:55:47.000Z</time>
      </trkpt>
      <trkpt lat="47.20674" lon="-1.46716">
        <ele>70</ele>
        <time>2020-09-19T09:55:49.000Z</time>
      </trkpt>
      <trkpt lat="47.20687" lon="-1.46713">
        <ele>70</ele>
        <time>2020-09-19T09:55:51.000Z</time>
      </trkpt>
      <trkpt lat="47.207" lon="-1.4671">
        <ele>71</ele>
        <time>2020-09-19T09:55:53.000Z</time>
      </trkpt>
      <trkpt lat="47.20713" lon="-1.46709">
        <ele>71</ele>
        <time>2020-09-19T09:55:55.000Z</time>
      </trkpt>
      <trkpt lat="47.20726" lon="-1.46707">
        <ele>70</ele>
        <time>2020-09-19T09:55:57.000Z</time>
      </trkpt>
      <trkpt lat="47.20739" lon="-1.46704">
        <ele>70</ele>
        <time>2020-09-19T09:55:59.000Z</time>
      </trkpt>
      <trkpt lat="47.20752" lon="-1.46702">
        <ele>70</ele>
        <time>2020-09-19T09:56:01.000Z</time>
      </trkpt>
      <trkpt lat="47.20764" lon="-1.467">
        <ele>70</ele>
        <time>2020-09-19T09:56:03.000Z</time>
      </trkpt>
      <trkpt lat="47.20777" lon="-1.46698">
        <ele>70</ele>
        <time>2020-09-19T09:56:05.000Z</time>
      </trkpt>
      <trkpt lat="47.2079" lon="-1.46696">
        <ele>70</ele>
        <time>2020-09-19T09:56:07.000Z</time>
      </trkpt>
      <trkpt lat="47.20803" lon="-1.46696">
        <ele>70</ele>
        <time>2020-09-19T09:56:09.000Z</time>
      </trkpt>
      <trkpt lat="47.20815" lon="-1.46695">
        <ele>71</ele>
        <time>2020-09-19T09:56:11.000Z</time>
      </trkpt>
      <trkpt lat="47.20828" lon="-1.46693">
        <ele>70</ele>
        <time>2020-09-19T09:56:13.000Z</time>
      </trkpt>
      <trkpt lat="47.20841" lon="-1.46689">
        <ele>70</ele>
        <time>2020-09-19T09:56:15.000Z</time>
      </trkpt>
      <trkpt lat="47.20852" lon="-1.46682">
        <ele>70</ele>
        <time>2020-09-19T09:56:17.000Z</time>
      </trkpt>
      <trkpt lat="47.20866" lon="-1.4668">
        <ele>69</ele>
        <time>2020-09-19T09:56:19.000Z</time>
      </trkpt>
      <trkpt lat="47.20879" lon="-1.4668">
        <ele>70</ele>
        <time>2020-09-19T09:56:21.000Z</time>
      </trkpt>
      <trkpt lat="47.20892" lon="-1.46674">
        <ele>71</ele>
        <time>2020-09-19T09:56:23.000Z</time>
      </trkpt>
      <trkpt lat="47.20904" lon="-1.46667">
        <ele>71</ele>
        <time>2020-09-19T09:56:25.000Z</time>
      </trkpt>
      <trkpt lat="47.20916" lon="-1.4666">
        <ele>71</ele>
        <time>2020-09-19T09:56:27.000Z</time>
      </trkpt>
      <trkpt lat="47.20928" lon="-1.46651">
        <ele>71</ele>
        <time>2020-09-19T09:56:29.000Z</time>
      </trkpt>
      <trkpt lat="47.20939" lon="-1.46643">
        <ele>70</ele>
        <time>2020-09-19T09:56:31.000Z</time>
      </trkpt>
      <trkpt lat="47.20951" lon="-1.46635">
        <ele>70</ele>
        <time>2020-09-19T09:56:33.000Z</time>
      </trkpt>
      <trkpt lat="47.20963" lon="-1.46628">
        <ele>69</ele>
        <time>2020-09-19T09:56:35.000Z</time>
      </trkpt>
      <trkpt lat="47.20976" lon="-1.46623">
        <ele>69</ele>
        <time>2020-09-19T09:56:37.000Z</time>
      </trkpt>
      <trkpt lat="47.20989" lon="-1.46621">
        <ele>69</ele>
        <time>2020-09-19T09:56:39.000Z</time>
      </trkpt>
      <trkpt lat="47.21003" lon="-1.46618">
        <ele>70</ele>
        <time>2020-09-19T09:56:41.000Z</time>
      </trkpt>
      <trkpt lat="47.21016" lon="-1.46614">
        <ele>70</ele>
        <time>2020-09-19T09:56:43.000Z</time>
      </trkpt>
      <trkpt lat="47.21029" lon="-1.46609">
        <ele>70</ele>
        <time>2020-09-19T09:56:45.000Z</time>
      </trkpt>
      <trkpt lat="47.21042" lon="-1.46603">
        <ele>70</ele>
        <time>2020-09-19T09:56:47.000Z</time>
      </trkpt>
      <trkpt lat="47.21052" lon="-1.46593">
        <ele>71</ele>
        <time>2020-09-19T09:56:49.000Z</time>
      </trkpt>
      <trkpt lat="47.21058" lon="-1.46574">
        <ele>70</ele>
        <time>2020-09-19T09:56:51.000Z</time>
      </trkpt>
      <trkpt lat="47.21065" lon="-1.46559">
        <ele>70</ele>
        <time>2020-09-19T09:56:53.000Z</time>
      </trkpt>
      <trkpt lat="47.21073" lon="-1.46544">
        <ele>70</ele>
        <time>2020-09-19T09:56:55.000Z</time>
      </trkpt>
      <trkpt lat="47.21085" lon="-1.46536">
        <ele>70</ele>
        <time>2020-09-19T09:56:57.000Z</time>
      </trkpt>
      <trkpt lat="47.21098" lon="-1.46539">
        <ele>70</ele>
        <time>2020-09-19T09:56:59.000Z</time>
      </trkpt>
      <trkpt lat="47.21109" lon="-1.46551">
        <ele>69</ele>
        <time>2020-09-19T09:57:01.000Z</time>
      </trkpt>
      <trkpt lat="47.21121" lon="-1.46563">
        <ele>69</ele>
        <time>2020-09-19T09:57:03.000Z</time>
      </trkpt>
      <trkpt lat="47.21131" lon="-1.46575">
        <ele>69</ele>
        <time>2020-09-19T09:57:05.000Z</time>
      </trkpt>
      <trkpt lat="47.21143" lon="-1.46588">
        <ele>69</ele>
        <time>2020-09-19T09:57:07.000Z</time>
      </trkpt>
      <trkpt lat="47.21156" lon="-1.46594">
        <ele>69</ele>
        <time>2020-09-19T09:57:09.000Z</time>
      </trkpt>
      <trkpt lat="47.21169" lon="-1.46599">
        <ele>69</ele>
        <time>2020-09-19T09:57:11.000Z</time>
      </trkpt>
      <trkpt lat="47.21182" lon="-1.46607">
        <ele>69</ele>
        <time>2020-09-19T09:57:13.000Z</time>
      </trkpt>
      <trkpt lat="47.21195" lon="-1.46613">
        <ele>68</ele>
        <time>2020-09-19T09:57:15.000Z</time>
      </trkpt>
      <trkpt lat="47.21208" lon="-1.46619">
        <ele>68</ele>
        <time>2020-09-19T09:57:17.000Z</time>
      </trkpt>
      <trkpt lat="47.21222" lon="-1.46624">
        <ele>68</ele>
        <time>2020-09-19T09:57:19.000Z</time>
      </trkpt>
      <trkpt lat="47.21236" lon="-1.46627">
        <ele>68</ele>
        <time>2020-09-19T09:57:21.000Z</time>
      </trkpt>
      <trkpt lat="47.21249" lon="-1.4663">
        <ele>67</ele>
        <time>2020-09-19T09:57:23.000Z</time>
      </trkpt>
      <trkpt lat="47.21263" lon="-1.46632">
        <ele>68</ele>
        <time>2020-09-19T09:57:25.000Z</time>
      </trkpt>
      <trkpt lat="47.21277" lon="-1.46634">
        <ele>68</ele>
        <time>2020-09-19T09:57:27.000Z</time>
      </trkpt>
      <trkpt lat="47.21289" lon="-1.46635">
        <ele>69</ele>
        <time>2020-09-19T09:57:29.000Z</time>
      </trkpt>
      <trkpt lat="47.21301" lon="-1.46635">
        <ele>68</ele>
        <time>2020-09-19T09:57:31.000Z</time>
      </trkpt>
      <trkpt lat="47.21314" lon="-1.46635">
        <ele>69</ele>
        <time>2020-09-19T09:57:33.000Z</time>
      </trkpt>
      <trkpt lat="47.21328" lon="-1.46635">
        <ele>68</ele>
        <time>2020-09-19T09:57:35.000Z</time>
      </trkpt>
      <trkpt lat="47.21341" lon="-1.46635">
        <ele>67</ele>
        <time>2020-09-19T09:57:37.000Z</time>
      </trkpt>
      <trkpt lat="47.21355" lon="-1.46636">
        <ele>67</ele>
        <time>2020-09-19T09:57:39.000Z</time>
      </trkpt>
      <trkpt lat="47.21369" lon="-1.46636">
        <ele>67</ele>
        <time>2020-09-19T09:57:41.000Z</time>
      </trkpt>
      <trkpt lat="47.21382" lon="-1.46637">
        <ele>67</ele>
        <time>2020-09-19T09:57:43.000Z</time>
      </trkpt>
      <trkpt lat="47.21396" lon="-1.46638">
        <ele>67</ele>
        <time>2020-09-19T09:57:45.000Z</time>
      </trkpt>
      <trkpt lat="47.2141" lon="-1.46638">
        <ele>66</ele>
        <time>2020-09-19T09:57:47.000Z</time>
      </trkpt>
      <trkpt lat="47.21423" lon="-1.46639">
        <ele>66</ele>
        <time>2020-09-19T09:57:49.000Z</time>
      </trkpt>
      <trkpt lat="47.21438" lon="-1.46639">
        <ele>65</ele>
        <time>2020-09-19T09:57:51.000Z</time>
      </trkpt>
      <trkpt lat="47.21452" lon="-1.46633">
        <ele>65</ele>
        <time>2020-09-19T09:57:53.000Z</time>
      </trkpt>
      <trkpt lat="47.21465" lon="-1.46625">
        <ele>64</ele>
        <time>2020-09-19T09:57:55.000Z</time>
      </trkpt>
      <trkpt lat="47.21478" lon="-1.46614">
        <ele>64</ele>
        <time>2020-09-19T09:57:57.000Z</time>
      </trkpt>
      <trkpt lat="47.21491" lon="-1.46603">
        <ele>64</ele>
        <time>2020-09-19T09:57:59.000Z</time>
      </trkpt>
      <trkpt lat="47.21503" lon="-1.46592">
        <ele>63</ele>
        <time>2020-09-19T09:58:01.000Z</time>
      </trkpt>
      <trkpt lat="47.21513" lon="-1.46576">
        <ele>63</ele>
        <time>2020-09-19T09:58:03.000Z</time>
      </trkpt>
      <trkpt lat="47.21524" lon="-1.46561">
        <ele>62</ele>
        <time>2020-09-19T09:58:05.000Z</time>
      </trkpt>
      <trkpt lat="47.21537" lon="-1.46548">
        <ele>62</ele>
        <time>2020-09-19T09:58:07.000Z</time>
      </trkpt>
      <trkpt lat="47.21551" lon="-1.46541">
        <ele>61</ele>
        <time>2020-09-19T09:58:09.000Z</time>
      </trkpt>
      <trkpt lat="47.21567" lon="-1.46537">
        <ele>60</ele>
        <time>2020-09-19T09:58:11.000Z</time>
      </trkpt>
      <trkpt lat="47.21582" lon="-1.46535">
        <ele>60</ele>
        <time>2020-09-19T09:58:13.000Z</time>
      </trkpt>
      <trkpt lat="47.21598" lon="-1.46534">
        <ele>59</ele>
        <time>2020-09-19T09:58:15.000Z</time>
      </trkpt>
      <trkpt lat="47.21614" lon="-1.46533">
        <ele>57</ele>
        <time>2020-09-19T09:58:17.000Z</time>
      </trkpt>
      <trkpt lat="47.21629" lon="-1.46532">
        <ele>57</ele>
        <time>2020-09-19T09:58:19.000Z</time>
      </trkpt>
      <trkpt lat="47.21642" lon="-1.46529">
        <ele>56</ele>
        <time>2020-09-19T09:58:21.000Z</time>
      </trkpt>
      <trkpt lat="47.21646" lon="-1.46514">
        <ele>55</ele>
        <time>2020-09-19T09:58:23.000Z</time>
      </trkpt>
      <trkpt lat="47.21647" lon="-1.46496">
        <ele>54</ele>
        <time>2020-09-19T09:58:25.000Z</time>
      </trkpt>
      <trkpt lat="47.21647" lon="-1.46478">
        <ele>54</ele>
        <time>2020-09-19T09:58:27.000Z</time>
      </trkpt>
      <trkpt lat="47.21652" lon="-1.46462">
        <ele>53</ele>
        <time>2020-09-19T09:58:29.000Z</time>
      </trkpt>
      <trkpt lat="47.21657" lon="-1.46444">
        <ele>52</ele>
        <time>2020-09-19T09:58:31.000Z</time>
      </trkpt>
      <trkpt lat="47.21657" lon="-1.46423">
        <ele>51</ele>
        <time>2020-09-19T09:58:33.000Z</time>
      </trkpt>
      <trkpt lat="47.2166" lon="-1.46402">
        <ele>51</ele>
        <time>2020-09-19T09:58:35.000Z</time>
      </trkpt>
      <trkpt lat="47.21662" lon="-1.46382">
        <ele>51</ele>
        <time>2020-09-19T09:58:37.000Z</time>
      </trkpt>
      <trkpt lat="47.21663" lon="-1.46362">
        <ele>50</ele>
        <time>2020-09-19T09:58:39.000Z</time>
      </trkpt>
      <trkpt lat="47.21665" lon="-1.46342">
        <ele>50</ele>
        <time>2020-09-19T09:58:41.000Z</time>
      </trkpt>
      <trkpt lat="47.21667" lon="-1.46322">
        <ele>50</ele>
        <time>2020-09-19T09:58:43.000Z</time>
      </trkpt>
      <trkpt lat="47.21668" lon="-1.46303">
        <ele>50</ele>
        <time>2020-09-19T09:58:45.000Z</time>
      </trkpt>
      <trkpt lat="47.2167" lon="-1.46285">
        <ele>51</ele>
        <time>2020-09-19T09:58:47.000Z</time>
      </trkpt>
      <trkpt lat="47.21671" lon="-1.46266">
        <ele>51</ele>
        <time>2020-09-19T09:58:49.000Z</time>
      </trkpt>
      <trkpt lat="47.21672" lon="-1.46247">
        <ele>52</ele>
        <time>2020-09-19T09:58:51.000Z</time>
      </trkpt>
      <trkpt lat="47.21672" lon="-1.4623">
        <ele>52</ele>
        <time>2020-09-19T09:58:53.000Z</time>
      </trkpt>
      <trkpt lat="47.2167" lon="-1.46212">
        <ele>52</ele>
        <time>2020-09-19T09:58:55.000Z</time>
      </trkpt>
      <trkpt lat="47.21666" lon="-1.46194">
        <ele>52</ele>
        <time>2020-09-19T09:58:57.000Z</time>
      </trkpt>
      <trkpt lat="47.21671" lon="-1.46182">
        <ele>52</ele>
        <time>2020-09-19T09:58:59.000Z</time>
      </trkpt>
      <trkpt lat="47.21683" lon="-1.46183">
        <ele>51</ele>
        <time>2020-09-19T09:59:01.000Z</time>
      </trkpt>
      <trkpt lat="47.21692" lon="-1.46174">
        <ele>51</ele>
        <time>2020-09-19T09:59:03.000Z</time>
      </trkpt>
      <trkpt lat="47.21697" lon="-1.46158">
        <ele>51</ele>
        <time>2020-09-19T09:59:05.000Z</time>
      </trkpt>
      <trkpt lat="47.21701" lon="-1.46142">
        <ele>51</ele>
        <time>2020-09-19T09:59:07.000Z</time>
      </trkpt>
      <trkpt lat="47.21707" lon="-1.46129">
        <ele>51</ele>
        <time>2020-09-19T09:59:09.000Z</time>
      </trkpt>
      <trkpt lat="47.21717" lon="-1.46126">
        <ele>51</ele>
        <time>2020-09-19T09:59:11.000Z</time>
      </trkpt>
      <trkpt lat="47.21729" lon="-1.46133">
        <ele>51</ele>
        <time>2020-09-19T09:59:13.000Z</time>
      </trkpt>
      <trkpt lat="47.21741" lon="-1.4614">
        <ele>50</ele>
        <time>2020-09-19T09:59:15.000Z</time>
      </trkpt>
      <trkpt lat="47.21752" lon="-1.46147">
        <ele>50</ele>
        <time>2020-09-19T09:59:17.000Z</time>
      </trkpt>
      <trkpt lat="47.21764" lon="-1.46153">
        <ele>50</ele>
        <time>2020-09-19T09:59:19.000Z</time>
      </trkpt>
      <trkpt lat="47.21774" lon="-1.46159">
        <ele>50</ele>
        <time>2020-09-19T09:59:21.000Z</time>
      </trkpt>
      <trkpt lat="47.21783" lon="-1.46165">
        <ele>50</ele>
        <time>2020-09-19T09:59:23.000Z</time>
      </trkpt>
      <trkpt lat="47.21793" lon="-1.46169">
        <ele>50</ele>
        <time>2020-09-19T09:59:26.000Z</time>
      </trkpt>
      <trkpt lat="47.21802" lon="-1.46172">
        <ele>49</ele>
        <time>2020-09-19T09:59:28.000Z</time>
      </trkpt>
      <trkpt lat="47.21813" lon="-1.46178">
        <ele>49</ele>
        <time>2020-09-19T09:59:30.000Z</time>
      </trkpt>
      <trkpt lat="47.21826" lon="-1.46183">
        <ele>50</ele>
        <time>2020-09-19T09:59:32.000Z</time>
      </trkpt>
      <trkpt lat="47.21838" lon="-1.46189">
        <ele>50</ele>
        <time>2020-09-19T09:59:34.000Z</time>
      </trkpt>
      <trkpt lat="47.2185" lon="-1.46195">
        <ele>50</ele>
        <time>2020-09-19T09:59:36.000Z</time>
      </trkpt>
      <trkpt lat="47.21863" lon="-1.46202">
        <ele>50</ele>
        <time>2020-09-19T09:59:38.000Z</time>
      </trkpt>
      <trkpt lat="47.21875" lon="-1.46208">
        <ele>50</ele>
        <time>2020-09-19T09:59:40.000Z</time>
      </trkpt>
      <trkpt lat="47.21887" lon="-1.46214">
        <ele>50</ele>
        <time>2020-09-19T09:59:42.000Z</time>
      </trkpt>
      <trkpt lat="47.219" lon="-1.46221">
        <ele>50</ele>
        <time>2020-09-19T09:59:44.000Z</time>
      </trkpt>
      <trkpt lat="47.21912" lon="-1.46227">
        <ele>50</ele>
        <time>2020-09-19T09:59:46.000Z</time>
      </trkpt>
      <trkpt lat="47.21925" lon="-1.46234">
        <ele>50</ele>
        <time>2020-09-19T09:59:48.000Z</time>
      </trkpt>
      <trkpt lat="47.21937" lon="-1.4624">
        <ele>50</ele>
        <time>2020-09-19T09:59:50.000Z</time>
      </trkpt>
      <trkpt lat="47.21949" lon="-1.46246">
        <ele>50</ele>
        <time>2020-09-19T09:59:52.000Z</time>
      </trkpt>
      <trkpt lat="47.2196" lon="-1.46252">
        <ele>50</ele>
        <time>2020-09-19T09:59:54.000Z</time>
      </trkpt>
      <trkpt lat="47.21972" lon="-1.46258">
        <ele>50</ele>
        <time>2020-09-19T09:59:56.000Z</time>
      </trkpt>
      <trkpt lat="47.21983" lon="-1.46264">
        <ele>50</ele>
        <time>2020-09-19T09:59:58.000Z</time>
      </trkpt>
      <trkpt lat="47.21994" lon="-1.4627">
        <ele>49</ele>
        <time>2020-09-19T10:00:00.000Z</time>
      </trkpt>
      <trkpt lat="47.22006" lon="-1.46277">
        <ele>49</ele>
        <time>2020-09-19T10:00:02.000Z</time>
      </trkpt>
      <trkpt lat="47.22019" lon="-1.46283">
        <ele>50</ele>
        <time>2020-09-19T10:00:04.000Z</time>
      </trkpt>
      <trkpt lat="47.2203" lon="-1.46289">
        <ele>49</ele>
        <time>2020-09-19T10:00:06.000Z</time>
      </trkpt>
      <trkpt lat="47.2204" lon="-1.46293">
        <ele>49</ele>
        <time>2020-09-19T10:00:08.000Z</time>
      </trkpt>
      <trkpt lat="47.22051" lon="-1.46298">
        <ele>49</ele>
        <time>2020-09-19T10:00:10.000Z</time>
      </trkpt>
      <trkpt lat="47.22063" lon="-1.46304">
        <ele>49</ele>
        <time>2020-09-19T10:00:12.000Z</time>
      </trkpt>
      <trkpt lat="47.22075" lon="-1.46311">
        <ele>49</ele>
        <time>2020-09-19T10:00:14.000Z</time>
      </trkpt>
      <trkpt lat="47.22088" lon="-1.46317">
        <ele>50</ele>
        <time>2020-09-19T10:00:16.000Z</time>
      </trkpt>
      <trkpt lat="47.221" lon="-1.46324">
        <ele>50</ele>
        <time>2020-09-19T10:00:18.000Z</time>
      </trkpt>
      <trkpt lat="47.22119" lon="-1.46333">
        <ele>49</ele>
        <time>2020-09-19T10:00:21.000Z</time>
      </trkpt>
      <trkpt lat="47.22131" lon="-1.4634">
        <ele>49</ele>
        <time>2020-09-19T10:00:23.000Z</time>
      </trkpt>
      <trkpt lat="47.22144" lon="-1.46347">
        <ele>49</ele>
        <time>2020-09-19T10:00:25.000Z</time>
      </trkpt>
      <trkpt lat="47.22157" lon="-1.46353">
        <ele>49</ele>
        <time>2020-09-19T10:00:27.000Z</time>
      </trkpt>
      <trkpt lat="47.2217" lon="-1.4636">
        <ele>50</ele>
        <time>2020-09-19T10:00:29.000Z</time>
      </trkpt>
      <trkpt lat="47.22182" lon="-1.46366">
        <ele>50</ele>
        <time>2020-09-19T10:00:31.000Z</time>
      </trkpt>
      <trkpt lat="47.22195" lon="-1.46373">
        <ele>50</ele>
        <time>2020-09-19T10:00:33.000Z</time>
      </trkpt>
      <trkpt lat="47.22207" lon="-1.4638">
        <ele>50</ele>
        <time>2020-09-19T10:00:35.000Z</time>
      </trkpt>
      <trkpt lat="47.2222" lon="-1.46387">
        <ele>50</ele>
        <time>2020-09-19T10:00:37.000Z</time>
      </trkpt>
      <trkpt lat="47.22232" lon="-1.46394">
        <ele>50</ele>
        <time>2020-09-19T10:00:39.000Z</time>
      </trkpt>
      <trkpt lat="47.22244" lon="-1.464">
        <ele>50</ele>
        <time>2020-09-19T10:00:41.000Z</time>
      </trkpt>
      <trkpt lat="47.22257" lon="-1.46407">
        <ele>50</ele>
        <time>2020-09-19T10:00:43.000Z</time>
      </trkpt>
      <trkpt lat="47.22268" lon="-1.46413">
        <ele>49</ele>
        <time>2020-09-19T10:00:45.000Z</time>
      </trkpt>
      <trkpt lat="47.22281" lon="-1.46418">
        <ele>49</ele>
        <time>2020-09-19T10:00:47.000Z</time>
      </trkpt>
      <trkpt lat="47.22293" lon="-1.46423">
        <ele>49</ele>
        <time>2020-09-19T10:00:49.000Z</time>
      </trkpt>
      <trkpt lat="47.22306" lon="-1.46429">
        <ele>48</ele>
        <time>2020-09-19T10:00:51.000Z</time>
      </trkpt>
      <trkpt lat="47.22318" lon="-1.46435">
        <ele>48</ele>
        <time>2020-09-19T10:00:53.000Z</time>
      </trkpt>
      <trkpt lat="47.2233" lon="-1.46443">
        <ele>48</ele>
        <time>2020-09-19T10:00:55.000Z</time>
      </trkpt>
      <trkpt lat="47.22341" lon="-1.46453">
        <ele>49</ele>
        <time>2020-09-19T10:00:57.000Z</time>
      </trkpt>
      <trkpt lat="47.22351" lon="-1.46465">
        <ele>49</ele>
        <time>2020-09-19T10:00:59.000Z</time>
      </trkpt>
      <trkpt lat="47.2236" lon="-1.46477">
        <ele>49</ele>
        <time>2020-09-19T10:01:01.000Z</time>
      </trkpt>
      <trkpt lat="47.2237" lon="-1.4649">
        <ele>49</ele>
        <time>2020-09-19T10:01:03.000Z</time>
      </trkpt>
      <trkpt lat="47.22379" lon="-1.46503">
        <ele>49</ele>
        <time>2020-09-19T10:01:05.000Z</time>
      </trkpt>
      <trkpt lat="47.22388" lon="-1.46515">
        <ele>49</ele>
        <time>2020-09-19T10:01:07.000Z</time>
      </trkpt>
      <trkpt lat="47.22402" lon="-1.46534">
        <ele>49</ele>
        <time>2020-09-19T10:01:10.000Z</time>
      </trkpt>
      <trkpt lat="47.22412" lon="-1.46547">
        <ele>49</ele>
        <time>2020-09-19T10:01:12.000Z</time>
      </trkpt>
      <trkpt lat="47.22425" lon="-1.46566">
        <ele>48</ele>
        <time>2020-09-19T10:01:15.000Z</time>
      </trkpt>
      <trkpt lat="47.22435" lon="-1.46579">
        <ele>47</ele>
        <time>2020-09-19T10:01:17.000Z</time>
      </trkpt>
      <trkpt lat="47.22448" lon="-1.46597">
        <ele>46</ele>
        <time>2020-09-19T10:01:20.000Z</time>
      </trkpt>
      <trkpt lat="47.22457" lon="-1.46609">
        <ele>46</ele>
        <time>2020-09-19T10:01:22.000Z</time>
      </trkpt>
      <trkpt lat="47.22466" lon="-1.46621">
        <ele>46</ele>
        <time>2020-09-19T10:01:24.000Z</time>
      </trkpt>
      <trkpt lat="47.22474" lon="-1.46632">
        <ele>46</ele>
        <time>2020-09-19T10:01:26.000Z</time>
      </trkpt>
      <trkpt lat="47.22481" lon="-1.46643">
        <ele>45</ele>
        <time>2020-09-19T10:01:28.000Z</time>
      </trkpt>
      <trkpt lat="47.22488" lon="-1.46653">
        <ele>46</ele>
        <time>2020-09-19T10:01:30.000Z</time>
      </trkpt>
      <trkpt lat="47.22499" lon="-1.46663">
        <ele>46</ele>
        <time>2020-09-19T10:01:33.000Z</time>
      </trkpt>
      <trkpt lat="47.22508" lon="-1.46672">
        <ele>46</ele>
        <time>2020-09-19T10:01:35.000Z</time>
      </trkpt>
      <trkpt lat="47.22517" lon="-1.46681">
        <ele>47</ele>
        <time>2020-09-19T10:01:37.000Z</time>
      </trkpt>
      <trkpt lat="47.22528" lon="-1.46689">
        <ele>47</ele>
        <time>2020-09-19T10:01:39.000Z</time>
      </trkpt>
      <trkpt lat="47.22538" lon="-1.46695">
        <ele>48</ele>
        <time>2020-09-19T10:01:41.000Z</time>
      </trkpt>
      <trkpt lat="47.22546" lon="-1.46715">
        <ele>48</ele>
        <time>2020-09-19T10:01:44.000Z</time>
      </trkpt>
      <trkpt lat="47.22554" lon="-1.46729">
        <ele>48</ele>
        <time>2020-09-19T10:01:46.000Z</time>
      </trkpt>
      <trkpt lat="47.22564" lon="-1.46741">
        <ele>48</ele>
        <time>2020-09-19T10:01:48.000Z</time>
      </trkpt>
      <trkpt lat="47.22579" lon="-1.46757">
        <ele>48</ele>
        <time>2020-09-19T10:01:51.000Z</time>
      </trkpt>
      <trkpt lat="47.2259" lon="-1.46765">
        <ele>48</ele>
        <time>2020-09-19T10:01:53.000Z</time>
      </trkpt>
      <trkpt lat="47.22606" lon="-1.46776">
        <ele>49</ele>
        <time>2020-09-19T10:01:56.000Z</time>
      </trkpt>
      <trkpt lat="47.22623" lon="-1.46792">
        <ele>49</ele>
        <time>2020-09-19T10:02:00.000Z</time>
      </trkpt>
      <trkpt lat="47.22629" lon="-1.46808">
        <ele>49</ele>
        <time>2020-09-19T10:02:02.000Z</time>
      </trkpt>
      <trkpt lat="47.22626" lon="-1.46828">
        <ele>51</ele>
        <time>2020-09-19T10:02:04.000Z</time>
      </trkpt>
      <trkpt lat="47.22619" lon="-1.46844">
        <ele>52</ele>
        <time>2020-09-19T10:02:06.000Z</time>
      </trkpt>
      <trkpt lat="47.22611" lon="-1.46859">
        <ele>53</ele>
        <time>2020-09-19T10:02:08.000Z</time>
      </trkpt>
      <trkpt lat="47.22606" lon="-1.46878">
        <ele>53</ele>
        <time>2020-09-19T10:02:10.000Z</time>
      </trkpt>
      <trkpt lat="47.22606" lon="-1.469">
        <ele>54</ele>
        <time>2020-09-19T10:02:12.000Z</time>
      </trkpt>
      <trkpt lat="47.22606" lon="-1.46924">
        <ele>53</ele>
        <time>2020-09-19T10:02:14.000Z</time>
      </trkpt>
      <trkpt lat="47.22606" lon="-1.46947">
        <ele>53</ele>
        <time>2020-09-19T10:02:16.000Z</time>
      </trkpt>
      <trkpt lat="47.22607" lon="-1.46969">
        <ele>53</ele>
        <time>2020-09-19T10:02:18.000Z</time>
      </trkpt>
      <trkpt lat="47.22607" lon="-1.46993">
        <ele>53</ele>
        <time>2020-09-19T10:02:20.000Z</time>
      </trkpt>
      <trkpt lat="47.22603" lon="-1.47017">
        <ele>53</ele>
        <time>2020-09-19T10:02:22.000Z</time>
      </trkpt>
      <trkpt lat="47.22599" lon="-1.47038">
        <ele>54</ele>
        <time>2020-09-19T10:02:24.000Z</time>
      </trkpt>
      <trkpt lat="47.22591" lon="-1.47058">
        <ele>54</ele>
        <time>2020-09-19T10:02:26.000Z</time>
      </trkpt>
      <trkpt lat="47.22582" lon="-1.47073">
        <ele>54</ele>
        <time>2020-09-19T10:02:28.000Z</time>
      </trkpt>
      <trkpt lat="47.2257" lon="-1.47086">
        <ele>54</ele>
        <time>2020-09-19T10:02:30.000Z</time>
      </trkpt>
      <trkpt lat="47.22559" lon="-1.47097">
        <ele>54</ele>
        <time>2020-09-19T10:02:32.000Z</time>
      </trkpt>
      <trkpt lat="47.22547" lon="-1.47106">
        <ele>54</ele>
        <time>2020-09-19T10:02:34.000Z</time>
      </trkpt>
      <trkpt lat="47.22534" lon="-1.47114">
        <ele>54</ele>
        <time>2020-09-19T10:02:36.000Z</time>
      </trkpt>
      <trkpt lat="47.22521" lon="-1.47125">
        <ele>54</ele>
        <time>2020-09-19T10:02:38.000Z</time>
      </trkpt>
      <trkpt lat="47.22507" lon="-1.47134">
        <ele>55</ele>
        <time>2020-09-19T10:02:40.000Z</time>
      </trkpt>
      <trkpt lat="47.22493" lon="-1.4714">
        <ele>54</ele>
        <time>2020-09-19T10:02:42.000Z</time>
      </trkpt>
      <trkpt lat="47.22478" lon="-1.47147">
        <ele>55</ele>
        <time>2020-09-19T10:02:44.000Z</time>
      </trkpt>
      <trkpt lat="47.22465" lon="-1.47157">
        <ele>55</ele>
        <time>2020-09-19T10:02:46.000Z</time>
      </trkpt>
      <trkpt lat="47.22451" lon="-1.47168">
        <ele>55</ele>
        <time>2020-09-19T10:02:48.000Z</time>
      </trkpt>
      <trkpt lat="47.22438" lon="-1.4718">
        <ele>55</ele>
        <time>2020-09-19T10:02:50.000Z</time>
      </trkpt>
      <trkpt lat="47.22425" lon="-1.47193">
        <ele>55</ele>
        <time>2020-09-19T10:02:52.000Z</time>
      </trkpt>
      <trkpt lat="47.22412" lon="-1.47207">
        <ele>54</ele>
        <time>2020-09-19T10:02:54.000Z</time>
      </trkpt>
      <trkpt lat="47.22393" lon="-1.47229">
        <ele>53</ele>
        <time>2020-09-19T10:02:57.000Z</time>
      </trkpt>
      <trkpt lat="47.2238" lon="-1.47244">
        <ele>52</ele>
        <time>2020-09-19T10:02:59.000Z</time>
      </trkpt>
      <trkpt lat="47.22365" lon="-1.47257">
        <ele>52</ele>
        <time>2020-09-19T10:03:01.000Z</time>
      </trkpt>
      <trkpt lat="47.22351" lon="-1.47271">
        <ele>52</ele>
        <time>2020-09-19T10:03:03.000Z</time>
      </trkpt>
      <trkpt lat="47.22336" lon="-1.47282">
        <ele>51</ele>
        <time>2020-09-19T10:03:05.000Z</time>
      </trkpt>
      <trkpt lat="47.22322" lon="-1.47294">
        <ele>51</ele>
        <time>2020-09-19T10:03:07.000Z</time>
      </trkpt>
      <trkpt lat="47.22308" lon="-1.47306">
        <ele>51</ele>
        <time>2020-09-19T10:03:09.000Z</time>
      </trkpt>
      <trkpt lat="47.22294" lon="-1.47317">
        <ele>51</ele>
        <time>2020-09-19T10:03:11.000Z</time>
      </trkpt>
      <trkpt lat="47.22281" lon="-1.47329">
        <ele>51</ele>
        <time>2020-09-19T10:03:13.000Z</time>
      </trkpt>
      <trkpt lat="47.22267" lon="-1.4734">
        <ele>51</ele>
        <time>2020-09-19T10:03:15.000Z</time>
      </trkpt>
      <trkpt lat="47.22246" lon="-1.47355">
        <ele>50</ele>
        <time>2020-09-19T10:03:18.000Z</time>
      </trkpt>
      <trkpt lat="47.22231" lon="-1.47363">
        <ele>51</ele>
        <time>2020-09-19T10:03:20.000Z</time>
      </trkpt>
      <trkpt lat="47.22217" lon="-1.47372">
        <ele>51</ele>
        <time>2020-09-19T10:03:22.000Z</time>
      </trkpt>
      <trkpt lat="47.22203" lon="-1.47383">
        <ele>51</ele>
        <time>2020-09-19T10:03:24.000Z</time>
      </trkpt>
      <trkpt lat="47.22189" lon="-1.47393">
        <ele>51</ele>
        <time>2020-09-19T10:03:26.000Z</time>
      </trkpt>
      <trkpt lat="47.22176" lon="-1.47405">
        <ele>51</ele>
        <time>2020-09-19T10:03:28.000Z</time>
      </trkpt>
      <trkpt lat="47.22163" lon="-1.47417">
        <ele>51</ele>
        <time>2020-09-19T10:03:30.000Z</time>
      </trkpt>
      <trkpt lat="47.22149" lon="-1.47428">
        <ele>51</ele>
        <time>2020-09-19T10:03:32.000Z</time>
      </trkpt>
      <trkpt lat="47.22135" lon="-1.4744">
        <ele>51</ele>
        <time>2020-09-19T10:03:34.000Z</time>
      </trkpt>
      <trkpt lat="47.2212" lon="-1.47451">
        <ele>51</ele>
        <time>2020-09-19T10:03:36.000Z</time>
      </trkpt>
      <trkpt lat="47.22107" lon="-1.47463">
        <ele>51</ele>
        <time>2020-09-19T10:03:38.000Z</time>
      </trkpt>
      <trkpt lat="47.22093" lon="-1.47476">
        <ele>51</ele>
        <time>2020-09-19T10:03:40.000Z</time>
      </trkpt>
      <trkpt lat="47.22079" lon="-1.47488">
        <ele>51</ele>
        <time>2020-09-19T10:03:42.000Z</time>
      </trkpt>
      <trkpt lat="47.22065" lon="-1.47501">
        <ele>50</ele>
        <time>2020-09-19T10:03:44.000Z</time>
      </trkpt>
      <trkpt lat="47.22052" lon="-1.47513">
        <ele>51</ele>
        <time>2020-09-19T10:03:46.000Z</time>
      </trkpt>
      <trkpt lat="47.22038" lon="-1.47526">
        <ele>51</ele>
        <time>2020-09-19T10:03:48.000Z</time>
      </trkpt>
      <trkpt lat="47.22025" lon="-1.47538">
        <ele>51</ele>
        <time>2020-09-19T10:03:50.000Z</time>
      </trkpt>
      <trkpt lat="47.22005" lon="-1.47557">
        <ele>51</ele>
        <time>2020-09-19T10:03:53.000Z</time>
      </trkpt>
      <trkpt lat="47.21992" lon="-1.47569">
        <ele>51</ele>
        <time>2020-09-19T10:03:55.000Z</time>
      </trkpt>
      <trkpt lat="47.21978" lon="-1.4758">
        <ele>51</ele>
        <time>2020-09-19T10:03:57.000Z</time>
      </trkpt>
      <trkpt lat="47.21965" lon="-1.47592">
        <ele>51</ele>
        <time>2020-09-19T10:03:59.000Z</time>
      </trkpt>
      <trkpt lat="47.21953" lon="-1.47604">
        <ele>51</ele>
        <time>2020-09-19T10:04:01.000Z</time>
      </trkpt>
      <trkpt lat="47.21939" lon="-1.47615">
        <ele>51</ele>
        <time>2020-09-19T10:04:03.000Z</time>
      </trkpt>
      <trkpt lat="47.21927" lon="-1.47627">
        <ele>51</ele>
        <time>2020-09-19T10:04:05.000Z</time>
      </trkpt>
      <trkpt lat="47.21914" lon="-1.47639">
        <ele>51</ele>
        <time>2020-09-19T10:04:07.000Z</time>
      </trkpt>
      <trkpt lat="47.21901" lon="-1.47651">
        <ele>51</ele>
        <time>2020-09-19T10:04:09.000Z</time>
      </trkpt>
      <trkpt lat="47.21888" lon="-1.47663">
        <ele>52</ele>
        <time>2020-09-19T10:04:11.000Z</time>
      </trkpt>
      <trkpt lat="47.21875" lon="-1.47674">
        <ele>52</ele>
        <time>2020-09-19T10:04:13.000Z</time>
      </trkpt>
      <trkpt lat="47.21862" lon="-1.47686">
        <ele>52</ele>
        <time>2020-09-19T10:04:15.000Z</time>
      </trkpt>
      <trkpt lat="47.2185" lon="-1.47696">
        <ele>53</ele>
        <time>2020-09-19T10:04:17.000Z</time>
      </trkpt>
      <trkpt lat="47.21838" lon="-1.47706">
        <ele>53</ele>
        <time>2020-09-19T10:04:19.000Z</time>
      </trkpt>
      <trkpt lat="47.21826" lon="-1.47716">
        <ele>53</ele>
        <time>2020-09-19T10:04:21.000Z</time>
      </trkpt>
      <trkpt lat="47.21815" lon="-1.47726">
        <ele>53</ele>
        <time>2020-09-19T10:04:23.000Z</time>
      </trkpt>
      <trkpt lat="47.21803" lon="-1.47736">
        <ele>53</ele>
        <time>2020-09-19T10:04:25.000Z</time>
      </trkpt>
      <trkpt lat="47.2179" lon="-1.47744">
        <ele>52</ele>
        <time>2020-09-19T10:04:27.000Z</time>
      </trkpt>
      <trkpt lat="47.21777" lon="-1.47754">
        <ele>52</ele>
        <time>2020-09-19T10:04:29.000Z</time>
      </trkpt>
      <trkpt lat="47.21764" lon="-1.47765">
        <ele>53</ele>
        <time>2020-09-19T10:04:31.000Z</time>
      </trkpt>
      <trkpt lat="47.21752" lon="-1.47776">
        <ele>53</ele>
        <time>2020-09-19T10:04:33.000Z</time>
      </trkpt>
      <trkpt lat="47.21739" lon="-1.47788">
        <ele>53</ele>
        <time>2020-09-19T10:04:35.000Z</time>
      </trkpt>
      <trkpt lat="47.21725" lon="-1.478">
        <ele>53</ele>
        <time>2020-09-19T10:04:37.000Z</time>
      </trkpt>
      <trkpt lat="47.21711" lon="-1.47813">
        <ele>53</ele>
        <time>2020-09-19T10:04:39.000Z</time>
      </trkpt>
      <trkpt lat="47.21698" lon="-1.47826">
        <ele>53</ele>
        <time>2020-09-19T10:04:41.000Z</time>
      </trkpt>
      <trkpt lat="47.21684" lon="-1.47838">
        <ele>53</ele>
        <time>2020-09-19T10:04:43.000Z</time>
      </trkpt>
      <trkpt lat="47.21671" lon="-1.47851">
        <ele>53</ele>
        <time>2020-09-19T10:04:45.000Z</time>
      </trkpt>
      <trkpt lat="47.21657" lon="-1.47865">
        <ele>53</ele>
        <time>2020-09-19T10:04:47.000Z</time>
      </trkpt>
      <trkpt lat="47.21643" lon="-1.47879">
        <ele>54</ele>
        <time>2020-09-19T10:04:49.000Z</time>
      </trkpt>
      <trkpt lat="47.21623" lon="-1.47897">
        <ele>55</ele>
        <time>2020-09-19T10:04:52.000Z</time>
      </trkpt>
      <trkpt lat="47.21609" lon="-1.4791">
        <ele>54</ele>
        <time>2020-09-19T10:04:54.000Z</time>
      </trkpt>
      <trkpt lat="47.21596" lon="-1.47922">
        <ele>54</ele>
        <time>2020-09-19T10:04:56.000Z</time>
      </trkpt>
      <trkpt lat="47.21583" lon="-1.47935">
        <ele>54</ele>
        <time>2020-09-19T10:04:58.000Z</time>
      </trkpt>
      <trkpt lat="47.21569" lon="-1.47947">
        <ele>54</ele>
        <time>2020-09-19T10:05:00.000Z</time>
      </trkpt>
      <trkpt lat="47.21556" lon="-1.4796">
        <ele>54</ele>
        <time>2020-09-19T10:05:02.000Z</time>
      </trkpt>
      <trkpt lat="47.21543" lon="-1.47973">
        <ele>54</ele>
        <time>2020-09-19T10:05:04.000Z</time>
      </trkpt>
      <trkpt lat="47.2153" lon="-1.47986">
        <ele>54</ele>
        <time>2020-09-19T10:05:06.000Z</time>
      </trkpt>
      <trkpt lat="47.21517" lon="-1.48">
        <ele>53</ele>
        <time>2020-09-19T10:05:08.000Z</time>
      </trkpt>
      <trkpt lat="47.21503" lon="-1.48016">
        <ele>52</ele>
        <time>2020-09-19T10:05:10.000Z</time>
      </trkpt>
      <trkpt lat="47.2149" lon="-1.48031">
        <ele>52</ele>
        <time>2020-09-19T10:05:12.000Z</time>
      </trkpt>
      <trkpt lat="47.21477" lon="-1.48047">
        <ele>52</ele>
        <time>2020-09-19T10:05:14.000Z</time>
      </trkpt>
      <trkpt lat="47.21464" lon="-1.48063">
        <ele>52</ele>
        <time>2020-09-19T10:05:16.000Z</time>
      </trkpt>
      <trkpt lat="47.21452" lon="-1.4808">
        <ele>51</ele>
        <time>2020-09-19T10:05:18.000Z</time>
      </trkpt>
      <trkpt lat="47.21441" lon="-1.48097">
        <ele>51</ele>
        <time>2020-09-19T10:05:20.000Z</time>
      </trkpt>
      <trkpt lat="47.21431" lon="-1.48115">
        <ele>51</ele>
        <time>2020-09-19T10:05:22.000Z</time>
      </trkpt>
      <trkpt lat="47.21421" lon="-1.48133">
        <ele>51</ele>
        <time>2020-09-19T10:05:24.000Z</time>
      </trkpt>
      <trkpt lat="47.21412" lon="-1.48151">
        <ele>51</ele>
        <time>2020-09-19T10:05:26.000Z</time>
      </trkpt>
      <trkpt lat="47.21402" lon="-1.48169">
        <ele>51</ele>
        <time>2020-09-19T10:05:28.000Z</time>
      </trkpt>
      <trkpt lat="47.21394" lon="-1.48188">
        <ele>52</ele>
        <time>2020-09-19T10:05:30.000Z</time>
      </trkpt>
      <trkpt lat="47.21385" lon="-1.48207">
        <ele>52</ele>
        <time>2020-09-19T10:05:32.000Z</time>
      </trkpt>
      <trkpt lat="47.21378" lon="-1.48226">
        <ele>52</ele>
        <time>2020-09-19T10:05:34.000Z</time>
      </trkpt>
      <trkpt lat="47.21371" lon="-1.48245">
        <ele>51</ele>
        <time>2020-09-19T10:05:36.000Z</time>
      </trkpt>
      <trkpt lat="47.21364" lon="-1.48266">
        <ele>51</ele>
        <time>2020-09-19T10:05:38.000Z</time>
      </trkpt>
      <trkpt lat="47.21357" lon="-1.48286">
        <ele>51</ele>
        <time>2020-09-19T10:05:40.000Z</time>
      </trkpt>
      <trkpt lat="47.21351" lon="-1.48306">
        <ele>52</ele>
        <time>2020-09-19T10:05:42.000Z</time>
      </trkpt>
      <trkpt lat="47.21344" lon="-1.48326">
        <ele>52</ele>
        <time>2020-09-19T10:05:44.000Z</time>
      </trkpt>
      <trkpt lat="47.21338" lon="-1.48346">
        <ele>51</ele>
        <time>2020-09-19T10:05:46.000Z</time>
      </trkpt>
      <trkpt lat="47.21332" lon="-1.48367">
        <ele>51</ele>
        <time>2020-09-19T10:05:48.000Z</time>
      </trkpt>
      <trkpt lat="47.21325" lon="-1.48386">
        <ele>52</ele>
        <time>2020-09-19T10:05:50.000Z</time>
      </trkpt>
      <trkpt lat="47.21318" lon="-1.48406">
        <ele>52</ele>
        <time>2020-09-19T10:05:52.000Z</time>
      </trkpt>
      <trkpt lat="47.21312" lon="-1.48426">
        <ele>52</ele>
        <time>2020-09-19T10:05:54.000Z</time>
      </trkpt>
      <trkpt lat="47.21306" lon="-1.48446">
        <ele>52</ele>
        <time>2020-09-19T10:05:56.000Z</time>
      </trkpt>
      <trkpt lat="47.21302" lon="-1.48467">
        <ele>52</ele>
        <time>2020-09-19T10:05:58.000Z</time>
      </trkpt>
      <trkpt lat="47.21298" lon="-1.48489">
        <ele>53</ele>
        <time>2020-09-19T10:06:00.000Z</time>
      </trkpt>
      <trkpt lat="47.21294" lon="-1.48509">
        <ele>53</ele>
        <time>2020-09-19T10:06:02.000Z</time>
      </trkpt>
      <trkpt lat="47.21283" lon="-1.48518">
        <ele>53</ele>
        <time>2020-09-19T10:06:04.000Z</time>
      </trkpt>
      <trkpt lat="47.21271" lon="-1.48524">
        <ele>53</ele>
        <time>2020-09-19T10:06:06.000Z</time>
      </trkpt>
      <trkpt lat="47.21264" lon="-1.48543">
        <ele>52</ele>
        <time>2020-09-19T10:06:08.000Z</time>
      </trkpt>
      <trkpt lat="47.21258" lon="-1.48563">
        <ele>53</ele>
        <time>2020-09-19T10:06:10.000Z</time>
      </trkpt>
      <trkpt lat="47.21252" lon="-1.48583">
        <ele>52</ele>
        <time>2020-09-19T10:06:12.000Z</time>
      </trkpt>
      <trkpt lat="47.21247" lon="-1.48605">
        <ele>52</ele>
        <time>2020-09-19T10:06:14.000Z</time>
      </trkpt>
      <trkpt lat="47.21242" lon="-1.48625">
        <ele>52</ele>
        <time>2020-09-19T10:06:16.000Z</time>
      </trkpt>
      <trkpt lat="47.21236" lon="-1.48646">
        <ele>52</ele>
        <time>2020-09-19T10:06:18.000Z</time>
      </trkpt>
      <trkpt lat="47.2123" lon="-1.48667">
        <ele>51</ele>
        <time>2020-09-19T10:06:20.000Z</time>
      </trkpt>
      <trkpt lat="47.21224" lon="-1.48687">
        <ele>51</ele>
        <time>2020-09-19T10:06:22.000Z</time>
      </trkpt>
      <trkpt lat="47.21219" lon="-1.48708">
        <ele>51</ele>
        <time>2020-09-19T10:06:24.000Z</time>
      </trkpt>
      <trkpt lat="47.21214" lon="-1.48729">
        <ele>51</ele>
        <time>2020-09-19T10:06:26.000Z</time>
      </trkpt>
      <trkpt lat="47.21209" lon="-1.48749">
        <ele>51</ele>
        <time>2020-09-19T10:06:28.000Z</time>
      </trkpt>
      <trkpt lat="47.21205" lon="-1.48769">
        <ele>51</ele>
        <time>2020-09-19T10:06:30.000Z</time>
      </trkpt>
      <trkpt lat="47.21201" lon="-1.4879">
        <ele>50</ele>
        <time>2020-09-19T10:06:32.000Z</time>
      </trkpt>
      <trkpt lat="47.21197" lon="-1.4881">
        <ele>50</ele>
        <time>2020-09-19T10:06:34.000Z</time>
      </trkpt>
      <trkpt lat="47.21193" lon="-1.4883">
        <ele>50</ele>
        <time>2020-09-19T10:06:36.000Z</time>
      </trkpt>
      <trkpt lat="47.21189" lon="-1.4885">
        <ele>50</ele>
        <time>2020-09-19T10:06:38.000Z</time>
      </trkpt>
      <trkpt lat="47.21188" lon="-1.48871">
        <ele>51</ele>
        <time>2020-09-19T10:06:40.000Z</time>
      </trkpt>
      <trkpt lat="47.21186" lon="-1.48893">
        <ele>51</ele>
        <time>2020-09-19T10:06:42.000Z</time>
      </trkpt>
      <trkpt lat="47.21178" lon="-1.48912">
        <ele>51</ele>
        <time>2020-09-19T10:06:44.000Z</time>
      </trkpt>
      <trkpt lat="47.21172" lon="-1.48931">
        <ele>51</ele>
        <time>2020-09-19T10:06:46.000Z</time>
      </trkpt>
      <trkpt lat="47.21169" lon="-1.48952">
        <ele>51</ele>
        <time>2020-09-19T10:06:48.000Z</time>
      </trkpt>
      <trkpt lat="47.21165" lon="-1.48973">
        <ele>52</ele>
        <time>2020-09-19T10:06:50.000Z</time>
      </trkpt>
      <trkpt lat="47.21161" lon="-1.48994">
        <ele>52</ele>
        <time>2020-09-19T10:06:52.000Z</time>
      </trkpt>
      <trkpt lat="47.21158" lon="-1.49015">
        <ele>52</ele>
        <time>2020-09-19T10:06:54.000Z</time>
      </trkpt>
      <trkpt lat="47.21154" lon="-1.49034">
        <ele>53</ele>
        <time>2020-09-19T10:06:56.000Z</time>
      </trkpt>
      <trkpt lat="47.21154" lon="-1.49053">
        <ele>53</ele>
        <time>2020-09-19T10:06:58.000Z</time>
      </trkpt>
      <trkpt lat="47.21161" lon="-1.4907">
        <ele>52</ele>
        <time>2020-09-19T10:07:00.000Z</time>
      </trkpt>
      <trkpt lat="47.21162" lon="-1.49087">
        <ele>52</ele>
        <time>2020-09-19T10:07:02.000Z</time>
      </trkpt>
      <trkpt lat="47.21156" lon="-1.49103">
        <ele>52</ele>
        <time>2020-09-19T10:07:04.000Z</time>
      </trkpt>
      <trkpt lat="47.21151" lon="-1.4912">
        <ele>52</ele>
        <time>2020-09-19T10:07:06.000Z</time>
      </trkpt>
      <trkpt lat="47.21149" lon="-1.49141">
        <ele>52</ele>
        <time>2020-09-19T10:07:08.000Z</time>
      </trkpt>
      <trkpt lat="47.21147" lon="-1.49162">
        <ele>53</ele>
        <time>2020-09-19T10:07:10.000Z</time>
      </trkpt>
      <trkpt lat="47.21144" lon="-1.49184">
        <ele>52</ele>
        <time>2020-09-19T10:07:12.000Z</time>
      </trkpt>
      <trkpt lat="47.21142" lon="-1.49206">
        <ele>51</ele>
        <time>2020-09-19T10:07:14.000Z</time>
      </trkpt>
      <trkpt lat="47.21139" lon="-1.49229">
        <ele>51</ele>
        <time>2020-09-19T10:07:16.000Z</time>
      </trkpt>
      <trkpt lat="47.21137" lon="-1.49251">
        <ele>51</ele>
        <time>2020-09-19T10:07:18.000Z</time>
      </trkpt>
      <trkpt lat="47.21136" lon="-1.49273">
        <ele>51</ele>
        <time>2020-09-19T10:07:20.000Z</time>
      </trkpt>
      <trkpt lat="47.21135" lon="-1.49294">
        <ele>52</ele>
        <time>2020-09-19T10:07:22.000Z</time>
      </trkpt>
      <trkpt lat="47.21134" lon="-1.49316">
        <ele>52</ele>
        <time>2020-09-19T10:07:24.000Z</time>
      </trkpt>
      <trkpt lat="47.21132" lon="-1.49337">
        <ele>52</ele>
        <time>2020-09-19T10:07:26.000Z</time>
      </trkpt>
      <trkpt lat="47.21131" lon="-1.4936">
        <ele>52</ele>
        <time>2020-09-19T10:07:28.000Z</time>
      </trkpt>
      <trkpt lat="47.2113" lon="-1.49382">
        <ele>52</ele>
        <time>2020-09-19T10:07:30.000Z</time>
      </trkpt>
      <trkpt lat="47.21129" lon="-1.49404">
        <ele>52</ele>
        <time>2020-09-19T10:07:32.000Z</time>
      </trkpt>
      <trkpt lat="47.21129" lon="-1.49426">
        <ele>52</ele>
        <time>2020-09-19T10:07:34.000Z</time>
      </trkpt>
      <trkpt lat="47.21128" lon="-1.49448">
        <ele>52</ele>
        <time>2020-09-19T10:07:36.000Z</time>
      </trkpt>
      <trkpt lat="47.21127" lon="-1.4947">
        <ele>52</ele>
        <time>2020-09-19T10:07:38.000Z</time>
      </trkpt>
      <trkpt lat="47.21126" lon="-1.4949">
        <ele>52</ele>
        <time>2020-09-19T10:07:40.000Z</time>
      </trkpt>
      <trkpt lat="47.21126" lon="-1.4951">
        <ele>52</ele>
        <time>2020-09-19T10:07:42.000Z</time>
      </trkpt>
      <trkpt lat="47.21126" lon="-1.4953">
        <ele>52</ele>
        <time>2020-09-19T10:07:44.000Z</time>
      </trkpt>
      <trkpt lat="47.21129" lon="-1.49549">
        <ele>52</ele>
        <time>2020-09-19T10:07:46.000Z</time>
      </trkpt>
      <trkpt lat="47.21135" lon="-1.49566">
        <ele>51</ele>
        <time>2020-09-19T10:07:48.000Z</time>
      </trkpt>
      <trkpt lat="47.21137" lon="-1.49586">
        <ele>51</ele>
        <time>2020-09-19T10:07:50.000Z</time>
      </trkpt>
      <trkpt lat="47.21129" lon="-1.49602">
        <ele>52</ele>
        <time>2020-09-19T10:07:52.000Z</time>
      </trkpt>
      <trkpt lat="47.21123" lon="-1.49618">
        <ele>52</ele>
        <time>2020-09-19T10:07:54.000Z</time>
      </trkpt>
      <trkpt lat="47.21122" lon="-1.49638">
        <ele>52</ele>
        <time>2020-09-19T10:07:56.000Z</time>
      </trkpt>
      <trkpt lat="47.2112" lon="-1.49659">
        <ele>52</ele>
        <time>2020-09-19T10:07:58.000Z</time>
      </trkpt>
      <trkpt lat="47.21119" lon="-1.4968">
        <ele>52</ele>
        <time>2020-09-19T10:08:00.000Z</time>
      </trkpt>
      <trkpt lat="47.21117" lon="-1.49701">
        <ele>52</ele>
        <time>2020-09-19T10:08:02.000Z</time>
      </trkpt>
      <trkpt lat="47.21116" lon="-1.49722">
        <ele>52</ele>
        <time>2020-09-19T10:08:04.000Z</time>
      </trkpt>
      <trkpt lat="47.21115" lon="-1.49743">
        <ele>51</ele>
        <time>2020-09-19T10:08:06.000Z</time>
      </trkpt>
      <trkpt lat="47.21113" lon="-1.49765">
        <ele>51</ele>
        <time>2020-09-19T10:08:08.000Z</time>
      </trkpt>
      <trkpt lat="47.21111" lon="-1.49787">
        <ele>51</ele>
        <time>2020-09-19T10:08:10.000Z</time>
      </trkpt>
      <trkpt lat="47.21108" lon="-1.4981">
        <ele>51</ele>
        <time>2020-09-19T10:08:12.000Z</time>
      </trkpt>
      <trkpt lat="47.21104" lon="-1.4983">
        <ele>51</ele>
        <time>2020-09-19T10:08:14.000Z</time>
      </trkpt>
      <trkpt lat="47.21099" lon="-1.49851">
        <ele>52</ele>
        <time>2020-09-19T10:08:16.000Z</time>
      </trkpt>
      <trkpt lat="47.21097" lon="-1.4987">
        <ele>52</ele>
        <time>2020-09-19T10:08:18.000Z</time>
      </trkpt>
      <trkpt lat="47.21092" lon="-1.49889">
        <ele>52</ele>
        <time>2020-09-19T10:08:20.000Z</time>
      </trkpt>
      <trkpt lat="47.21086" lon="-1.49907">
        <ele>52</ele>
        <time>2020-09-19T10:08:22.000Z</time>
      </trkpt>
      <trkpt lat="47.2108" lon="-1.49928">
        <ele>53</ele>
        <time>2020-09-19T10:08:24.000Z</time>
      </trkpt>
      <trkpt lat="47.21074" lon="-1.49948">
        <ele>53</ele>
        <time>2020-09-19T10:08:26.000Z</time>
      </trkpt>
      <trkpt lat="47.21069" lon="-1.49968">
        <ele>53</ele>
        <time>2020-09-19T10:08:28.000Z</time>
      </trkpt>
      <trkpt lat="47.21064" lon="-1.49988">
        <ele>53</ele>
        <time>2020-09-19T10:08:30.000Z</time>
      </trkpt>
      <trkpt lat="47.21059" lon="-1.50009">
        <ele>53</ele>
        <time>2020-09-19T10:08:32.000Z</time>
      </trkpt>
      <trkpt lat="47.21054" lon="-1.50028">
        <ele>53</ele>
        <time>2020-09-19T10:08:34.000Z</time>
      </trkpt>
      <trkpt lat="47.21049" lon="-1.50048">
        <ele>53</ele>
        <time>2020-09-19T10:08:36.000Z</time>
      </trkpt>
      <trkpt lat="47.21044" lon="-1.50068">
        <ele>53</ele>
        <time>2020-09-19T10:08:38.000Z</time>
      </trkpt>
      <trkpt lat="47.21039" lon="-1.50087">
        <ele>53</ele>
        <time>2020-09-19T10:08:40.000Z</time>
      </trkpt>
      <trkpt lat="47.21034" lon="-1.50107">
        <ele>53</ele>
        <time>2020-09-19T10:08:42.000Z</time>
      </trkpt>
      <trkpt lat="47.21029" lon="-1.50127">
        <ele>54</ele>
        <time>2020-09-19T10:08:44.000Z</time>
      </trkpt>
      <trkpt lat="47.21025" lon="-1.50147">
        <ele>53</ele>
        <time>2020-09-19T10:08:46.000Z</time>
      </trkpt>
      <trkpt lat="47.21021" lon="-1.50167">
        <ele>53</ele>
        <time>2020-09-19T10:08:48.000Z</time>
      </trkpt>
      <trkpt lat="47.21016" lon="-1.50185">
        <ele>53</ele>
        <time>2020-09-19T10:08:50.000Z</time>
      </trkpt>
      <trkpt lat="47.21013" lon="-1.50202">
        <ele>53</ele>
        <time>2020-09-19T10:08:52.000Z</time>
      </trkpt>
      <trkpt lat="47.21017" lon="-1.50216">
        <ele>53</ele>
        <time>2020-09-19T10:08:54.000Z</time>
      </trkpt>
      <trkpt lat="47.2102" lon="-1.5023">
        <ele>53</ele>
        <time>2020-09-19T10:08:56.000Z</time>
      </trkpt>
      <trkpt lat="47.21014" lon="-1.50244">
        <ele>53</ele>
        <time>2020-09-19T10:08:58.000Z</time>
      </trkpt>
      <trkpt lat="47.21007" lon="-1.50257">
        <ele>53</ele>
        <time>2020-09-19T10:09:00.000Z</time>
      </trkpt>
      <trkpt lat="47.21004" lon="-1.50275">
        <ele>54</ele>
        <time>2020-09-19T10:09:02.000Z</time>
      </trkpt>
      <trkpt lat="47.21002" lon="-1.50296">
        <ele>54</ele>
        <time>2020-09-19T10:09:04.000Z</time>
      </trkpt>
      <trkpt lat="47.21001" lon="-1.50317">
        <ele>53</ele>
        <time>2020-09-19T10:09:06.000Z</time>
      </trkpt>
      <trkpt lat="47.21" lon="-1.50339">
        <ele>53</ele>
        <time>2020-09-19T10:09:08.000Z</time>
      </trkpt>
      <trkpt lat="47.20999" lon="-1.50362">
        <ele>53</ele>
        <time>2020-09-19T10:09:10.000Z</time>
      </trkpt>
      <trkpt lat="47.21" lon="-1.50385">
        <ele>54</ele>
        <time>2020-09-19T10:09:12.000Z</time>
      </trkpt>
      <trkpt lat="47.21" lon="-1.50407">
        <ele>54</ele>
        <time>2020-09-19T10:09:14.000Z</time>
      </trkpt>
      <trkpt lat="47.21001" lon="-1.50428">
        <ele>54</ele>
        <time>2020-09-19T10:09:16.000Z</time>
      </trkpt>
      <trkpt lat="47.21002" lon="-1.50449">
        <ele>54</ele>
        <time>2020-09-19T10:09:18.000Z</time>
      </trkpt>
      <trkpt lat="47.21002" lon="-1.50471">
        <ele>54</ele>
        <time>2020-09-19T10:09:20.000Z</time>
      </trkpt>
      <trkpt lat="47.21002" lon="-1.50494">
        <ele>54</ele>
        <time>2020-09-19T10:09:22.000Z</time>
      </trkpt>
      <trkpt lat="47.21003" lon="-1.50515">
        <ele>54</ele>
        <time>2020-09-19T10:09:24.000Z</time>
      </trkpt>
      <trkpt lat="47.21003" lon="-1.50537">
        <ele>54</ele>
        <time>2020-09-19T10:09:26.000Z</time>
      </trkpt>
      <trkpt lat="47.21004" lon="-1.5056">
        <ele>54</ele>
        <time>2020-09-19T10:09:28.000Z</time>
      </trkpt>
      <trkpt lat="47.21004" lon="-1.50583">
        <ele>54</ele>
        <time>2020-09-19T10:09:30.000Z</time>
      </trkpt>
      <trkpt lat="47.21004" lon="-1.50605">
        <ele>54</ele>
        <time>2020-09-19T10:09:32.000Z</time>
      </trkpt>
      <trkpt lat="47.21003" lon="-1.50629">
        <ele>53</ele>
        <time>2020-09-19T10:09:34.000Z</time>
      </trkpt>
      <trkpt lat="47.21002" lon="-1.5065">
        <ele>54</ele>
        <time>2020-09-19T10:09:36.000Z</time>
      </trkpt>
      <trkpt lat="47.21" lon="-1.50672">
        <ele>54</ele>
        <time>2020-09-19T10:09:38.000Z</time>
      </trkpt>
      <trkpt lat="47.20998" lon="-1.50694">
        <ele>54</ele>
        <time>2020-09-19T10:09:40.000Z</time>
      </trkpt>
      <trkpt lat="47.20996" lon="-1.50716">
        <ele>54</ele>
        <time>2020-09-19T10:09:42.000Z</time>
      </trkpt>
      <trkpt lat="47.20993" lon="-1.50738">
        <ele>53</ele>
        <time>2020-09-19T10:09:44.000Z</time>
      </trkpt>
      <trkpt lat="47.20992" lon="-1.50761">
        <ele>53</ele>
        <time>2020-09-19T10:09:46.000Z</time>
      </trkpt>
      <trkpt lat="47.2099" lon="-1.50783">
        <ele>53</ele>
        <time>2020-09-19T10:09:48.000Z</time>
      </trkpt>
      <trkpt lat="47.20987" lon="-1.50806">
        <ele>53</ele>
        <time>2020-09-19T10:09:50.000Z</time>
      </trkpt>
      <trkpt lat="47.20985" lon="-1.50827">
        <ele>52</ele>
        <time>2020-09-19T10:09:52.000Z</time>
      </trkpt>
      <trkpt lat="47.20982" lon="-1.50848">
        <ele>53</ele>
        <time>2020-09-19T10:09:54.000Z</time>
      </trkpt>
      <trkpt lat="47.20979" lon="-1.5087">
        <ele>53</ele>
        <time>2020-09-19T10:09:56.000Z</time>
      </trkpt>
      <trkpt lat="47.20976" lon="-1.50891">
        <ele>53</ele>
        <time>2020-09-19T10:09:58.000Z</time>
      </trkpt>
      <trkpt lat="47.20974" lon="-1.50911">
        <ele>53</ele>
        <time>2020-09-19T10:10:00.000Z</time>
      </trkpt>
      <trkpt lat="47.20972" lon="-1.50933">
        <ele>54</ele>
        <time>2020-09-19T10:10:02.000Z</time>
      </trkpt>
      <trkpt lat="47.2097" lon="-1.50953">
        <ele>53</ele>
        <time>2020-09-19T10:10:04.000Z</time>
      </trkpt>
      <trkpt lat="47.20968" lon="-1.50975">
        <ele>53</ele>
        <time>2020-09-19T10:10:06.000Z</time>
      </trkpt>
      <trkpt lat="47.20965" lon="-1.50996">
        <ele>53</ele>
        <time>2020-09-19T10:10:08.000Z</time>
      </trkpt>
      <trkpt lat="47.2096" lon="-1.51015">
        <ele>52</ele>
        <time>2020-09-19T10:10:10.000Z</time>
      </trkpt>
      <trkpt lat="47.20953" lon="-1.51035">
        <ele>52</ele>
        <time>2020-09-19T10:10:12.000Z</time>
      </trkpt>
      <trkpt lat="47.20949" lon="-1.51057">
        <ele>52</ele>
        <time>2020-09-19T10:10:14.000Z</time>
      </trkpt>
      <trkpt lat="47.20946" lon="-1.51079">
        <ele>52</ele>
        <time>2020-09-19T10:10:16.000Z</time>
      </trkpt>
      <trkpt lat="47.2094" lon="-1.51099">
        <ele>52</ele>
        <time>2020-09-19T10:10:18.000Z</time>
      </trkpt>
      <trkpt lat="47.20935" lon="-1.51119">
        <ele>52</ele>
        <time>2020-09-19T10:10:20.000Z</time>
      </trkpt>
      <trkpt lat="47.20929" lon="-1.51139">
        <ele>52</ele>
        <time>2020-09-19T10:10:22.000Z</time>
      </trkpt>
      <trkpt lat="47.20922" lon="-1.51159">
        <ele>52</ele>
        <time>2020-09-19T10:10:24.000Z</time>
      </trkpt>
      <trkpt lat="47.20916" lon="-1.51178">
        <ele>52</ele>
        <time>2020-09-19T10:10:26.000Z</time>
      </trkpt>
      <trkpt lat="47.20909" lon="-1.51195">
        <ele>51</ele>
        <time>2020-09-19T10:10:28.000Z</time>
      </trkpt>
      <trkpt lat="47.20902" lon="-1.51214">
        <ele>51</ele>
        <time>2020-09-19T10:10:30.000Z</time>
      </trkpt>
      <trkpt lat="47.20895" lon="-1.51233">
        <ele>52</ele>
        <time>2020-09-19T10:10:32.000Z</time>
      </trkpt>
      <trkpt lat="47.20888" lon="-1.51252">
        <ele>52</ele>
        <time>2020-09-19T10:10:34.000Z</time>
      </trkpt>
      <trkpt lat="47.20881" lon="-1.5127">
        <ele>52</ele>
        <time>2020-09-19T10:10:36.000Z</time>
      </trkpt>
      <trkpt lat="47.20874" lon="-1.51287">
        <ele>51</ele>
        <time>2020-09-19T10:10:38.000Z</time>
      </trkpt>
      <trkpt lat="47.20866" lon="-1.51305">
        <ele>52</ele>
        <time>2020-09-19T10:10:40.000Z</time>
      </trkpt>
      <trkpt lat="47.20858" lon="-1.51323">
        <ele>52</ele>
        <time>2020-09-19T10:10:42.000Z</time>
      </trkpt>
      <trkpt lat="47.20851" lon="-1.5134">
        <ele>52</ele>
        <time>2020-09-19T10:10:44.000Z</time>
      </trkpt>
      <trkpt lat="47.20846" lon="-1.5136">
        <ele>53</ele>
        <time>2020-09-19T10:10:46.000Z</time>
      </trkpt>
      <trkpt lat="47.20841" lon="-1.51379">
        <ele>53</ele>
        <time>2020-09-19T10:10:48.000Z</time>
      </trkpt>
      <trkpt lat="47.20836" lon="-1.51397">
        <ele>53</ele>
        <time>2020-09-19T10:10:50.000Z</time>
      </trkpt>
      <trkpt lat="47.20831" lon="-1.51418">
        <ele>53</ele>
        <time>2020-09-19T10:10:52.000Z</time>
      </trkpt>
      <trkpt lat="47.20828" lon="-1.51439">
        <ele>53</ele>
        <time>2020-09-19T10:10:54.000Z</time>
      </trkpt>
      <trkpt lat="47.20825" lon="-1.51459">
        <ele>53</ele>
        <time>2020-09-19T10:10:56.000Z</time>
      </trkpt>
      <trkpt lat="47.20821" lon="-1.51481">
        <ele>53</ele>
        <time>2020-09-19T10:10:58.000Z</time>
      </trkpt>
      <trkpt lat="47.20817" lon="-1.51502">
        <ele>53</ele>
        <time>2020-09-19T10:11:00.000Z</time>
      </trkpt>
      <trkpt lat="47.20814" lon="-1.51523">
        <ele>53</ele>
        <time>2020-09-19T10:11:02.000Z</time>
      </trkpt>
      <trkpt lat="47.20811" lon="-1.51544">
        <ele>53</ele>
        <time>2020-09-19T10:11:04.000Z</time>
      </trkpt>
      <trkpt lat="47.20808" lon="-1.51566">
        <ele>52</ele>
        <time>2020-09-19T10:11:06.000Z</time>
      </trkpt>
      <trkpt lat="47.20805" lon="-1.51587">
        <ele>51</ele>
        <time>2020-09-19T10:11:08.000Z</time>
      </trkpt>
      <trkpt lat="47.20804" lon="-1.51608">
        <ele>52</ele>
        <time>2020-09-19T10:11:10.000Z</time>
      </trkpt>
      <trkpt lat="47.20801" lon="-1.51628">
        <ele>51</ele>
        <time>2020-09-19T10:11:12.000Z</time>
      </trkpt>
      <trkpt lat="47.20798" lon="-1.51649">
        <ele>51</ele>
        <time>2020-09-19T10:11:14.000Z</time>
      </trkpt>
      <trkpt lat="47.20794" lon="-1.5167">
        <ele>51</ele>
        <time>2020-09-19T10:11:16.000Z</time>
      </trkpt>
      <trkpt lat="47.20791" lon="-1.51689">
        <ele>51</ele>
        <time>2020-09-19T10:11:18.000Z</time>
      </trkpt>
      <trkpt lat="47.20787" lon="-1.51709">
        <ele>51</ele>
        <time>2020-09-19T10:11:20.000Z</time>
      </trkpt>
      <trkpt lat="47.20783" lon="-1.51729">
        <ele>51</ele>
        <time>2020-09-19T10:11:22.000Z</time>
      </trkpt>
      <trkpt lat="47.20778" lon="-1.5175">
        <ele>51</ele>
        <time>2020-09-19T10:11:24.000Z</time>
      </trkpt>
      <trkpt lat="47.20773" lon="-1.51769">
        <ele>51</ele>
        <time>2020-09-19T10:11:26.000Z</time>
      </trkpt>
      <trkpt lat="47.20768" lon="-1.5179">
        <ele>51</ele>
        <time>2020-09-19T10:11:28.000Z</time>
      </trkpt>
      <trkpt lat="47.20765" lon="-1.51809">
        <ele>52</ele>
        <time>2020-09-19T10:11:30.000Z</time>
      </trkpt>
      <trkpt lat="47.2076" lon="-1.51828">
        <ele>52</ele>
        <time>2020-09-19T10:11:32.000Z</time>
      </trkpt>
      <trkpt lat="47.20754" lon="-1.51847">
        <ele>52</ele>
        <time>2020-09-19T10:11:34.000Z</time>
      </trkpt>
      <trkpt lat="47.20745" lon="-1.51864">
        <ele>52</ele>
        <time>2020-09-19T10:11:36.000Z</time>
      </trkpt>
      <trkpt lat="47.20737" lon="-1.51883">
        <ele>52</ele>
        <time>2020-09-19T10:11:38.000Z</time>
      </trkpt>
      <trkpt lat="47.20729" lon="-1.51902">
        <ele>52</ele>
        <time>2020-09-19T10:11:40.000Z</time>
      </trkpt>
      <trkpt lat="47.20721" lon="-1.5192">
        <ele>53</ele>
        <time>2020-09-19T10:11:42.000Z</time>
      </trkpt>
      <trkpt lat="47.20713" lon="-1.51939">
        <ele>53</ele>
        <time>2020-09-19T10:11:44.000Z</time>
      </trkpt>
      <trkpt lat="47.20704" lon="-1.51956">
        <ele>53</ele>
        <time>2020-09-19T10:11:46.000Z</time>
      </trkpt>
      <trkpt lat="47.20695" lon="-1.51972">
        <ele>53</ele>
        <time>2020-09-19T10:11:48.000Z</time>
      </trkpt>
      <trkpt lat="47.20685" lon="-1.51989">
        <ele>53</ele>
        <time>2020-09-19T10:11:50.000Z</time>
      </trkpt>
      <trkpt lat="47.20676" lon="-1.52005">
        <ele>52</ele>
        <time>2020-09-19T10:11:52.000Z</time>
      </trkpt>
      <trkpt lat="47.20667" lon="-1.52021">
        <ele>52</ele>
        <time>2020-09-19T10:11:54.000Z</time>
      </trkpt>
      <trkpt lat="47.20658" lon="-1.52036">
        <ele>52</ele>
        <time>2020-09-19T10:11:56.000Z</time>
      </trkpt>
      <trkpt lat="47.20647" lon="-1.52052">
        <ele>52</ele>
        <time>2020-09-19T10:11:58.000Z</time>
      </trkpt>
      <trkpt lat="47.20637" lon="-1.52067">
        <ele>52</ele>
        <time>2020-09-19T10:12:00.000Z</time>
      </trkpt>
      <trkpt lat="47.20628" lon="-1.52083">
        <ele>52</ele>
        <time>2020-09-19T10:12:02.000Z</time>
      </trkpt>
      <trkpt lat="47.20618" lon="-1.52099">
        <ele>53</ele>
        <time>2020-09-19T10:12:04.000Z</time>
      </trkpt>
      <trkpt lat="47.20609" lon="-1.52115">
        <ele>53</ele>
        <time>2020-09-19T10:12:06.000Z</time>
      </trkpt>
      <trkpt lat="47.206" lon="-1.52132">
        <ele>54</ele>
        <time>2020-09-19T10:12:08.000Z</time>
      </trkpt>
      <trkpt lat="47.20591" lon="-1.52149">
        <ele>54</ele>
        <time>2020-09-19T10:12:10.000Z</time>
      </trkpt>
      <trkpt lat="47.20582" lon="-1.52165">
        <ele>54</ele>
        <time>2020-09-19T10:12:12.000Z</time>
      </trkpt>
      <trkpt lat="47.20572" lon="-1.52181">
        <ele>53</ele>
        <time>2020-09-19T10:12:14.000Z</time>
      </trkpt>
      <trkpt lat="47.20564" lon="-1.52197">
        <ele>53</ele>
        <time>2020-09-19T10:12:16.000Z</time>
      </trkpt>
      <trkpt lat="47.20555" lon="-1.52213">
        <ele>54</ele>
        <time>2020-09-19T10:12:18.000Z</time>
      </trkpt>
      <trkpt lat="47.20547" lon="-1.5223">
        <ele>53</ele>
        <time>2020-09-19T10:12:20.000Z</time>
      </trkpt>
      <trkpt lat="47.2054" lon="-1.52248">
        <ele>53</ele>
        <time>2020-09-19T10:12:22.000Z</time>
      </trkpt>
      <trkpt lat="47.20532" lon="-1.52265">
        <ele>53</ele>
        <time>2020-09-19T10:12:24.000Z</time>
      </trkpt>
      <trkpt lat="47.20526" lon="-1.52283">
        <ele>53</ele>
        <time>2020-09-19T10:12:26.000Z</time>
      </trkpt>
      <trkpt lat="47.2052" lon="-1.52303">
        <ele>52</ele>
        <time>2020-09-19T10:12:28.000Z</time>
      </trkpt>
      <trkpt lat="47.20515" lon="-1.52323">
        <ele>52</ele>
        <time>2020-09-19T10:12:30.000Z</time>
      </trkpt>
      <trkpt lat="47.20508" lon="-1.52343">
        <ele>51</ele>
        <time>2020-09-19T10:12:32.000Z</time>
      </trkpt>
      <trkpt lat="47.20502" lon="-1.52364">
        <ele>52</ele>
        <time>2020-09-19T10:12:34.000Z</time>
      </trkpt>
      <trkpt lat="47.20497" lon="-1.52384">
        <ele>51</ele>
        <time>2020-09-19T10:12:36.000Z</time>
      </trkpt>
      <trkpt lat="47.20492" lon="-1.52401">
        <ele>52</ele>
        <time>2020-09-19T10:12:38.000Z</time>
      </trkpt>
      <trkpt lat="47.20485" lon="-1.5242">
        <ele>53</ele>
        <time>2020-09-19T10:12:40.000Z</time>
      </trkpt>
      <trkpt lat="47.20478" lon="-1.52438">
        <ele>53</ele>
        <time>2020-09-19T10:12:42.000Z</time>
      </trkpt>
      <trkpt lat="47.20471" lon="-1.52454">
        <ele>53</ele>
        <time>2020-09-19T10:12:44.000Z</time>
      </trkpt>
      <trkpt lat="47.20463" lon="-1.5247">
        <ele>53</ele>
        <time>2020-09-19T10:12:46.000Z</time>
      </trkpt>
      <trkpt lat="47.20457" lon="-1.5249">
        <ele>52</ele>
        <time>2020-09-19T10:12:48.000Z</time>
      </trkpt>
      <trkpt lat="47.2045" lon="-1.52508">
        <ele>52</ele>
        <time>2020-09-19T10:12:50.000Z</time>
      </trkpt>
      <trkpt lat="47.20442" lon="-1.52525">
        <ele>53</ele>
        <time>2020-09-19T10:12:52.000Z</time>
      </trkpt>
      <trkpt lat="47.20435" lon="-1.52544">
        <ele>53</ele>
        <time>2020-09-19T10:12:54.000Z</time>
      </trkpt>
      <trkpt lat="47.20429" lon="-1.52562">
        <ele>53</ele>
        <time>2020-09-19T10:12:56.000Z</time>
      </trkpt>
      <trkpt lat="47.20423" lon="-1.52581">
        <ele>52</ele>
        <time>2020-09-19T10:12:58.000Z</time>
      </trkpt>
      <trkpt lat="47.20418" lon="-1.52602">
        <ele>53</ele>
        <time>2020-09-19T10:13:00.000Z</time>
      </trkpt>
      <trkpt lat="47.20412" lon="-1.52622">
        <ele>53</ele>
        <time>2020-09-19T10:13:02.000Z</time>
      </trkpt>
      <trkpt lat="47.20406" lon="-1.52641">
        <ele>53</ele>
        <time>2020-09-19T10:13:04.000Z</time>
      </trkpt>
      <trkpt lat="47.20398" lon="-1.52659">
        <ele>53</ele>
        <time>2020-09-19T10:13:06.000Z</time>
      </trkpt>
      <trkpt lat="47.2039" lon="-1.52676">
        <ele>53</ele>
        <time>2020-09-19T10:13:08.000Z</time>
      </trkpt>
      <trkpt lat="47.20381" lon="-1.52694">
        <ele>52</ele>
        <time>2020-09-19T10:13:10.000Z</time>
      </trkpt>
      <trkpt lat="47.20372" lon="-1.5271">
        <ele>52</ele>
        <time>2020-09-19T10:13:12.000Z</time>
      </trkpt>
      <trkpt lat="47.20363" lon="-1.52727">
        <ele>53</ele>
        <time>2020-09-19T10:13:14.000Z</time>
      </trkpt>
      <trkpt lat="47.20354" lon="-1.52745">
        <ele>53</ele>
        <time>2020-09-19T10:13:16.000Z</time>
      </trkpt>
      <trkpt lat="47.20346" lon="-1.52762">
        <ele>53</ele>
        <time>2020-09-19T10:13:18.000Z</time>
      </trkpt>
      <trkpt lat="47.20337" lon="-1.52779">
        <ele>53</ele>
        <time>2020-09-19T10:13:20.000Z</time>
      </trkpt>
      <trkpt lat="47.20329" lon="-1.52796">
        <ele>53</ele>
        <time>2020-09-19T10:13:22.000Z</time>
      </trkpt>
      <trkpt lat="47.2032" lon="-1.52813">
        <ele>52</ele>
        <time>2020-09-19T10:13:24.000Z</time>
      </trkpt>
      <trkpt lat="47.20311" lon="-1.52831">
        <ele>52</ele>
        <time>2020-09-19T10:13:26.000Z</time>
      </trkpt>
      <trkpt lat="47.20303" lon="-1.52848">
        <ele>52</ele>
        <time>2020-09-19T10:13:28.000Z</time>
      </trkpt>
      <trkpt lat="47.20296" lon="-1.52867">
        <ele>52</ele>
        <time>2020-09-19T10:13:30.000Z</time>
      </trkpt>
      <trkpt lat="47.20289" lon="-1.52885">
        <ele>52</ele>
        <time>2020-09-19T10:13:32.000Z</time>
      </trkpt>
      <trkpt lat="47.20282" lon="-1.52903">
        <ele>53</ele>
        <time>2020-09-19T10:13:34.000Z</time>
      </trkpt>
      <trkpt lat="47.20275" lon="-1.5292">
        <ele>53</ele>
        <time>2020-09-19T10:13:36.000Z</time>
      </trkpt>
      <trkpt lat="47.20266" lon="-1.52937">
        <ele>52</ele>
        <time>2020-09-19T10:13:38.000Z</time>
      </trkpt>
      <trkpt lat="47.20257" lon="-1.52953">
        <ele>52</ele>
        <time>2020-09-19T10:13:40.000Z</time>
      </trkpt>
      <trkpt lat="47.20247" lon="-1.52969">
        <ele>52</ele>
        <time>2020-09-19T10:13:42.000Z</time>
      </trkpt>
      <trkpt lat="47.20239" lon="-1.52985">
        <ele>52</ele>
        <time>2020-09-19T10:13:44.000Z</time>
      </trkpt>
      <trkpt lat="47.20229" lon="-1.53001">
        <ele>52</ele>
        <time>2020-09-19T10:13:46.000Z</time>
      </trkpt>
      <trkpt lat="47.20219" lon="-1.53016">
        <ele>52</ele>
        <time>2020-09-19T10:13:48.000Z</time>
      </trkpt>
      <trkpt lat="47.20207" lon="-1.5303">
        <ele>52</ele>
        <time>2020-09-19T10:13:50.000Z</time>
      </trkpt>
      <trkpt lat="47.20196" lon="-1.53042">
        <ele>52</ele>
        <time>2020-09-19T10:13:52.000Z</time>
      </trkpt>
      <trkpt lat="47.20185" lon="-1.53056">
        <ele>52</ele>
        <time>2020-09-19T10:13:54.000Z</time>
      </trkpt>
      <trkpt lat="47.20176" lon="-1.53072">
        <ele>52</ele>
        <time>2020-09-19T10:13:56.000Z</time>
      </trkpt>
      <trkpt lat="47.20166" lon="-1.53089">
        <ele>52</ele>
        <time>2020-09-19T10:13:58.000Z</time>
      </trkpt>
      <trkpt lat="47.20157" lon="-1.53107">
        <ele>52</ele>
        <time>2020-09-19T10:14:00.000Z</time>
      </trkpt>
      <trkpt lat="47.20149" lon="-1.53126">
        <ele>53</ele>
        <time>2020-09-19T10:14:02.000Z</time>
      </trkpt>
      <trkpt lat="47.20141" lon="-1.53145">
        <ele>53</ele>
        <time>2020-09-19T10:14:04.000Z</time>
      </trkpt>
      <trkpt lat="47.20134" lon="-1.53163">
        <ele>53</ele>
        <time>2020-09-19T10:14:06.000Z</time>
      </trkpt>
      <trkpt lat="47.20129" lon="-1.53182">
        <ele>53</ele>
        <time>2020-09-19T10:14:08.000Z</time>
      </trkpt>
      <trkpt lat="47.20124" lon="-1.53202">
        <ele>54</ele>
        <time>2020-09-19T10:14:10.000Z</time>
      </trkpt>
      <trkpt lat="47.20119" lon="-1.53222">
        <ele>53</ele>
        <time>2020-09-19T10:14:12.000Z</time>
      </trkpt>
      <trkpt lat="47.20114" lon="-1.53243">
        <ele>53</ele>
        <time>2020-09-19T10:14:14.000Z</time>
      </trkpt>
      <trkpt lat="47.20108" lon="-1.53263">
        <ele>53</ele>
        <time>2020-09-19T10:14:16.000Z</time>
      </trkpt>
      <trkpt lat="47.20102" lon="-1.53282">
        <ele>53</ele>
        <time>2020-09-19T10:14:18.000Z</time>
      </trkpt>
      <trkpt lat="47.20095" lon="-1.53302">
        <ele>52</ele>
        <time>2020-09-19T10:14:20.000Z</time>
      </trkpt>
      <trkpt lat="47.20087" lon="-1.53321">
        <ele>52</ele>
        <time>2020-09-19T10:14:22.000Z</time>
      </trkpt>
      <trkpt lat="47.20079" lon="-1.53339">
        <ele>52</ele>
        <time>2020-09-19T10:14:24.000Z</time>
      </trkpt>
      <trkpt lat="47.20072" lon="-1.53357">
        <ele>52</ele>
        <time>2020-09-19T10:14:26.000Z</time>
      </trkpt>
      <trkpt lat="47.20065" lon="-1.53375">
        <ele>52</ele>
        <time>2020-09-19T10:14:28.000Z</time>
      </trkpt>
      <trkpt lat="47.20059" lon="-1.53391">
        <ele>53</ele>
        <time>2020-09-19T10:14:30.000Z</time>
      </trkpt>
      <trkpt lat="47.20054" lon="-1.53404">
        <ele>53</ele>
        <time>2020-09-19T10:14:32.000Z</time>
      </trkpt>
      <trkpt lat="47.20048" lon="-1.53415">
        <ele>53</ele>
        <time>2020-09-19T10:14:36.000Z</time>
      </trkpt>
      <trkpt lat="47.2004" lon="-1.53419">
        <ele>47</ele>
        <time>2020-09-19T10:16:38.000Z</time>
      </trkpt>
      <trkpt lat="47.20046" lon="-1.53428">
        <ele>55</ele>
        <time>2020-09-19T10:21:34.000Z</time>
      </trkpt>
      <trkpt lat="47.20036" lon="-1.53431">
        <ele>55</ele>
        <time>2020-09-19T10:23:30.000Z</time>
      </trkpt>
      <trkpt lat="47.20039" lon="-1.53448">
        <ele>55</ele>
        <time>2020-09-19T10:23:35.000Z</time>
      </trkpt>
      <trkpt lat="47.20034" lon="-1.5346">
        <ele>52</ele>
        <time>2020-09-19T10:23:37.000Z</time>
      </trkpt>
      <trkpt lat="47.2003" lon="-1.53472">
        <ele>54</ele>
        <time>2020-09-19T10:23:39.000Z</time>
      </trkpt>
      <trkpt lat="47.20024" lon="-1.53484">
        <ele>54</ele>
        <time>2020-09-19T10:23:41.000Z</time>
      </trkpt>
      <trkpt lat="47.20017" lon="-1.53496">
        <ele>53</ele>
        <time>2020-09-19T10:23:43.000Z</time>
      </trkpt>
      <trkpt lat="47.20007" lon="-1.53507">
        <ele>53</ele>
        <time>2020-09-19T10:23:45.000Z</time>
      </trkpt>
      <trkpt lat="47.19997" lon="-1.53517">
        <ele>53</ele>
        <time>2020-09-19T10:23:47.000Z</time>
      </trkpt>
      <trkpt lat="47.19989" lon="-1.53529">
        <ele>54</ele>
        <time>2020-09-19T10:23:49.000Z</time>
      </trkpt>
      <trkpt lat="47.19983" lon="-1.53544">
        <ele>54</ele>
        <time>2020-09-19T10:23:51.000Z</time>
      </trkpt>
      <trkpt lat="47.19979" lon="-1.5356">
        <ele>54</ele>
        <time>2020-09-19T10:23:53.000Z</time>
      </trkpt>
      <trkpt lat="47.19975" lon="-1.53576">
        <ele>55</ele>
        <time>2020-09-19T10:23:55.000Z</time>
      </trkpt>
      <trkpt lat="47.19972" lon="-1.53592">
        <ele>55</ele>
        <time>2020-09-19T10:23:57.000Z</time>
      </trkpt>
      <trkpt lat="47.19969" lon="-1.53607">
        <ele>55</ele>
        <time>2020-09-19T10:23:59.000Z</time>
      </trkpt>
      <trkpt lat="47.19966" lon="-1.53624">
        <ele>54</ele>
        <time>2020-09-19T10:24:01.000Z</time>
      </trkpt>
      <trkpt lat="47.19963" lon="-1.5364">
        <ele>54</ele>
        <time>2020-09-19T10:24:03.000Z</time>
      </trkpt>
      <trkpt lat="47.19959" lon="-1.53657">
        <ele>53</ele>
        <time>2020-09-19T10:24:05.000Z</time>
      </trkpt>
      <trkpt lat="47.19956" lon="-1.53674">
        <ele>54</ele>
        <time>2020-09-19T10:24:07.000Z</time>
      </trkpt>
      <trkpt lat="47.19953" lon="-1.53692">
        <ele>53</ele>
        <time>2020-09-19T10:24:09.000Z</time>
      </trkpt>
      <trkpt lat="47.1995" lon="-1.5371">
        <ele>52</ele>
        <time>2020-09-19T10:24:11.000Z</time>
      </trkpt>
      <trkpt lat="47.19945" lon="-1.53728">
        <ele>53</ele>
        <time>2020-09-19T10:24:13.000Z</time>
      </trkpt>
      <trkpt lat="47.1994" lon="-1.53746">
        <ele>53</ele>
        <time>2020-09-19T10:24:15.000Z</time>
      </trkpt>
      <trkpt lat="47.19936" lon="-1.53765">
        <ele>54</ele>
        <time>2020-09-19T10:24:17.000Z</time>
      </trkpt>
      <trkpt lat="47.19933" lon="-1.53782">
        <ele>54</ele>
        <time>2020-09-19T10:24:19.000Z</time>
      </trkpt>
      <trkpt lat="47.19929" lon="-1.53799">
        <ele>54</ele>
        <time>2020-09-19T10:24:21.000Z</time>
      </trkpt>
      <trkpt lat="47.19926" lon="-1.53816">
        <ele>54</ele>
        <time>2020-09-19T10:24:23.000Z</time>
      </trkpt>
      <trkpt lat="47.19923" lon="-1.53833">
        <ele>53</ele>
        <time>2020-09-19T10:24:25.000Z</time>
      </trkpt>
      <trkpt lat="47.19919" lon="-1.53849">
        <ele>53</ele>
        <time>2020-09-19T10:24:27.000Z</time>
      </trkpt>
      <trkpt lat="47.19915" lon="-1.53866">
        <ele>53</ele>
        <time>2020-09-19T10:24:29.000Z</time>
      </trkpt>
      <trkpt lat="47.1991" lon="-1.53884">
        <ele>53</ele>
        <time>2020-09-19T10:24:31.000Z</time>
      </trkpt>
      <trkpt lat="47.19905" lon="-1.53902">
        <ele>53</ele>
        <time>2020-09-19T10:24:33.000Z</time>
      </trkpt>
      <trkpt lat="47.19901" lon="-1.53922">
        <ele>53</ele>
        <time>2020-09-19T10:24:35.000Z</time>
      </trkpt>
      <trkpt lat="47.19896" lon="-1.53942">
        <ele>54</ele>
        <time>2020-09-19T10:24:37.000Z</time>
      </trkpt>
      <trkpt lat="47.19891" lon="-1.53959">
        <ele>54</ele>
        <time>2020-09-19T10:24:39.000Z</time>
      </trkpt>
      <trkpt lat="47.19886" lon="-1.53978">
        <ele>54</ele>
        <time>2020-09-19T10:24:41.000Z</time>
      </trkpt>
      <trkpt lat="47.1988" lon="-1.53995">
        <ele>54</ele>
        <time>2020-09-19T10:24:43.000Z</time>
      </trkpt>
      <trkpt lat="47.19874" lon="-1.54015">
        <ele>54</ele>
        <time>2020-09-19T10:24:45.000Z</time>
      </trkpt>
      <trkpt lat="47.19868" lon="-1.54032">
        <ele>54</ele>
        <time>2020-09-19T10:24:47.000Z</time>
      </trkpt>
      <trkpt lat="47.19863" lon="-1.54046">
        <ele>54</ele>
        <time>2020-09-19T10:24:49.000Z</time>
      </trkpt>
      <trkpt lat="47.19858" lon="-1.5406">
        <ele>55</ele>
        <time>2020-09-19T10:24:51.000Z</time>
      </trkpt>
      <trkpt lat="47.19853" lon="-1.54074">
        <ele>54</ele>
        <time>2020-09-19T10:24:53.000Z</time>
      </trkpt>
      <trkpt lat="47.19846" lon="-1.5409">
        <ele>54</ele>
        <time>2020-09-19T10:24:55.000Z</time>
      </trkpt>
      <trkpt lat="47.19838" lon="-1.54105">
        <ele>54</ele>
        <time>2020-09-19T10:24:57.000Z</time>
      </trkpt>
      <trkpt lat="47.19833" lon="-1.54118">
        <ele>55</ele>
        <time>2020-09-19T10:24:59.000Z</time>
      </trkpt>
      <trkpt lat="47.19827" lon="-1.54134">
        <ele>55</ele>
        <time>2020-09-19T10:25:01.000Z</time>
      </trkpt>
      <trkpt lat="47.19819" lon="-1.5415">
        <ele>55</ele>
        <time>2020-09-19T10:25:03.000Z</time>
      </trkpt>
      <trkpt lat="47.19811" lon="-1.54164">
        <ele>56</ele>
        <time>2020-09-19T10:25:05.000Z</time>
      </trkpt>
      <trkpt lat="47.19806" lon="-1.54179">
        <ele>56</ele>
        <time>2020-09-19T10:25:07.000Z</time>
      </trkpt>
      <trkpt lat="47.19801" lon="-1.54191">
        <ele>56</ele>
        <time>2020-09-19T10:25:09.000Z</time>
      </trkpt>
      <trkpt lat="47.19797" lon="-1.54204">
        <ele>55</ele>
        <time>2020-09-19T10:25:13.000Z</time>
      </trkpt>
      <trkpt lat="47.19791" lon="-1.54221">
        <ele>55</ele>
        <time>2020-09-19T10:25:56.000Z</time>
      </trkpt>
      <trkpt lat="47.19785" lon="-1.54237">
        <ele>55</ele>
        <time>2020-09-19T10:25:58.000Z</time>
      </trkpt>
      <trkpt lat="47.19776" lon="-1.54255">
        <ele>55</ele>
        <time>2020-09-19T10:26:00.000Z</time>
      </trkpt>
      <trkpt lat="47.19764" lon="-1.5427">
        <ele>55</ele>
        <time>2020-09-19T10:26:02.000Z</time>
      </trkpt>
      <trkpt lat="47.19751" lon="-1.54287">
        <ele>55</ele>
        <time>2020-09-19T10:26:04.000Z</time>
      </trkpt>
      <trkpt lat="47.19736" lon="-1.54302">
        <ele>54</ele>
        <time>2020-09-19T10:26:06.000Z</time>
      </trkpt>
      <trkpt lat="47.19727" lon="-1.54309">
        <ele>54</ele>
        <time>2020-09-19T10:26:07.000Z</time>
      </trkpt>
      <trkpt lat="47.19719" lon="-1.54315">
        <ele>54</ele>
        <time>2020-09-19T10:26:08.000Z</time>
      </trkpt>
      <trkpt lat="47.1971" lon="-1.54322">
        <ele>53</ele>
        <time>2020-09-19T10:26:09.000Z</time>
      </trkpt>
      <trkpt lat="47.19701" lon="-1.54328">
        <ele>53</ele>
        <time>2020-09-19T10:26:10.000Z</time>
      </trkpt>
      <trkpt lat="47.19693" lon="-1.54335">
        <ele>53</ele>
        <time>2020-09-19T10:26:11.000Z</time>
      </trkpt>
      <trkpt lat="47.19684" lon="-1.54341">
        <ele>53</ele>
        <time>2020-09-19T10:26:12.000Z</time>
      </trkpt>
      <trkpt lat="47.19675" lon="-1.54348">
        <ele>53</ele>
        <time>2020-09-19T10:26:13.000Z</time>
      </trkpt>
      <trkpt lat="47.19667" lon="-1.54354">
        <ele>53</ele>
        <time>2020-09-19T10:26:14.000Z</time>
      </trkpt>
      <trkpt lat="47.19659" lon="-1.5436">
        <ele>53</ele>
        <time>2020-09-19T10:26:15.000Z</time>
      </trkpt>
      <trkpt lat="47.19651" lon="-1.54366">
        <ele>53</ele>
        <time>2020-09-19T10:26:16.000Z</time>
      </trkpt>
      <trkpt lat="47.19643" lon="-1.54373">
        <ele>53</ele>
        <time>2020-09-19T10:26:17.000Z</time>
      </trkpt>
      <trkpt lat="47.19628" lon="-1.54387">
        <ele>53</ele>
        <time>2020-09-19T10:26:19.000Z</time>
      </trkpt>
      <trkpt lat="47.19613" lon="-1.54401">
        <ele>53</ele>
        <time>2020-09-19T10:26:21.000Z</time>
      </trkpt>
      <trkpt lat="47.19599" lon="-1.54416">
        <ele>54</ele>
        <time>2020-09-19T10:26:23.000Z</time>
      </trkpt>
      <trkpt lat="47.19585" lon="-1.5443">
        <ele>53</ele>
        <time>2020-09-19T10:26:25.000Z</time>
      </trkpt>
      <trkpt lat="47.19571" lon="-1.54444">
        <ele>53</ele>
        <time>2020-09-19T10:26:27.000Z</time>
      </trkpt>
      <trkpt lat="47.19557" lon="-1.54458">
        <ele>54</ele>
        <time>2020-09-19T10:26:29.000Z</time>
      </trkpt>
      <trkpt lat="47.19543" lon="-1.54471">
        <ele>54</ele>
        <time>2020-09-19T10:26:31.000Z</time>
      </trkpt>
      <trkpt lat="47.19529" lon="-1.54485">
        <ele>55</ele>
        <time>2020-09-19T10:26:33.000Z</time>
      </trkpt>
      <trkpt lat="47.19516" lon="-1.54497">
        <ele>54</ele>
        <time>2020-09-19T10:26:35.000Z</time>
      </trkpt>
      <trkpt lat="47.19503" lon="-1.54507">
        <ele>54</ele>
        <time>2020-09-19T10:26:37.000Z</time>
      </trkpt>
      <trkpt lat="47.1949" lon="-1.54518">
        <ele>54</ele>
        <time>2020-09-19T10:26:39.000Z</time>
      </trkpt>
      <trkpt lat="47.19479" lon="-1.54529">
        <ele>54</ele>
        <time>2020-09-19T10:26:41.000Z</time>
      </trkpt>
      <trkpt lat="47.19473" lon="-1.54543">
        <ele>53</ele>
        <time>2020-09-19T10:26:43.000Z</time>
      </trkpt>
      <trkpt lat="47.19469" lon="-1.54558">
        <ele>53</ele>
        <time>2020-09-19T10:26:45.000Z</time>
      </trkpt>
      <trkpt lat="47.19467" lon="-1.54573">
        <ele>53</ele>
        <time>2020-09-19T10:26:48.000Z</time>
      </trkpt>
      <trkpt lat="47.19473" lon="-1.54589">
        <ele>54</ele>
        <time>2020-09-19T10:26:53.000Z</time>
      </trkpt>
      <trkpt lat="47.19472" lon="-1.54602">
        <ele>53</ele>
        <time>2020-09-19T10:26:55.000Z</time>
      </trkpt>
      <trkpt lat="47.19467" lon="-1.54617">
        <ele>53</ele>
        <time>2020-09-19T10:26:57.000Z</time>
      </trkpt>
      <trkpt lat="47.19458" lon="-1.5463">
        <ele>53</ele>
        <time>2020-09-19T10:26:59.000Z</time>
      </trkpt>
      <trkpt lat="47.19447" lon="-1.54637">
        <ele>54</ele>
        <time>2020-09-19T10:27:01.000Z</time>
      </trkpt>
      <trkpt lat="47.19441" lon="-1.5465">
        <ele>54</ele>
        <time>2020-09-19T10:27:03.000Z</time>
      </trkpt>
      <trkpt lat="47.19438" lon="-1.54671">
        <ele>54</ele>
        <time>2020-09-19T10:27:05.000Z</time>
      </trkpt>
      <trkpt lat="47.19434" lon="-1.54691">
        <ele>53</ele>
        <time>2020-09-19T10:27:07.000Z</time>
      </trkpt>
      <trkpt lat="47.19428" lon="-1.5471">
        <ele>54</ele>
        <time>2020-09-19T10:27:09.000Z</time>
      </trkpt>
      <trkpt lat="47.19421" lon="-1.5473">
        <ele>54</ele>
        <time>2020-09-19T10:27:11.000Z</time>
      </trkpt>
      <trkpt lat="47.19415" lon="-1.54751">
        <ele>55</ele>
        <time>2020-09-19T10:27:13.000Z</time>
      </trkpt>
      <trkpt lat="47.19409" lon="-1.54772">
        <ele>56</ele>
        <time>2020-09-19T10:27:15.000Z</time>
      </trkpt>
      <trkpt lat="47.19404" lon="-1.54793">
        <ele>57</ele>
        <time>2020-09-19T10:27:17.000Z</time>
      </trkpt>
      <trkpt lat="47.19398" lon="-1.54813">
        <ele>58</ele>
        <time>2020-09-19T10:27:19.000Z</time>
      </trkpt>
      <trkpt lat="47.19393" lon="-1.54833">
        <ele>59</ele>
        <time>2020-09-19T10:27:21.000Z</time>
      </trkpt>
      <trkpt lat="47.19388" lon="-1.54852">
        <ele>59</ele>
        <time>2020-09-19T10:27:23.000Z</time>
      </trkpt>
      <trkpt lat="47.19384" lon="-1.54871">
        <ele>60</ele>
        <time>2020-09-19T10:27:25.000Z</time>
      </trkpt>
      <trkpt lat="47.19379" lon="-1.54892">
        <ele>60</ele>
        <time>2020-09-19T10:27:27.000Z</time>
      </trkpt>
      <trkpt lat="47.19375" lon="-1.54913">
        <ele>61</ele>
        <time>2020-09-19T10:27:29.000Z</time>
      </trkpt>
      <trkpt lat="47.19369" lon="-1.54932">
        <ele>61</ele>
        <time>2020-09-19T10:27:31.000Z</time>
      </trkpt>
      <trkpt lat="47.19365" lon="-1.54952">
        <ele>62</ele>
        <time>2020-09-19T10:27:33.000Z</time>
      </trkpt>
      <trkpt lat="47.19359" lon="-1.54972">
        <ele>61</ele>
        <time>2020-09-19T10:27:35.000Z</time>
      </trkpt>
      <trkpt lat="47.19354" lon="-1.54993">
        <ele>60</ele>
        <time>2020-09-19T10:27:37.000Z</time>
      </trkpt>
      <trkpt lat="47.19348" lon="-1.55015">
        <ele>60</ele>
        <time>2020-09-19T10:27:39.000Z</time>
      </trkpt>
      <trkpt lat="47.19342" lon="-1.55036">
        <ele>59</ele>
        <time>2020-09-19T10:27:41.000Z</time>
      </trkpt>
      <trkpt lat="47.19337" lon="-1.55059">
        <ele>59</ele>
        <time>2020-09-19T10:27:43.000Z</time>
      </trkpt>
      <trkpt lat="47.19331" lon="-1.55083">
        <ele>58</ele>
        <time>2020-09-19T10:27:45.000Z</time>
      </trkpt>
      <trkpt lat="47.19326" lon="-1.55106">
        <ele>57</ele>
        <time>2020-09-19T10:27:47.000Z</time>
      </trkpt>
      <trkpt lat="47.1932" lon="-1.55129">
        <ele>56</ele>
        <time>2020-09-19T10:27:49.000Z</time>
      </trkpt>
      <trkpt lat="47.19314" lon="-1.55153">
        <ele>55</ele>
        <time>2020-09-19T10:27:51.000Z</time>
      </trkpt>
      <trkpt lat="47.19308" lon="-1.55177">
        <ele>55</ele>
        <time>2020-09-19T10:27:53.000Z</time>
      </trkpt>
      <trkpt lat="47.19302" lon="-1.55202">
        <ele>54</ele>
        <time>2020-09-19T10:27:55.000Z</time>
      </trkpt>
      <trkpt lat="47.19296" lon="-1.55225">
        <ele>54</ele>
        <time>2020-09-19T10:27:57.000Z</time>
      </trkpt>
      <trkpt lat="47.1929" lon="-1.55249">
        <ele>54</ele>
        <time>2020-09-19T10:27:59.000Z</time>
      </trkpt>
      <trkpt lat="47.19284" lon="-1.55272">
        <ele>54</ele>
        <time>2020-09-19T10:28:01.000Z</time>
      </trkpt>
      <trkpt lat="47.19279" lon="-1.55296">
        <ele>54</ele>
        <time>2020-09-19T10:28:03.000Z</time>
      </trkpt>
      <trkpt lat="47.19275" lon="-1.55318">
        <ele>53</ele>
        <time>2020-09-19T10:28:05.000Z</time>
      </trkpt>
      <trkpt lat="47.1927" lon="-1.55341">
        <ele>54</ele>
        <time>2020-09-19T10:28:07.000Z</time>
      </trkpt>
      <trkpt lat="47.19265" lon="-1.55361">
        <ele>54</ele>
        <time>2020-09-19T10:28:09.000Z</time>
      </trkpt>
      <trkpt lat="47.19259" lon="-1.55379">
        <ele>54</ele>
        <time>2020-09-19T10:28:11.000Z</time>
      </trkpt>
      <trkpt lat="47.19254" lon="-1.55395">
        <ele>54</ele>
        <time>2020-09-19T10:28:13.000Z</time>
      </trkpt>
      <trkpt lat="47.19252" lon="-1.55408">
        <ele>54</ele>
        <time>2020-09-19T10:28:17.000Z</time>
      </trkpt>
      <trkpt lat="47.19256" lon="-1.55422">
        <ele>54</ele>
        <time>2020-09-19T10:28:20.000Z</time>
      </trkpt>
      <trkpt lat="47.19257" lon="-1.55438">
        <ele>54</ele>
        <time>2020-09-19T10:28:22.000Z</time>
      </trkpt>
      <trkpt lat="47.19252" lon="-1.55456">
        <ele>54</ele>
        <time>2020-09-19T10:28:24.000Z</time>
      </trkpt>
      <trkpt lat="47.19246" lon="-1.55474">
        <ele>54</ele>
        <time>2020-09-19T10:28:26.000Z</time>
      </trkpt>
      <trkpt lat="47.19246" lon="-1.55496">
        <ele>54</ele>
        <time>2020-09-19T10:28:28.000Z</time>
      </trkpt>
      <trkpt lat="47.19245" lon="-1.55518">
        <ele>54</ele>
        <time>2020-09-19T10:28:30.000Z</time>
      </trkpt>
      <trkpt lat="47.19244" lon="-1.55541">
        <ele>54</ele>
        <time>2020-09-19T10:28:32.000Z</time>
      </trkpt>
      <trkpt lat="47.19243" lon="-1.55565">
        <ele>54</ele>
        <time>2020-09-19T10:28:34.000Z</time>
      </trkpt>
      <trkpt lat="47.19241" lon="-1.55588">
        <ele>54</ele>
        <time>2020-09-19T10:28:36.000Z</time>
      </trkpt>
      <trkpt lat="47.19239" lon="-1.55611">
        <ele>54</ele>
        <time>2020-09-19T10:28:38.000Z</time>
      </trkpt>
      <trkpt lat="47.19238" lon="-1.55635">
        <ele>54</ele>
        <time>2020-09-19T10:28:40.000Z</time>
      </trkpt>
      <trkpt lat="47.19238" lon="-1.55658">
        <ele>55</ele>
        <time>2020-09-19T10:28:42.000Z</time>
      </trkpt>
      <trkpt lat="47.19237" lon="-1.55682">
        <ele>55</ele>
        <time>2020-09-19T10:28:44.000Z</time>
      </trkpt>
      <trkpt lat="47.19237" lon="-1.55704">
        <ele>55</ele>
        <time>2020-09-19T10:28:46.000Z</time>
      </trkpt>
      <trkpt lat="47.19236" lon="-1.55727">
        <ele>55</ele>
        <time>2020-09-19T10:28:48.000Z</time>
      </trkpt>
      <trkpt lat="47.19236" lon="-1.5575">
        <ele>55</ele>
        <time>2020-09-19T10:28:50.000Z</time>
      </trkpt>
      <trkpt lat="47.19236" lon="-1.55774">
        <ele>55</ele>
        <time>2020-09-19T10:28:52.000Z</time>
      </trkpt>
      <trkpt lat="47.19236" lon="-1.55797">
        <ele>54</ele>
        <time>2020-09-19T10:28:54.000Z</time>
      </trkpt>
      <trkpt lat="47.19237" lon="-1.55822">
        <ele>54</ele>
        <time>2020-09-19T10:28:56.000Z</time>
      </trkpt>
      <trkpt lat="47.19238" lon="-1.55844">
        <ele>54</ele>
        <time>2020-09-19T10:28:58.000Z</time>
      </trkpt>
      <trkpt lat="47.19239" lon="-1.55868">
        <ele>55</ele>
        <time>2020-09-19T10:29:00.000Z</time>
      </trkpt>
      <trkpt lat="47.1924" lon="-1.55891">
        <ele>55</ele>
        <time>2020-09-19T10:29:02.000Z</time>
      </trkpt>
      <trkpt lat="47.19242" lon="-1.55914">
        <ele>55</ele>
        <time>2020-09-19T10:29:04.000Z</time>
      </trkpt>
      <trkpt lat="47.19243" lon="-1.55937">
        <ele>55</ele>
        <time>2020-09-19T10:29:06.000Z</time>
      </trkpt>
      <trkpt lat="47.19245" lon="-1.5596">
        <ele>55</ele>
        <time>2020-09-19T10:29:08.000Z</time>
      </trkpt>
      <trkpt lat="47.19247" lon="-1.55983">
        <ele>55</ele>
        <time>2020-09-19T10:29:10.000Z</time>
      </trkpt>
      <trkpt lat="47.19249" lon="-1.56006">
        <ele>55</ele>
        <time>2020-09-19T10:29:12.000Z</time>
      </trkpt>
      <trkpt lat="47.19252" lon="-1.56028">
        <ele>55</ele>
        <time>2020-09-19T10:29:14.000Z</time>
      </trkpt>
      <trkpt lat="47.19254" lon="-1.5605">
        <ele>55</ele>
        <time>2020-09-19T10:29:16.000Z</time>
      </trkpt>
      <trkpt lat="47.19257" lon="-1.56072">
        <ele>54</ele>
        <time>2020-09-19T10:29:18.000Z</time>
      </trkpt>
      <trkpt lat="47.19259" lon="-1.56095">
        <ele>55</ele>
        <time>2020-09-19T10:29:20.000Z</time>
      </trkpt>
      <trkpt lat="47.1926" lon="-1.56117">
        <ele>55</ele>
        <time>2020-09-19T10:29:22.000Z</time>
      </trkpt>
      <trkpt lat="47.19261" lon="-1.56139">
        <ele>55</ele>
        <time>2020-09-19T10:29:24.000Z</time>
      </trkpt>
      <trkpt lat="47.19262" lon="-1.56161">
        <ele>55</ele>
        <time>2020-09-19T10:29:26.000Z</time>
      </trkpt>
      <trkpt lat="47.19263" lon="-1.56183">
        <ele>55</ele>
        <time>2020-09-19T10:29:28.000Z</time>
      </trkpt>
      <trkpt lat="47.19264" lon="-1.56204">
        <ele>55</ele>
        <time>2020-09-19T10:29:30.000Z</time>
      </trkpt>
      <trkpt lat="47.19267" lon="-1.56224">
        <ele>55</ele>
        <time>2020-09-19T10:29:32.000Z</time>
      </trkpt>
      <trkpt lat="47.19271" lon="-1.56242">
        <ele>55</ele>
        <time>2020-09-19T10:29:34.000Z</time>
      </trkpt>
      <trkpt lat="47.1928" lon="-1.56258">
        <ele>54</ele>
        <time>2020-09-19T10:29:36.000Z</time>
      </trkpt>
      <trkpt lat="47.19287" lon="-1.56276">
        <ele>54</ele>
        <time>2020-09-19T10:29:38.000Z</time>
      </trkpt>
      <trkpt lat="47.19288" lon="-1.56299">
        <ele>54</ele>
        <time>2020-09-19T10:29:40.000Z</time>
      </trkpt>
      <trkpt lat="47.19282" lon="-1.5632">
        <ele>54</ele>
        <time>2020-09-19T10:29:42.000Z</time>
      </trkpt>
      <trkpt lat="47.19277" lon="-1.56342">
        <ele>54</ele>
        <time>2020-09-19T10:29:44.000Z</time>
      </trkpt>
      <trkpt lat="47.1928" lon="-1.56364">
        <ele>54</ele>
        <time>2020-09-19T10:29:46.000Z</time>
      </trkpt>
      <trkpt lat="47.19283" lon="-1.56386">
        <ele>54</ele>
        <time>2020-09-19T10:29:48.000Z</time>
      </trkpt>
      <trkpt lat="47.19286" lon="-1.5641">
        <ele>54</ele>
        <time>2020-09-19T10:29:50.000Z</time>
      </trkpt>
      <trkpt lat="47.19288" lon="-1.56432">
        <ele>54</ele>
        <time>2020-09-19T10:29:52.000Z</time>
      </trkpt>
      <trkpt lat="47.1929" lon="-1.56455">
        <ele>54</ele>
        <time>2020-09-19T10:29:54.000Z</time>
      </trkpt>
      <trkpt lat="47.19292" lon="-1.56479">
        <ele>55</ele>
        <time>2020-09-19T10:29:56.000Z</time>
      </trkpt>
      <trkpt lat="47.19295" lon="-1.56503">
        <ele>55</ele>
        <time>2020-09-19T10:29:58.000Z</time>
      </trkpt>
      <trkpt lat="47.19297" lon="-1.56526">
        <ele>55</ele>
        <time>2020-09-19T10:30:00.000Z</time>
      </trkpt>
      <trkpt lat="47.19298" lon="-1.5655">
        <ele>55</ele>
        <time>2020-09-19T10:30:02.000Z</time>
      </trkpt>
      <trkpt lat="47.19301" lon="-1.56574">
        <ele>55</ele>
        <time>2020-09-19T10:30:04.000Z</time>
      </trkpt>
      <trkpt lat="47.19303" lon="-1.56597">
        <ele>55</ele>
        <time>2020-09-19T10:30:06.000Z</time>
      </trkpt>
      <trkpt lat="47.19305" lon="-1.5662">
        <ele>55</ele>
        <time>2020-09-19T10:30:08.000Z</time>
      </trkpt>
      <trkpt lat="47.19307" lon="-1.56644">
        <ele>55</ele>
        <time>2020-09-19T10:30:10.000Z</time>
      </trkpt>
      <trkpt lat="47.1931" lon="-1.56668">
        <ele>55</ele>
        <time>2020-09-19T10:30:12.000Z</time>
      </trkpt>
      <trkpt lat="47.19312" lon="-1.56692">
        <ele>55</ele>
        <time>2020-09-19T10:30:14.000Z</time>
      </trkpt>
      <trkpt lat="47.19314" lon="-1.56715">
        <ele>55</ele>
        <time>2020-09-19T10:30:16.000Z</time>
      </trkpt>
      <trkpt lat="47.19316" lon="-1.56738">
        <ele>55</ele>
        <time>2020-09-19T10:30:18.000Z</time>
      </trkpt>
      <trkpt lat="47.19318" lon="-1.56762">
        <ele>55</ele>
        <time>2020-09-19T10:30:20.000Z</time>
      </trkpt>
      <trkpt lat="47.1932" lon="-1.56785">
        <ele>55</ele>
        <time>2020-09-19T10:30:22.000Z</time>
      </trkpt>
      <trkpt lat="47.19322" lon="-1.56807">
        <ele>55</ele>
        <time>2020-09-19T10:30:24.000Z</time>
      </trkpt>
      <trkpt lat="47.19324" lon="-1.56829">
        <ele>55</ele>
        <time>2020-09-19T10:30:26.000Z</time>
      </trkpt>
      <trkpt lat="47.19325" lon="-1.56852">
        <ele>55</ele>
        <time>2020-09-19T10:30:28.000Z</time>
      </trkpt>
      <trkpt lat="47.19326" lon="-1.56874">
        <ele>55</ele>
        <time>2020-09-19T10:30:30.000Z</time>
      </trkpt>
      <trkpt lat="47.19327" lon="-1.56897">
        <ele>55</ele>
        <time>2020-09-19T10:30:32.000Z</time>
      </trkpt>
      <trkpt lat="47.19326" lon="-1.56919">
        <ele>55</ele>
        <time>2020-09-19T10:30:34.000Z</time>
      </trkpt>
      <trkpt lat="47.19325" lon="-1.56941">
        <ele>54</ele>
        <time>2020-09-19T10:30:36.000Z</time>
      </trkpt>
      <trkpt lat="47.19324" lon="-1.56964">
        <ele>54</ele>
        <time>2020-09-19T10:30:38.000Z</time>
      </trkpt>
      <trkpt lat="47.19323" lon="-1.56985">
        <ele>54</ele>
        <time>2020-09-19T10:30:40.000Z</time>
      </trkpt>
      <trkpt lat="47.19321" lon="-1.57004">
        <ele>54</ele>
        <time>2020-09-19T10:30:42.000Z</time>
      </trkpt>
      <trkpt lat="47.1932" lon="-1.57018">
        <ele>54</ele>
        <time>2020-09-19T10:30:44.000Z</time>
      </trkpt>
      <trkpt lat="47.19323" lon="-1.57033">
        <ele>54</ele>
        <time>2020-09-19T10:30:48.000Z</time>
      </trkpt>
      <trkpt lat="47.19332" lon="-1.57042">
        <ele>55</ele>
        <time>2020-09-19T10:30:53.000Z</time>
      </trkpt>
      <trkpt lat="47.19338" lon="-1.5706">
        <ele>55</ele>
        <time>2020-09-19T10:30:56.000Z</time>
      </trkpt>
      <trkpt lat="47.19337" lon="-1.57075">
        <ele>55</ele>
        <time>2020-09-19T10:30:58.000Z</time>
      </trkpt>
      <trkpt lat="47.19326" lon="-1.57084">
        <ele>55</ele>
        <time>2020-09-19T10:31:00.000Z</time>
      </trkpt>
      <trkpt lat="47.19316" lon="-1.57091">
        <ele>55</ele>
        <time>2020-09-19T10:31:02.000Z</time>
      </trkpt>
      <trkpt lat="47.19309" lon="-1.57106">
        <ele>54</ele>
        <time>2020-09-19T10:31:04.000Z</time>
      </trkpt>
      <trkpt lat="47.19308" lon="-1.57125">
        <ele>54</ele>
        <time>2020-09-19T10:31:06.000Z</time>
      </trkpt>
      <trkpt lat="47.19305" lon="-1.57147">
        <ele>53</ele>
        <time>2020-09-19T10:31:08.000Z</time>
      </trkpt>
      <trkpt lat="47.19302" lon="-1.57169">
        <ele>53</ele>
        <time>2020-09-19T10:31:10.000Z</time>
      </trkpt>
      <trkpt lat="47.19299" lon="-1.57192">
        <ele>53</ele>
        <time>2020-09-19T10:31:12.000Z</time>
      </trkpt>
      <trkpt lat="47.19295" lon="-1.57215">
        <ele>54</ele>
        <time>2020-09-19T10:31:14.000Z</time>
      </trkpt>
      <trkpt lat="47.1929" lon="-1.57237">
        <ele>54</ele>
        <time>2020-09-19T10:31:16.000Z</time>
      </trkpt>
      <trkpt lat="47.19284" lon="-1.57259">
        <ele>55</ele>
        <time>2020-09-19T10:31:18.000Z</time>
      </trkpt>
      <trkpt lat="47.19278" lon="-1.57281">
        <ele>55</ele>
        <time>2020-09-19T10:31:20.000Z</time>
      </trkpt>
      <trkpt lat="47.19272" lon="-1.57303">
        <ele>56</ele>
        <time>2020-09-19T10:31:22.000Z</time>
      </trkpt>
      <trkpt lat="47.19266" lon="-1.57324">
        <ele>56</ele>
        <time>2020-09-19T10:31:24.000Z</time>
      </trkpt>
      <trkpt lat="47.19258" lon="-1.57345">
        <ele>56</ele>
        <time>2020-09-19T10:31:26.000Z</time>
      </trkpt>
      <trkpt lat="47.19251" lon="-1.57367">
        <ele>56</ele>
        <time>2020-09-19T10:31:28.000Z</time>
      </trkpt>
      <trkpt lat="47.19244" lon="-1.57389">
        <ele>56</ele>
        <time>2020-09-19T10:31:30.000Z</time>
      </trkpt>
      <trkpt lat="47.19236" lon="-1.57411">
        <ele>56</ele>
        <time>2020-09-19T10:31:32.000Z</time>
      </trkpt>
      <trkpt lat="47.19228" lon="-1.57434">
        <ele>56</ele>
        <time>2020-09-19T10:31:34.000Z</time>
      </trkpt>
      <trkpt lat="47.1922" lon="-1.57456">
        <ele>56</ele>
        <time>2020-09-19T10:31:36.000Z</time>
      </trkpt>
      <trkpt lat="47.19212" lon="-1.57479">
        <ele>56</ele>
        <time>2020-09-19T10:31:38.000Z</time>
      </trkpt>
      <trkpt lat="47.19204" lon="-1.57501">
        <ele>56</ele>
        <time>2020-09-19T10:31:40.000Z</time>
      </trkpt>
      <trkpt lat="47.19196" lon="-1.57523">
        <ele>56</ele>
        <time>2020-09-19T10:31:42.000Z</time>
      </trkpt>
      <trkpt lat="47.19187" lon="-1.57545">
        <ele>56</ele>
        <time>2020-09-19T10:31:44.000Z</time>
      </trkpt>
      <trkpt lat="47.1918" lon="-1.57566">
        <ele>56</ele>
        <time>2020-09-19T10:31:46.000Z</time>
      </trkpt>
      <trkpt lat="47.19172" lon="-1.57588">
        <ele>55</ele>
        <time>2020-09-19T10:31:48.000Z</time>
      </trkpt>
      <trkpt lat="47.19164" lon="-1.57609">
        <ele>55</ele>
        <time>2020-09-19T10:31:50.000Z</time>
      </trkpt>
      <trkpt lat="47.19156" lon="-1.57631">
        <ele>54</ele>
        <time>2020-09-19T10:31:52.000Z</time>
      </trkpt>
      <trkpt lat="47.19148" lon="-1.57653">
        <ele>54</ele>
        <time>2020-09-19T10:31:54.000Z</time>
      </trkpt>
      <trkpt lat="47.1914" lon="-1.57674">
        <ele>54</ele>
        <time>2020-09-19T10:31:56.000Z</time>
      </trkpt>
      <trkpt lat="47.19133" lon="-1.57696">
        <ele>54</ele>
        <time>2020-09-19T10:31:58.000Z</time>
      </trkpt>
      <trkpt lat="47.19125" lon="-1.57718">
        <ele>53</ele>
        <time>2020-09-19T10:32:00.000Z</time>
      </trkpt>
      <trkpt lat="47.19118" lon="-1.57739">
        <ele>53</ele>
        <time>2020-09-19T10:32:02.000Z</time>
      </trkpt>
      <trkpt lat="47.1911" lon="-1.57761">
        <ele>53</ele>
        <time>2020-09-19T10:32:04.000Z</time>
      </trkpt>
      <trkpt lat="47.19102" lon="-1.57783">
        <ele>53</ele>
        <time>2020-09-19T10:32:06.000Z</time>
      </trkpt>
      <trkpt lat="47.19094" lon="-1.57804">
        <ele>53</ele>
        <time>2020-09-19T10:32:08.000Z</time>
      </trkpt>
      <trkpt lat="47.19086" lon="-1.57826">
        <ele>53</ele>
        <time>2020-09-19T10:32:10.000Z</time>
      </trkpt>
      <trkpt lat="47.19079" lon="-1.57847">
        <ele>54</ele>
        <time>2020-09-19T10:32:12.000Z</time>
      </trkpt>
      <trkpt lat="47.19072" lon="-1.57869">
        <ele>54</ele>
        <time>2020-09-19T10:32:14.000Z</time>
      </trkpt>
      <trkpt lat="47.19064" lon="-1.5789">
        <ele>53</ele>
        <time>2020-09-19T10:32:16.000Z</time>
      </trkpt>
      <trkpt lat="47.19057" lon="-1.57912">
        <ele>54</ele>
        <time>2020-09-19T10:32:18.000Z</time>
      </trkpt>
      <trkpt lat="47.19049" lon="-1.57934">
        <ele>54</ele>
        <time>2020-09-19T10:32:20.000Z</time>
      </trkpt>
      <trkpt lat="47.19041" lon="-1.57956">
        <ele>54</ele>
        <time>2020-09-19T10:32:22.000Z</time>
      </trkpt>
      <trkpt lat="47.19034" lon="-1.57978">
        <ele>55</ele>
        <time>2020-09-19T10:32:24.000Z</time>
      </trkpt>
      <trkpt lat="47.19026" lon="-1.57999">
        <ele>54</ele>
        <time>2020-09-19T10:32:26.000Z</time>
      </trkpt>
      <trkpt lat="47.19018" lon="-1.5802">
        <ele>54</ele>
        <time>2020-09-19T10:32:28.000Z</time>
      </trkpt>
      <trkpt lat="47.1901" lon="-1.58041">
        <ele>54</ele>
        <time>2020-09-19T10:32:30.000Z</time>
      </trkpt>
      <trkpt lat="47.19003" lon="-1.58062">
        <ele>54</ele>
        <time>2020-09-19T10:32:32.000Z</time>
      </trkpt>
      <trkpt lat="47.18996" lon="-1.58083">
        <ele>54</ele>
        <time>2020-09-19T10:32:34.000Z</time>
      </trkpt>
      <trkpt lat="47.18989" lon="-1.58105">
        <ele>54</ele>
        <time>2020-09-19T10:32:36.000Z</time>
      </trkpt>
      <trkpt lat="47.18981" lon="-1.58127">
        <ele>54</ele>
        <time>2020-09-19T10:32:38.000Z</time>
      </trkpt>
      <trkpt lat="47.18973" lon="-1.58148">
        <ele>54</ele>
        <time>2020-09-19T10:32:40.000Z</time>
      </trkpt>
      <trkpt lat="47.18966" lon="-1.58169">
        <ele>54</ele>
        <time>2020-09-19T10:32:42.000Z</time>
      </trkpt>
      <trkpt lat="47.18959" lon="-1.58189">
        <ele>54</ele>
        <time>2020-09-19T10:32:44.000Z</time>
      </trkpt>
      <trkpt lat="47.18951" lon="-1.58211">
        <ele>54</ele>
        <time>2020-09-19T10:32:46.000Z</time>
      </trkpt>
      <trkpt lat="47.18943" lon="-1.58233">
        <ele>55</ele>
        <time>2020-09-19T10:32:48.000Z</time>
      </trkpt>
      <trkpt lat="47.18935" lon="-1.58255">
        <ele>55</ele>
        <time>2020-09-19T10:32:50.000Z</time>
      </trkpt>
      <trkpt lat="47.18927" lon="-1.58277">
        <ele>55</ele>
        <time>2020-09-19T10:32:52.000Z</time>
      </trkpt>
      <trkpt lat="47.1892" lon="-1.58299">
        <ele>55</ele>
        <time>2020-09-19T10:32:54.000Z</time>
      </trkpt>
      <trkpt lat="47.18912" lon="-1.58321">
        <ele>55</ele>
        <time>2020-09-19T10:32:56.000Z</time>
      </trkpt>
      <trkpt lat="47.18904" lon="-1.58342">
        <ele>55</ele>
        <time>2020-09-19T10:32:58.000Z</time>
      </trkpt>
      <trkpt lat="47.18897" lon="-1.58364">
        <ele>55</ele>
        <time>2020-09-19T10:33:00.000Z</time>
      </trkpt>
      <trkpt lat="47.18889" lon="-1.58387">
        <ele>54</ele>
        <time>2020-09-19T10:33:02.000Z</time>
      </trkpt>
      <trkpt lat="47.18882" lon="-1.58409">
        <ele>54</ele>
        <time>2020-09-19T10:33:04.000Z</time>
      </trkpt>
      <trkpt lat="47.18875" lon="-1.58431">
        <ele>54</ele>
        <time>2020-09-19T10:33:06.000Z</time>
      </trkpt>
      <trkpt lat="47.18868" lon="-1.58454">
        <ele>54</ele>
        <time>2020-09-19T10:33:08.000Z</time>
      </trkpt>
      <trkpt lat="47.18861" lon="-1.58476">
        <ele>54</ele>
        <time>2020-09-19T10:33:10.000Z</time>
      </trkpt>
      <trkpt lat="47.18855" lon="-1.58499">
        <ele>54</ele>
        <time>2020-09-19T10:33:12.000Z</time>
      </trkpt>
      <trkpt lat="47.18848" lon="-1.58521">
        <ele>55</ele>
        <time>2020-09-19T10:33:14.000Z</time>
      </trkpt>
      <trkpt lat="47.18843" lon="-1.58543">
        <ele>54</ele>
        <time>2020-09-19T10:33:16.000Z</time>
      </trkpt>
      <trkpt lat="47.18837" lon="-1.58565">
        <ele>54</ele>
        <time>2020-09-19T10:33:18.000Z</time>
      </trkpt>
      <trkpt lat="47.18831" lon="-1.58587">
        <ele>54</ele>
        <time>2020-09-19T10:33:20.000Z</time>
      </trkpt>
      <trkpt lat="47.18826" lon="-1.58608">
        <ele>54</ele>
        <time>2020-09-19T10:33:22.000Z</time>
      </trkpt>
      <trkpt lat="47.18822" lon="-1.5863">
        <ele>54</ele>
        <time>2020-09-19T10:33:24.000Z</time>
      </trkpt>
      <trkpt lat="47.18818" lon="-1.5865">
        <ele>54</ele>
        <time>2020-09-19T10:33:26.000Z</time>
      </trkpt>
      <trkpt lat="47.18814" lon="-1.5867">
        <ele>54</ele>
        <time>2020-09-19T10:33:28.000Z</time>
      </trkpt>
      <trkpt lat="47.18813" lon="-1.58686">
        <ele>54</ele>
        <time>2020-09-19T10:33:30.000Z</time>
      </trkpt>
      <trkpt lat="47.18812" lon="-1.58699">
        <ele>54</ele>
        <time>2020-09-19T10:33:32.000Z</time>
      </trkpt>
      <trkpt lat="47.18816" lon="-1.58713">
        <ele>54</ele>
        <time>2020-09-19T10:33:34.000Z</time>
      </trkpt>
      <trkpt lat="47.18824" lon="-1.58728">
        <ele>53</ele>
        <time>2020-09-19T10:33:36.000Z</time>
      </trkpt>
      <trkpt lat="47.18827" lon="-1.58747">
        <ele>53</ele>
        <time>2020-09-19T10:33:38.000Z</time>
      </trkpt>
      <trkpt lat="47.18825" lon="-1.58768">
        <ele>53</ele>
        <time>2020-09-19T10:33:40.000Z</time>
      </trkpt>
      <trkpt lat="47.18818" lon="-1.58785">
        <ele>53</ele>
        <time>2020-09-19T10:33:42.000Z</time>
      </trkpt>
      <trkpt lat="47.18807" lon="-1.58797">
        <ele>53</ele>
        <time>2020-09-19T10:33:44.000Z</time>
      </trkpt>
      <trkpt lat="47.18794" lon="-1.58808">
        <ele>54</ele>
        <time>2020-09-19T10:33:46.000Z</time>
      </trkpt>
      <trkpt lat="47.18787" lon="-1.58825">
        <ele>53</ele>
        <time>2020-09-19T10:33:48.000Z</time>
      </trkpt>
      <trkpt lat="47.18784" lon="-1.58846">
        <ele>53</ele>
        <time>2020-09-19T10:33:50.000Z</time>
      </trkpt>
      <trkpt lat="47.1878" lon="-1.58867">
        <ele>53</ele>
        <time>2020-09-19T10:33:52.000Z</time>
      </trkpt>
      <trkpt lat="47.18775" lon="-1.58889">
        <ele>53</ele>
        <time>2020-09-19T10:33:54.000Z</time>
      </trkpt>
      <trkpt lat="47.18773" lon="-1.58911">
        <ele>52</ele>
        <time>2020-09-19T10:33:56.000Z</time>
      </trkpt>
      <trkpt lat="47.1877" lon="-1.58935">
        <ele>53</ele>
        <time>2020-09-19T10:33:58.000Z</time>
      </trkpt>
      <trkpt lat="47.18767" lon="-1.5896">
        <ele>53</ele>
        <time>2020-09-19T10:34:00.000Z</time>
      </trkpt>
      <trkpt lat="47.18764" lon="-1.58984">
        <ele>53</ele>
        <time>2020-09-19T10:34:02.000Z</time>
      </trkpt>
      <trkpt lat="47.18762" lon="-1.59007">
        <ele>53</ele>
        <time>2020-09-19T10:34:04.000Z</time>
      </trkpt>
      <trkpt lat="47.1876" lon="-1.5903">
        <ele>52</ele>
        <time>2020-09-19T10:34:06.000Z</time>
      </trkpt>
      <trkpt lat="47.18757" lon="-1.59055">
        <ele>53</ele>
        <time>2020-09-19T10:34:08.000Z</time>
      </trkpt>
      <trkpt lat="47.18755" lon="-1.59079">
        <ele>53</ele>
        <time>2020-09-19T10:34:10.000Z</time>
      </trkpt>
      <trkpt lat="47.18752" lon="-1.59104">
        <ele>53</ele>
        <time>2020-09-19T10:34:12.000Z</time>
      </trkpt>
      <trkpt lat="47.18749" lon="-1.59129">
        <ele>53</ele>
        <time>2020-09-19T10:34:14.000Z</time>
      </trkpt>
      <trkpt lat="47.18746" lon="-1.59154">
        <ele>53</ele>
        <time>2020-09-19T10:34:16.000Z</time>
      </trkpt>
      <trkpt lat="47.18744" lon="-1.59178">
        <ele>53</ele>
        <time>2020-09-19T10:34:18.000Z</time>
      </trkpt>
      <trkpt lat="47.18741" lon="-1.59201">
        <ele>53</ele>
        <time>2020-09-19T10:34:20.000Z</time>
      </trkpt>
      <trkpt lat="47.18739" lon="-1.59225">
        <ele>53</ele>
        <time>2020-09-19T10:34:22.000Z</time>
      </trkpt>
      <trkpt lat="47.18736" lon="-1.59249">
        <ele>53</ele>
        <time>2020-09-19T10:34:24.000Z</time>
      </trkpt>
      <trkpt lat="47.18733" lon="-1.59273">
        <ele>53</ele>
        <time>2020-09-19T10:34:26.000Z</time>
      </trkpt>
      <trkpt lat="47.18731" lon="-1.59297">
        <ele>52</ele>
        <time>2020-09-19T10:34:28.000Z</time>
      </trkpt>
      <trkpt lat="47.18728" lon="-1.5932">
        <ele>52</ele>
        <time>2020-09-19T10:34:30.000Z</time>
      </trkpt>
      <trkpt lat="47.18725" lon="-1.59344">
        <ele>52</ele>
        <time>2020-09-19T10:34:32.000Z</time>
      </trkpt>
      <trkpt lat="47.18723" lon="-1.59369">
        <ele>52</ele>
        <time>2020-09-19T10:34:34.000Z</time>
      </trkpt>
      <trkpt lat="47.1872" lon="-1.59393">
        <ele>52</ele>
        <time>2020-09-19T10:34:36.000Z</time>
      </trkpt>
      <trkpt lat="47.18718" lon="-1.59417">
        <ele>53</ele>
        <time>2020-09-19T10:34:38.000Z</time>
      </trkpt>
      <trkpt lat="47.18715" lon="-1.59441">
        <ele>53</ele>
        <time>2020-09-19T10:34:40.000Z</time>
      </trkpt>
      <trkpt lat="47.18712" lon="-1.59464">
        <ele>53</ele>
        <time>2020-09-19T10:34:42.000Z</time>
      </trkpt>
      <trkpt lat="47.1871" lon="-1.59487">
        <ele>53</ele>
        <time>2020-09-19T10:34:44.000Z</time>
      </trkpt>
      <trkpt lat="47.18707" lon="-1.59509">
        <ele>53</ele>
        <time>2020-09-19T10:34:46.000Z</time>
      </trkpt>
      <trkpt lat="47.18705" lon="-1.59532">
        <ele>53</ele>
        <time>2020-09-19T10:34:48.000Z</time>
      </trkpt>
      <trkpt lat="47.18703" lon="-1.59555">
        <ele>53</ele>
        <time>2020-09-19T10:34:50.000Z</time>
      </trkpt>
      <trkpt lat="47.187" lon="-1.59577">
        <ele>52</ele>
        <time>2020-09-19T10:34:52.000Z</time>
      </trkpt>
      <trkpt lat="47.18698" lon="-1.59599">
        <ele>52</ele>
        <time>2020-09-19T10:34:54.000Z</time>
      </trkpt>
      <trkpt lat="47.18695" lon="-1.59621">
        <ele>52</ele>
        <time>2020-09-19T10:34:56.000Z</time>
      </trkpt>
      <trkpt lat="47.18692" lon="-1.59644">
        <ele>53</ele>
        <time>2020-09-19T10:34:58.000Z</time>
      </trkpt>
      <trkpt lat="47.18689" lon="-1.59666">
        <ele>52</ele>
        <time>2020-09-19T10:35:00.000Z</time>
      </trkpt>
      <trkpt lat="47.18686" lon="-1.59687">
        <ele>52</ele>
        <time>2020-09-19T10:35:02.000Z</time>
      </trkpt>
      <trkpt lat="47.18683" lon="-1.59708">
        <ele>52</ele>
        <time>2020-09-19T10:35:04.000Z</time>
      </trkpt>
      <trkpt lat="47.18683" lon="-1.59729">
        <ele>52</ele>
        <time>2020-09-19T10:35:06.000Z</time>
      </trkpt>
      <trkpt lat="47.18683" lon="-1.59746">
        <ele>52</ele>
        <time>2020-09-19T10:35:08.000Z</time>
      </trkpt>
      <trkpt lat="47.18684" lon="-1.59763">
        <ele>52</ele>
        <time>2020-09-19T10:35:10.000Z</time>
      </trkpt>
      <trkpt lat="47.18686" lon="-1.59779">
        <ele>52</ele>
        <time>2020-09-19T10:35:12.000Z</time>
      </trkpt>
      <trkpt lat="47.18685" lon="-1.59797">
        <ele>52</ele>
        <time>2020-09-19T10:35:14.000Z</time>
      </trkpt>
      <trkpt lat="47.18681" lon="-1.59816">
        <ele>52</ele>
        <time>2020-09-19T10:35:16.000Z</time>
      </trkpt>
      <trkpt lat="47.18673" lon="-1.59833">
        <ele>52</ele>
        <time>2020-09-19T10:35:18.000Z</time>
      </trkpt>
      <trkpt lat="47.18662" lon="-1.59842">
        <ele>53</ele>
        <time>2020-09-19T10:35:20.000Z</time>
      </trkpt>
      <trkpt lat="47.18649" lon="-1.59844">
        <ele>52</ele>
        <time>2020-09-19T10:35:22.000Z</time>
      </trkpt>
      <trkpt lat="47.18638" lon="-1.59838">
        <ele>52</ele>
        <time>2020-09-19T10:35:24.000Z</time>
      </trkpt>
      <trkpt lat="47.18629" lon="-1.59832">
        <ele>52</ele>
        <time>2020-09-19T10:35:26.000Z</time>
      </trkpt>
      <trkpt lat="47.18619" lon="-1.59831">
        <ele>52</ele>
        <time>2020-09-19T10:35:29.000Z</time>
      </trkpt>
      <trkpt lat="47.18618" lon="-1.59847">
        <ele>52</ele>
        <time>2020-09-19T10:35:33.000Z</time>
      </trkpt>
      <trkpt lat="47.18622" lon="-1.59863">
        <ele>52</ele>
        <time>2020-09-19T10:35:35.000Z</time>
      </trkpt>
      <trkpt lat="47.18621" lon="-1.59879">
        <ele>52</ele>
        <time>2020-09-19T10:35:37.000Z</time>
      </trkpt>
      <trkpt lat="47.18615" lon="-1.59898">
        <ele>52</ele>
        <time>2020-09-19T10:35:39.000Z</time>
      </trkpt>
      <trkpt lat="47.1861" lon="-1.59917">
        <ele>52</ele>
        <time>2020-09-19T10:35:41.000Z</time>
      </trkpt>
      <trkpt lat="47.18605" lon="-1.59936">
        <ele>52</ele>
        <time>2020-09-19T10:35:43.000Z</time>
      </trkpt>
      <trkpt lat="47.18599" lon="-1.59956">
        <ele>52</ele>
        <time>2020-09-19T10:35:45.000Z</time>
      </trkpt>
      <trkpt lat="47.18593" lon="-1.59974">
        <ele>52</ele>
        <time>2020-09-19T10:35:47.000Z</time>
      </trkpt>
      <trkpt lat="47.18587" lon="-1.59993">
        <ele>52</ele>
        <time>2020-09-19T10:35:49.000Z</time>
      </trkpt>
      <trkpt lat="47.18581" lon="-1.60012">
        <ele>51</ele>
        <time>2020-09-19T10:35:51.000Z</time>
      </trkpt>
      <trkpt lat="47.18575" lon="-1.60031">
        <ele>52</ele>
        <time>2020-09-19T10:35:53.000Z</time>
      </trkpt>
      <trkpt lat="47.18568" lon="-1.60051">
        <ele>52</ele>
        <time>2020-09-19T10:35:55.000Z</time>
      </trkpt>
      <trkpt lat="47.18561" lon="-1.6007">
        <ele>52</ele>
        <time>2020-09-19T10:35:57.000Z</time>
      </trkpt>
      <trkpt lat="47.18553" lon="-1.60089">
        <ele>52</ele>
        <time>2020-09-19T10:35:59.000Z</time>
      </trkpt>
      <trkpt lat="47.18546" lon="-1.60106">
        <ele>53</ele>
        <time>2020-09-19T10:36:01.000Z</time>
      </trkpt>
      <trkpt lat="47.18538" lon="-1.60124">
        <ele>53</ele>
        <time>2020-09-19T10:36:03.000Z</time>
      </trkpt>
      <trkpt lat="47.18531" lon="-1.60142">
        <ele>53</ele>
        <time>2020-09-19T10:36:05.000Z</time>
      </trkpt>
      <trkpt lat="47.18523" lon="-1.6016">
        <ele>53</ele>
        <time>2020-09-19T10:36:07.000Z</time>
      </trkpt>
      <trkpt lat="47.18514" lon="-1.60178">
        <ele>54</ele>
        <time>2020-09-19T10:36:09.000Z</time>
      </trkpt>
      <trkpt lat="47.18506" lon="-1.60195">
        <ele>54</ele>
        <time>2020-09-19T10:36:11.000Z</time>
      </trkpt>
      <trkpt lat="47.18498" lon="-1.60212">
        <ele>54</ele>
        <time>2020-09-19T10:36:13.000Z</time>
      </trkpt>
      <trkpt lat="47.18489" lon="-1.60228">
        <ele>53</ele>
        <time>2020-09-19T10:36:15.000Z</time>
      </trkpt>
      <trkpt lat="47.1848" lon="-1.60244">
        <ele>53</ele>
        <time>2020-09-19T10:36:17.000Z</time>
      </trkpt>
      <trkpt lat="47.18471" lon="-1.6026">
        <ele>53</ele>
        <time>2020-09-19T10:36:19.000Z</time>
      </trkpt>
      <trkpt lat="47.18462" lon="-1.60277">
        <ele>53</ele>
        <time>2020-09-19T10:36:21.000Z</time>
      </trkpt>
      <trkpt lat="47.18453" lon="-1.60293">
        <ele>53</ele>
        <time>2020-09-19T10:36:23.000Z</time>
      </trkpt>
      <trkpt lat="47.18443" lon="-1.60309">
        <ele>53</ele>
        <time>2020-09-19T10:36:25.000Z</time>
      </trkpt>
      <trkpt lat="47.18434" lon="-1.60324">
        <ele>53</ele>
        <time>2020-09-19T10:36:27.000Z</time>
      </trkpt>
      <trkpt lat="47.18424" lon="-1.6034">
        <ele>53</ele>
        <time>2020-09-19T10:36:29.000Z</time>
      </trkpt>
      <trkpt lat="47.18414" lon="-1.60354">
        <ele>53</ele>
        <time>2020-09-19T10:36:31.000Z</time>
      </trkpt>
      <trkpt lat="47.18404" lon="-1.60368">
        <ele>53</ele>
        <time>2020-09-19T10:36:33.000Z</time>
      </trkpt>
      <trkpt lat="47.18393" lon="-1.60382">
        <ele>53</ele>
        <time>2020-09-19T10:36:35.000Z</time>
      </trkpt>
      <trkpt lat="47.18383" lon="-1.60396">
        <ele>53</ele>
        <time>2020-09-19T10:36:37.000Z</time>
      </trkpt>
      <trkpt lat="47.18372" lon="-1.6041">
        <ele>53</ele>
        <time>2020-09-19T10:36:39.000Z</time>
      </trkpt>
      <trkpt lat="47.18362" lon="-1.60424">
        <ele>53</ele>
        <time>2020-09-19T10:36:41.000Z</time>
      </trkpt>
      <trkpt lat="47.18351" lon="-1.60438">
        <ele>53</ele>
        <time>2020-09-19T10:36:43.000Z</time>
      </trkpt>
      <trkpt lat="47.1834" lon="-1.60452">
        <ele>53</ele>
        <time>2020-09-19T10:36:45.000Z</time>
      </trkpt>
      <trkpt lat="47.18329" lon="-1.60465">
        <ele>53</ele>
        <time>2020-09-19T10:36:47.000Z</time>
      </trkpt>
      <trkpt lat="47.18318" lon="-1.60477">
        <ele>53</ele>
        <time>2020-09-19T10:36:49.000Z</time>
      </trkpt>
      <trkpt lat="47.18307" lon="-1.60489">
        <ele>53</ele>
        <time>2020-09-19T10:36:51.000Z</time>
      </trkpt>
      <trkpt lat="47.18297" lon="-1.605">
        <ele>53</ele>
        <time>2020-09-19T10:36:53.000Z</time>
      </trkpt>
      <trkpt lat="47.18286" lon="-1.60511">
        <ele>53</ele>
        <time>2020-09-19T10:36:55.000Z</time>
      </trkpt>
      <trkpt lat="47.18276" lon="-1.60522">
        <ele>53</ele>
        <time>2020-09-19T10:36:57.000Z</time>
      </trkpt>
      <trkpt lat="47.18266" lon="-1.60531">
        <ele>52</ele>
        <time>2020-09-19T10:36:59.000Z</time>
      </trkpt>
      <trkpt lat="47.18256" lon="-1.6054">
        <ele>52</ele>
        <time>2020-09-19T10:37:01.000Z</time>
      </trkpt>
      <trkpt lat="47.18246" lon="-1.60547">
        <ele>53</ele>
        <time>2020-09-19T10:37:03.000Z</time>
      </trkpt>
      <trkpt lat="47.18237" lon="-1.60554">
        <ele>53</ele>
        <time>2020-09-19T10:37:05.000Z</time>
      </trkpt>
      <trkpt lat="47.18228" lon="-1.6056">
        <ele>53</ele>
        <time>2020-09-19T10:37:07.000Z</time>
      </trkpt>
      <trkpt lat="47.18219" lon="-1.60565">
        <ele>53</ele>
        <time>2020-09-19T10:37:09.000Z</time>
      </trkpt>
      <trkpt lat="47.18206" lon="-1.6057">
        <ele>52</ele>
        <time>2020-09-19T10:37:12.000Z</time>
      </trkpt>
      <trkpt lat="47.18194" lon="-1.60575">
        <ele>52</ele>
        <time>2020-09-19T10:37:15.000Z</time>
      </trkpt>
      <trkpt lat="47.18188" lon="-1.60589">
        <ele>52</ele>
        <time>2020-09-19T10:37:19.000Z</time>
      </trkpt>
      <trkpt lat="47.18181" lon="-1.60599">
        <ele>52</ele>
        <time>2020-09-19T10:37:22.000Z</time>
      </trkpt>
      <trkpt lat="47.18167" lon="-1.60602">
        <ele>52</ele>
        <time>2020-09-19T10:37:25.000Z</time>
      </trkpt>
      <trkpt lat="47.18158" lon="-1.60603">
        <ele>52</ele>
        <time>2020-09-19T10:37:27.000Z</time>
      </trkpt>
      <trkpt lat="47.18147" lon="-1.60602">
        <ele>52</ele>
        <time>2020-09-19T10:37:29.000Z</time>
      </trkpt>
      <trkpt lat="47.18136" lon="-1.60599">
        <ele>52</ele>
        <time>2020-09-19T10:37:31.000Z</time>
      </trkpt>
      <trkpt lat="47.18124" lon="-1.60596">
        <ele>52</ele>
        <time>2020-09-19T10:37:33.000Z</time>
      </trkpt>
      <trkpt lat="47.1811" lon="-1.60594">
        <ele>52</ele>
        <time>2020-09-19T10:37:35.000Z</time>
      </trkpt>
      <trkpt lat="47.18095" lon="-1.60589">
        <ele>52</ele>
        <time>2020-09-19T10:37:37.000Z</time>
      </trkpt>
      <trkpt lat="47.1808" lon="-1.60582">
        <ele>52</ele>
        <time>2020-09-19T10:37:39.000Z</time>
      </trkpt>
      <trkpt lat="47.18066" lon="-1.60573">
        <ele>52</ele>
        <time>2020-09-19T10:37:41.000Z</time>
      </trkpt>
      <trkpt lat="47.18052" lon="-1.60564">
        <ele>52</ele>
        <time>2020-09-19T10:37:43.000Z</time>
      </trkpt>
      <trkpt lat="47.18038" lon="-1.60556">
        <ele>51</ele>
        <time>2020-09-19T10:37:45.000Z</time>
      </trkpt>
      <trkpt lat="47.18024" lon="-1.60551">
        <ele>50</ele>
        <time>2020-09-19T10:37:47.000Z</time>
      </trkpt>
      <trkpt lat="47.18008" lon="-1.60552">
        <ele>50</ele>
        <time>2020-09-19T10:37:49.000Z</time>
      </trkpt>
      <trkpt lat="47.17994" lon="-1.60556">
        <ele>50</ele>
        <time>2020-09-19T10:37:51.000Z</time>
      </trkpt>
      <trkpt lat="47.1798" lon="-1.60562">
        <ele>50</ele>
        <time>2020-09-19T10:37:53.000Z</time>
      </trkpt>
      <trkpt lat="47.17967" lon="-1.60568">
        <ele>50</ele>
        <time>2020-09-19T10:37:55.000Z</time>
      </trkpt>
      <trkpt lat="47.17952" lon="-1.60575">
        <ele>51</ele>
        <time>2020-09-19T10:37:57.000Z</time>
      </trkpt>
      <trkpt lat="47.1794" lon="-1.6058">
        <ele>51</ele>
        <time>2020-09-19T10:37:59.000Z</time>
      </trkpt>
      <trkpt lat="47.17928" lon="-1.60585">
        <ele>51</ele>
        <time>2020-09-19T10:38:01.000Z</time>
      </trkpt>
      <trkpt lat="47.17915" lon="-1.60586">
        <ele>51</ele>
        <time>2020-09-19T10:38:04.000Z</time>
      </trkpt>
      <trkpt lat="47.17906" lon="-1.60592">
        <ele>50</ele>
        <time>2020-09-19T10:38:06.000Z</time>
      </trkpt>
      <trkpt lat="47.179" lon="-1.60608">
        <ele>48</ele>
        <time>2020-09-19T10:38:08.000Z</time>
      </trkpt>
      <trkpt lat="47.17896" lon="-1.60627">
        <ele>48</ele>
        <time>2020-09-19T10:38:10.000Z</time>
      </trkpt>
      <trkpt lat="47.1789" lon="-1.60648">
        <ele>48</ele>
        <time>2020-09-19T10:38:12.000Z</time>
      </trkpt>
      <trkpt lat="47.17882" lon="-1.60669">
        <ele>49</ele>
        <time>2020-09-19T10:38:14.000Z</time>
      </trkpt>
      <trkpt lat="47.17876" lon="-1.6069">
        <ele>49</ele>
        <time>2020-09-19T10:38:16.000Z</time>
      </trkpt>
      <trkpt lat="47.17871" lon="-1.60712">
        <ele>49</ele>
        <time>2020-09-19T10:38:18.000Z</time>
      </trkpt>
      <trkpt lat="47.17866" lon="-1.60734">
        <ele>49</ele>
        <time>2020-09-19T10:38:20.000Z</time>
      </trkpt>
      <trkpt lat="47.17861" lon="-1.60756">
        <ele>49</ele>
        <time>2020-09-19T10:38:22.000Z</time>
      </trkpt>
      <trkpt lat="47.17856" lon="-1.60778">
        <ele>49</ele>
        <time>2020-09-19T10:38:24.000Z</time>
      </trkpt>
      <trkpt lat="47.17851" lon="-1.608">
        <ele>49</ele>
        <time>2020-09-19T10:38:26.000Z</time>
      </trkpt>
      <trkpt lat="47.17846" lon="-1.60822">
        <ele>49</ele>
        <time>2020-09-19T10:38:28.000Z</time>
      </trkpt>
      <trkpt lat="47.1784" lon="-1.60843">
        <ele>50</ele>
        <time>2020-09-19T10:38:30.000Z</time>
      </trkpt>
      <trkpt lat="47.17831" lon="-1.60861">
        <ele>51</ele>
        <time>2020-09-19T10:38:32.000Z</time>
      </trkpt>
      <trkpt lat="47.1782" lon="-1.60877">
        <ele>51</ele>
        <time>2020-09-19T10:38:34.000Z</time>
      </trkpt>
      <trkpt lat="47.17809" lon="-1.60891">
        <ele>51</ele>
        <time>2020-09-19T10:38:36.000Z</time>
      </trkpt>
      <trkpt lat="47.17795" lon="-1.60902">
        <ele>51</ele>
        <time>2020-09-19T10:38:38.000Z</time>
      </trkpt>
      <trkpt lat="47.1778" lon="-1.60913">
        <ele>51</ele>
        <time>2020-09-19T10:38:40.000Z</time>
      </trkpt>
      <trkpt lat="47.17766" lon="-1.60924">
        <ele>51</ele>
        <time>2020-09-19T10:38:42.000Z</time>
      </trkpt>
      <trkpt lat="47.17754" lon="-1.60934">
        <ele>51</ele>
        <time>2020-09-19T10:38:44.000Z</time>
      </trkpt>
      <trkpt lat="47.17741" lon="-1.60944">
        <ele>50</ele>
        <time>2020-09-19T10:38:46.000Z</time>
      </trkpt>
      <trkpt lat="47.17728" lon="-1.60955">
        <ele>50</ele>
        <time>2020-09-19T10:38:48.000Z</time>
      </trkpt>
      <trkpt lat="47.17714" lon="-1.60964">
        <ele>49</ele>
        <time>2020-09-19T10:38:50.000Z</time>
      </trkpt>
      <trkpt lat="47.17699" lon="-1.60972">
        <ele>49</ele>
        <time>2020-09-19T10:38:52.000Z</time>
      </trkpt>
      <trkpt lat="47.17685" lon="-1.60975">
        <ele>48</ele>
        <time>2020-09-19T10:38:54.000Z</time>
      </trkpt>
      <trkpt lat="47.17669" lon="-1.60974">
        <ele>48</ele>
        <time>2020-09-19T10:38:56.000Z</time>
      </trkpt>
      <trkpt lat="47.17653" lon="-1.60979">
        <ele>49</ele>
        <time>2020-09-19T10:38:58.000Z</time>
      </trkpt>
      <trkpt lat="47.17639" lon="-1.60991">
        <ele>49</ele>
        <time>2020-09-19T10:39:00.000Z</time>
      </trkpt>
      <trkpt lat="47.17626" lon="-1.61003">
        <ele>49</ele>
        <time>2020-09-19T10:39:02.000Z</time>
      </trkpt>
      <trkpt lat="47.17612" lon="-1.61014">
        <ele>49</ele>
        <time>2020-09-19T10:39:04.000Z</time>
      </trkpt>
      <trkpt lat="47.17599" lon="-1.61025">
        <ele>49</ele>
        <time>2020-09-19T10:39:06.000Z</time>
      </trkpt>
      <trkpt lat="47.17586" lon="-1.61036">
        <ele>49</ele>
        <time>2020-09-19T10:39:08.000Z</time>
      </trkpt>
      <trkpt lat="47.17573" lon="-1.61047">
        <ele>49</ele>
        <time>2020-09-19T10:39:10.000Z</time>
      </trkpt>
      <trkpt lat="47.1756" lon="-1.61058">
        <ele>49</ele>
        <time>2020-09-19T10:39:12.000Z</time>
      </trkpt>
      <trkpt lat="47.17546" lon="-1.6107">
        <ele>50</ele>
        <time>2020-09-19T10:39:14.000Z</time>
      </trkpt>
      <trkpt lat="47.17533" lon="-1.61081">
        <ele>51</ele>
        <time>2020-09-19T10:39:16.000Z</time>
      </trkpt>
      <trkpt lat="47.17521" lon="-1.61093">
        <ele>51</ele>
        <time>2020-09-19T10:39:18.000Z</time>
      </trkpt>
      <trkpt lat="47.17508" lon="-1.61101">
        <ele>52</ele>
        <time>2020-09-19T10:39:20.000Z</time>
      </trkpt>
      <trkpt lat="47.17495" lon="-1.61105">
        <ele>52</ele>
        <time>2020-09-19T10:39:22.000Z</time>
      </trkpt>
      <trkpt lat="47.17481" lon="-1.61104">
        <ele>53</ele>
        <time>2020-09-19T10:39:24.000Z</time>
      </trkpt>
      <trkpt lat="47.17468" lon="-1.61097">
        <ele>53</ele>
        <time>2020-09-19T10:39:26.000Z</time>
      </trkpt>
      <trkpt lat="47.17457" lon="-1.61086">
        <ele>53</ele>
        <time>2020-09-19T10:39:28.000Z</time>
      </trkpt>
      <trkpt lat="47.17447" lon="-1.61074">
        <ele>53</ele>
        <time>2020-09-19T10:39:30.000Z</time>
      </trkpt>
      <trkpt lat="47.1744" lon="-1.61059">
        <ele>53</ele>
        <time>2020-09-19T10:39:32.000Z</time>
      </trkpt>
      <trkpt lat="47.17435" lon="-1.61044">
        <ele>52</ele>
        <time>2020-09-19T10:39:34.000Z</time>
      </trkpt>
      <trkpt lat="47.1743" lon="-1.6103">
        <ele>52</ele>
        <time>2020-09-19T10:39:36.000Z</time>
      </trkpt>
      <trkpt lat="47.17424" lon="-1.6102">
        <ele>51</ele>
        <time>2020-09-19T10:39:39.000Z</time>
      </trkpt>
      <trkpt lat="47.1742" lon="-1.61034">
        <ele>51</ele>
        <time>2020-09-19T10:39:43.000Z</time>
      </trkpt>
      <trkpt lat="47.17424" lon="-1.61047">
        <ele>52</ele>
        <time>2020-09-19T10:39:45.000Z</time>
      </trkpt>
      <trkpt lat="47.17429" lon="-1.61061">
        <ele>52</ele>
        <time>2020-09-19T10:39:47.000Z</time>
      </trkpt>
      <trkpt lat="47.17435" lon="-1.61075">
        <ele>53</ele>
        <time>2020-09-19T10:39:49.000Z</time>
      </trkpt>
      <trkpt lat="47.17441" lon="-1.61091">
        <ele>53</ele>
        <time>2020-09-19T10:39:51.000Z</time>
      </trkpt>
      <trkpt lat="47.17448" lon="-1.61107">
        <ele>54</ele>
        <time>2020-09-19T10:39:53.000Z</time>
      </trkpt>
      <trkpt lat="47.17454" lon="-1.61123">
        <ele>54</ele>
        <time>2020-09-19T10:39:55.000Z</time>
      </trkpt>
      <trkpt lat="47.1746" lon="-1.61139">
        <ele>55</ele>
        <time>2020-09-19T10:39:57.000Z</time>
      </trkpt>
      <trkpt lat="47.1747" lon="-1.61163">
        <ele>55</ele>
        <time>2020-09-19T10:40:00.000Z</time>
      </trkpt>
      <trkpt lat="47.17477" lon="-1.61178">
        <ele>55</ele>
        <time>2020-09-19T10:40:02.000Z</time>
      </trkpt>
      <trkpt lat="47.17487" lon="-1.61203">
        <ele>56</ele>
        <time>2020-09-19T10:40:05.000Z</time>
      </trkpt>
      <trkpt lat="47.17493" lon="-1.6122">
        <ele>56</ele>
        <time>2020-09-19T10:40:07.000Z</time>
      </trkpt>
      <trkpt lat="47.175" lon="-1.61236">
        <ele>56</ele>
        <time>2020-09-19T10:40:09.000Z</time>
      </trkpt>
      <trkpt lat="47.17508" lon="-1.6125">
        <ele>56</ele>
        <time>2020-09-19T10:40:11.000Z</time>
      </trkpt>
      <trkpt lat="47.17516" lon="-1.61264">
        <ele>56</ele>
        <time>2020-09-19T10:40:13.000Z</time>
      </trkpt>
      <trkpt lat="47.17525" lon="-1.61277">
        <ele>56</ele>
        <time>2020-09-19T10:40:15.000Z</time>
      </trkpt>
      <trkpt lat="47.17535" lon="-1.61285">
        <ele>57</ele>
        <time>2020-09-19T10:40:17.000Z</time>
      </trkpt>
      <trkpt lat="47.17547" lon="-1.6129">
        <ele>57</ele>
        <time>2020-09-19T10:40:19.000Z</time>
      </trkpt>
      <trkpt lat="47.17556" lon="-1.61301">
        <ele>57</ele>
        <time>2020-09-19T10:40:21.000Z</time>
      </trkpt>
      <trkpt lat="47.17562" lon="-1.61317">
        <ele>58</ele>
        <time>2020-09-19T10:40:23.000Z</time>
      </trkpt>
      <trkpt lat="47.17561" lon="-1.61334">
        <ele>58</ele>
        <time>2020-09-19T10:40:25.000Z</time>
      </trkpt>
      <trkpt lat="47.17554" lon="-1.61349">
        <ele>57</ele>
        <time>2020-09-19T10:40:27.000Z</time>
      </trkpt>
      <trkpt lat="47.17542" lon="-1.61357">
        <ele>58</ele>
        <time>2020-09-19T10:40:29.000Z</time>
      </trkpt>
      <trkpt lat="47.17532" lon="-1.61368">
        <ele>58</ele>
        <time>2020-09-19T10:40:31.000Z</time>
      </trkpt>
      <trkpt lat="47.17526" lon="-1.61387">
        <ele>59</ele>
        <time>2020-09-19T10:40:33.000Z</time>
      </trkpt>
      <trkpt lat="47.17521" lon="-1.61404">
        <ele>59</ele>
        <time>2020-09-19T10:40:35.000Z</time>
      </trkpt>
      <trkpt lat="47.17517" lon="-1.61422">
        <ele>59</ele>
        <time>2020-09-19T10:40:37.000Z</time>
      </trkpt>
      <trkpt lat="47.17514" lon="-1.61439">
        <ele>60</ele>
        <time>2020-09-19T10:40:39.000Z</time>
      </trkpt>
      <trkpt lat="47.17508" lon="-1.61454">
        <ele>61</ele>
        <time>2020-09-19T10:40:41.000Z</time>
      </trkpt>
      <trkpt lat="47.17491" lon="-1.61465">
        <ele>61</ele>
        <time>2020-09-19T10:40:44.000Z</time>
      </trkpt>
      <trkpt lat="47.17472" lon="-1.61472">
        <ele>62</ele>
        <time>2020-09-19T10:40:47.000Z</time>
      </trkpt>
      <trkpt lat="47.17459" lon="-1.61478">
        <ele>63</ele>
        <time>2020-09-19T10:40:49.000Z</time>
      </trkpt>
      <trkpt lat="47.17447" lon="-1.61484">
        <ele>63</ele>
        <time>2020-09-19T10:40:51.000Z</time>
      </trkpt>
      <trkpt lat="47.17434" lon="-1.61491">
        <ele>63</ele>
        <time>2020-09-19T10:40:53.000Z</time>
      </trkpt>
      <trkpt lat="47.17423" lon="-1.61499">
        <ele>63</ele>
        <time>2020-09-19T10:40:55.000Z</time>
      </trkpt>
      <trkpt lat="47.17411" lon="-1.61507">
        <ele>64</ele>
        <time>2020-09-19T10:40:57.000Z</time>
      </trkpt>
      <trkpt lat="47.174" lon="-1.61516">
        <ele>64</ele>
        <time>2020-09-19T10:40:59.000Z</time>
      </trkpt>
      <trkpt lat="47.17389" lon="-1.61525">
        <ele>65</ele>
        <time>2020-09-19T10:41:01.000Z</time>
      </trkpt>
      <trkpt lat="47.17378" lon="-1.61535">
        <ele>66</ele>
        <time>2020-09-19T10:41:03.000Z</time>
      </trkpt>
      <trkpt lat="47.17368" lon="-1.61545">
        <ele>67</ele>
        <time>2020-09-19T10:41:05.000Z</time>
      </trkpt>
      <trkpt lat="47.17358" lon="-1.61557">
        <ele>67</ele>
        <time>2020-09-19T10:41:07.000Z</time>
      </trkpt>
      <trkpt lat="47.17348" lon="-1.61569">
        <ele>68</ele>
        <time>2020-09-19T10:41:09.000Z</time>
      </trkpt>
      <trkpt lat="47.17334" lon="-1.61586">
        <ele>68</ele>
        <time>2020-09-19T10:41:12.000Z</time>
      </trkpt>
      <trkpt lat="47.17325" lon="-1.61597">
        <ele>69</ele>
        <time>2020-09-19T10:41:14.000Z</time>
      </trkpt>
      <trkpt lat="47.17316" lon="-1.6161">
        <ele>70</ele>
        <time>2020-09-19T10:41:16.000Z</time>
      </trkpt>
      <trkpt lat="47.17308" lon="-1.61624">
        <ele>70</ele>
        <time>2020-09-19T10:41:18.000Z</time>
      </trkpt>
      <trkpt lat="47.17299" lon="-1.61638">
        <ele>70</ele>
        <time>2020-09-19T10:41:20.000Z</time>
      </trkpt>
      <trkpt lat="47.17287" lon="-1.61661">
        <ele>71</ele>
        <time>2020-09-19T10:41:23.000Z</time>
      </trkpt>
      <trkpt lat="47.17278" lon="-1.61676">
        <ele>70</ele>
        <time>2020-09-19T10:41:25.000Z</time>
      </trkpt>
      <trkpt lat="47.17271" lon="-1.61692">
        <ele>70</ele>
        <time>2020-09-19T10:41:27.000Z</time>
      </trkpt>
      <trkpt lat="47.17263" lon="-1.61708">
        <ele>70</ele>
        <time>2020-09-19T10:41:29.000Z</time>
      </trkpt>
      <trkpt lat="47.17255" lon="-1.61724">
        <ele>70</ele>
        <time>2020-09-19T10:41:31.000Z</time>
      </trkpt>
      <trkpt lat="47.17249" lon="-1.6174">
        <ele>70</ele>
        <time>2020-09-19T10:41:33.000Z</time>
      </trkpt>
      <trkpt lat="47.17245" lon="-1.61758">
        <ele>70</ele>
        <time>2020-09-19T10:41:35.000Z</time>
      </trkpt>
      <trkpt lat="47.17236" lon="-1.61783">
        <ele>69</ele>
        <time>2020-09-19T10:41:38.000Z</time>
      </trkpt>
      <trkpt lat="47.17224" lon="-1.61792">
        <ele>69</ele>
        <time>2020-09-19T10:41:40.000Z</time>
      </trkpt>
      <trkpt lat="47.17206" lon="-1.61807">
        <ele>69</ele>
        <time>2020-09-19T10:41:43.000Z</time>
      </trkpt>
      <trkpt lat="47.17194" lon="-1.61817">
        <ele>70</ele>
        <time>2020-09-19T10:41:45.000Z</time>
      </trkpt>
      <trkpt lat="47.17183" lon="-1.61827">
        <ele>70</ele>
        <time>2020-09-19T10:41:47.000Z</time>
      </trkpt>
      <trkpt lat="47.17167" lon="-1.61843">
        <ele>69</ele>
        <time>2020-09-19T10:41:50.000Z</time>
      </trkpt>
      <trkpt lat="47.17156" lon="-1.61853">
        <ele>69</ele>
        <time>2020-09-19T10:41:52.000Z</time>
      </trkpt>
      <trkpt lat="47.17145" lon="-1.61864">
        <ele>68</ele>
        <time>2020-09-19T10:41:54.000Z</time>
      </trkpt>
      <trkpt lat="47.17135" lon="-1.61874">
        <ele>68</ele>
        <time>2020-09-19T10:41:56.000Z</time>
      </trkpt>
      <trkpt lat="47.17124" lon="-1.61883">
        <ele>67</ele>
        <time>2020-09-19T10:41:58.000Z</time>
      </trkpt>
      <trkpt lat="47.17114" lon="-1.61893">
        <ele>67</ele>
        <time>2020-09-19T10:42:00.000Z</time>
      </trkpt>
      <trkpt lat="47.17104" lon="-1.61904">
        <ele>67</ele>
        <time>2020-09-19T10:42:02.000Z</time>
      </trkpt>
      <trkpt lat="47.17094" lon="-1.61913">
        <ele>67</ele>
        <time>2020-09-19T10:42:04.000Z</time>
      </trkpt>
      <trkpt lat="47.17084" lon="-1.61923">
        <ele>67</ele>
        <time>2020-09-19T10:42:06.000Z</time>
      </trkpt>
      <trkpt lat="47.17075" lon="-1.61932">
        <ele>67</ele>
        <time>2020-09-19T10:42:08.000Z</time>
      </trkpt>
      <trkpt lat="47.17066" lon="-1.61942">
        <ele>67</ele>
        <time>2020-09-19T10:42:10.000Z</time>
      </trkpt>
      <trkpt lat="47.17057" lon="-1.61953">
        <ele>66</ele>
        <time>2020-09-19T10:42:12.000Z</time>
      </trkpt>
      <trkpt lat="47.17043" lon="-1.61972">
        <ele>67</ele>
        <time>2020-09-19T10:42:15.000Z</time>
      </trkpt>
      <trkpt lat="47.17024" lon="-1.61999">
        <ele>66</ele>
        <time>2020-09-19T10:42:19.000Z</time>
      </trkpt>
      <trkpt lat="47.17014" lon="-1.62015">
        <ele>66</ele>
        <time>2020-09-19T10:42:21.000Z</time>
      </trkpt>
      <trkpt lat="47.17005" lon="-1.62029">
        <ele>67</ele>
        <time>2020-09-19T10:42:23.000Z</time>
      </trkpt>
      <trkpt lat="47.16997" lon="-1.62045">
        <ele>66</ele>
        <time>2020-09-19T10:42:25.000Z</time>
      </trkpt>
      <trkpt lat="47.16988" lon="-1.62062">
        <ele>66</ele>
        <time>2020-09-19T10:42:27.000Z</time>
      </trkpt>
      <trkpt lat="47.16978" lon="-1.62078">
        <ele>67</ele>
        <time>2020-09-19T10:42:29.000Z</time>
      </trkpt>
      <trkpt lat="47.16969" lon="-1.62094">
        <ele>67</ele>
        <time>2020-09-19T10:42:31.000Z</time>
      </trkpt>
      <trkpt lat="47.1696" lon="-1.62111">
        <ele>66</ele>
        <time>2020-09-19T10:42:33.000Z</time>
      </trkpt>
      <trkpt lat="47.1695" lon="-1.62128">
        <ele>67</ele>
        <time>2020-09-19T10:42:35.000Z</time>
      </trkpt>
      <trkpt lat="47.16941" lon="-1.62146">
        <ele>67</ele>
        <time>2020-09-19T10:42:37.000Z</time>
      </trkpt>
      <trkpt lat="47.16933" lon="-1.62164">
        <ele>67</ele>
        <time>2020-09-19T10:42:39.000Z</time>
      </trkpt>
      <trkpt lat="47.16925" lon="-1.62182">
        <ele>67</ele>
        <time>2020-09-19T10:42:41.000Z</time>
      </trkpt>
      <trkpt lat="47.16915" lon="-1.622">
        <ele>67</ele>
        <time>2020-09-19T10:42:43.000Z</time>
      </trkpt>
      <trkpt lat="47.16905" lon="-1.62216">
        <ele>67</ele>
        <time>2020-09-19T10:42:45.000Z</time>
      </trkpt>
      <trkpt lat="47.16894" lon="-1.6223">
        <ele>68</ele>
        <time>2020-09-19T10:42:47.000Z</time>
      </trkpt>
      <trkpt lat="47.16883" lon="-1.62244">
        <ele>68</ele>
        <time>2020-09-19T10:42:49.000Z</time>
      </trkpt>
      <trkpt lat="47.16872" lon="-1.62256">
        <ele>68</ele>
        <time>2020-09-19T10:42:51.000Z</time>
      </trkpt>
      <trkpt lat="47.16861" lon="-1.6227">
        <ele>68</ele>
        <time>2020-09-19T10:42:53.000Z</time>
      </trkpt>
      <trkpt lat="47.1685" lon="-1.62283">
        <ele>68</ele>
        <time>2020-09-19T10:42:55.000Z</time>
      </trkpt>
      <trkpt lat="47.16839" lon="-1.62297">
        <ele>69</ele>
        <time>2020-09-19T10:42:57.000Z</time>
      </trkpt>
      <trkpt lat="47.16827" lon="-1.62309">
        <ele>69</ele>
        <time>2020-09-19T10:42:59.000Z</time>
      </trkpt>
      <trkpt lat="47.16816" lon="-1.62319">
        <ele>70</ele>
        <time>2020-09-19T10:43:01.000Z</time>
      </trkpt>
      <trkpt lat="47.16796" lon="-1.62331">
        <ele>69</ele>
        <time>2020-09-19T10:43:04.000Z</time>
      </trkpt>
      <trkpt lat="47.16783" lon="-1.62337">
        <ele>68</ele>
        <time>2020-09-19T10:43:06.000Z</time>
      </trkpt>
      <trkpt lat="47.16769" lon="-1.62345">
        <ele>67</ele>
        <time>2020-09-19T10:43:08.000Z</time>
      </trkpt>
      <trkpt lat="47.16757" lon="-1.62354">
        <ele>67</ele>
        <time>2020-09-19T10:43:10.000Z</time>
      </trkpt>
      <trkpt lat="47.16741" lon="-1.62372">
        <ele>66</ele>
        <time>2020-09-19T10:43:13.000Z</time>
      </trkpt>
      <trkpt lat="47.16733" lon="-1.62389">
        <ele>66</ele>
        <time>2020-09-19T10:43:15.000Z</time>
      </trkpt>
      <trkpt lat="47.1673" lon="-1.62406">
        <ele>66</ele>
        <time>2020-09-19T10:43:17.000Z</time>
      </trkpt>
      <trkpt lat="47.16727" lon="-1.62424">
        <ele>65</ele>
        <time>2020-09-19T10:43:20.000Z</time>
      </trkpt>
      <trkpt lat="47.16725" lon="-1.62438">
        <ele>65</ele>
        <time>2020-09-19T10:43:22.000Z</time>
      </trkpt>
      <trkpt lat="47.16722" lon="-1.62453">
        <ele>65</ele>
        <time>2020-09-19T10:43:24.000Z</time>
      </trkpt>
      <trkpt lat="47.16717" lon="-1.62468">
        <ele>65</ele>
        <time>2020-09-19T10:43:26.000Z</time>
      </trkpt>
      <trkpt lat="47.16715" lon="-1.62481">
        <ele>64</ele>
        <time>2020-09-19T10:43:28.000Z</time>
      </trkpt>
      <trkpt lat="47.16725" lon="-1.62497">
        <ele>66</ele>
        <time>2020-09-19T10:43:31.000Z</time>
      </trkpt>
      <trkpt lat="47.16737" lon="-1.62501">
        <ele>65</ele>
        <time>2020-09-19T10:43:33.000Z</time>
      </trkpt>
      <trkpt lat="47.16757" lon="-1.62511">
        <ele>66</ele>
        <time>2020-09-19T10:43:36.000Z</time>
      </trkpt>
      <trkpt lat="47.16769" lon="-1.62519">
        <ele>67</ele>
        <time>2020-09-19T10:43:38.000Z</time>
      </trkpt>
      <trkpt lat="47.16781" lon="-1.62526">
        <ele>67</ele>
        <time>2020-09-19T10:43:40.000Z</time>
      </trkpt>
      <trkpt lat="47.16792" lon="-1.62533">
        <ele>66</ele>
        <time>2020-09-19T10:43:42.000Z</time>
      </trkpt>
      <trkpt lat="47.1681" lon="-1.62544">
        <ele>63</ele>
        <time>2020-09-19T10:43:46.000Z</time>
      </trkpt>
      <trkpt lat="47.16819" lon="-1.62553">
        <ele>64</ele>
        <time>2020-09-19T10:43:48.000Z</time>
      </trkpt>
      <trkpt lat="47.16828" lon="-1.62566">
        <ele>64</ele>
        <time>2020-09-19T10:43:50.000Z</time>
      </trkpt>
      <trkpt lat="47.16829" lon="-1.62584">
        <ele>64</ele>
        <time>2020-09-19T10:43:52.000Z</time>
      </trkpt>
      <trkpt lat="47.16823" lon="-1.62597">
        <ele>65</ele>
        <time>2020-09-19T10:43:54.000Z</time>
      </trkpt>
      <trkpt lat="47.16816" lon="-1.62609">
        <ele>67</ele>
        <time>2020-09-19T10:43:56.000Z</time>
      </trkpt>
      <trkpt lat="47.16805" lon="-1.62628">
        <ele>68</ele>
        <time>2020-09-19T10:43:59.000Z</time>
      </trkpt>
      <trkpt lat="47.16799" lon="-1.62639">
        <ele>69</ele>
        <time>2020-09-19T10:44:01.000Z</time>
      </trkpt>
      <trkpt lat="47.16793" lon="-1.6265">
        <ele>69</ele>
        <time>2020-09-19T10:44:03.000Z</time>
      </trkpt>
      <trkpt lat="47.16785" lon="-1.62662">
        <ele>69</ele>
        <time>2020-09-19T10:44:06.000Z</time>
      </trkpt>
      <trkpt lat="47.16775" lon="-1.62658">
        <ele>68</ele>
        <time>2020-09-19T10:44:10.000Z</time>
      </trkpt>
    </trkseg>
  </trk>
</gpx>